<?xml version="1.0" encoding="UTF-8" standalone="no" ?>
<gpx xmlns="http://www.topografix.com/GPX/1/1" xmlns:xsi="http://www.w3.org/2001/XMLSchema-instance" xsi:schemaLocation="http://www.topografix.com/GPX/1/1 http://www.topografix.com/GPX/1/1/gpx.xsd" version="1.1" creator="VisuGPX - https://www.visugpx.com">
  <metadata>
    <name>M.N. Enuès route de Niolon</name>
    <desc><![CDATA[Seulement 8 présents, très belle marche. ]]></desc>
  </metadata>
  <trk>
    <name><![CDATA[M.N. Enuès route de Niolon_1]]></name>
    <trkseg>
      <trkpt lat="43.35744" lon="5.23022">
        <ele>222</ele>
        <time>2016-03-10T12:55:24Z</time>
      </trkpt>
      <trkpt lat="43.35723" lon="5.22998">
        <ele>225</ele>
        <time>2016-03-10T12:56:04Z</time>
      </trkpt>
      <trkpt lat="43.35722" lon="5.22997">
        <ele>225</ele>
        <time>2016-03-10T12:56:06Z</time>
      </trkpt>
      <trkpt lat="43.3572" lon="5.22997">
        <ele>225</ele>
        <time>2016-03-10T12:56:08Z</time>
      </trkpt>
      <trkpt lat="43.3572" lon="5.22998">
        <ele>225</ele>
        <time>2016-03-10T12:56:12Z</time>
      </trkpt>
      <trkpt lat="43.3572" lon="5.23">
        <ele>225</ele>
        <time>2016-03-10T12:56:14Z</time>
      </trkpt>
      <trkpt lat="43.35721" lon="5.23002">
        <ele>224</ele>
        <time>2016-03-10T12:56:33Z</time>
      </trkpt>
      <trkpt lat="43.35721" lon="5.23003">
        <ele>223</ele>
        <time>2016-03-10T12:57:11Z</time>
      </trkpt>
      <trkpt lat="43.3572" lon="5.23003">
        <ele>223</ele>
        <time>2016-03-10T12:58:46Z</time>
      </trkpt>
      <trkpt lat="43.35719" lon="5.23002">
        <ele>223</ele>
        <time>2016-03-10T12:59:23Z</time>
      </trkpt>
      <trkpt lat="43.35721" lon="5.23001">
        <ele>223</ele>
        <time>2016-03-10T12:59:48Z</time>
      </trkpt>
      <trkpt lat="43.35722" lon="5.23">
        <ele>223</ele>
        <time>2016-03-10T12:59:50Z</time>
      </trkpt>
      <trkpt lat="43.35721" lon="5.22999">
        <ele>223</ele>
        <time>2016-03-10T12:59:56Z</time>
      </trkpt>
      <trkpt lat="43.3572" lon="5.22998">
        <ele>223</ele>
        <time>2016-03-10T12:59:57Z</time>
      </trkpt>
      <trkpt lat="43.35719" lon="5.22996">
        <ele>223</ele>
        <time>2016-03-10T13:00:01Z</time>
      </trkpt>
      <trkpt lat="43.3572" lon="5.22995">
        <ele>222</ele>
        <time>2016-03-10T13:00:06Z</time>
      </trkpt>
      <trkpt lat="43.35721" lon="5.22996">
        <ele>222</ele>
        <time>2016-03-10T13:00:08Z</time>
      </trkpt>
      <trkpt lat="43.35722" lon="5.22996">
        <ele>221</ele>
        <time>2016-03-10T13:00:10Z</time>
      </trkpt>
      <trkpt lat="43.35722" lon="5.22997">
        <ele>221</ele>
        <time>2016-03-10T13:00:14Z</time>
      </trkpt>
      <trkpt lat="43.35722" lon="5.22999">
        <ele>221</ele>
        <time>2016-03-10T13:00:20Z</time>
      </trkpt>
      <trkpt lat="43.35721" lon="5.23">
        <ele>221</ele>
        <time>2016-03-10T13:00:29Z</time>
      </trkpt>
      <trkpt lat="43.3572" lon="5.22999">
        <ele>221</ele>
        <time>2016-03-10T13:00:43Z</time>
      </trkpt>
      <trkpt lat="43.35719" lon="5.22997">
        <ele>221</ele>
        <time>2016-03-10T13:00:45Z</time>
      </trkpt>
      <trkpt lat="43.35719" lon="5.22995">
        <ele>221</ele>
        <time>2016-03-10T13:00:48Z</time>
      </trkpt>
      <trkpt lat="43.35718" lon="5.22993">
        <ele>221</ele>
        <time>2016-03-10T13:00:50Z</time>
      </trkpt>
      <trkpt lat="43.35717" lon="5.22992">
        <ele>221</ele>
        <time>2016-03-10T13:00:53Z</time>
      </trkpt>
      <trkpt lat="43.35714" lon="5.22991">
        <ele>221</ele>
        <time>2016-03-10T13:00:55Z</time>
      </trkpt>
      <trkpt lat="43.35713" lon="5.2299">
        <ele>221</ele>
        <time>2016-03-10T13:00:57Z</time>
      </trkpt>
      <trkpt lat="43.35712" lon="5.22988">
        <ele>221</ele>
        <time>2016-03-10T13:00:59Z</time>
      </trkpt>
      <trkpt lat="43.35711" lon="5.22987">
        <ele>221</ele>
        <time>2016-03-10T13:01:00Z</time>
      </trkpt>
      <trkpt lat="43.35711" lon="5.22984">
        <ele>221</ele>
        <time>2016-03-10T13:01:02Z</time>
      </trkpt>
      <trkpt lat="43.3571" lon="5.22982">
        <ele>221</ele>
        <time>2016-03-10T13:01:04Z</time>
      </trkpt>
      <trkpt lat="43.3571" lon="5.2298">
        <ele>221</ele>
        <time>2016-03-10T13:01:05Z</time>
      </trkpt>
      <trkpt lat="43.3571" lon="5.22979">
        <ele>221</ele>
        <time>2016-03-10T13:01:06Z</time>
      </trkpt>
      <trkpt lat="43.35709" lon="5.22977">
        <ele>221</ele>
        <time>2016-03-10T13:01:07Z</time>
      </trkpt>
      <trkpt lat="43.35708" lon="5.22974">
        <ele>221</ele>
        <time>2016-03-10T13:01:09Z</time>
      </trkpt>
      <trkpt lat="43.35707" lon="5.22972">
        <ele>221</ele>
        <time>2016-03-10T13:01:11Z</time>
      </trkpt>
      <trkpt lat="43.35705" lon="5.2297">
        <ele>221</ele>
        <time>2016-03-10T13:01:13Z</time>
      </trkpt>
      <trkpt lat="43.35703" lon="5.22968">
        <ele>221</ele>
        <time>2016-03-10T13:01:15Z</time>
      </trkpt>
      <trkpt lat="43.35701" lon="5.22966">
        <ele>221</ele>
        <time>2016-03-10T13:01:17Z</time>
      </trkpt>
      <trkpt lat="43.35699" lon="5.22964">
        <ele>221</ele>
        <time>2016-03-10T13:01:19Z</time>
      </trkpt>
      <trkpt lat="43.35697" lon="5.22962">
        <ele>221</ele>
        <time>2016-03-10T13:01:21Z</time>
      </trkpt>
      <trkpt lat="43.35696" lon="5.22961">
        <ele>221</ele>
        <time>2016-03-10T13:01:23Z</time>
      </trkpt>
      <trkpt lat="43.35694" lon="5.22959">
        <ele>221</ele>
        <time>2016-03-10T13:01:25Z</time>
      </trkpt>
      <trkpt lat="43.35692" lon="5.22956">
        <ele>221</ele>
        <time>2016-03-10T13:01:27Z</time>
      </trkpt>
      <trkpt lat="43.35691" lon="5.22955">
        <ele>221</ele>
        <time>2016-03-10T13:01:28Z</time>
      </trkpt>
      <trkpt lat="43.3569" lon="5.22953">
        <ele>221</ele>
        <time>2016-03-10T13:01:30Z</time>
      </trkpt>
      <trkpt lat="43.35689" lon="5.2295">
        <ele>221</ele>
        <time>2016-03-10T13:01:32Z</time>
      </trkpt>
      <trkpt lat="43.35689" lon="5.22948">
        <ele>221</ele>
        <time>2016-03-10T13:01:33Z</time>
      </trkpt>
      <trkpt lat="43.35689" lon="5.22947">
        <ele>221</ele>
        <time>2016-03-10T13:01:34Z</time>
      </trkpt>
      <trkpt lat="43.35688" lon="5.22945">
        <ele>221</ele>
        <time>2016-03-10T13:01:35Z</time>
      </trkpt>
      <trkpt lat="43.35688" lon="5.22943">
        <ele>221</ele>
        <time>2016-03-10T13:01:36Z</time>
      </trkpt>
      <trkpt lat="43.35688" lon="5.22942">
        <ele>221</ele>
        <time>2016-03-10T13:01:37Z</time>
      </trkpt>
      <trkpt lat="43.35688" lon="5.2294">
        <ele>221</ele>
        <time>2016-03-10T13:01:38Z</time>
      </trkpt>
      <trkpt lat="43.35688" lon="5.22939">
        <ele>221</ele>
        <time>2016-03-10T13:01:39Z</time>
      </trkpt>
      <trkpt lat="43.35688" lon="5.22937">
        <ele>221</ele>
        <time>2016-03-10T13:01:40Z</time>
      </trkpt>
      <trkpt lat="43.35688" lon="5.22935">
        <ele>221</ele>
        <time>2016-03-10T13:01:41Z</time>
      </trkpt>
      <trkpt lat="43.35687" lon="5.22933">
        <ele>221</ele>
        <time>2016-03-10T13:01:42Z</time>
      </trkpt>
      <trkpt lat="43.35687" lon="5.22932">
        <ele>221</ele>
        <time>2016-03-10T13:01:43Z</time>
      </trkpt>
      <trkpt lat="43.35687" lon="5.2293">
        <ele>221</ele>
        <time>2016-03-10T13:01:44Z</time>
      </trkpt>
      <trkpt lat="43.35686" lon="5.22929">
        <ele>221</ele>
        <time>2016-03-10T13:01:45Z</time>
      </trkpt>
      <trkpt lat="43.35686" lon="5.22927">
        <ele>221</ele>
        <time>2016-03-10T13:01:46Z</time>
      </trkpt>
      <trkpt lat="43.35686" lon="5.22925">
        <ele>221</ele>
        <time>2016-03-10T13:01:47Z</time>
      </trkpt>
      <trkpt lat="43.35686" lon="5.22923">
        <ele>221</ele>
        <time>2016-03-10T13:01:48Z</time>
      </trkpt>
      <trkpt lat="43.35685" lon="5.22921">
        <ele>221</ele>
        <time>2016-03-10T13:01:49Z</time>
      </trkpt>
      <trkpt lat="43.35685" lon="5.2292">
        <ele>221</ele>
        <time>2016-03-10T13:01:50Z</time>
      </trkpt>
      <trkpt lat="43.35685" lon="5.22918">
        <ele>221</ele>
        <time>2016-03-10T13:01:51Z</time>
      </trkpt>
      <trkpt lat="43.35685" lon="5.22917">
        <ele>221</ele>
        <time>2016-03-10T13:01:52Z</time>
      </trkpt>
      <trkpt lat="43.35684" lon="5.22915">
        <ele>221</ele>
        <time>2016-03-10T13:01:53Z</time>
      </trkpt>
      <trkpt lat="43.35683" lon="5.22913">
        <ele>221</ele>
        <time>2016-03-10T13:01:54Z</time>
      </trkpt>
      <trkpt lat="43.35683" lon="5.22911">
        <ele>221</ele>
        <time>2016-03-10T13:01:55Z</time>
      </trkpt>
      <trkpt lat="43.35683" lon="5.22909">
        <ele>221</ele>
        <time>2016-03-10T13:01:56Z</time>
      </trkpt>
      <trkpt lat="43.35682" lon="5.22907">
        <ele>221</ele>
        <time>2016-03-10T13:01:57Z</time>
      </trkpt>
      <trkpt lat="43.35682" lon="5.22905">
        <ele>221</ele>
        <time>2016-03-10T13:01:58Z</time>
      </trkpt>
      <trkpt lat="43.35682" lon="5.22903">
        <ele>221</ele>
        <time>2016-03-10T13:01:59Z</time>
      </trkpt>
      <trkpt lat="43.35681" lon="5.22902">
        <ele>221</ele>
        <time>2016-03-10T13:02:00Z</time>
      </trkpt>
      <trkpt lat="43.35681" lon="5.229">
        <ele>221</ele>
        <time>2016-03-10T13:02:01Z</time>
      </trkpt>
      <trkpt lat="43.35681" lon="5.22898">
        <ele>221</ele>
        <time>2016-03-10T13:02:02Z</time>
      </trkpt>
      <trkpt lat="43.35681" lon="5.22897">
        <ele>221</ele>
        <time>2016-03-10T13:02:03Z</time>
      </trkpt>
      <trkpt lat="43.3568" lon="5.22895">
        <ele>221</ele>
        <time>2016-03-10T13:02:04Z</time>
      </trkpt>
      <trkpt lat="43.3568" lon="5.22893">
        <ele>221</ele>
        <time>2016-03-10T13:02:05Z</time>
      </trkpt>
      <trkpt lat="43.35679" lon="5.22892">
        <ele>221</ele>
        <time>2016-03-10T13:02:06Z</time>
      </trkpt>
      <trkpt lat="43.35679" lon="5.2289">
        <ele>221</ele>
        <time>2016-03-10T13:02:07Z</time>
      </trkpt>
      <trkpt lat="43.35678" lon="5.22888">
        <ele>221</ele>
        <time>2016-03-10T13:02:08Z</time>
      </trkpt>
      <trkpt lat="43.35678" lon="5.22886">
        <ele>221</ele>
        <time>2016-03-10T13:02:09Z</time>
      </trkpt>
      <trkpt lat="43.35677" lon="5.22884">
        <ele>221</ele>
        <time>2016-03-10T13:02:10Z</time>
      </trkpt>
      <trkpt lat="43.35677" lon="5.22882">
        <ele>221</ele>
        <time>2016-03-10T13:02:11Z</time>
      </trkpt>
      <trkpt lat="43.35677" lon="5.22881">
        <ele>221</ele>
        <time>2016-03-10T13:02:12Z</time>
      </trkpt>
      <trkpt lat="43.35677" lon="5.22879">
        <ele>221</ele>
        <time>2016-03-10T13:02:13Z</time>
      </trkpt>
      <trkpt lat="43.35677" lon="5.22877">
        <ele>221</ele>
        <time>2016-03-10T13:02:14Z</time>
      </trkpt>
      <trkpt lat="43.35676" lon="5.22875">
        <ele>221</ele>
        <time>2016-03-10T13:02:15Z</time>
      </trkpt>
      <trkpt lat="43.35676" lon="5.22873">
        <ele>221</ele>
        <time>2016-03-10T13:02:16Z</time>
      </trkpt>
      <trkpt lat="43.35676" lon="5.22871">
        <ele>220</ele>
        <time>2016-03-10T13:02:17Z</time>
      </trkpt>
      <trkpt lat="43.35676" lon="5.2287">
        <ele>220</ele>
        <time>2016-03-10T13:02:18Z</time>
      </trkpt>
      <trkpt lat="43.35675" lon="5.22868">
        <ele>220</ele>
        <time>2016-03-10T13:02:19Z</time>
      </trkpt>
      <trkpt lat="43.35675" lon="5.22866">
        <ele>220</ele>
        <time>2016-03-10T13:02:20Z</time>
      </trkpt>
      <trkpt lat="43.35675" lon="5.22865">
        <ele>220</ele>
        <time>2016-03-10T13:02:21Z</time>
      </trkpt>
      <trkpt lat="43.35675" lon="5.22863">
        <ele>220</ele>
        <time>2016-03-10T13:02:22Z</time>
      </trkpt>
      <trkpt lat="43.35675" lon="5.22861">
        <ele>219</ele>
        <time>2016-03-10T13:02:23Z</time>
      </trkpt>
      <trkpt lat="43.35674" lon="5.22859">
        <ele>219</ele>
        <time>2016-03-10T13:02:24Z</time>
      </trkpt>
      <trkpt lat="43.35674" lon="5.22857">
        <ele>219</ele>
        <time>2016-03-10T13:02:25Z</time>
      </trkpt>
      <trkpt lat="43.35674" lon="5.22855">
        <ele>219</ele>
        <time>2016-03-10T13:02:26Z</time>
      </trkpt>
      <trkpt lat="43.35674" lon="5.22854">
        <ele>219</ele>
        <time>2016-03-10T13:02:27Z</time>
      </trkpt>
      <trkpt lat="43.35674" lon="5.22852">
        <ele>219</ele>
        <time>2016-03-10T13:02:28Z</time>
      </trkpt>
      <trkpt lat="43.35673" lon="5.2285">
        <ele>218</ele>
        <time>2016-03-10T13:02:29Z</time>
      </trkpt>
      <trkpt lat="43.35673" lon="5.22849">
        <ele>218</ele>
        <time>2016-03-10T13:02:30Z</time>
      </trkpt>
      <trkpt lat="43.35672" lon="5.22847">
        <ele>218</ele>
        <time>2016-03-10T13:02:31Z</time>
      </trkpt>
      <trkpt lat="43.35672" lon="5.22845">
        <ele>218</ele>
        <time>2016-03-10T13:02:32Z</time>
      </trkpt>
      <trkpt lat="43.35672" lon="5.22843">
        <ele>217</ele>
        <time>2016-03-10T13:02:33Z</time>
      </trkpt>
      <trkpt lat="43.35671" lon="5.22841">
        <ele>217</ele>
        <time>2016-03-10T13:02:34Z</time>
      </trkpt>
      <trkpt lat="43.35671" lon="5.2284">
        <ele>217</ele>
        <time>2016-03-10T13:02:35Z</time>
      </trkpt>
      <trkpt lat="43.3567" lon="5.22838">
        <ele>217</ele>
        <time>2016-03-10T13:02:36Z</time>
      </trkpt>
      <trkpt lat="43.3567" lon="5.22836">
        <ele>217</ele>
        <time>2016-03-10T13:02:37Z</time>
      </trkpt>
      <trkpt lat="43.3567" lon="5.22834">
        <ele>217</ele>
        <time>2016-03-10T13:02:38Z</time>
      </trkpt>
      <trkpt lat="43.35669" lon="5.22832">
        <ele>217</ele>
        <time>2016-03-10T13:02:39Z</time>
      </trkpt>
      <trkpt lat="43.35669" lon="5.22831">
        <ele>217</ele>
        <time>2016-03-10T13:02:40Z</time>
      </trkpt>
      <trkpt lat="43.35669" lon="5.22829">
        <ele>217</ele>
        <time>2016-03-10T13:02:41Z</time>
      </trkpt>
      <trkpt lat="43.35669" lon="5.22827">
        <ele>217</ele>
        <time>2016-03-10T13:02:42Z</time>
      </trkpt>
      <trkpt lat="43.35668" lon="5.22825">
        <ele>217</ele>
        <time>2016-03-10T13:02:43Z</time>
      </trkpt>
      <trkpt lat="43.35667" lon="5.22823">
        <ele>217</ele>
        <time>2016-03-10T13:02:44Z</time>
      </trkpt>
      <trkpt lat="43.35667" lon="5.22822">
        <ele>217</ele>
        <time>2016-03-10T13:02:45Z</time>
      </trkpt>
      <trkpt lat="43.35666" lon="5.2282">
        <ele>217</ele>
        <time>2016-03-10T13:02:46Z</time>
      </trkpt>
      <trkpt lat="43.35665" lon="5.22818">
        <ele>217</ele>
        <time>2016-03-10T13:02:47Z</time>
      </trkpt>
      <trkpt lat="43.35664" lon="5.22817">
        <ele>217</ele>
        <time>2016-03-10T13:02:48Z</time>
      </trkpt>
      <trkpt lat="43.35663" lon="5.22815">
        <ele>217</ele>
        <time>2016-03-10T13:02:49Z</time>
      </trkpt>
      <trkpt lat="43.35662" lon="5.22814">
        <ele>217</ele>
        <time>2016-03-10T13:02:50Z</time>
      </trkpt>
      <trkpt lat="43.3566" lon="5.22811">
        <ele>217</ele>
        <time>2016-03-10T13:02:52Z</time>
      </trkpt>
      <trkpt lat="43.35659" lon="5.2281">
        <ele>217</ele>
        <time>2016-03-10T13:02:53Z</time>
      </trkpt>
      <trkpt lat="43.35657" lon="5.22808">
        <ele>217</ele>
        <time>2016-03-10T13:02:55Z</time>
      </trkpt>
      <trkpt lat="43.35655" lon="5.22807">
        <ele>217</ele>
        <time>2016-03-10T13:02:57Z</time>
      </trkpt>
      <trkpt lat="43.35654" lon="5.22806">
        <ele>217</ele>
        <time>2016-03-10T13:02:58Z</time>
      </trkpt>
      <trkpt lat="43.35653" lon="5.22805">
        <ele>217</ele>
        <time>2016-03-10T13:02:59Z</time>
      </trkpt>
      <trkpt lat="43.35651" lon="5.22804">
        <ele>217</ele>
        <time>2016-03-10T13:03:00Z</time>
      </trkpt>
      <trkpt lat="43.3565" lon="5.22803">
        <ele>216</ele>
        <time>2016-03-10T13:03:01Z</time>
      </trkpt>
      <trkpt lat="43.35648" lon="5.22801">
        <ele>216</ele>
        <time>2016-03-10T13:03:03Z</time>
      </trkpt>
      <trkpt lat="43.35647" lon="5.228">
        <ele>216</ele>
        <time>2016-03-10T13:03:04Z</time>
      </trkpt>
      <trkpt lat="43.35646" lon="5.22799">
        <ele>216</ele>
        <time>2016-03-10T13:03:05Z</time>
      </trkpt>
      <trkpt lat="43.35644" lon="5.22798">
        <ele>216</ele>
        <time>2016-03-10T13:03:06Z</time>
      </trkpt>
      <trkpt lat="43.35643" lon="5.22798">
        <ele>216</ele>
        <time>2016-03-10T13:03:07Z</time>
      </trkpt>
      <trkpt lat="43.35642" lon="5.22797">
        <ele>216</ele>
        <time>2016-03-10T13:03:08Z</time>
      </trkpt>
      <trkpt lat="43.35641" lon="5.22796">
        <ele>216</ele>
        <time>2016-03-10T13:03:09Z</time>
      </trkpt>
      <trkpt lat="43.3564" lon="5.22795">
        <ele>216</ele>
        <time>2016-03-10T13:03:10Z</time>
      </trkpt>
      <trkpt lat="43.35638" lon="5.22794">
        <ele>216</ele>
        <time>2016-03-10T13:03:11Z</time>
      </trkpt>
      <trkpt lat="43.35637" lon="5.22793">
        <ele>216</ele>
        <time>2016-03-10T13:03:12Z</time>
      </trkpt>
      <trkpt lat="43.35636" lon="5.22792">
        <ele>216</ele>
        <time>2016-03-10T13:03:13Z</time>
      </trkpt>
      <trkpt lat="43.35635" lon="5.22791">
        <ele>216</ele>
        <time>2016-03-10T13:03:14Z</time>
      </trkpt>
      <trkpt lat="43.35634" lon="5.2279">
        <ele>216</ele>
        <time>2016-03-10T13:03:15Z</time>
      </trkpt>
      <trkpt lat="43.35633" lon="5.22789">
        <ele>216</ele>
        <time>2016-03-10T13:03:16Z</time>
      </trkpt>
      <trkpt lat="43.35632" lon="5.22788">
        <ele>216</ele>
        <time>2016-03-10T13:03:17Z</time>
      </trkpt>
      <trkpt lat="43.3563" lon="5.22787">
        <ele>216</ele>
        <time>2016-03-10T13:03:18Z</time>
      </trkpt>
      <trkpt lat="43.35629" lon="5.22786">
        <ele>216</ele>
        <time>2016-03-10T13:03:19Z</time>
      </trkpt>
      <trkpt lat="43.35628" lon="5.22785">
        <ele>216</ele>
        <time>2016-03-10T13:03:20Z</time>
      </trkpt>
      <trkpt lat="43.35626" lon="5.22783">
        <ele>215</ele>
        <time>2016-03-10T13:03:22Z</time>
      </trkpt>
      <trkpt lat="43.35624" lon="5.22781">
        <ele>215</ele>
        <time>2016-03-10T13:03:24Z</time>
      </trkpt>
      <trkpt lat="43.35623" lon="5.2278">
        <ele>215</ele>
        <time>2016-03-10T13:03:25Z</time>
      </trkpt>
      <trkpt lat="43.35622" lon="5.22779">
        <ele>215</ele>
        <time>2016-03-10T13:03:26Z</time>
      </trkpt>
      <trkpt lat="43.3562" lon="5.22777">
        <ele>215</ele>
        <time>2016-03-10T13:03:27Z</time>
      </trkpt>
      <trkpt lat="43.35619" lon="5.22776">
        <ele>215</ele>
        <time>2016-03-10T13:03:28Z</time>
      </trkpt>
      <trkpt lat="43.35617" lon="5.22774">
        <ele>215</ele>
        <time>2016-03-10T13:03:30Z</time>
      </trkpt>
      <trkpt lat="43.35616" lon="5.22773">
        <ele>214</ele>
        <time>2016-03-10T13:03:31Z</time>
      </trkpt>
      <trkpt lat="43.35614" lon="5.22771">
        <ele>214</ele>
        <time>2016-03-10T13:03:32Z</time>
      </trkpt>
      <trkpt lat="43.35613" lon="5.2277">
        <ele>214</ele>
        <time>2016-03-10T13:03:33Z</time>
      </trkpt>
      <trkpt lat="43.35612" lon="5.22769">
        <ele>214</ele>
        <time>2016-03-10T13:03:34Z</time>
      </trkpt>
      <trkpt lat="43.35611" lon="5.22768">
        <ele>214</ele>
        <time>2016-03-10T13:03:35Z</time>
      </trkpt>
      <trkpt lat="43.3561" lon="5.22767">
        <ele>214</ele>
        <time>2016-03-10T13:03:36Z</time>
      </trkpt>
      <trkpt lat="43.35609" lon="5.22766">
        <ele>214</ele>
        <time>2016-03-10T13:03:37Z</time>
      </trkpt>
      <trkpt lat="43.35607" lon="5.22765">
        <ele>214</ele>
        <time>2016-03-10T13:03:38Z</time>
      </trkpt>
      <trkpt lat="43.35606" lon="5.22764">
        <ele>214</ele>
        <time>2016-03-10T13:03:39Z</time>
      </trkpt>
      <trkpt lat="43.35605" lon="5.22763">
        <ele>214</ele>
        <time>2016-03-10T13:03:40Z</time>
      </trkpt>
      <trkpt lat="43.35604" lon="5.22762">
        <ele>214</ele>
        <time>2016-03-10T13:03:41Z</time>
      </trkpt>
      <trkpt lat="43.35603" lon="5.22761">
        <ele>214</ele>
        <time>2016-03-10T13:03:42Z</time>
      </trkpt>
      <trkpt lat="43.35601" lon="5.2276">
        <ele>214</ele>
        <time>2016-03-10T13:03:43Z</time>
      </trkpt>
      <trkpt lat="43.356" lon="5.22759">
        <ele>214</ele>
        <time>2016-03-10T13:03:44Z</time>
      </trkpt>
      <trkpt lat="43.35599" lon="5.22759">
        <ele>214</ele>
        <time>2016-03-10T13:03:45Z</time>
      </trkpt>
      <trkpt lat="43.35598" lon="5.22758">
        <ele>214</ele>
        <time>2016-03-10T13:03:46Z</time>
      </trkpt>
      <trkpt lat="43.35596" lon="5.22757">
        <ele>214</ele>
        <time>2016-03-10T13:03:47Z</time>
      </trkpt>
      <trkpt lat="43.35595" lon="5.22757">
        <ele>214</ele>
        <time>2016-03-10T13:03:48Z</time>
      </trkpt>
      <trkpt lat="43.35593" lon="5.22756">
        <ele>214</ele>
        <time>2016-03-10T13:03:49Z</time>
      </trkpt>
      <trkpt lat="43.35592" lon="5.22755">
        <ele>214</ele>
        <time>2016-03-10T13:03:50Z</time>
      </trkpt>
      <trkpt lat="43.35591" lon="5.22754">
        <ele>214</ele>
        <time>2016-03-10T13:03:51Z</time>
      </trkpt>
      <trkpt lat="43.3559" lon="5.22754">
        <ele>214</ele>
        <time>2016-03-10T13:03:52Z</time>
      </trkpt>
      <trkpt lat="43.35588" lon="5.22753">
        <ele>214</ele>
        <time>2016-03-10T13:03:53Z</time>
      </trkpt>
      <trkpt lat="43.35587" lon="5.22752">
        <ele>214</ele>
        <time>2016-03-10T13:03:54Z</time>
      </trkpt>
      <trkpt lat="43.35586" lon="5.22752">
        <ele>214</ele>
        <time>2016-03-10T13:03:55Z</time>
      </trkpt>
      <trkpt lat="43.35584" lon="5.22751">
        <ele>214</ele>
        <time>2016-03-10T13:03:56Z</time>
      </trkpt>
      <trkpt lat="43.35583" lon="5.2275">
        <ele>214</ele>
        <time>2016-03-10T13:03:57Z</time>
      </trkpt>
      <trkpt lat="43.35582" lon="5.2275">
        <ele>214</ele>
        <time>2016-03-10T13:03:58Z</time>
      </trkpt>
      <trkpt lat="43.3558" lon="5.22749">
        <ele>214</ele>
        <time>2016-03-10T13:03:59Z</time>
      </trkpt>
      <trkpt lat="43.35579" lon="5.22749">
        <ele>214</ele>
        <time>2016-03-10T13:04:00Z</time>
      </trkpt>
      <trkpt lat="43.35578" lon="5.22748">
        <ele>214</ele>
        <time>2016-03-10T13:04:01Z</time>
      </trkpt>
      <trkpt lat="43.35576" lon="5.22748">
        <ele>214</ele>
        <time>2016-03-10T13:04:02Z</time>
      </trkpt>
      <trkpt lat="43.35575" lon="5.22747">
        <ele>214</ele>
        <time>2016-03-10T13:04:03Z</time>
      </trkpt>
      <trkpt lat="43.35574" lon="5.22747">
        <ele>214</ele>
        <time>2016-03-10T13:04:04Z</time>
      </trkpt>
      <trkpt lat="43.35573" lon="5.22746">
        <ele>214</ele>
        <time>2016-03-10T13:04:05Z</time>
      </trkpt>
      <trkpt lat="43.35571" lon="5.22746">
        <ele>214</ele>
        <time>2016-03-10T13:04:06Z</time>
      </trkpt>
      <trkpt lat="43.3557" lon="5.22746">
        <ele>214</ele>
        <time>2016-03-10T13:04:07Z</time>
      </trkpt>
      <trkpt lat="43.35569" lon="5.22745">
        <ele>214</ele>
        <time>2016-03-10T13:04:08Z</time>
      </trkpt>
      <trkpt lat="43.35567" lon="5.22745">
        <ele>214</ele>
        <time>2016-03-10T13:04:09Z</time>
      </trkpt>
      <trkpt lat="43.35566" lon="5.22745">
        <ele>214</ele>
        <time>2016-03-10T13:04:10Z</time>
      </trkpt>
      <trkpt lat="43.35564" lon="5.22744">
        <ele>214</ele>
        <time>2016-03-10T13:04:11Z</time>
      </trkpt>
      <trkpt lat="43.35563" lon="5.22744">
        <ele>214</ele>
        <time>2016-03-10T13:04:12Z</time>
      </trkpt>
      <trkpt lat="43.35562" lon="5.22743">
        <ele>214</ele>
        <time>2016-03-10T13:04:13Z</time>
      </trkpt>
      <trkpt lat="43.3556" lon="5.22743">
        <ele>214</ele>
        <time>2016-03-10T13:04:14Z</time>
      </trkpt>
      <trkpt lat="43.35559" lon="5.22743">
        <ele>214</ele>
        <time>2016-03-10T13:04:15Z</time>
      </trkpt>
      <trkpt lat="43.35558" lon="5.22742">
        <ele>214</ele>
        <time>2016-03-10T13:04:16Z</time>
      </trkpt>
      <trkpt lat="43.35556" lon="5.22742">
        <ele>214</ele>
        <time>2016-03-10T13:04:17Z</time>
      </trkpt>
      <trkpt lat="43.35555" lon="5.22742">
        <ele>214</ele>
        <time>2016-03-10T13:04:18Z</time>
      </trkpt>
      <trkpt lat="43.35554" lon="5.22742">
        <ele>214</ele>
        <time>2016-03-10T13:04:19Z</time>
      </trkpt>
      <trkpt lat="43.35553" lon="5.22742">
        <ele>214</ele>
        <time>2016-03-10T13:04:20Z</time>
      </trkpt>
      <trkpt lat="43.35552" lon="5.22742">
        <ele>214</ele>
        <time>2016-03-10T13:04:21Z</time>
      </trkpt>
      <trkpt lat="43.35551" lon="5.22742">
        <ele>214</ele>
        <time>2016-03-10T13:04:22Z</time>
      </trkpt>
      <trkpt lat="43.35549" lon="5.22742">
        <ele>214</ele>
        <time>2016-03-10T13:04:23Z</time>
      </trkpt>
      <trkpt lat="43.35548" lon="5.22742">
        <ele>214</ele>
        <time>2016-03-10T13:04:24Z</time>
      </trkpt>
      <trkpt lat="43.35546" lon="5.22742">
        <ele>214</ele>
        <time>2016-03-10T13:04:25Z</time>
      </trkpt>
      <trkpt lat="43.35545" lon="5.22742">
        <ele>214</ele>
        <time>2016-03-10T13:04:26Z</time>
      </trkpt>
      <trkpt lat="43.35544" lon="5.22743">
        <ele>214</ele>
        <time>2016-03-10T13:04:27Z</time>
      </trkpt>
      <trkpt lat="43.35543" lon="5.22743">
        <ele>214</ele>
        <time>2016-03-10T13:04:28Z</time>
      </trkpt>
      <trkpt lat="43.35541" lon="5.22743">
        <ele>214</ele>
        <time>2016-03-10T13:04:29Z</time>
      </trkpt>
      <trkpt lat="43.3554" lon="5.22744">
        <ele>214</ele>
        <time>2016-03-10T13:04:30Z</time>
      </trkpt>
      <trkpt lat="43.35538" lon="5.22745">
        <ele>214</ele>
        <time>2016-03-10T13:04:31Z</time>
      </trkpt>
      <trkpt lat="43.35537" lon="5.22745">
        <ele>214</ele>
        <time>2016-03-10T13:04:32Z</time>
      </trkpt>
      <trkpt lat="43.35535" lon="5.22745">
        <ele>214</ele>
        <time>2016-03-10T13:04:33Z</time>
      </trkpt>
      <trkpt lat="43.35534" lon="5.22746">
        <ele>214</ele>
        <time>2016-03-10T13:04:34Z</time>
      </trkpt>
      <trkpt lat="43.35533" lon="5.22747">
        <ele>214</ele>
        <time>2016-03-10T13:04:35Z</time>
      </trkpt>
      <trkpt lat="43.35532" lon="5.22748">
        <ele>214</ele>
        <time>2016-03-10T13:04:36Z</time>
      </trkpt>
      <trkpt lat="43.3553" lon="5.22749">
        <ele>214</ele>
        <time>2016-03-10T13:04:37Z</time>
      </trkpt>
      <trkpt lat="43.35529" lon="5.22751">
        <ele>214</ele>
        <time>2016-03-10T13:04:38Z</time>
      </trkpt>
      <trkpt lat="43.35527" lon="5.22753">
        <ele>214</ele>
        <time>2016-03-10T13:04:40Z</time>
      </trkpt>
      <trkpt lat="43.35525" lon="5.22755">
        <ele>214</ele>
        <time>2016-03-10T13:04:42Z</time>
      </trkpt>
      <trkpt lat="43.35523" lon="5.22758">
        <ele>214</ele>
        <time>2016-03-10T13:04:44Z</time>
      </trkpt>
      <trkpt lat="43.35522" lon="5.22759">
        <ele>214</ele>
        <time>2016-03-10T13:04:45Z</time>
      </trkpt>
      <trkpt lat="43.35521" lon="5.22761">
        <ele>214</ele>
        <time>2016-03-10T13:04:46Z</time>
      </trkpt>
      <trkpt lat="43.35521" lon="5.22762">
        <ele>214</ele>
        <time>2016-03-10T13:04:47Z</time>
      </trkpt>
      <trkpt lat="43.35519" lon="5.22764">
        <ele>214</ele>
        <time>2016-03-10T13:04:48Z</time>
      </trkpt>
      <trkpt lat="43.35519" lon="5.22765">
        <ele>214</ele>
        <time>2016-03-10T13:04:49Z</time>
      </trkpt>
      <trkpt lat="43.35518" lon="5.22767">
        <ele>214</ele>
        <time>2016-03-10T13:04:50Z</time>
      </trkpt>
      <trkpt lat="43.35517" lon="5.22769">
        <ele>214</ele>
        <time>2016-03-10T13:04:51Z</time>
      </trkpt>
      <trkpt lat="43.35516" lon="5.22771">
        <ele>214</ele>
        <time>2016-03-10T13:04:52Z</time>
      </trkpt>
      <trkpt lat="43.35516" lon="5.22772">
        <ele>214</ele>
        <time>2016-03-10T13:04:53Z</time>
      </trkpt>
      <trkpt lat="43.35515" lon="5.22774">
        <ele>214</ele>
        <time>2016-03-10T13:04:54Z</time>
      </trkpt>
      <trkpt lat="43.35514" lon="5.22775">
        <ele>214</ele>
        <time>2016-03-10T13:04:55Z</time>
      </trkpt>
      <trkpt lat="43.35513" lon="5.22777">
        <ele>214</ele>
        <time>2016-03-10T13:04:56Z</time>
      </trkpt>
      <trkpt lat="43.35513" lon="5.22779">
        <ele>215</ele>
        <time>2016-03-10T13:04:57Z</time>
      </trkpt>
      <trkpt lat="43.35512" lon="5.2278">
        <ele>215</ele>
        <time>2016-03-10T13:04:58Z</time>
      </trkpt>
      <trkpt lat="43.35511" lon="5.22782">
        <ele>215</ele>
        <time>2016-03-10T13:04:59Z</time>
      </trkpt>
      <trkpt lat="43.3551" lon="5.22783">
        <ele>215</ele>
        <time>2016-03-10T13:05:00Z</time>
      </trkpt>
      <trkpt lat="43.35509" lon="5.22785">
        <ele>215</ele>
        <time>2016-03-10T13:05:01Z</time>
      </trkpt>
      <trkpt lat="43.35508" lon="5.22787">
        <ele>215</ele>
        <time>2016-03-10T13:05:02Z</time>
      </trkpt>
      <trkpt lat="43.35507" lon="5.22788">
        <ele>215</ele>
        <time>2016-03-10T13:05:03Z</time>
      </trkpt>
      <trkpt lat="43.35507" lon="5.2279">
        <ele>216</ele>
        <time>2016-03-10T13:05:04Z</time>
      </trkpt>
      <trkpt lat="43.35506" lon="5.22791">
        <ele>216</ele>
        <time>2016-03-10T13:05:05Z</time>
      </trkpt>
      <trkpt lat="43.35505" lon="5.22793">
        <ele>216</ele>
        <time>2016-03-10T13:05:06Z</time>
      </trkpt>
      <trkpt lat="43.35505" lon="5.22794">
        <ele>216</ele>
        <time>2016-03-10T13:05:07Z</time>
      </trkpt>
      <trkpt lat="43.35504" lon="5.22796">
        <ele>216</ele>
        <time>2016-03-10T13:05:08Z</time>
      </trkpt>
      <trkpt lat="43.35502" lon="5.22799">
        <ele>217</ele>
        <time>2016-03-10T13:05:10Z</time>
      </trkpt>
      <trkpt lat="43.35501" lon="5.228">
        <ele>217</ele>
        <time>2016-03-10T13:05:11Z</time>
      </trkpt>
      <trkpt lat="43.35501" lon="5.22802">
        <ele>217</ele>
        <time>2016-03-10T13:05:12Z</time>
      </trkpt>
      <trkpt lat="43.355" lon="5.22803">
        <ele>217</ele>
        <time>2016-03-10T13:05:13Z</time>
      </trkpt>
      <trkpt lat="43.35499" lon="5.22805">
        <ele>217</ele>
        <time>2016-03-10T13:05:14Z</time>
      </trkpt>
      <trkpt lat="43.35498" lon="5.22807">
        <ele>217</ele>
        <time>2016-03-10T13:05:15Z</time>
      </trkpt>
      <trkpt lat="43.35498" lon="5.22808">
        <ele>218</ele>
        <time>2016-03-10T13:05:16Z</time>
      </trkpt>
      <trkpt lat="43.35497" lon="5.2281">
        <ele>218</ele>
        <time>2016-03-10T13:05:17Z</time>
      </trkpt>
      <trkpt lat="43.35496" lon="5.22812">
        <ele>218</ele>
        <time>2016-03-10T13:05:18Z</time>
      </trkpt>
      <trkpt lat="43.35495" lon="5.22815">
        <ele>218</ele>
        <time>2016-03-10T13:05:20Z</time>
      </trkpt>
      <trkpt lat="43.35495" lon="5.22816">
        <ele>218</ele>
        <time>2016-03-10T13:05:21Z</time>
      </trkpt>
      <trkpt lat="43.35494" lon="5.22818">
        <ele>219</ele>
        <time>2016-03-10T13:05:22Z</time>
      </trkpt>
      <trkpt lat="43.35493" lon="5.22819">
        <ele>219</ele>
        <time>2016-03-10T13:05:23Z</time>
      </trkpt>
      <trkpt lat="43.35492" lon="5.22821">
        <ele>219</ele>
        <time>2016-03-10T13:05:24Z</time>
      </trkpt>
      <trkpt lat="43.35492" lon="5.22823">
        <ele>219</ele>
        <time>2016-03-10T13:05:25Z</time>
      </trkpt>
      <trkpt lat="43.35492" lon="5.22824">
        <ele>219</ele>
        <time>2016-03-10T13:05:26Z</time>
      </trkpt>
      <trkpt lat="43.35491" lon="5.22826">
        <ele>219</ele>
        <time>2016-03-10T13:05:27Z</time>
      </trkpt>
      <trkpt lat="43.3549" lon="5.22828">
        <ele>219</ele>
        <time>2016-03-10T13:05:28Z</time>
      </trkpt>
      <trkpt lat="43.3549" lon="5.2283">
        <ele>219</ele>
        <time>2016-03-10T13:05:29Z</time>
      </trkpt>
      <trkpt lat="43.3549" lon="5.22832">
        <ele>219</ele>
        <time>2016-03-10T13:05:30Z</time>
      </trkpt>
      <trkpt lat="43.35489" lon="5.22834">
        <ele>220</ele>
        <time>2016-03-10T13:05:31Z</time>
      </trkpt>
      <trkpt lat="43.35489" lon="5.22835">
        <ele>220</ele>
        <time>2016-03-10T13:05:32Z</time>
      </trkpt>
      <trkpt lat="43.35488" lon="5.22837">
        <ele>220</ele>
        <time>2016-03-10T13:05:33Z</time>
      </trkpt>
      <trkpt lat="43.35488" lon="5.22838">
        <ele>220</ele>
        <time>2016-03-10T13:05:34Z</time>
      </trkpt>
      <trkpt lat="43.35487" lon="5.2284">
        <ele>220</ele>
        <time>2016-03-10T13:05:35Z</time>
      </trkpt>
      <trkpt lat="43.35487" lon="5.22842">
        <ele>220</ele>
        <time>2016-03-10T13:05:36Z</time>
      </trkpt>
      <trkpt lat="43.35486" lon="5.22844">
        <ele>220</ele>
        <time>2016-03-10T13:05:37Z</time>
      </trkpt>
      <trkpt lat="43.35486" lon="5.22846">
        <ele>220</ele>
        <time>2016-03-10T13:05:38Z</time>
      </trkpt>
      <trkpt lat="43.35485" lon="5.22847">
        <ele>220</ele>
        <time>2016-03-10T13:05:39Z</time>
      </trkpt>
      <trkpt lat="43.35485" lon="5.22849">
        <ele>220</ele>
        <time>2016-03-10T13:05:40Z</time>
      </trkpt>
      <trkpt lat="43.35484" lon="5.2285">
        <ele>221</ele>
        <time>2016-03-10T13:05:41Z</time>
      </trkpt>
      <trkpt lat="43.35484" lon="5.22852">
        <ele>221</ele>
        <time>2016-03-10T13:05:42Z</time>
      </trkpt>
      <trkpt lat="43.35483" lon="5.22854">
        <ele>221</ele>
        <time>2016-03-10T13:05:43Z</time>
      </trkpt>
      <trkpt lat="43.35483" lon="5.22855">
        <ele>221</ele>
        <time>2016-03-10T13:05:44Z</time>
      </trkpt>
      <trkpt lat="43.35482" lon="5.22857">
        <ele>221</ele>
        <time>2016-03-10T13:05:45Z</time>
      </trkpt>
      <trkpt lat="43.35482" lon="5.22858">
        <ele>221</ele>
        <time>2016-03-10T13:05:46Z</time>
      </trkpt>
      <trkpt lat="43.35481" lon="5.2286">
        <ele>221</ele>
        <time>2016-03-10T13:05:47Z</time>
      </trkpt>
      <trkpt lat="43.35481" lon="5.22862">
        <ele>221</ele>
        <time>2016-03-10T13:05:48Z</time>
      </trkpt>
      <trkpt lat="43.3548" lon="5.22863">
        <ele>221</ele>
        <time>2016-03-10T13:05:49Z</time>
      </trkpt>
      <trkpt lat="43.3548" lon="5.22865">
        <ele>221</ele>
        <time>2016-03-10T13:05:50Z</time>
      </trkpt>
      <trkpt lat="43.35479" lon="5.22867">
        <ele>222</ele>
        <time>2016-03-10T13:05:51Z</time>
      </trkpt>
      <trkpt lat="43.35479" lon="5.22868">
        <ele>222</ele>
        <time>2016-03-10T13:05:52Z</time>
      </trkpt>
      <trkpt lat="43.35478" lon="5.2287">
        <ele>222</ele>
        <time>2016-03-10T13:05:53Z</time>
      </trkpt>
      <trkpt lat="43.35478" lon="5.22871">
        <ele>222</ele>
        <time>2016-03-10T13:05:54Z</time>
      </trkpt>
      <trkpt lat="43.35477" lon="5.22873">
        <ele>222</ele>
        <time>2016-03-10T13:05:55Z</time>
      </trkpt>
      <trkpt lat="43.35477" lon="5.22874">
        <ele>222</ele>
        <time>2016-03-10T13:05:56Z</time>
      </trkpt>
      <trkpt lat="43.35477" lon="5.22876">
        <ele>222</ele>
        <time>2016-03-10T13:05:57Z</time>
      </trkpt>
      <trkpt lat="43.35476" lon="5.22878">
        <ele>223</ele>
        <time>2016-03-10T13:05:58Z</time>
      </trkpt>
      <trkpt lat="43.35476" lon="5.22879">
        <ele>223</ele>
        <time>2016-03-10T13:05:59Z</time>
      </trkpt>
      <trkpt lat="43.35475" lon="5.22881">
        <ele>223</ele>
        <time>2016-03-10T13:06:00Z</time>
      </trkpt>
      <trkpt lat="43.35474" lon="5.22882">
        <ele>223</ele>
        <time>2016-03-10T13:06:01Z</time>
      </trkpt>
      <trkpt lat="43.35474" lon="5.22884">
        <ele>223</ele>
        <time>2016-03-10T13:06:02Z</time>
      </trkpt>
      <trkpt lat="43.35473" lon="5.22886">
        <ele>223</ele>
        <time>2016-03-10T13:06:03Z</time>
      </trkpt>
      <trkpt lat="43.35472" lon="5.22887">
        <ele>223</ele>
        <time>2016-03-10T13:06:04Z</time>
      </trkpt>
      <trkpt lat="43.35472" lon="5.22889">
        <ele>223</ele>
        <time>2016-03-10T13:06:05Z</time>
      </trkpt>
      <trkpt lat="43.35471" lon="5.22891">
        <ele>223</ele>
        <time>2016-03-10T13:06:06Z</time>
      </trkpt>
      <trkpt lat="43.35471" lon="5.22892">
        <ele>223</ele>
        <time>2016-03-10T13:06:07Z</time>
      </trkpt>
      <trkpt lat="43.3547" lon="5.22894">
        <ele>223</ele>
        <time>2016-03-10T13:06:08Z</time>
      </trkpt>
      <trkpt lat="43.3547" lon="5.22895">
        <ele>224</ele>
        <time>2016-03-10T13:06:09Z</time>
      </trkpt>
      <trkpt lat="43.35469" lon="5.22897">
        <ele>224</ele>
        <time>2016-03-10T13:06:10Z</time>
      </trkpt>
      <trkpt lat="43.35469" lon="5.22899">
        <ele>224</ele>
        <time>2016-03-10T13:06:11Z</time>
      </trkpt>
      <trkpt lat="43.35468" lon="5.22901">
        <ele>224</ele>
        <time>2016-03-10T13:06:12Z</time>
      </trkpt>
      <trkpt lat="43.35468" lon="5.22902">
        <ele>224</ele>
        <time>2016-03-10T13:06:13Z</time>
      </trkpt>
      <trkpt lat="43.35467" lon="5.22904">
        <ele>224</ele>
        <time>2016-03-10T13:06:14Z</time>
      </trkpt>
      <trkpt lat="43.35466" lon="5.22906">
        <ele>224</ele>
        <time>2016-03-10T13:06:15Z</time>
      </trkpt>
      <trkpt lat="43.35466" lon="5.22907">
        <ele>224</ele>
        <time>2016-03-10T13:06:16Z</time>
      </trkpt>
      <trkpt lat="43.35466" lon="5.22909">
        <ele>224</ele>
        <time>2016-03-10T13:06:17Z</time>
      </trkpt>
      <trkpt lat="43.35465" lon="5.22911">
        <ele>224</ele>
        <time>2016-03-10T13:06:18Z</time>
      </trkpt>
      <trkpt lat="43.35464" lon="5.22913">
        <ele>224</ele>
        <time>2016-03-10T13:06:19Z</time>
      </trkpt>
      <trkpt lat="43.35464" lon="5.22914">
        <ele>224</ele>
        <time>2016-03-10T13:06:20Z</time>
      </trkpt>
      <trkpt lat="43.35463" lon="5.22916">
        <ele>224</ele>
        <time>2016-03-10T13:06:21Z</time>
      </trkpt>
      <trkpt lat="43.35463" lon="5.22918">
        <ele>224</ele>
        <time>2016-03-10T13:06:22Z</time>
      </trkpt>
      <trkpt lat="43.35462" lon="5.2292">
        <ele>224</ele>
        <time>2016-03-10T13:06:23Z</time>
      </trkpt>
      <trkpt lat="43.35461" lon="5.22921">
        <ele>224</ele>
        <time>2016-03-10T13:06:24Z</time>
      </trkpt>
      <trkpt lat="43.35461" lon="5.22923">
        <ele>224</ele>
        <time>2016-03-10T13:06:25Z</time>
      </trkpt>
      <trkpt lat="43.3546" lon="5.22925">
        <ele>224</ele>
        <time>2016-03-10T13:06:26Z</time>
      </trkpt>
      <trkpt lat="43.3546" lon="5.22926">
        <ele>224</ele>
        <time>2016-03-10T13:06:27Z</time>
      </trkpt>
      <trkpt lat="43.35459" lon="5.22928">
        <ele>224</ele>
        <time>2016-03-10T13:06:28Z</time>
      </trkpt>
      <trkpt lat="43.35459" lon="5.2293">
        <ele>224</ele>
        <time>2016-03-10T13:06:28Z</time>
      </trkpt>
      <trkpt lat="43.35458" lon="5.22931">
        <ele>224</ele>
        <time>2016-03-10T13:06:30Z</time>
      </trkpt>
      <trkpt lat="43.35458" lon="5.22933">
        <ele>224</ele>
        <time>2016-03-10T13:06:31Z</time>
      </trkpt>
      <trkpt lat="43.35457" lon="5.22934">
        <ele>224</ele>
        <time>2016-03-10T13:06:32Z</time>
      </trkpt>
      <trkpt lat="43.35456" lon="5.22936">
        <ele>224</ele>
        <time>2016-03-10T13:06:33Z</time>
      </trkpt>
      <trkpt lat="43.35456" lon="5.22938">
        <ele>224</ele>
        <time>2016-03-10T13:06:34Z</time>
      </trkpt>
      <trkpt lat="43.35455" lon="5.2294">
        <ele>224</ele>
        <time>2016-03-10T13:06:35Z</time>
      </trkpt>
      <trkpt lat="43.35454" lon="5.22941">
        <ele>224</ele>
        <time>2016-03-10T13:06:36Z</time>
      </trkpt>
      <trkpt lat="43.35453" lon="5.22943">
        <ele>224</ele>
        <time>2016-03-10T13:06:37Z</time>
      </trkpt>
      <trkpt lat="43.35452" lon="5.22944">
        <ele>224</ele>
        <time>2016-03-10T13:06:38Z</time>
      </trkpt>
      <trkpt lat="43.35451" lon="5.22947">
        <ele>224</ele>
        <time>2016-03-10T13:06:40Z</time>
      </trkpt>
      <trkpt lat="43.3545" lon="5.22949">
        <ele>224</ele>
        <time>2016-03-10T13:06:41Z</time>
      </trkpt>
      <trkpt lat="43.35449" lon="5.2295">
        <ele>224</ele>
        <time>2016-03-10T13:06:42Z</time>
      </trkpt>
      <trkpt lat="43.35448" lon="5.22952">
        <ele>224</ele>
        <time>2016-03-10T13:06:43Z</time>
      </trkpt>
      <trkpt lat="43.35447" lon="5.22953">
        <ele>224</ele>
        <time>2016-03-10T13:06:44Z</time>
      </trkpt>
      <trkpt lat="43.35446" lon="5.22955">
        <ele>224</ele>
        <time>2016-03-10T13:06:45Z</time>
      </trkpt>
      <trkpt lat="43.35445" lon="5.22958">
        <ele>224</ele>
        <time>2016-03-10T13:06:47Z</time>
      </trkpt>
      <trkpt lat="43.35442" lon="5.2296">
        <ele>224</ele>
        <time>2016-03-10T13:06:49Z</time>
      </trkpt>
      <trkpt lat="43.35442" lon="5.22962">
        <ele>224</ele>
        <time>2016-03-10T13:06:50Z</time>
      </trkpt>
      <trkpt lat="43.3544" lon="5.22964">
        <ele>224</ele>
        <time>2016-03-10T13:06:52Z</time>
      </trkpt>
      <trkpt lat="43.35439" lon="5.22966">
        <ele>224</ele>
        <time>2016-03-10T13:06:53Z</time>
      </trkpt>
      <trkpt lat="43.35437" lon="5.22968">
        <ele>224</ele>
        <time>2016-03-10T13:06:54Z</time>
      </trkpt>
      <trkpt lat="43.35435" lon="5.22971">
        <ele>224</ele>
        <time>2016-03-10T13:06:57Z</time>
      </trkpt>
      <trkpt lat="43.35434" lon="5.22973">
        <ele>224</ele>
        <time>2016-03-10T13:06:59Z</time>
      </trkpt>
      <trkpt lat="43.35432" lon="5.22975">
        <ele>224</ele>
        <time>2016-03-10T13:07:01Z</time>
      </trkpt>
      <trkpt lat="43.3543" lon="5.22978">
        <ele>224</ele>
        <time>2016-03-10T13:07:03Z</time>
      </trkpt>
      <trkpt lat="43.35428" lon="5.22981">
        <ele>224</ele>
        <time>2016-03-10T13:07:05Z</time>
      </trkpt>
      <trkpt lat="43.35427" lon="5.22982">
        <ele>224</ele>
        <time>2016-03-10T13:07:06Z</time>
      </trkpt>
      <trkpt lat="43.35425" lon="5.22985">
        <ele>224</ele>
        <time>2016-03-10T13:07:08Z</time>
      </trkpt>
      <trkpt lat="43.35424" lon="5.22986">
        <ele>224</ele>
        <time>2016-03-10T13:07:09Z</time>
      </trkpt>
      <trkpt lat="43.35422" lon="5.22989">
        <ele>224</ele>
        <time>2016-03-10T13:07:10Z</time>
      </trkpt>
      <trkpt lat="43.35421" lon="5.2299">
        <ele>224</ele>
        <time>2016-03-10T13:07:12Z</time>
      </trkpt>
      <trkpt lat="43.3542" lon="5.22993">
        <ele>224</ele>
        <time>2016-03-10T13:07:14Z</time>
      </trkpt>
      <trkpt lat="43.35418" lon="5.22995">
        <ele>224</ele>
        <time>2016-03-10T13:07:16Z</time>
      </trkpt>
      <trkpt lat="43.35416" lon="5.22998">
        <ele>224</ele>
        <time>2016-03-10T13:07:18Z</time>
      </trkpt>
      <trkpt lat="43.35415" lon="5.22999">
        <ele>224</ele>
        <time>2016-03-10T13:07:19Z</time>
      </trkpt>
      <trkpt lat="43.35413" lon="5.23001">
        <ele>224</ele>
        <time>2016-03-10T13:07:21Z</time>
      </trkpt>
      <trkpt lat="43.35411" lon="5.23002">
        <ele>224</ele>
        <time>2016-03-10T13:07:22Z</time>
      </trkpt>
      <trkpt lat="43.3541" lon="5.23004">
        <ele>224</ele>
        <time>2016-03-10T13:07:22Z</time>
      </trkpt>
      <trkpt lat="43.35409" lon="5.23005">
        <ele>224</ele>
        <time>2016-03-10T13:07:24Z</time>
      </trkpt>
      <trkpt lat="43.35408" lon="5.23006">
        <ele>224</ele>
        <time>2016-03-10T13:07:25Z</time>
      </trkpt>
      <trkpt lat="43.35406" lon="5.23008">
        <ele>225</ele>
        <time>2016-03-10T13:07:27Z</time>
      </trkpt>
      <trkpt lat="43.35405" lon="5.23009">
        <ele>225</ele>
        <time>2016-03-10T13:07:28Z</time>
      </trkpt>
      <trkpt lat="43.35402" lon="5.23011">
        <ele>225</ele>
        <time>2016-03-10T13:07:30Z</time>
      </trkpt>
      <trkpt lat="43.35401" lon="5.23012">
        <ele>225</ele>
        <time>2016-03-10T13:07:31Z</time>
      </trkpt>
      <trkpt lat="43.354" lon="5.23013">
        <ele>225</ele>
        <time>2016-03-10T13:07:32Z</time>
      </trkpt>
      <trkpt lat="43.35399" lon="5.23014">
        <ele>225</ele>
        <time>2016-03-10T13:07:33Z</time>
      </trkpt>
      <trkpt lat="43.35397" lon="5.23016">
        <ele>225</ele>
        <time>2016-03-10T13:07:35Z</time>
      </trkpt>
      <trkpt lat="43.35395" lon="5.23018">
        <ele>225</ele>
        <time>2016-03-10T13:07:37Z</time>
      </trkpt>
      <trkpt lat="43.35393" lon="5.23019">
        <ele>225</ele>
        <time>2016-03-10T13:07:38Z</time>
      </trkpt>
      <trkpt lat="43.35392" lon="5.2302">
        <ele>225</ele>
        <time>2016-03-10T13:07:39Z</time>
      </trkpt>
      <trkpt lat="43.35391" lon="5.23021">
        <ele>225</ele>
        <time>2016-03-10T13:07:40Z</time>
      </trkpt>
      <trkpt lat="43.35389" lon="5.23023">
        <ele>225</ele>
        <time>2016-03-10T13:07:42Z</time>
      </trkpt>
      <trkpt lat="43.35388" lon="5.23024">
        <ele>225</ele>
        <time>2016-03-10T13:07:43Z</time>
      </trkpt>
      <trkpt lat="43.35387" lon="5.23025">
        <ele>225</ele>
        <time>2016-03-10T13:07:44Z</time>
      </trkpt>
      <trkpt lat="43.35384" lon="5.23027">
        <ele>225</ele>
        <time>2016-03-10T13:07:46Z</time>
      </trkpt>
      <trkpt lat="43.35383" lon="5.23028">
        <ele>225</ele>
        <time>2016-03-10T13:07:46Z</time>
      </trkpt>
      <trkpt lat="43.35382" lon="5.23029">
        <ele>225</ele>
        <time>2016-03-10T13:07:48Z</time>
      </trkpt>
      <trkpt lat="43.35381" lon="5.2303">
        <ele>225</ele>
        <time>2016-03-10T13:07:49Z</time>
      </trkpt>
      <trkpt lat="43.3538" lon="5.23031">
        <ele>225</ele>
        <time>2016-03-10T13:07:49Z</time>
      </trkpt>
      <trkpt lat="43.35379" lon="5.23033">
        <ele>225</ele>
        <time>2016-03-10T13:07:51Z</time>
      </trkpt>
      <trkpt lat="43.35377" lon="5.23034">
        <ele>225</ele>
        <time>2016-03-10T13:07:52Z</time>
      </trkpt>
      <trkpt lat="43.35376" lon="5.23034">
        <ele>225</ele>
        <time>2016-03-10T13:07:53Z</time>
      </trkpt>
      <trkpt lat="43.35375" lon="5.23036">
        <ele>225</ele>
        <time>2016-03-10T13:07:54Z</time>
      </trkpt>
      <trkpt lat="43.35374" lon="5.23037">
        <ele>225</ele>
        <time>2016-03-10T13:07:55Z</time>
      </trkpt>
      <trkpt lat="43.35373" lon="5.23038">
        <ele>226</ele>
        <time>2016-03-10T13:07:56Z</time>
      </trkpt>
      <trkpt lat="43.35371" lon="5.23039">
        <ele>226</ele>
        <time>2016-03-10T13:07:57Z</time>
      </trkpt>
      <trkpt lat="43.3537" lon="5.2304">
        <ele>226</ele>
        <time>2016-03-10T13:07:57Z</time>
      </trkpt>
      <trkpt lat="43.35369" lon="5.23041">
        <ele>226</ele>
        <time>2016-03-10T13:07:59Z</time>
      </trkpt>
      <trkpt lat="43.35368" lon="5.23042">
        <ele>226</ele>
        <time>2016-03-10T13:08:00Z</time>
      </trkpt>
      <trkpt lat="43.35367" lon="5.23043">
        <ele>226</ele>
        <time>2016-03-10T13:08:01Z</time>
      </trkpt>
      <trkpt lat="43.35366" lon="5.23044">
        <ele>226</ele>
        <time>2016-03-10T13:08:01Z</time>
      </trkpt>
      <trkpt lat="43.35364" lon="5.23045">
        <ele>226</ele>
        <time>2016-03-10T13:08:03Z</time>
      </trkpt>
      <trkpt lat="43.35363" lon="5.23046">
        <ele>226</ele>
        <time>2016-03-10T13:08:04Z</time>
      </trkpt>
      <trkpt lat="43.35362" lon="5.23047">
        <ele>226</ele>
        <time>2016-03-10T13:08:05Z</time>
      </trkpt>
      <trkpt lat="43.3536" lon="5.23049">
        <ele>226</ele>
        <time>2016-03-10T13:08:07Z</time>
      </trkpt>
      <trkpt lat="43.35359" lon="5.2305">
        <ele>226</ele>
        <time>2016-03-10T13:08:08Z</time>
      </trkpt>
      <trkpt lat="43.35358" lon="5.23052">
        <ele>226</ele>
        <time>2016-03-10T13:08:09Z</time>
      </trkpt>
      <trkpt lat="43.35356" lon="5.23053">
        <ele>226</ele>
        <time>2016-03-10T13:08:09Z</time>
      </trkpt>
      <trkpt lat="43.35355" lon="5.23054">
        <ele>226</ele>
        <time>2016-03-10T13:08:10Z</time>
      </trkpt>
      <trkpt lat="43.35354" lon="5.23055">
        <ele>226</ele>
        <time>2016-03-10T13:08:12Z</time>
      </trkpt>
      <trkpt lat="43.35353" lon="5.23056">
        <ele>226</ele>
        <time>2016-03-10T13:08:13Z</time>
      </trkpt>
      <trkpt lat="43.35352" lon="5.23057">
        <ele>226</ele>
        <time>2016-03-10T13:08:13Z</time>
      </trkpt>
      <trkpt lat="43.3535" lon="5.23058">
        <ele>226</ele>
        <time>2016-03-10T13:08:15Z</time>
      </trkpt>
      <trkpt lat="43.35348" lon="5.2306">
        <ele>226</ele>
        <time>2016-03-10T13:08:17Z</time>
      </trkpt>
      <trkpt lat="43.35347" lon="5.23061">
        <ele>226</ele>
        <time>2016-03-10T13:08:18Z</time>
      </trkpt>
      <trkpt lat="43.35346" lon="5.23062">
        <ele>226</ele>
        <time>2016-03-10T13:08:18Z</time>
      </trkpt>
      <trkpt lat="43.35345" lon="5.23063">
        <ele>226</ele>
        <time>2016-03-10T13:08:20Z</time>
      </trkpt>
      <trkpt lat="43.35344" lon="5.23064">
        <ele>226</ele>
        <time>2016-03-10T13:08:21Z</time>
      </trkpt>
      <trkpt lat="43.35342" lon="5.23066">
        <ele>226</ele>
        <time>2016-03-10T13:08:21Z</time>
      </trkpt>
      <trkpt lat="43.35341" lon="5.23067">
        <ele>226</ele>
        <time>2016-03-10T13:08:22Z</time>
      </trkpt>
      <trkpt lat="43.3534" lon="5.23068">
        <ele>226</ele>
        <time>2016-03-10T13:08:24Z</time>
      </trkpt>
      <trkpt lat="43.35339" lon="5.23069">
        <ele>226</ele>
        <time>2016-03-10T13:08:25Z</time>
      </trkpt>
      <trkpt lat="43.35337" lon="5.2307">
        <ele>226</ele>
        <time>2016-03-10T13:08:26Z</time>
      </trkpt>
      <trkpt lat="43.35336" lon="5.23071">
        <ele>226</ele>
        <time>2016-03-10T13:08:26Z</time>
      </trkpt>
      <trkpt lat="43.35335" lon="5.23072">
        <ele>226</ele>
        <time>2016-03-10T13:08:27Z</time>
      </trkpt>
      <trkpt lat="43.35334" lon="5.23073">
        <ele>226</ele>
        <time>2016-03-10T13:08:29Z</time>
      </trkpt>
      <trkpt lat="43.35333" lon="5.23074">
        <ele>226</ele>
        <time>2016-03-10T13:08:30Z</time>
      </trkpt>
      <trkpt lat="43.35331" lon="5.23077">
        <ele>226</ele>
        <time>2016-03-10T13:08:31Z</time>
      </trkpt>
      <trkpt lat="43.35329" lon="5.23078">
        <ele>226</ele>
        <time>2016-03-10T13:08:33Z</time>
      </trkpt>
      <trkpt lat="43.35327" lon="5.2308">
        <ele>226</ele>
        <time>2016-03-10T13:08:34Z</time>
      </trkpt>
      <trkpt lat="43.35326" lon="5.23081">
        <ele>226</ele>
        <time>2016-03-10T13:08:36Z</time>
      </trkpt>
      <trkpt lat="43.35325" lon="5.23082">
        <ele>226</ele>
        <time>2016-03-10T13:08:37Z</time>
      </trkpt>
      <trkpt lat="43.35324" lon="5.23083">
        <ele>226</ele>
        <time>2016-03-10T13:08:37Z</time>
      </trkpt>
      <trkpt lat="43.35322" lon="5.23085">
        <ele>226</ele>
        <time>2016-03-10T13:08:39Z</time>
      </trkpt>
      <trkpt lat="43.35321" lon="5.23087">
        <ele>226</ele>
        <time>2016-03-10T13:08:41Z</time>
      </trkpt>
      <trkpt lat="43.35318" lon="5.23089">
        <ele>226</ele>
        <time>2016-03-10T13:08:42Z</time>
      </trkpt>
      <trkpt lat="43.35317" lon="5.2309">
        <ele>226</ele>
        <time>2016-03-10T13:08:43Z</time>
      </trkpt>
      <trkpt lat="43.35316" lon="5.23091">
        <ele>226</ele>
        <time>2016-03-10T13:08:44Z</time>
      </trkpt>
      <trkpt lat="43.35315" lon="5.23092">
        <ele>226</ele>
        <time>2016-03-10T13:08:46Z</time>
      </trkpt>
      <trkpt lat="43.35313" lon="5.23093">
        <ele>226</ele>
        <time>2016-03-10T13:08:46Z</time>
      </trkpt>
      <trkpt lat="43.35312" lon="5.23095">
        <ele>226</ele>
        <time>2016-03-10T13:08:47Z</time>
      </trkpt>
      <trkpt lat="43.35311" lon="5.23096">
        <ele>226</ele>
        <time>2016-03-10T13:08:49Z</time>
      </trkpt>
      <trkpt lat="43.3531" lon="5.23097">
        <ele>226</ele>
        <time>2016-03-10T13:08:49Z</time>
      </trkpt>
      <trkpt lat="43.35309" lon="5.23098">
        <ele>226</ele>
        <time>2016-03-10T13:08:50Z</time>
      </trkpt>
      <trkpt lat="43.35307" lon="5.23099">
        <ele>226</ele>
        <time>2016-03-10T13:08:52Z</time>
      </trkpt>
      <trkpt lat="43.35306" lon="5.231">
        <ele>226</ele>
        <time>2016-03-10T13:08:53Z</time>
      </trkpt>
      <trkpt lat="43.35305" lon="5.23101">
        <ele>226</ele>
        <time>2016-03-10T13:08:54Z</time>
      </trkpt>
      <trkpt lat="43.35303" lon="5.23104">
        <ele>226</ele>
        <time>2016-03-10T13:08:55Z</time>
      </trkpt>
      <trkpt lat="43.35302" lon="5.23104">
        <ele>226</ele>
        <time>2016-03-10T13:08:57Z</time>
      </trkpt>
      <trkpt lat="43.353" lon="5.23106">
        <ele>226</ele>
        <time>2016-03-10T13:08:57Z</time>
      </trkpt>
      <trkpt lat="43.35299" lon="5.23107">
        <ele>226</ele>
        <time>2016-03-10T13:08:58Z</time>
      </trkpt>
      <trkpt lat="43.35298" lon="5.23108">
        <ele>226</ele>
        <time>2016-03-10T13:08:59Z</time>
      </trkpt>
      <trkpt lat="43.35297" lon="5.23109">
        <ele>226</ele>
        <time>2016-03-10T13:09:01Z</time>
      </trkpt>
      <trkpt lat="43.35295" lon="5.2311">
        <ele>226</ele>
        <time>2016-03-10T13:09:02Z</time>
      </trkpt>
      <trkpt lat="43.35294" lon="5.23112">
        <ele>226</ele>
        <time>2016-03-10T13:09:02Z</time>
      </trkpt>
      <trkpt lat="43.35293" lon="5.23113">
        <ele>226</ele>
        <time>2016-03-10T13:09:03Z</time>
      </trkpt>
      <trkpt lat="43.35292" lon="5.23114">
        <ele>226</ele>
        <time>2016-03-10T13:09:05Z</time>
      </trkpt>
      <trkpt lat="43.35291" lon="5.23115">
        <ele>226</ele>
        <time>2016-03-10T13:09:06Z</time>
      </trkpt>
      <trkpt lat="43.35289" lon="5.23116">
        <ele>226</ele>
        <time>2016-03-10T13:09:07Z</time>
      </trkpt>
      <trkpt lat="43.35288" lon="5.23117">
        <ele>226</ele>
        <time>2016-03-10T13:09:07Z</time>
      </trkpt>
      <trkpt lat="43.35287" lon="5.23118">
        <ele>226</ele>
        <time>2016-03-10T13:09:09Z</time>
      </trkpt>
      <trkpt lat="43.35286" lon="5.23119">
        <ele>226</ele>
        <time>2016-03-10T13:09:09Z</time>
      </trkpt>
      <trkpt lat="43.35285" lon="5.23121">
        <ele>226</ele>
        <time>2016-03-10T13:09:10Z</time>
      </trkpt>
      <trkpt lat="43.35284" lon="5.23122">
        <ele>226</ele>
        <time>2016-03-10T13:09:12Z</time>
      </trkpt>
      <trkpt lat="43.35282" lon="5.23123">
        <ele>226</ele>
        <time>2016-03-10T13:09:12Z</time>
      </trkpt>
      <trkpt lat="43.35281" lon="5.23124">
        <ele>226</ele>
        <time>2016-03-10T13:09:13Z</time>
      </trkpt>
      <trkpt lat="43.3528" lon="5.23125">
        <ele>226</ele>
        <time>2016-03-10T13:09:14Z</time>
      </trkpt>
      <trkpt lat="43.35279" lon="5.23126">
        <ele>226</ele>
        <time>2016-03-10T13:09:15Z</time>
      </trkpt>
      <trkpt lat="43.35278" lon="5.23127">
        <ele>226</ele>
        <time>2016-03-10T13:09:16Z</time>
      </trkpt>
      <trkpt lat="43.35276" lon="5.23128">
        <ele>226</ele>
        <time>2016-03-10T13:09:18Z</time>
      </trkpt>
      <trkpt lat="43.35275" lon="5.2313">
        <ele>226</ele>
        <time>2016-03-10T13:09:18Z</time>
      </trkpt>
      <trkpt lat="43.35274" lon="5.23131">
        <ele>226</ele>
        <time>2016-03-10T13:09:19Z</time>
      </trkpt>
      <trkpt lat="43.35273" lon="5.23132">
        <ele>226</ele>
        <time>2016-03-10T13:09:20Z</time>
      </trkpt>
      <trkpt lat="43.35272" lon="5.23133">
        <ele>226</ele>
        <time>2016-03-10T13:09:21Z</time>
      </trkpt>
      <trkpt lat="43.35271" lon="5.23134">
        <ele>226</ele>
        <time>2016-03-10T13:09:23Z</time>
      </trkpt>
      <trkpt lat="43.3527" lon="5.23135">
        <ele>226</ele>
        <time>2016-03-10T13:09:23Z</time>
      </trkpt>
      <trkpt lat="43.35268" lon="5.23137">
        <ele>226</ele>
        <time>2016-03-10T13:09:24Z</time>
      </trkpt>
      <trkpt lat="43.35267" lon="5.23138">
        <ele>226</ele>
        <time>2016-03-10T13:09:25Z</time>
      </trkpt>
      <trkpt lat="43.35266" lon="5.23139">
        <ele>226</ele>
        <time>2016-03-10T13:09:26Z</time>
      </trkpt>
      <trkpt lat="43.35265" lon="5.2314">
        <ele>226</ele>
        <time>2016-03-10T13:09:28Z</time>
      </trkpt>
      <trkpt lat="43.35264" lon="5.23141">
        <ele>226</ele>
        <time>2016-03-10T13:09:28Z</time>
      </trkpt>
      <trkpt lat="43.35263" lon="5.23143">
        <ele>226</ele>
        <time>2016-03-10T13:09:30Z</time>
      </trkpt>
      <trkpt lat="43.35262" lon="5.23144">
        <ele>226</ele>
        <time>2016-03-10T13:09:30Z</time>
      </trkpt>
      <trkpt lat="43.3526" lon="5.23145">
        <ele>226</ele>
        <time>2016-03-10T13:09:31Z</time>
      </trkpt>
      <trkpt lat="43.35259" lon="5.23146">
        <ele>226</ele>
        <time>2016-03-10T13:09:33Z</time>
      </trkpt>
      <trkpt lat="43.35258" lon="5.23148">
        <ele>226</ele>
        <time>2016-03-10T13:09:34Z</time>
      </trkpt>
      <trkpt lat="43.35257" lon="5.23149">
        <ele>226</ele>
        <time>2016-03-10T13:09:34Z</time>
      </trkpt>
      <trkpt lat="43.35255" lon="5.23152">
        <ele>226</ele>
        <time>2016-03-10T13:09:36Z</time>
      </trkpt>
      <trkpt lat="43.35254" lon="5.23153">
        <ele>226</ele>
        <time>2016-03-10T13:09:38Z</time>
      </trkpt>
      <trkpt lat="43.35252" lon="5.23156">
        <ele>226</ele>
        <time>2016-03-10T13:09:39Z</time>
      </trkpt>
      <trkpt lat="43.35251" lon="5.23157">
        <ele>226</ele>
        <time>2016-03-10T13:09:40Z</time>
      </trkpt>
      <trkpt lat="43.35249" lon="5.2316">
        <ele>226</ele>
        <time>2016-03-10T13:09:43Z</time>
      </trkpt>
      <trkpt lat="43.35249" lon="5.23161">
        <ele>226</ele>
        <time>2016-03-10T13:09:43Z</time>
      </trkpt>
      <trkpt lat="43.35247" lon="5.23163">
        <ele>226</ele>
        <time>2016-03-10T13:09:44Z</time>
      </trkpt>
      <trkpt lat="43.35247" lon="5.23164">
        <ele>226</ele>
        <time>2016-03-10T13:09:45Z</time>
      </trkpt>
      <trkpt lat="43.35246" lon="5.23166">
        <ele>226</ele>
        <time>2016-03-10T13:09:46Z</time>
      </trkpt>
      <trkpt lat="43.35245" lon="5.23167">
        <ele>226</ele>
        <time>2016-03-10T13:09:48Z</time>
      </trkpt>
      <trkpt lat="43.35244" lon="5.23169">
        <ele>226</ele>
        <time>2016-03-10T13:09:49Z</time>
      </trkpt>
      <trkpt lat="43.35243" lon="5.2317">
        <ele>226</ele>
        <time>2016-03-10T13:09:49Z</time>
      </trkpt>
      <trkpt lat="43.35242" lon="5.23172">
        <ele>226</ele>
        <time>2016-03-10T13:09:50Z</time>
      </trkpt>
      <trkpt lat="43.3524" lon="5.23174">
        <ele>226</ele>
        <time>2016-03-10T13:09:53Z</time>
      </trkpt>
      <trkpt lat="43.35239" lon="5.23176">
        <ele>226</ele>
        <time>2016-03-10T13:09:54Z</time>
      </trkpt>
      <trkpt lat="43.35238" lon="5.23177">
        <ele>226</ele>
        <time>2016-03-10T13:09:54Z</time>
      </trkpt>
      <trkpt lat="43.35235" lon="5.2318">
        <ele>226</ele>
        <time>2016-03-10T13:09:56Z</time>
      </trkpt>
      <trkpt lat="43.35234" lon="5.23181">
        <ele>226</ele>
        <time>2016-03-10T13:09:58Z</time>
      </trkpt>
      <trkpt lat="43.35233" lon="5.23182">
        <ele>226</ele>
        <time>2016-03-10T13:09:58Z</time>
      </trkpt>
      <trkpt lat="43.35232" lon="5.23184">
        <ele>226</ele>
        <time>2016-03-10T13:09:59Z</time>
      </trkpt>
      <trkpt lat="43.3523" lon="5.23186">
        <ele>226</ele>
        <time>2016-03-10T13:10:01Z</time>
      </trkpt>
      <trkpt lat="43.35228" lon="5.23188">
        <ele>226</ele>
        <time>2016-03-10T13:10:04Z</time>
      </trkpt>
      <trkpt lat="43.35226" lon="5.2319">
        <ele>226</ele>
        <time>2016-03-10T13:10:04Z</time>
      </trkpt>
      <trkpt lat="43.35226" lon="5.23191">
        <ele>226</ele>
        <time>2016-03-10T13:10:05Z</time>
      </trkpt>
      <trkpt lat="43.35225" lon="5.23193">
        <ele>226</ele>
        <time>2016-03-10T13:10:06Z</time>
      </trkpt>
      <trkpt lat="43.35224" lon="5.23194">
        <ele>226</ele>
        <time>2016-03-10T13:10:07Z</time>
      </trkpt>
      <trkpt lat="43.35223" lon="5.23196">
        <ele>226</ele>
        <time>2016-03-10T13:10:09Z</time>
      </trkpt>
      <trkpt lat="43.35222" lon="5.23197">
        <ele>226</ele>
        <time>2016-03-10T13:10:09Z</time>
      </trkpt>
      <trkpt lat="43.35221" lon="5.23199">
        <ele>226</ele>
        <time>2016-03-10T13:10:10Z</time>
      </trkpt>
      <trkpt lat="43.3522" lon="5.232">
        <ele>226</ele>
        <time>2016-03-10T13:10:11Z</time>
      </trkpt>
      <trkpt lat="43.35219" lon="5.23202">
        <ele>226</ele>
        <time>2016-03-10T13:10:13Z</time>
      </trkpt>
      <trkpt lat="43.35218" lon="5.23203">
        <ele>226</ele>
        <time>2016-03-10T13:10:14Z</time>
      </trkpt>
      <trkpt lat="43.35217" lon="5.23205">
        <ele>226</ele>
        <time>2016-03-10T13:10:14Z</time>
      </trkpt>
      <trkpt lat="43.35216" lon="5.23206">
        <ele>226</ele>
        <time>2016-03-10T13:10:15Z</time>
      </trkpt>
      <trkpt lat="43.35215" lon="5.23207">
        <ele>226</ele>
        <time>2016-03-10T13:10:16Z</time>
      </trkpt>
      <trkpt lat="43.35213" lon="5.23209">
        <ele>226</ele>
        <time>2016-03-10T13:10:18Z</time>
      </trkpt>
      <trkpt lat="43.35211" lon="5.23212">
        <ele>226</ele>
        <time>2016-03-10T13:10:20Z</time>
      </trkpt>
      <trkpt lat="43.35209" lon="5.23214">
        <ele>226</ele>
        <time>2016-03-10T13:10:21Z</time>
      </trkpt>
      <trkpt lat="43.35208" lon="5.23216">
        <ele>226</ele>
        <time>2016-03-10T13:10:22Z</time>
      </trkpt>
      <trkpt lat="43.35207" lon="5.23217">
        <ele>226</ele>
        <time>2016-03-10T13:10:23Z</time>
      </trkpt>
      <trkpt lat="43.35206" lon="5.23219">
        <ele>226</ele>
        <time>2016-03-10T13:10:25Z</time>
      </trkpt>
      <trkpt lat="43.35204" lon="5.23221">
        <ele>226</ele>
        <time>2016-03-10T13:10:26Z</time>
      </trkpt>
      <trkpt lat="43.35203" lon="5.23223">
        <ele>226</ele>
        <time>2016-03-10T13:10:27Z</time>
      </trkpt>
      <trkpt lat="43.35202" lon="5.23224">
        <ele>226</ele>
        <time>2016-03-10T13:10:28Z</time>
      </trkpt>
      <trkpt lat="43.35201" lon="5.23226">
        <ele>226</ele>
        <time>2016-03-10T13:10:30Z</time>
      </trkpt>
      <trkpt lat="43.352" lon="5.23228">
        <ele>226</ele>
        <time>2016-03-10T13:10:30Z</time>
      </trkpt>
      <trkpt lat="43.35199" lon="5.23229">
        <ele>226</ele>
        <time>2016-03-10T13:10:31Z</time>
      </trkpt>
      <trkpt lat="43.35199" lon="5.23231">
        <ele>226</ele>
        <time>2016-03-10T13:10:32Z</time>
      </trkpt>
      <trkpt lat="43.35197" lon="5.23232">
        <ele>226</ele>
        <time>2016-03-10T13:10:33Z</time>
      </trkpt>
      <trkpt lat="43.35197" lon="5.23234">
        <ele>226</ele>
        <time>2016-03-10T13:10:35Z</time>
      </trkpt>
      <trkpt lat="43.35196" lon="5.23235">
        <ele>226</ele>
        <time>2016-03-10T13:10:35Z</time>
      </trkpt>
      <trkpt lat="43.35195" lon="5.23237">
        <ele>226</ele>
        <time>2016-03-10T13:10:36Z</time>
      </trkpt>
      <trkpt lat="43.35194" lon="5.23238">
        <ele>226</ele>
        <time>2016-03-10T13:10:37Z</time>
      </trkpt>
      <trkpt lat="43.35193" lon="5.2324">
        <ele>226</ele>
        <time>2016-03-10T13:10:38Z</time>
      </trkpt>
      <trkpt lat="43.35192" lon="5.23241">
        <ele>226</ele>
        <time>2016-03-10T13:10:40Z</time>
      </trkpt>
      <trkpt lat="43.35191" lon="5.23243">
        <ele>226</ele>
        <time>2016-03-10T13:10:40Z</time>
      </trkpt>
      <trkpt lat="43.3519" lon="5.23244">
        <ele>226</ele>
        <time>2016-03-10T13:10:42Z</time>
      </trkpt>
      <trkpt lat="43.35189" lon="5.23246">
        <ele>226</ele>
        <time>2016-03-10T13:10:42Z</time>
      </trkpt>
      <trkpt lat="43.35188" lon="5.23247">
        <ele>226</ele>
        <time>2016-03-10T13:10:43Z</time>
      </trkpt>
      <trkpt lat="43.35187" lon="5.23249">
        <ele>226</ele>
        <time>2016-03-10T13:10:45Z</time>
      </trkpt>
      <trkpt lat="43.35186" lon="5.2325">
        <ele>226</ele>
        <time>2016-03-10T13:10:45Z</time>
      </trkpt>
      <trkpt lat="43.35186" lon="5.23252">
        <ele>226</ele>
        <time>2016-03-10T13:10:46Z</time>
      </trkpt>
      <trkpt lat="43.35185" lon="5.23253">
        <ele>226</ele>
        <time>2016-03-10T13:10:47Z</time>
      </trkpt>
      <trkpt lat="43.35184" lon="5.23255">
        <ele>226</ele>
        <time>2016-03-10T13:10:49Z</time>
      </trkpt>
      <trkpt lat="43.35183" lon="5.23256">
        <ele>226</ele>
        <time>2016-03-10T13:10:50Z</time>
      </trkpt>
      <trkpt lat="43.35182" lon="5.23258">
        <ele>226</ele>
        <time>2016-03-10T13:10:50Z</time>
      </trkpt>
      <trkpt lat="43.35181" lon="5.2326">
        <ele>226</ele>
        <time>2016-03-10T13:10:51Z</time>
      </trkpt>
      <trkpt lat="43.3518" lon="5.23261">
        <ele>226</ele>
        <time>2016-03-10T13:10:52Z</time>
      </trkpt>
      <trkpt lat="43.35179" lon="5.23263">
        <ele>226</ele>
        <time>2016-03-10T13:10:53Z</time>
      </trkpt>
      <trkpt lat="43.35178" lon="5.23264">
        <ele>226</ele>
        <time>2016-03-10T13:10:55Z</time>
      </trkpt>
      <trkpt lat="43.35176" lon="5.23267">
        <ele>226</ele>
        <time>2016-03-10T13:10:56Z</time>
      </trkpt>
      <trkpt lat="43.35175" lon="5.23269">
        <ele>226</ele>
        <time>2016-03-10T13:10:57Z</time>
      </trkpt>
      <trkpt lat="43.35175" lon="5.2327">
        <ele>226</ele>
        <time>2016-03-10T13:10:58Z</time>
      </trkpt>
      <trkpt lat="43.35173" lon="5.23272">
        <ele>226</ele>
        <time>2016-03-10T13:11:00Z</time>
      </trkpt>
      <trkpt lat="43.35173" lon="5.23273">
        <ele>226</ele>
        <time>2016-03-10T13:11:00Z</time>
      </trkpt>
      <trkpt lat="43.35172" lon="5.23275">
        <ele>226</ele>
        <time>2016-03-10T13:11:01Z</time>
      </trkpt>
      <trkpt lat="43.35171" lon="5.23276">
        <ele>226</ele>
        <time>2016-03-10T13:11:02Z</time>
      </trkpt>
      <trkpt lat="43.3517" lon="5.23278">
        <ele>226</ele>
        <time>2016-03-10T13:11:03Z</time>
      </trkpt>
      <trkpt lat="43.35169" lon="5.23279">
        <ele>226</ele>
        <time>2016-03-10T13:11:05Z</time>
      </trkpt>
      <trkpt lat="43.35168" lon="5.23281">
        <ele>226</ele>
        <time>2016-03-10T13:11:05Z</time>
      </trkpt>
      <trkpt lat="43.35167" lon="5.23283">
        <ele>226</ele>
        <time>2016-03-10T13:11:06Z</time>
      </trkpt>
      <trkpt lat="43.35167" lon="5.23284">
        <ele>226</ele>
        <time>2016-03-10T13:11:07Z</time>
      </trkpt>
      <trkpt lat="43.35166" lon="5.23286">
        <ele>226</ele>
        <time>2016-03-10T13:11:08Z</time>
      </trkpt>
      <trkpt lat="43.35165" lon="5.23287">
        <ele>226</ele>
        <time>2016-03-10T13:11:10Z</time>
      </trkpt>
      <trkpt lat="43.35164" lon="5.23289">
        <ele>226</ele>
        <time>2016-03-10T13:11:10Z</time>
      </trkpt>
      <trkpt lat="43.35163" lon="5.23291">
        <ele>226</ele>
        <time>2016-03-10T13:11:11Z</time>
      </trkpt>
      <trkpt lat="43.35162" lon="5.23292">
        <ele>226</ele>
        <time>2016-03-10T13:11:12Z</time>
      </trkpt>
      <trkpt lat="43.35162" lon="5.23294">
        <ele>226</ele>
        <time>2016-03-10T13:11:13Z</time>
      </trkpt>
      <trkpt lat="43.35161" lon="5.23295">
        <ele>226</ele>
        <time>2016-03-10T13:11:15Z</time>
      </trkpt>
      <trkpt lat="43.3516" lon="5.23297">
        <ele>226</ele>
        <time>2016-03-10T13:11:15Z</time>
      </trkpt>
      <trkpt lat="43.35159" lon="5.23299">
        <ele>226</ele>
        <time>2016-03-10T13:11:16Z</time>
      </trkpt>
      <trkpt lat="43.35158" lon="5.23301">
        <ele>226</ele>
        <time>2016-03-10T13:11:17Z</time>
      </trkpt>
      <trkpt lat="43.35157" lon="5.23302">
        <ele>226</ele>
        <time>2016-03-10T13:11:18Z</time>
      </trkpt>
      <trkpt lat="43.35157" lon="5.23304">
        <ele>226</ele>
        <time>2016-03-10T13:11:20Z</time>
      </trkpt>
      <trkpt lat="43.35156" lon="5.23306">
        <ele>226</ele>
        <time>2016-03-10T13:11:20Z</time>
      </trkpt>
      <trkpt lat="43.35155" lon="5.23307">
        <ele>226</ele>
        <time>2016-03-10T13:11:21Z</time>
      </trkpt>
      <trkpt lat="43.35154" lon="5.23309">
        <ele>226</ele>
        <time>2016-03-10T13:11:22Z</time>
      </trkpt>
      <trkpt lat="43.35153" lon="5.23311">
        <ele>226</ele>
        <time>2016-03-10T13:11:24Z</time>
      </trkpt>
      <trkpt lat="43.35152" lon="5.23312">
        <ele>226</ele>
        <time>2016-03-10T13:11:25Z</time>
      </trkpt>
      <trkpt lat="43.35152" lon="5.23314">
        <ele>226</ele>
        <time>2016-03-10T13:11:25Z</time>
      </trkpt>
      <trkpt lat="43.35151" lon="5.23315">
        <ele>226</ele>
        <time>2016-03-10T13:11:26Z</time>
      </trkpt>
      <trkpt lat="43.3515" lon="5.23317">
        <ele>226</ele>
        <time>2016-03-10T13:11:27Z</time>
      </trkpt>
      <trkpt lat="43.35149" lon="5.23319">
        <ele>226</ele>
        <time>2016-03-10T13:11:28Z</time>
      </trkpt>
      <trkpt lat="43.35148" lon="5.23321">
        <ele>226</ele>
        <time>2016-03-10T13:11:30Z</time>
      </trkpt>
      <trkpt lat="43.35147" lon="5.23323">
        <ele>226</ele>
        <time>2016-03-10T13:11:30Z</time>
      </trkpt>
      <trkpt lat="43.35146" lon="5.23324">
        <ele>226</ele>
        <time>2016-03-10T13:11:31Z</time>
      </trkpt>
      <trkpt lat="43.35145" lon="5.23326">
        <ele>226</ele>
        <time>2016-03-10T13:11:32Z</time>
      </trkpt>
      <trkpt lat="43.35144" lon="5.23327">
        <ele>226</ele>
        <time>2016-03-10T13:11:33Z</time>
      </trkpt>
      <trkpt lat="43.35144" lon="5.23329">
        <ele>226</ele>
        <time>2016-03-10T13:11:35Z</time>
      </trkpt>
      <trkpt lat="43.35143" lon="5.23331">
        <ele>226</ele>
        <time>2016-03-10T13:11:35Z</time>
      </trkpt>
      <trkpt lat="43.35142" lon="5.23333">
        <ele>226</ele>
        <time>2016-03-10T13:11:36Z</time>
      </trkpt>
      <trkpt lat="43.35141" lon="5.23334">
        <ele>226</ele>
        <time>2016-03-10T13:11:37Z</time>
      </trkpt>
      <trkpt lat="43.3514" lon="5.23336">
        <ele>226</ele>
        <time>2016-03-10T13:11:38Z</time>
      </trkpt>
      <trkpt lat="43.35139" lon="5.23337">
        <ele>226</ele>
        <time>2016-03-10T13:11:40Z</time>
      </trkpt>
      <trkpt lat="43.35138" lon="5.23339">
        <ele>226</ele>
        <time>2016-03-10T13:11:40Z</time>
      </trkpt>
      <trkpt lat="43.35138" lon="5.23341">
        <ele>226</ele>
        <time>2016-03-10T13:11:41Z</time>
      </trkpt>
      <trkpt lat="43.35137" lon="5.23342">
        <ele>226</ele>
        <time>2016-03-10T13:11:42Z</time>
      </trkpt>
      <trkpt lat="43.35136" lon="5.23344">
        <ele>226</ele>
        <time>2016-03-10T13:11:43Z</time>
      </trkpt>
      <trkpt lat="43.35135" lon="5.23345">
        <ele>226</ele>
        <time>2016-03-10T13:11:45Z</time>
      </trkpt>
      <trkpt lat="43.35134" lon="5.23347">
        <ele>226</ele>
        <time>2016-03-10T13:11:45Z</time>
      </trkpt>
      <trkpt lat="43.35133" lon="5.23349">
        <ele>226</ele>
        <time>2016-03-10T13:11:46Z</time>
      </trkpt>
      <trkpt lat="43.35132" lon="5.2335">
        <ele>226</ele>
        <time>2016-03-10T13:11:47Z</time>
      </trkpt>
      <trkpt lat="43.35132" lon="5.23352">
        <ele>226</ele>
        <time>2016-03-10T13:11:48Z</time>
      </trkpt>
      <trkpt lat="43.35131" lon="5.23353">
        <ele>226</ele>
        <time>2016-03-10T13:11:49Z</time>
      </trkpt>
      <trkpt lat="43.3513" lon="5.23355">
        <ele>226</ele>
        <time>2016-03-10T13:11:50Z</time>
      </trkpt>
      <trkpt lat="43.35129" lon="5.23357">
        <ele>226</ele>
        <time>2016-03-10T13:11:51Z</time>
      </trkpt>
      <trkpt lat="43.35128" lon="5.23358">
        <ele>226</ele>
        <time>2016-03-10T13:11:52Z</time>
      </trkpt>
      <trkpt lat="43.35127" lon="5.2336">
        <ele>226</ele>
        <time>2016-03-10T13:11:53Z</time>
      </trkpt>
      <trkpt lat="43.35126" lon="5.23362">
        <ele>226</ele>
        <time>2016-03-10T13:11:54Z</time>
      </trkpt>
      <trkpt lat="43.35125" lon="5.23363">
        <ele>226</ele>
        <time>2016-03-10T13:11:55Z</time>
      </trkpt>
      <trkpt lat="43.35125" lon="5.23365">
        <ele>226</ele>
        <time>2016-03-10T13:11:56Z</time>
      </trkpt>
      <trkpt lat="43.35124" lon="5.23367">
        <ele>226</ele>
        <time>2016-03-10T13:11:57Z</time>
      </trkpt>
      <trkpt lat="43.35123" lon="5.23369">
        <ele>226</ele>
        <time>2016-03-10T13:11:58Z</time>
      </trkpt>
      <trkpt lat="43.35122" lon="5.2337">
        <ele>226</ele>
        <time>2016-03-10T13:12:00Z</time>
      </trkpt>
      <trkpt lat="43.35121" lon="5.23372">
        <ele>226</ele>
        <time>2016-03-10T13:12:00Z</time>
      </trkpt>
      <trkpt lat="43.3512" lon="5.23374">
        <ele>226</ele>
        <time>2016-03-10T13:12:01Z</time>
      </trkpt>
      <trkpt lat="43.35119" lon="5.23375">
        <ele>226</ele>
        <time>2016-03-10T13:12:02Z</time>
      </trkpt>
      <trkpt lat="43.35118" lon="5.23377">
        <ele>226</ele>
        <time>2016-03-10T13:12:03Z</time>
      </trkpt>
      <trkpt lat="43.35118" lon="5.23379">
        <ele>226</ele>
        <time>2016-03-10T13:12:05Z</time>
      </trkpt>
      <trkpt lat="43.35117" lon="5.2338">
        <ele>226</ele>
        <time>2016-03-10T13:12:05Z</time>
      </trkpt>
      <trkpt lat="43.35116" lon="5.23382">
        <ele>226</ele>
        <time>2016-03-10T13:12:06Z</time>
      </trkpt>
      <trkpt lat="43.35115" lon="5.23383">
        <ele>226</ele>
        <time>2016-03-10T13:12:07Z</time>
      </trkpt>
      <trkpt lat="43.35114" lon="5.23385">
        <ele>226</ele>
        <time>2016-03-10T13:12:08Z</time>
      </trkpt>
      <trkpt lat="43.35114" lon="5.23387">
        <ele>226</ele>
        <time>2016-03-10T13:12:09Z</time>
      </trkpt>
      <trkpt lat="43.35112" lon="5.23388">
        <ele>226</ele>
        <time>2016-03-10T13:12:10Z</time>
      </trkpt>
      <trkpt lat="43.35112" lon="5.2339">
        <ele>226</ele>
        <time>2016-03-10T13:12:11Z</time>
      </trkpt>
      <trkpt lat="43.35111" lon="5.23392">
        <ele>226</ele>
        <time>2016-03-10T13:12:12Z</time>
      </trkpt>
      <trkpt lat="43.3511" lon="5.23393">
        <ele>226</ele>
        <time>2016-03-10T13:12:13Z</time>
      </trkpt>
      <trkpt lat="43.35109" lon="5.23395">
        <ele>226</ele>
        <time>2016-03-10T13:12:14Z</time>
      </trkpt>
      <trkpt lat="43.35109" lon="5.23397">
        <ele>226</ele>
        <time>2016-03-10T13:12:15Z</time>
      </trkpt>
      <trkpt lat="43.35108" lon="5.23398">
        <ele>226</ele>
        <time>2016-03-10T13:12:16Z</time>
      </trkpt>
      <trkpt lat="43.35107" lon="5.234">
        <ele>226</ele>
        <time>2016-03-10T13:12:17Z</time>
      </trkpt>
      <trkpt lat="43.35106" lon="5.23401">
        <ele>226</ele>
        <time>2016-03-10T13:12:18Z</time>
      </trkpt>
      <trkpt lat="43.35105" lon="5.23403">
        <ele>226</ele>
        <time>2016-03-10T13:12:19Z</time>
      </trkpt>
      <trkpt lat="43.35104" lon="5.23405">
        <ele>226</ele>
        <time>2016-03-10T13:12:20Z</time>
      </trkpt>
      <trkpt lat="43.35103" lon="5.23406">
        <ele>226</ele>
        <time>2016-03-10T13:12:21Z</time>
      </trkpt>
      <trkpt lat="43.35102" lon="5.23408">
        <ele>226</ele>
        <time>2016-03-10T13:12:22Z</time>
      </trkpt>
      <trkpt lat="43.35102" lon="5.2341">
        <ele>226</ele>
        <time>2016-03-10T13:12:23Z</time>
      </trkpt>
      <trkpt lat="43.35101" lon="5.23412">
        <ele>226</ele>
        <time>2016-03-10T13:12:25Z</time>
      </trkpt>
      <trkpt lat="43.351" lon="5.23413">
        <ele>226</ele>
        <time>2016-03-10T13:12:25Z</time>
      </trkpt>
      <trkpt lat="43.35099" lon="5.23415">
        <ele>226</ele>
        <time>2016-03-10T13:12:26Z</time>
      </trkpt>
      <trkpt lat="43.35098" lon="5.23417">
        <ele>226</ele>
        <time>2016-03-10T13:12:27Z</time>
      </trkpt>
      <trkpt lat="43.35097" lon="5.23418">
        <ele>226</ele>
        <time>2016-03-10T13:12:28Z</time>
      </trkpt>
      <trkpt lat="43.35096" lon="5.2342">
        <ele>226</ele>
        <time>2016-03-10T13:12:30Z</time>
      </trkpt>
      <trkpt lat="43.35095" lon="5.23422">
        <ele>226</ele>
        <time>2016-03-10T13:12:30Z</time>
      </trkpt>
      <trkpt lat="43.35094" lon="5.23423">
        <ele>226</ele>
        <time>2016-03-10T13:12:31Z</time>
      </trkpt>
      <trkpt lat="43.35094" lon="5.23425">
        <ele>226</ele>
        <time>2016-03-10T13:12:32Z</time>
      </trkpt>
      <trkpt lat="43.35093" lon="5.23427">
        <ele>226</ele>
        <time>2016-03-10T13:12:33Z</time>
      </trkpt>
      <trkpt lat="43.35092" lon="5.23428">
        <ele>226</ele>
        <time>2016-03-10T13:12:34Z</time>
      </trkpt>
      <trkpt lat="43.35091" lon="5.2343">
        <ele>226</ele>
        <time>2016-03-10T13:12:35Z</time>
      </trkpt>
      <trkpt lat="43.3509" lon="5.23432">
        <ele>226</ele>
        <time>2016-03-10T13:12:36Z</time>
      </trkpt>
      <trkpt lat="43.35089" lon="5.23433">
        <ele>226</ele>
        <time>2016-03-10T13:12:37Z</time>
      </trkpt>
      <trkpt lat="43.35088" lon="5.23435">
        <ele>226</ele>
        <time>2016-03-10T13:12:38Z</time>
      </trkpt>
      <trkpt lat="43.35088" lon="5.23437">
        <ele>226</ele>
        <time>2016-03-10T13:12:39Z</time>
      </trkpt>
      <trkpt lat="43.35086" lon="5.23438">
        <ele>226</ele>
        <time>2016-03-10T13:12:40Z</time>
      </trkpt>
      <trkpt lat="43.35086" lon="5.2344">
        <ele>226</ele>
        <time>2016-03-10T13:12:41Z</time>
      </trkpt>
      <trkpt lat="43.35085" lon="5.23442">
        <ele>226</ele>
        <time>2016-03-10T13:12:42Z</time>
      </trkpt>
      <trkpt lat="43.35084" lon="5.23443">
        <ele>226</ele>
        <time>2016-03-10T13:12:43Z</time>
      </trkpt>
      <trkpt lat="43.35083" lon="5.23445">
        <ele>226</ele>
        <time>2016-03-10T13:12:44Z</time>
      </trkpt>
      <trkpt lat="43.35082" lon="5.23447">
        <ele>226</ele>
        <time>2016-03-10T13:12:45Z</time>
      </trkpt>
      <trkpt lat="43.35081" lon="5.23448">
        <ele>226</ele>
        <time>2016-03-10T13:12:46Z</time>
      </trkpt>
      <trkpt lat="43.3508" lon="5.2345">
        <ele>226</ele>
        <time>2016-03-10T13:12:47Z</time>
      </trkpt>
      <trkpt lat="43.3508" lon="5.23452">
        <ele>226</ele>
        <time>2016-03-10T13:12:48Z</time>
      </trkpt>
      <trkpt lat="43.35079" lon="5.23453">
        <ele>226</ele>
        <time>2016-03-10T13:12:49Z</time>
      </trkpt>
      <trkpt lat="43.35078" lon="5.23455">
        <ele>226</ele>
        <time>2016-03-10T13:12:50Z</time>
      </trkpt>
      <trkpt lat="43.35077" lon="5.23457">
        <ele>226</ele>
        <time>2016-03-10T13:12:51Z</time>
      </trkpt>
      <trkpt lat="43.35076" lon="5.23458">
        <ele>226</ele>
        <time>2016-03-10T13:12:52Z</time>
      </trkpt>
      <trkpt lat="43.35075" lon="5.2346">
        <ele>226</ele>
        <time>2016-03-10T13:12:53Z</time>
      </trkpt>
      <trkpt lat="43.35074" lon="5.23461">
        <ele>226</ele>
        <time>2016-03-10T13:12:54Z</time>
      </trkpt>
      <trkpt lat="43.35073" lon="5.23463">
        <ele>226</ele>
        <time>2016-03-10T13:12:55Z</time>
      </trkpt>
      <trkpt lat="43.35072" lon="5.23465">
        <ele>226</ele>
        <time>2016-03-10T13:12:56Z</time>
      </trkpt>
      <trkpt lat="43.35072" lon="5.23466">
        <ele>226</ele>
        <time>2016-03-10T13:12:57Z</time>
      </trkpt>
      <trkpt lat="43.35071" lon="5.23468">
        <ele>226</ele>
        <time>2016-03-10T13:12:58Z</time>
      </trkpt>
      <trkpt lat="43.3507" lon="5.2347">
        <ele>226</ele>
        <time>2016-03-10T13:12:59Z</time>
      </trkpt>
      <trkpt lat="43.35069" lon="5.23471">
        <ele>226</ele>
        <time>2016-03-10T13:13:00Z</time>
      </trkpt>
      <trkpt lat="43.35068" lon="5.23473">
        <ele>226</ele>
        <time>2016-03-10T13:13:01Z</time>
      </trkpt>
      <trkpt lat="43.35067" lon="5.23475">
        <ele>226</ele>
        <time>2016-03-10T13:13:02Z</time>
      </trkpt>
      <trkpt lat="43.35066" lon="5.23477">
        <ele>226</ele>
        <time>2016-03-10T13:13:03Z</time>
      </trkpt>
      <trkpt lat="43.35065" lon="5.23478">
        <ele>226</ele>
        <time>2016-03-10T13:13:04Z</time>
      </trkpt>
      <trkpt lat="43.35064" lon="5.2348">
        <ele>226</ele>
        <time>2016-03-10T13:13:05Z</time>
      </trkpt>
      <trkpt lat="43.35064" lon="5.23482">
        <ele>226</ele>
        <time>2016-03-10T13:13:06Z</time>
      </trkpt>
      <trkpt lat="43.35063" lon="5.23484">
        <ele>226</ele>
        <time>2016-03-10T13:13:07Z</time>
      </trkpt>
      <trkpt lat="43.35062" lon="5.23485">
        <ele>226</ele>
        <time>2016-03-10T13:13:08Z</time>
      </trkpt>
      <trkpt lat="43.35061" lon="5.23487">
        <ele>226</ele>
        <time>2016-03-10T13:13:09Z</time>
      </trkpt>
      <trkpt lat="43.35061" lon="5.23489">
        <ele>226</ele>
        <time>2016-03-10T13:13:10Z</time>
      </trkpt>
      <trkpt lat="43.3506" lon="5.23491">
        <ele>226</ele>
        <time>2016-03-10T13:13:11Z</time>
      </trkpt>
      <trkpt lat="43.35059" lon="5.23492">
        <ele>226</ele>
        <time>2016-03-10T13:13:12Z</time>
      </trkpt>
      <trkpt lat="43.35059" lon="5.23494">
        <ele>226</ele>
        <time>2016-03-10T13:13:13Z</time>
      </trkpt>
      <trkpt lat="43.35058" lon="5.23496">
        <ele>226</ele>
        <time>2016-03-10T13:13:14Z</time>
      </trkpt>
      <trkpt lat="43.35057" lon="5.23498">
        <ele>226</ele>
        <time>2016-03-10T13:13:15Z</time>
      </trkpt>
      <trkpt lat="43.35057" lon="5.235">
        <ele>226</ele>
        <time>2016-03-10T13:13:16Z</time>
      </trkpt>
      <trkpt lat="43.35056" lon="5.23501">
        <ele>226</ele>
        <time>2016-03-10T13:13:17Z</time>
      </trkpt>
      <trkpt lat="43.35056" lon="5.23503">
        <ele>226</ele>
        <time>2016-03-10T13:13:18Z</time>
      </trkpt>
      <trkpt lat="43.35055" lon="5.23505">
        <ele>226</ele>
        <time>2016-03-10T13:13:19Z</time>
      </trkpt>
      <trkpt lat="43.35054" lon="5.23507">
        <ele>226</ele>
        <time>2016-03-10T13:13:20Z</time>
      </trkpt>
      <trkpt lat="43.35054" lon="5.23509">
        <ele>226</ele>
        <time>2016-03-10T13:13:21Z</time>
      </trkpt>
      <trkpt lat="43.35054" lon="5.23511">
        <ele>226</ele>
        <time>2016-03-10T13:13:22Z</time>
      </trkpt>
      <trkpt lat="43.35053" lon="5.23513">
        <ele>226</ele>
        <time>2016-03-10T13:13:23Z</time>
      </trkpt>
      <trkpt lat="43.35052" lon="5.23515">
        <ele>226</ele>
        <time>2016-03-10T13:13:24Z</time>
      </trkpt>
      <trkpt lat="43.35052" lon="5.23516">
        <ele>226</ele>
        <time>2016-03-10T13:13:25Z</time>
      </trkpt>
      <trkpt lat="43.35051" lon="5.23518">
        <ele>226</ele>
        <time>2016-03-10T13:13:26Z</time>
      </trkpt>
      <trkpt lat="43.35051" lon="5.2352">
        <ele>226</ele>
        <time>2016-03-10T13:13:27Z</time>
      </trkpt>
      <trkpt lat="43.35051" lon="5.23522">
        <ele>226</ele>
        <time>2016-03-10T13:13:28Z</time>
      </trkpt>
      <trkpt lat="43.3505" lon="5.23524">
        <ele>226</ele>
        <time>2016-03-10T13:13:29Z</time>
      </trkpt>
      <trkpt lat="43.3505" lon="5.23526">
        <ele>226</ele>
        <time>2016-03-10T13:13:30Z</time>
      </trkpt>
      <trkpt lat="43.3505" lon="5.23528">
        <ele>226</ele>
        <time>2016-03-10T13:13:31Z</time>
      </trkpt>
      <trkpt lat="43.3505" lon="5.2353">
        <ele>226</ele>
        <time>2016-03-10T13:13:32Z</time>
      </trkpt>
      <trkpt lat="43.3505" lon="5.23532">
        <ele>226</ele>
        <time>2016-03-10T13:13:33Z</time>
      </trkpt>
      <trkpt lat="43.35049" lon="5.23533">
        <ele>226</ele>
        <time>2016-03-10T13:13:34Z</time>
      </trkpt>
      <trkpt lat="43.35049" lon="5.23535">
        <ele>226</ele>
        <time>2016-03-10T13:13:35Z</time>
      </trkpt>
      <trkpt lat="43.35049" lon="5.23537">
        <ele>226</ele>
        <time>2016-03-10T13:13:36Z</time>
      </trkpt>
      <trkpt lat="43.35049" lon="5.23539">
        <ele>226</ele>
        <time>2016-03-10T13:13:37Z</time>
      </trkpt>
      <trkpt lat="43.35049" lon="5.23541">
        <ele>226</ele>
        <time>2016-03-10T13:13:38Z</time>
      </trkpt>
      <trkpt lat="43.35049" lon="5.23543">
        <ele>226</ele>
        <time>2016-03-10T13:13:39Z</time>
      </trkpt>
      <trkpt lat="43.35049" lon="5.23545">
        <ele>226</ele>
        <time>2016-03-10T13:13:40Z</time>
      </trkpt>
      <trkpt lat="43.35049" lon="5.23547">
        <ele>226</ele>
        <time>2016-03-10T13:13:41Z</time>
      </trkpt>
      <trkpt lat="43.35048" lon="5.23549">
        <ele>226</ele>
        <time>2016-03-10T13:13:42Z</time>
      </trkpt>
      <trkpt lat="43.35048" lon="5.2355">
        <ele>226</ele>
        <time>2016-03-10T13:13:43Z</time>
      </trkpt>
      <trkpt lat="43.35048" lon="5.23552">
        <ele>226</ele>
        <time>2016-03-10T13:13:44Z</time>
      </trkpt>
      <trkpt lat="43.35048" lon="5.23554">
        <ele>226</ele>
        <time>2016-03-10T13:13:45Z</time>
      </trkpt>
      <trkpt lat="43.35047" lon="5.23556">
        <ele>226</ele>
        <time>2016-03-10T13:13:46Z</time>
      </trkpt>
      <trkpt lat="43.35047" lon="5.23558">
        <ele>226</ele>
        <time>2016-03-10T13:13:47Z</time>
      </trkpt>
      <trkpt lat="43.35047" lon="5.2356">
        <ele>226</ele>
        <time>2016-03-10T13:13:48Z</time>
      </trkpt>
      <trkpt lat="43.35047" lon="5.23562">
        <ele>226</ele>
        <time>2016-03-10T13:13:49Z</time>
      </trkpt>
      <trkpt lat="43.35047" lon="5.23564">
        <ele>226</ele>
        <time>2016-03-10T13:13:50Z</time>
      </trkpt>
      <trkpt lat="43.35047" lon="5.23566">
        <ele>226</ele>
        <time>2016-03-10T13:13:51Z</time>
      </trkpt>
      <trkpt lat="43.35047" lon="5.23568">
        <ele>226</ele>
        <time>2016-03-10T13:13:52Z</time>
      </trkpt>
      <trkpt lat="43.35047" lon="5.2357">
        <ele>226</ele>
        <time>2016-03-10T13:13:53Z</time>
      </trkpt>
      <trkpt lat="43.35047" lon="5.23571">
        <ele>226</ele>
        <time>2016-03-10T13:13:54Z</time>
      </trkpt>
      <trkpt lat="43.35047" lon="5.23573">
        <ele>226</ele>
        <time>2016-03-10T13:13:55Z</time>
      </trkpt>
      <trkpt lat="43.35048" lon="5.23575">
        <ele>226</ele>
        <time>2016-03-10T13:13:56Z</time>
      </trkpt>
      <trkpt lat="43.35048" lon="5.23577">
        <ele>226</ele>
        <time>2016-03-10T13:13:57Z</time>
      </trkpt>
      <trkpt lat="43.35048" lon="5.23579">
        <ele>226</ele>
        <time>2016-03-10T13:13:58Z</time>
      </trkpt>
      <trkpt lat="43.35049" lon="5.23581">
        <ele>226</ele>
        <time>2016-03-10T13:13:59Z</time>
      </trkpt>
      <trkpt lat="43.35049" lon="5.23583">
        <ele>226</ele>
        <time>2016-03-10T13:14:00Z</time>
      </trkpt>
      <trkpt lat="43.35049" lon="5.23585">
        <ele>226</ele>
        <time>2016-03-10T13:14:01Z</time>
      </trkpt>
      <trkpt lat="43.3505" lon="5.23586">
        <ele>226</ele>
        <time>2016-03-10T13:14:02Z</time>
      </trkpt>
      <trkpt lat="43.3505" lon="5.23588">
        <ele>226</ele>
        <time>2016-03-10T13:14:03Z</time>
      </trkpt>
      <trkpt lat="43.3505" lon="5.2359">
        <ele>226</ele>
        <time>2016-03-10T13:14:04Z</time>
      </trkpt>
      <trkpt lat="43.3505" lon="5.23592">
        <ele>226</ele>
        <time>2016-03-10T13:14:05Z</time>
      </trkpt>
      <trkpt lat="43.3505" lon="5.23594">
        <ele>226</ele>
        <time>2016-03-10T13:14:06Z</time>
      </trkpt>
      <trkpt lat="43.3505" lon="5.23596">
        <ele>225</ele>
        <time>2016-03-10T13:14:07Z</time>
      </trkpt>
      <trkpt lat="43.3505" lon="5.23598">
        <ele>225</ele>
        <time>2016-03-10T13:14:08Z</time>
      </trkpt>
      <trkpt lat="43.3505" lon="5.23599">
        <ele>225</ele>
        <time>2016-03-10T13:14:09Z</time>
      </trkpt>
      <trkpt lat="43.35049" lon="5.23601">
        <ele>225</ele>
        <time>2016-03-10T13:14:10Z</time>
      </trkpt>
      <trkpt lat="43.35049" lon="5.23603">
        <ele>225</ele>
        <time>2016-03-10T13:14:11Z</time>
      </trkpt>
      <trkpt lat="43.35047" lon="5.23606">
        <ele>224</ele>
        <time>2016-03-10T13:14:13Z</time>
      </trkpt>
      <trkpt lat="43.35045" lon="5.23608">
        <ele>224</ele>
        <time>2016-03-10T13:14:15Z</time>
      </trkpt>
      <trkpt lat="43.35044" lon="5.23609">
        <ele>224</ele>
        <time>2016-03-10T13:14:16Z</time>
      </trkpt>
      <trkpt lat="43.35043" lon="5.2361">
        <ele>224</ele>
        <time>2016-03-10T13:14:17Z</time>
      </trkpt>
      <trkpt lat="43.35041" lon="5.23611">
        <ele>224</ele>
        <time>2016-03-10T13:14:18Z</time>
      </trkpt>
      <trkpt lat="43.3504" lon="5.23612">
        <ele>223</ele>
        <time>2016-03-10T13:14:19Z</time>
      </trkpt>
      <trkpt lat="43.35039" lon="5.23612">
        <ele>223</ele>
        <time>2016-03-10T13:14:20Z</time>
      </trkpt>
      <trkpt lat="43.35038" lon="5.23613">
        <ele>223</ele>
        <time>2016-03-10T13:14:21Z</time>
      </trkpt>
      <trkpt lat="43.35036" lon="5.23613">
        <ele>223</ele>
        <time>2016-03-10T13:14:22Z</time>
      </trkpt>
      <trkpt lat="43.35035" lon="5.23614">
        <ele>222</ele>
        <time>2016-03-10T13:14:23Z</time>
      </trkpt>
      <trkpt lat="43.35034" lon="5.23614">
        <ele>222</ele>
        <time>2016-03-10T13:14:24Z</time>
      </trkpt>
      <trkpt lat="43.35033" lon="5.23615">
        <ele>222</ele>
        <time>2016-03-10T13:14:25Z</time>
      </trkpt>
      <trkpt lat="43.35031" lon="5.23615">
        <ele>222</ele>
        <time>2016-03-10T13:14:26Z</time>
      </trkpt>
      <trkpt lat="43.3503" lon="5.23616">
        <ele>222</ele>
        <time>2016-03-10T13:14:27Z</time>
      </trkpt>
      <trkpt lat="43.35028" lon="5.23616">
        <ele>221</ele>
        <time>2016-03-10T13:14:28Z</time>
      </trkpt>
      <trkpt lat="43.35027" lon="5.23617">
        <ele>221</ele>
        <time>2016-03-10T13:14:29Z</time>
      </trkpt>
      <trkpt lat="43.35026" lon="5.23618">
        <ele>221</ele>
        <time>2016-03-10T13:14:30Z</time>
      </trkpt>
      <trkpt lat="43.35025" lon="5.23618">
        <ele>221</ele>
        <time>2016-03-10T13:14:31Z</time>
      </trkpt>
      <trkpt lat="43.35023" lon="5.23619">
        <ele>221</ele>
        <time>2016-03-10T13:14:32Z</time>
      </trkpt>
      <trkpt lat="43.35022" lon="5.2362">
        <ele>221</ele>
        <time>2016-03-10T13:14:33Z</time>
      </trkpt>
      <trkpt lat="43.35021" lon="5.2362">
        <ele>220</ele>
        <time>2016-03-10T13:14:34Z</time>
      </trkpt>
      <trkpt lat="43.3502" lon="5.23621">
        <ele>220</ele>
        <time>2016-03-10T13:14:35Z</time>
      </trkpt>
      <trkpt lat="43.35019" lon="5.23622">
        <ele>220</ele>
        <time>2016-03-10T13:14:36Z</time>
      </trkpt>
      <trkpt lat="43.35017" lon="5.23623">
        <ele>220</ele>
        <time>2016-03-10T13:14:37Z</time>
      </trkpt>
      <trkpt lat="43.35016" lon="5.23625">
        <ele>220</ele>
        <time>2016-03-10T13:14:38Z</time>
      </trkpt>
      <trkpt lat="43.35015" lon="5.23626">
        <ele>220</ele>
        <time>2016-03-10T13:14:39Z</time>
      </trkpt>
      <trkpt lat="43.35013" lon="5.23628">
        <ele>220</ele>
        <time>2016-03-10T13:14:41Z</time>
      </trkpt>
      <trkpt lat="43.35012" lon="5.23629">
        <ele>219</ele>
        <time>2016-03-10T13:14:42Z</time>
      </trkpt>
      <trkpt lat="43.35011" lon="5.23631">
        <ele>219</ele>
        <time>2016-03-10T13:14:43Z</time>
      </trkpt>
      <trkpt lat="43.35009" lon="5.23632">
        <ele>219</ele>
        <time>2016-03-10T13:14:44Z</time>
      </trkpt>
      <trkpt lat="43.35008" lon="5.23633">
        <ele>219</ele>
        <time>2016-03-10T13:14:45Z</time>
      </trkpt>
      <trkpt lat="43.35007" lon="5.23634">
        <ele>219</ele>
        <time>2016-03-10T13:14:46Z</time>
      </trkpt>
      <trkpt lat="43.35006" lon="5.23635">
        <ele>219</ele>
        <time>2016-03-10T13:14:47Z</time>
      </trkpt>
      <trkpt lat="43.35004" lon="5.23636">
        <ele>219</ele>
        <time>2016-03-10T13:14:48Z</time>
      </trkpt>
      <trkpt lat="43.35003" lon="5.23637">
        <ele>219</ele>
        <time>2016-03-10T13:14:49Z</time>
      </trkpt>
      <trkpt lat="43.35002" lon="5.23638">
        <ele>219</ele>
        <time>2016-03-10T13:14:50Z</time>
      </trkpt>
      <trkpt lat="43.35001" lon="5.23639">
        <ele>219</ele>
        <time>2016-03-10T13:14:51Z</time>
      </trkpt>
      <trkpt lat="43.35" lon="5.2364">
        <ele>219</ele>
        <time>2016-03-10T13:14:52Z</time>
      </trkpt>
      <trkpt lat="43.34999" lon="5.23641">
        <ele>218</ele>
        <time>2016-03-10T13:14:53Z</time>
      </trkpt>
      <trkpt lat="43.34997" lon="5.23642">
        <ele>218</ele>
        <time>2016-03-10T13:14:54Z</time>
      </trkpt>
      <trkpt lat="43.34996" lon="5.23643">
        <ele>218</ele>
        <time>2016-03-10T13:14:55Z</time>
      </trkpt>
      <trkpt lat="43.34995" lon="5.23644">
        <ele>218</ele>
        <time>2016-03-10T13:14:56Z</time>
      </trkpt>
      <trkpt lat="43.34993" lon="5.23645">
        <ele>218</ele>
        <time>2016-03-10T13:14:57Z</time>
      </trkpt>
      <trkpt lat="43.34992" lon="5.23645">
        <ele>218</ele>
        <time>2016-03-10T13:14:58Z</time>
      </trkpt>
      <trkpt lat="43.3499" lon="5.23646">
        <ele>218</ele>
        <time>2016-03-10T13:14:59Z</time>
      </trkpt>
      <trkpt lat="43.34989" lon="5.23647">
        <ele>218</ele>
        <time>2016-03-10T13:15:00Z</time>
      </trkpt>
      <trkpt lat="43.34988" lon="5.23647">
        <ele>218</ele>
        <time>2016-03-10T13:15:01Z</time>
      </trkpt>
      <trkpt lat="43.34986" lon="5.23648">
        <ele>217</ele>
        <time>2016-03-10T13:15:02Z</time>
      </trkpt>
      <trkpt lat="43.34985" lon="5.23649">
        <ele>217</ele>
        <time>2016-03-10T13:15:03Z</time>
      </trkpt>
      <trkpt lat="43.34984" lon="5.23649">
        <ele>217</ele>
        <time>2016-03-10T13:15:04Z</time>
      </trkpt>
      <trkpt lat="43.34982" lon="5.23649">
        <ele>217</ele>
        <time>2016-03-10T13:15:05Z</time>
      </trkpt>
      <trkpt lat="43.34981" lon="5.2365">
        <ele>217</ele>
        <time>2016-03-10T13:15:06Z</time>
      </trkpt>
      <trkpt lat="43.34979" lon="5.2365">
        <ele>217</ele>
        <time>2016-03-10T13:15:07Z</time>
      </trkpt>
      <trkpt lat="43.34978" lon="5.23651">
        <ele>216</ele>
        <time>2016-03-10T13:15:08Z</time>
      </trkpt>
      <trkpt lat="43.34977" lon="5.23651">
        <ele>216</ele>
        <time>2016-03-10T13:15:09Z</time>
      </trkpt>
      <trkpt lat="43.34975" lon="5.23651">
        <ele>216</ele>
        <time>2016-03-10T13:15:10Z</time>
      </trkpt>
      <trkpt lat="43.34973" lon="5.23652">
        <ele>216</ele>
        <time>2016-03-10T13:15:11Z</time>
      </trkpt>
      <trkpt lat="43.34972" lon="5.23652">
        <ele>216</ele>
        <time>2016-03-10T13:15:12Z</time>
      </trkpt>
      <trkpt lat="43.3497" lon="5.23653">
        <ele>216</ele>
        <time>2016-03-10T13:15:13Z</time>
      </trkpt>
      <trkpt lat="43.34969" lon="5.23653">
        <ele>216</ele>
        <time>2016-03-10T13:15:14Z</time>
      </trkpt>
      <trkpt lat="43.34967" lon="5.23653">
        <ele>216</ele>
        <time>2016-03-10T13:15:15Z</time>
      </trkpt>
      <trkpt lat="43.34966" lon="5.23654">
        <ele>216</ele>
        <time>2016-03-10T13:15:16Z</time>
      </trkpt>
      <trkpt lat="43.34964" lon="5.23654">
        <ele>216</ele>
        <time>2016-03-10T13:15:17Z</time>
      </trkpt>
      <trkpt lat="43.34963" lon="5.23655">
        <ele>216</ele>
        <time>2016-03-10T13:15:18Z</time>
      </trkpt>
      <trkpt lat="43.34961" lon="5.23655">
        <ele>216</ele>
        <time>2016-03-10T13:15:19Z</time>
      </trkpt>
      <trkpt lat="43.3496" lon="5.23655">
        <ele>215</ele>
        <time>2016-03-10T13:15:20Z</time>
      </trkpt>
      <trkpt lat="43.34959" lon="5.23656">
        <ele>215</ele>
        <time>2016-03-10T13:15:21Z</time>
      </trkpt>
      <trkpt lat="43.34957" lon="5.23656">
        <ele>215</ele>
        <time>2016-03-10T13:15:22Z</time>
      </trkpt>
      <trkpt lat="43.34956" lon="5.23657">
        <ele>215</ele>
        <time>2016-03-10T13:15:23Z</time>
      </trkpt>
      <trkpt lat="43.34955" lon="5.23657">
        <ele>215</ele>
        <time>2016-03-10T13:15:24Z</time>
      </trkpt>
      <trkpt lat="43.34953" lon="5.23658">
        <ele>215</ele>
        <time>2016-03-10T13:15:25Z</time>
      </trkpt>
      <trkpt lat="43.34952" lon="5.23659">
        <ele>215</ele>
        <time>2016-03-10T13:15:26Z</time>
      </trkpt>
      <trkpt lat="43.34951" lon="5.2366">
        <ele>215</ele>
        <time>2016-03-10T13:15:27Z</time>
      </trkpt>
      <trkpt lat="43.34949" lon="5.2366">
        <ele>215</ele>
        <time>2016-03-10T13:15:28Z</time>
      </trkpt>
      <trkpt lat="43.34948" lon="5.23661">
        <ele>214</ele>
        <time>2016-03-10T13:15:29Z</time>
      </trkpt>
      <trkpt lat="43.34946" lon="5.23661">
        <ele>214</ele>
        <time>2016-03-10T13:15:30Z</time>
      </trkpt>
      <trkpt lat="43.34945" lon="5.23662">
        <ele>214</ele>
        <time>2016-03-10T13:15:31Z</time>
      </trkpt>
      <trkpt lat="43.34944" lon="5.23663">
        <ele>214</ele>
        <time>2016-03-10T13:15:32Z</time>
      </trkpt>
      <trkpt lat="43.34943" lon="5.23663">
        <ele>214</ele>
        <time>2016-03-10T13:15:33Z</time>
      </trkpt>
      <trkpt lat="43.34941" lon="5.23664">
        <ele>214</ele>
        <time>2016-03-10T13:15:34Z</time>
      </trkpt>
      <trkpt lat="43.3494" lon="5.23664">
        <ele>214</ele>
        <time>2016-03-10T13:15:35Z</time>
      </trkpt>
      <trkpt lat="43.34938" lon="5.23665">
        <ele>214</ele>
        <time>2016-03-10T13:15:36Z</time>
      </trkpt>
      <trkpt lat="43.34937" lon="5.23665">
        <ele>214</ele>
        <time>2016-03-10T13:15:37Z</time>
      </trkpt>
      <trkpt lat="43.34935" lon="5.23665">
        <ele>213</ele>
        <time>2016-03-10T13:15:38Z</time>
      </trkpt>
      <trkpt lat="43.34934" lon="5.23665">
        <ele>213</ele>
        <time>2016-03-10T13:15:39Z</time>
      </trkpt>
      <trkpt lat="43.34932" lon="5.23665">
        <ele>213</ele>
        <time>2016-03-10T13:15:40Z</time>
      </trkpt>
      <trkpt lat="43.34931" lon="5.23665">
        <ele>213</ele>
        <time>2016-03-10T13:15:41Z</time>
      </trkpt>
      <trkpt lat="43.3493" lon="5.23665">
        <ele>213</ele>
        <time>2016-03-10T13:15:42Z</time>
      </trkpt>
      <trkpt lat="43.34928" lon="5.23664">
        <ele>213</ele>
        <time>2016-03-10T13:15:43Z</time>
      </trkpt>
      <trkpt lat="43.34927" lon="5.23664">
        <ele>213</ele>
        <time>2016-03-10T13:15:44Z</time>
      </trkpt>
      <trkpt lat="43.34925" lon="5.23664">
        <ele>213</ele>
        <time>2016-03-10T13:15:45Z</time>
      </trkpt>
      <trkpt lat="43.34924" lon="5.23663">
        <ele>212</ele>
        <time>2016-03-10T13:15:46Z</time>
      </trkpt>
      <trkpt lat="43.34922" lon="5.23663">
        <ele>212</ele>
        <time>2016-03-10T13:15:47Z</time>
      </trkpt>
      <trkpt lat="43.34921" lon="5.23662">
        <ele>212</ele>
        <time>2016-03-10T13:15:48Z</time>
      </trkpt>
      <trkpt lat="43.3492" lon="5.23662">
        <ele>212</ele>
        <time>2016-03-10T13:15:49Z</time>
      </trkpt>
      <trkpt lat="43.34919" lon="5.23661">
        <ele>212</ele>
        <time>2016-03-10T13:15:50Z</time>
      </trkpt>
      <trkpt lat="43.34917" lon="5.23661">
        <ele>212</ele>
        <time>2016-03-10T13:15:51Z</time>
      </trkpt>
      <trkpt lat="43.34916" lon="5.2366">
        <ele>211</ele>
        <time>2016-03-10T13:15:52Z</time>
      </trkpt>
      <trkpt lat="43.34914" lon="5.2366">
        <ele>211</ele>
        <time>2016-03-10T13:15:53Z</time>
      </trkpt>
      <trkpt lat="43.34913" lon="5.2366">
        <ele>211</ele>
        <time>2016-03-10T13:15:54Z</time>
      </trkpt>
      <trkpt lat="43.34911" lon="5.2366">
        <ele>211</ele>
        <time>2016-03-10T13:15:55Z</time>
      </trkpt>
      <trkpt lat="43.3491" lon="5.2366">
        <ele>211</ele>
        <time>2016-03-10T13:15:56Z</time>
      </trkpt>
      <trkpt lat="43.34909" lon="5.2366">
        <ele>211</ele>
        <time>2016-03-10T13:15:57Z</time>
      </trkpt>
      <trkpt lat="43.34907" lon="5.2366">
        <ele>211</ele>
        <time>2016-03-10T13:15:58Z</time>
      </trkpt>
      <trkpt lat="43.34906" lon="5.23661">
        <ele>211</ele>
        <time>2016-03-10T13:15:59Z</time>
      </trkpt>
      <trkpt lat="43.34904" lon="5.23661">
        <ele>210</ele>
        <time>2016-03-10T13:16:00Z</time>
      </trkpt>
      <trkpt lat="43.34903" lon="5.23662">
        <ele>210</ele>
        <time>2016-03-10T13:16:01Z</time>
      </trkpt>
      <trkpt lat="43.34902" lon="5.23662">
        <ele>210</ele>
        <time>2016-03-10T13:16:02Z</time>
      </trkpt>
      <trkpt lat="43.349" lon="5.23662">
        <ele>210</ele>
        <time>2016-03-10T13:16:03Z</time>
      </trkpt>
      <trkpt lat="43.34899" lon="5.23663">
        <ele>210</ele>
        <time>2016-03-10T13:16:04Z</time>
      </trkpt>
      <trkpt lat="43.34898" lon="5.23663">
        <ele>209</ele>
        <time>2016-03-10T13:16:05Z</time>
      </trkpt>
      <trkpt lat="43.34896" lon="5.23664">
        <ele>209</ele>
        <time>2016-03-10T13:16:06Z</time>
      </trkpt>
      <trkpt lat="43.34895" lon="5.23665">
        <ele>209</ele>
        <time>2016-03-10T13:16:07Z</time>
      </trkpt>
      <trkpt lat="43.34894" lon="5.23666">
        <ele>209</ele>
        <time>2016-03-10T13:16:08Z</time>
      </trkpt>
      <trkpt lat="43.34893" lon="5.23667">
        <ele>209</ele>
        <time>2016-03-10T13:16:09Z</time>
      </trkpt>
      <trkpt lat="43.34891" lon="5.23668">
        <ele>209</ele>
        <time>2016-03-10T13:16:10Z</time>
      </trkpt>
      <trkpt lat="43.3489" lon="5.23669">
        <ele>209</ele>
        <time>2016-03-10T13:16:11Z</time>
      </trkpt>
      <trkpt lat="43.34889" lon="5.2367">
        <ele>209</ele>
        <time>2016-03-10T13:16:12Z</time>
      </trkpt>
      <trkpt lat="43.34888" lon="5.23672">
        <ele>208</ele>
        <time>2016-03-10T13:16:13Z</time>
      </trkpt>
      <trkpt lat="43.34887" lon="5.23673">
        <ele>208</ele>
        <time>2016-03-10T13:16:14Z</time>
      </trkpt>
      <trkpt lat="43.34884" lon="5.23676">
        <ele>208</ele>
        <time>2016-03-10T13:16:16Z</time>
      </trkpt>
      <trkpt lat="43.34883" lon="5.23677">
        <ele>208</ele>
        <time>2016-03-10T13:16:17Z</time>
      </trkpt>
      <trkpt lat="43.34882" lon="5.23679">
        <ele>208</ele>
        <time>2016-03-10T13:16:18Z</time>
      </trkpt>
      <trkpt lat="43.34881" lon="5.2368">
        <ele>208</ele>
        <time>2016-03-10T13:16:19Z</time>
      </trkpt>
      <trkpt lat="43.3488" lon="5.23681">
        <ele>208</ele>
        <time>2016-03-10T13:16:20Z</time>
      </trkpt>
      <trkpt lat="43.34879" lon="5.23683">
        <ele>208</ele>
        <time>2016-03-10T13:16:21Z</time>
      </trkpt>
      <trkpt lat="43.34877" lon="5.23686">
        <ele>208</ele>
        <time>2016-03-10T13:16:23Z</time>
      </trkpt>
      <trkpt lat="43.34876" lon="5.23688">
        <ele>208</ele>
        <time>2016-03-10T13:16:25Z</time>
      </trkpt>
      <trkpt lat="43.34875" lon="5.2369">
        <ele>208</ele>
        <time>2016-03-10T13:16:26Z</time>
      </trkpt>
      <trkpt lat="43.34874" lon="5.23691">
        <ele>208</ele>
        <time>2016-03-10T13:16:27Z</time>
      </trkpt>
      <trkpt lat="43.34873" lon="5.23693">
        <ele>208</ele>
        <time>2016-03-10T13:16:28Z</time>
      </trkpt>
      <trkpt lat="43.34871" lon="5.23696">
        <ele>208</ele>
        <time>2016-03-10T13:16:30Z</time>
      </trkpt>
      <trkpt lat="43.3487" lon="5.23697">
        <ele>208</ele>
        <time>2016-03-10T13:16:31Z</time>
      </trkpt>
      <trkpt lat="43.34869" lon="5.23699">
        <ele>208</ele>
        <time>2016-03-10T13:16:32Z</time>
      </trkpt>
      <trkpt lat="43.34868" lon="5.237">
        <ele>208</ele>
        <time>2016-03-10T13:16:33Z</time>
      </trkpt>
      <trkpt lat="43.34867" lon="5.23701">
        <ele>208</ele>
        <time>2016-03-10T13:16:34Z</time>
      </trkpt>
      <trkpt lat="43.34866" lon="5.23702">
        <ele>208</ele>
        <time>2016-03-10T13:16:35Z</time>
      </trkpt>
      <trkpt lat="43.34864" lon="5.23703">
        <ele>208</ele>
        <time>2016-03-10T13:16:36Z</time>
      </trkpt>
      <trkpt lat="43.34863" lon="5.23704">
        <ele>208</ele>
        <time>2016-03-10T13:16:37Z</time>
      </trkpt>
      <trkpt lat="43.34861" lon="5.23705">
        <ele>208</ele>
        <time>2016-03-10T13:16:38Z</time>
      </trkpt>
      <trkpt lat="43.3486" lon="5.23705">
        <ele>208</ele>
        <time>2016-03-10T13:16:39Z</time>
      </trkpt>
      <trkpt lat="43.34858" lon="5.23706">
        <ele>208</ele>
        <time>2016-03-10T13:16:40Z</time>
      </trkpt>
      <trkpt lat="43.34857" lon="5.23706">
        <ele>208</ele>
        <time>2016-03-10T13:16:41Z</time>
      </trkpt>
      <trkpt lat="43.34855" lon="5.23706">
        <ele>208</ele>
        <time>2016-03-10T13:16:42Z</time>
      </trkpt>
      <trkpt lat="43.34854" lon="5.23706">
        <ele>207</ele>
        <time>2016-03-10T13:16:43Z</time>
      </trkpt>
      <trkpt lat="43.34853" lon="5.23706">
        <ele>207</ele>
        <time>2016-03-10T13:16:44Z</time>
      </trkpt>
      <trkpt lat="43.34851" lon="5.23705">
        <ele>207</ele>
        <time>2016-03-10T13:16:45Z</time>
      </trkpt>
      <trkpt lat="43.3485" lon="5.23705">
        <ele>207</ele>
        <time>2016-03-10T13:16:46Z</time>
      </trkpt>
      <trkpt lat="43.34849" lon="5.23704">
        <ele>207</ele>
        <time>2016-03-10T13:16:47Z</time>
      </trkpt>
      <trkpt lat="43.34847" lon="5.23703">
        <ele>207</ele>
        <time>2016-03-10T13:16:48Z</time>
      </trkpt>
      <trkpt lat="43.34846" lon="5.23703">
        <ele>206</ele>
        <time>2016-03-10T13:16:49Z</time>
      </trkpt>
      <trkpt lat="43.34845" lon="5.23702">
        <ele>206</ele>
        <time>2016-03-10T13:16:50Z</time>
      </trkpt>
      <trkpt lat="43.34843" lon="5.23701">
        <ele>206</ele>
        <time>2016-03-10T13:16:51Z</time>
      </trkpt>
      <trkpt lat="43.34842" lon="5.23701">
        <ele>206</ele>
        <time>2016-03-10T13:16:52Z</time>
      </trkpt>
      <trkpt lat="43.3484" lon="5.237">
        <ele>206</ele>
        <time>2016-03-10T13:16:53Z</time>
      </trkpt>
      <trkpt lat="43.34839" lon="5.237">
        <ele>206</ele>
        <time>2016-03-10T13:16:54Z</time>
      </trkpt>
      <trkpt lat="43.34838" lon="5.23699">
        <ele>205</ele>
        <time>2016-03-10T13:16:55Z</time>
      </trkpt>
      <trkpt lat="43.34837" lon="5.23699">
        <ele>205</ele>
        <time>2016-03-10T13:16:56Z</time>
      </trkpt>
      <trkpt lat="43.34835" lon="5.23698">
        <ele>205</ele>
        <time>2016-03-10T13:16:57Z</time>
      </trkpt>
      <trkpt lat="43.34834" lon="5.23698">
        <ele>205</ele>
        <time>2016-03-10T13:16:58Z</time>
      </trkpt>
      <trkpt lat="43.34833" lon="5.23698">
        <ele>205</ele>
        <time>2016-03-10T13:16:59Z</time>
      </trkpt>
      <trkpt lat="43.34832" lon="5.23698">
        <ele>205</ele>
        <time>2016-03-10T13:17:00Z</time>
      </trkpt>
      <trkpt lat="43.3483" lon="5.23698">
        <ele>204</ele>
        <time>2016-03-10T13:17:01Z</time>
      </trkpt>
      <trkpt lat="43.34829" lon="5.23698">
        <ele>204</ele>
        <time>2016-03-10T13:17:02Z</time>
      </trkpt>
      <trkpt lat="43.34827" lon="5.23698">
        <ele>204</ele>
        <time>2016-03-10T13:17:03Z</time>
      </trkpt>
      <trkpt lat="43.34826" lon="5.23698">
        <ele>204</ele>
        <time>2016-03-10T13:17:04Z</time>
      </trkpt>
      <trkpt lat="43.34824" lon="5.23698">
        <ele>204</ele>
        <time>2016-03-10T13:17:05Z</time>
      </trkpt>
      <trkpt lat="43.34823" lon="5.23698">
        <ele>204</ele>
        <time>2016-03-10T13:17:06Z</time>
      </trkpt>
      <trkpt lat="43.34821" lon="5.23698">
        <ele>204</ele>
        <time>2016-03-10T13:17:07Z</time>
      </trkpt>
      <trkpt lat="43.3482" lon="5.23699">
        <ele>204</ele>
        <time>2016-03-10T13:17:08Z</time>
      </trkpt>
      <trkpt lat="43.34818" lon="5.23699">
        <ele>203</ele>
        <time>2016-03-10T13:17:09Z</time>
      </trkpt>
      <trkpt lat="43.34816" lon="5.23699">
        <ele>203</ele>
        <time>2016-03-10T13:17:10Z</time>
      </trkpt>
      <trkpt lat="43.34815" lon="5.237">
        <ele>203</ele>
        <time>2016-03-10T13:17:11Z</time>
      </trkpt>
      <trkpt lat="43.34813" lon="5.237">
        <ele>203</ele>
        <time>2016-03-10T13:17:12Z</time>
      </trkpt>
      <trkpt lat="43.34812" lon="5.237">
        <ele>203</ele>
        <time>2016-03-10T13:17:13Z</time>
      </trkpt>
      <trkpt lat="43.3481" lon="5.237">
        <ele>203</ele>
        <time>2016-03-10T13:17:14Z</time>
      </trkpt>
      <trkpt lat="43.34808" lon="5.23701">
        <ele>203</ele>
        <time>2016-03-10T13:17:15Z</time>
      </trkpt>
      <trkpt lat="43.34807" lon="5.23701">
        <ele>203</ele>
        <time>2016-03-10T13:17:16Z</time>
      </trkpt>
      <trkpt lat="43.34805" lon="5.23701">
        <ele>203</ele>
        <time>2016-03-10T13:17:17Z</time>
      </trkpt>
      <trkpt lat="43.34804" lon="5.23701">
        <ele>203</ele>
        <time>2016-03-10T13:17:18Z</time>
      </trkpt>
      <trkpt lat="43.34802" lon="5.23702">
        <ele>203</ele>
        <time>2016-03-10T13:17:19Z</time>
      </trkpt>
      <trkpt lat="43.34801" lon="5.23702">
        <ele>203</ele>
        <time>2016-03-10T13:17:20Z</time>
      </trkpt>
      <trkpt lat="43.34799" lon="5.23702">
        <ele>203</ele>
        <time>2016-03-10T13:17:21Z</time>
      </trkpt>
      <trkpt lat="43.34798" lon="5.23702">
        <ele>203</ele>
        <time>2016-03-10T13:17:22Z</time>
      </trkpt>
      <trkpt lat="43.34796" lon="5.23702">
        <ele>203</ele>
        <time>2016-03-10T13:17:23Z</time>
      </trkpt>
      <trkpt lat="43.34795" lon="5.23703">
        <ele>203</ele>
        <time>2016-03-10T13:17:24Z</time>
      </trkpt>
      <trkpt lat="43.34793" lon="5.23703">
        <ele>202</ele>
        <time>2016-03-10T13:17:25Z</time>
      </trkpt>
      <trkpt lat="43.34792" lon="5.23703">
        <ele>202</ele>
        <time>2016-03-10T13:17:26Z</time>
      </trkpt>
      <trkpt lat="43.3479" lon="5.23703">
        <ele>202</ele>
        <time>2016-03-10T13:17:27Z</time>
      </trkpt>
      <trkpt lat="43.34788" lon="5.23703">
        <ele>202</ele>
        <time>2016-03-10T13:17:28Z</time>
      </trkpt>
      <trkpt lat="43.34787" lon="5.23704">
        <ele>202</ele>
        <time>2016-03-10T13:17:29Z</time>
      </trkpt>
      <trkpt lat="43.34785" lon="5.23704">
        <ele>202</ele>
        <time>2016-03-10T13:17:30Z</time>
      </trkpt>
      <trkpt lat="43.34784" lon="5.23704">
        <ele>202</ele>
        <time>2016-03-10T13:17:31Z</time>
      </trkpt>
      <trkpt lat="43.34782" lon="5.23704">
        <ele>202</ele>
        <time>2016-03-10T13:17:32Z</time>
      </trkpt>
      <trkpt lat="43.34781" lon="5.23704">
        <ele>202</ele>
        <time>2016-03-10T13:17:33Z</time>
      </trkpt>
      <trkpt lat="43.34779" lon="5.23704">
        <ele>201</ele>
        <time>2016-03-10T13:17:34Z</time>
      </trkpt>
      <trkpt lat="43.34778" lon="5.23704">
        <ele>201</ele>
        <time>2016-03-10T13:17:35Z</time>
      </trkpt>
      <trkpt lat="43.34777" lon="5.23704">
        <ele>201</ele>
        <time>2016-03-10T13:17:36Z</time>
      </trkpt>
      <trkpt lat="43.34775" lon="5.23704">
        <ele>201</ele>
        <time>2016-03-10T13:17:37Z</time>
      </trkpt>
      <trkpt lat="43.34773" lon="5.23704">
        <ele>201</ele>
        <time>2016-03-10T13:17:38Z</time>
      </trkpt>
      <trkpt lat="43.34772" lon="5.23705">
        <ele>201</ele>
        <time>2016-03-10T13:17:39Z</time>
      </trkpt>
      <trkpt lat="43.34771" lon="5.23705">
        <ele>201</ele>
        <time>2016-03-10T13:17:40Z</time>
      </trkpt>
      <trkpt lat="43.34769" lon="5.23705">
        <ele>201</ele>
        <time>2016-03-10T13:17:41Z</time>
      </trkpt>
      <trkpt lat="43.34767" lon="5.23706">
        <ele>201</ele>
        <time>2016-03-10T13:17:42Z</time>
      </trkpt>
      <trkpt lat="43.34766" lon="5.23706">
        <ele>200</ele>
        <time>2016-03-10T13:17:43Z</time>
      </trkpt>
      <trkpt lat="43.34764" lon="5.23706">
        <ele>200</ele>
        <time>2016-03-10T13:17:44Z</time>
      </trkpt>
      <trkpt lat="43.34763" lon="5.23706">
        <ele>200</ele>
        <time>2016-03-10T13:17:45Z</time>
      </trkpt>
      <trkpt lat="43.34761" lon="5.23707">
        <ele>200</ele>
        <time>2016-03-10T13:17:46Z</time>
      </trkpt>
      <trkpt lat="43.3476" lon="5.23707">
        <ele>200</ele>
        <time>2016-03-10T13:17:47Z</time>
      </trkpt>
      <trkpt lat="43.34758" lon="5.23707">
        <ele>200</ele>
        <time>2016-03-10T13:17:48Z</time>
      </trkpt>
      <trkpt lat="43.34757" lon="5.23708">
        <ele>200</ele>
        <time>2016-03-10T13:17:49Z</time>
      </trkpt>
      <trkpt lat="43.34755" lon="5.23708">
        <ele>200</ele>
        <time>2016-03-10T13:17:50Z</time>
      </trkpt>
      <trkpt lat="43.34754" lon="5.23709">
        <ele>200</ele>
        <time>2016-03-10T13:17:51Z</time>
      </trkpt>
      <trkpt lat="43.34753" lon="5.23709">
        <ele>200</ele>
        <time>2016-03-10T13:17:52Z</time>
      </trkpt>
      <trkpt lat="43.34751" lon="5.23709">
        <ele>200</ele>
        <time>2016-03-10T13:17:53Z</time>
      </trkpt>
      <trkpt lat="43.34749" lon="5.2371">
        <ele>200</ele>
        <time>2016-03-10T13:17:54Z</time>
      </trkpt>
      <trkpt lat="43.34748" lon="5.2371">
        <ele>200</ele>
        <time>2016-03-10T13:17:55Z</time>
      </trkpt>
      <trkpt lat="43.34746" lon="5.2371">
        <ele>200</ele>
        <time>2016-03-10T13:17:56Z</time>
      </trkpt>
      <trkpt lat="43.34745" lon="5.23711">
        <ele>199</ele>
        <time>2016-03-10T13:17:57Z</time>
      </trkpt>
      <trkpt lat="43.34744" lon="5.23711">
        <ele>199</ele>
        <time>2016-03-10T13:17:58Z</time>
      </trkpt>
      <trkpt lat="43.34742" lon="5.23711">
        <ele>199</ele>
        <time>2016-03-10T13:17:59Z</time>
      </trkpt>
      <trkpt lat="43.34741" lon="5.23712">
        <ele>199</ele>
        <time>2016-03-10T13:18:00Z</time>
      </trkpt>
      <trkpt lat="43.3474" lon="5.23712">
        <ele>199</ele>
        <time>2016-03-10T13:18:01Z</time>
      </trkpt>
      <trkpt lat="43.34738" lon="5.23713">
        <ele>199</ele>
        <time>2016-03-10T13:18:02Z</time>
      </trkpt>
      <trkpt lat="43.34737" lon="5.23713">
        <ele>199</ele>
        <time>2016-03-10T13:18:03Z</time>
      </trkpt>
      <trkpt lat="43.34735" lon="5.23714">
        <ele>198</ele>
        <time>2016-03-10T13:18:04Z</time>
      </trkpt>
      <trkpt lat="43.34734" lon="5.23715">
        <ele>198</ele>
        <time>2016-03-10T13:18:05Z</time>
      </trkpt>
      <trkpt lat="43.34732" lon="5.23715">
        <ele>198</ele>
        <time>2016-03-10T13:18:06Z</time>
      </trkpt>
      <trkpt lat="43.34731" lon="5.23716">
        <ele>198</ele>
        <time>2016-03-10T13:18:07Z</time>
      </trkpt>
      <trkpt lat="43.34729" lon="5.23716">
        <ele>198</ele>
        <time>2016-03-10T13:18:08Z</time>
      </trkpt>
      <trkpt lat="43.34728" lon="5.23717">
        <ele>198</ele>
        <time>2016-03-10T13:18:09Z</time>
      </trkpt>
      <trkpt lat="43.34726" lon="5.23718">
        <ele>198</ele>
        <time>2016-03-10T13:18:10Z</time>
      </trkpt>
      <trkpt lat="43.34725" lon="5.23718">
        <ele>198</ele>
        <time>2016-03-10T13:18:11Z</time>
      </trkpt>
      <trkpt lat="43.34724" lon="5.23719">
        <ele>198</ele>
        <time>2016-03-10T13:18:12Z</time>
      </trkpt>
      <trkpt lat="43.34722" lon="5.2372">
        <ele>198</ele>
        <time>2016-03-10T13:18:13Z</time>
      </trkpt>
      <trkpt lat="43.34721" lon="5.2372">
        <ele>198</ele>
        <time>2016-03-10T13:18:14Z</time>
      </trkpt>
      <trkpt lat="43.34719" lon="5.23721">
        <ele>197</ele>
        <time>2016-03-10T13:18:15Z</time>
      </trkpt>
      <trkpt lat="43.34718" lon="5.23721">
        <ele>197</ele>
        <time>2016-03-10T13:18:16Z</time>
      </trkpt>
      <trkpt lat="43.34716" lon="5.23722">
        <ele>197</ele>
        <time>2016-03-10T13:18:17Z</time>
      </trkpt>
      <trkpt lat="43.34715" lon="5.23722">
        <ele>197</ele>
        <time>2016-03-10T13:18:18Z</time>
      </trkpt>
      <trkpt lat="43.34713" lon="5.23723">
        <ele>197</ele>
        <time>2016-03-10T13:18:19Z</time>
      </trkpt>
      <trkpt lat="43.34711" lon="5.23723">
        <ele>197</ele>
        <time>2016-03-10T13:18:20Z</time>
      </trkpt>
      <trkpt lat="43.3471" lon="5.23724">
        <ele>197</ele>
        <time>2016-03-10T13:18:21Z</time>
      </trkpt>
      <trkpt lat="43.34708" lon="5.23724">
        <ele>197</ele>
        <time>2016-03-10T13:18:22Z</time>
      </trkpt>
      <trkpt lat="43.34707" lon="5.23725">
        <ele>197</ele>
        <time>2016-03-10T13:18:23Z</time>
      </trkpt>
      <trkpt lat="43.34705" lon="5.23725">
        <ele>197</ele>
        <time>2016-03-10T13:18:24Z</time>
      </trkpt>
      <trkpt lat="43.34704" lon="5.23725">
        <ele>197</ele>
        <time>2016-03-10T13:18:25Z</time>
      </trkpt>
      <trkpt lat="43.34703" lon="5.23726">
        <ele>197</ele>
        <time>2016-03-10T13:18:26Z</time>
      </trkpt>
      <trkpt lat="43.34701" lon="5.23726">
        <ele>197</ele>
        <time>2016-03-10T13:18:27Z</time>
      </trkpt>
      <trkpt lat="43.347" lon="5.23726">
        <ele>196</ele>
        <time>2016-03-10T13:18:28Z</time>
      </trkpt>
      <trkpt lat="43.34698" lon="5.23726">
        <ele>196</ele>
        <time>2016-03-10T13:18:29Z</time>
      </trkpt>
      <trkpt lat="43.34697" lon="5.23727">
        <ele>196</ele>
        <time>2016-03-10T13:18:30Z</time>
      </trkpt>
      <trkpt lat="43.34695" lon="5.23727">
        <ele>196</ele>
        <time>2016-03-10T13:18:31Z</time>
      </trkpt>
      <trkpt lat="43.34693" lon="5.23727">
        <ele>196</ele>
        <time>2016-03-10T13:18:32Z</time>
      </trkpt>
      <trkpt lat="43.34692" lon="5.23727">
        <ele>196</ele>
        <time>2016-03-10T13:18:33Z</time>
      </trkpt>
      <trkpt lat="43.3469" lon="5.23727">
        <ele>196</ele>
        <time>2016-03-10T13:18:34Z</time>
      </trkpt>
      <trkpt lat="43.34689" lon="5.23727">
        <ele>195</ele>
        <time>2016-03-10T13:18:35Z</time>
      </trkpt>
      <trkpt lat="43.34687" lon="5.23726">
        <ele>195</ele>
        <time>2016-03-10T13:18:36Z</time>
      </trkpt>
      <trkpt lat="43.34686" lon="5.23726">
        <ele>195</ele>
        <time>2016-03-10T13:18:37Z</time>
      </trkpt>
      <trkpt lat="43.34684" lon="5.23726">
        <ele>195</ele>
        <time>2016-03-10T13:18:38Z</time>
      </trkpt>
      <trkpt lat="43.34683" lon="5.23726">
        <ele>195</ele>
        <time>2016-03-10T13:18:39Z</time>
      </trkpt>
      <trkpt lat="43.34681" lon="5.23726">
        <ele>195</ele>
        <time>2016-03-10T13:18:40Z</time>
      </trkpt>
      <trkpt lat="43.3468" lon="5.23726">
        <ele>195</ele>
        <time>2016-03-10T13:18:41Z</time>
      </trkpt>
      <trkpt lat="43.34678" lon="5.23725">
        <ele>195</ele>
        <time>2016-03-10T13:18:42Z</time>
      </trkpt>
      <trkpt lat="43.34677" lon="5.23725">
        <ele>195</ele>
        <time>2016-03-10T13:18:43Z</time>
      </trkpt>
      <trkpt lat="43.34675" lon="5.23725">
        <ele>195</ele>
        <time>2016-03-10T13:18:44Z</time>
      </trkpt>
      <trkpt lat="43.34674" lon="5.23724">
        <ele>195</ele>
        <time>2016-03-10T13:18:45Z</time>
      </trkpt>
      <trkpt lat="43.34672" lon="5.23724">
        <ele>194</ele>
        <time>2016-03-10T13:18:46Z</time>
      </trkpt>
      <trkpt lat="43.34671" lon="5.23724">
        <ele>194</ele>
        <time>2016-03-10T13:18:47Z</time>
      </trkpt>
      <trkpt lat="43.34669" lon="5.23723">
        <ele>194</ele>
        <time>2016-03-10T13:18:48Z</time>
      </trkpt>
      <trkpt lat="43.34668" lon="5.23723">
        <ele>194</ele>
        <time>2016-03-10T13:18:49Z</time>
      </trkpt>
      <trkpt lat="43.34666" lon="5.23723">
        <ele>194</ele>
        <time>2016-03-10T13:18:50Z</time>
      </trkpt>
      <trkpt lat="43.34665" lon="5.23722">
        <ele>194</ele>
        <time>2016-03-10T13:18:51Z</time>
      </trkpt>
      <trkpt lat="43.34663" lon="5.23722">
        <ele>194</ele>
        <time>2016-03-10T13:18:52Z</time>
      </trkpt>
      <trkpt lat="43.34661" lon="5.23721">
        <ele>194</ele>
        <time>2016-03-10T13:18:53Z</time>
      </trkpt>
      <trkpt lat="43.3466" lon="5.23721">
        <ele>193</ele>
        <time>2016-03-10T13:18:54Z</time>
      </trkpt>
      <trkpt lat="43.34658" lon="5.23721">
        <ele>193</ele>
        <time>2016-03-10T13:18:55Z</time>
      </trkpt>
      <trkpt lat="43.34657" lon="5.2372">
        <ele>193</ele>
        <time>2016-03-10T13:18:56Z</time>
      </trkpt>
      <trkpt lat="43.34655" lon="5.2372">
        <ele>193</ele>
        <time>2016-03-10T13:18:57Z</time>
      </trkpt>
      <trkpt lat="43.34654" lon="5.2372">
        <ele>193</ele>
        <time>2016-03-10T13:18:58Z</time>
      </trkpt>
      <trkpt lat="43.34652" lon="5.23719">
        <ele>193</ele>
        <time>2016-03-10T13:18:59Z</time>
      </trkpt>
      <trkpt lat="43.3465" lon="5.23719">
        <ele>193</ele>
        <time>2016-03-10T13:19:00Z</time>
      </trkpt>
      <trkpt lat="43.34649" lon="5.23719">
        <ele>193</ele>
        <time>2016-03-10T13:19:01Z</time>
      </trkpt>
      <trkpt lat="43.34647" lon="5.23719">
        <ele>193</ele>
        <time>2016-03-10T13:19:02Z</time>
      </trkpt>
      <trkpt lat="43.34646" lon="5.23719">
        <ele>193</ele>
        <time>2016-03-10T13:19:03Z</time>
      </trkpt>
      <trkpt lat="43.34644" lon="5.23719">
        <ele>193</ele>
        <time>2016-03-10T13:19:04Z</time>
      </trkpt>
      <trkpt lat="43.34643" lon="5.23719">
        <ele>193</ele>
        <time>2016-03-10T13:19:05Z</time>
      </trkpt>
      <trkpt lat="43.34641" lon="5.23719">
        <ele>193</ele>
        <time>2016-03-10T13:19:06Z</time>
      </trkpt>
      <trkpt lat="43.34639" lon="5.23719">
        <ele>193</ele>
        <time>2016-03-10T13:19:07Z</time>
      </trkpt>
      <trkpt lat="43.34638" lon="5.23719">
        <ele>193</ele>
        <time>2016-03-10T13:19:08Z</time>
      </trkpt>
      <trkpt lat="43.34637" lon="5.23719">
        <ele>193</ele>
        <time>2016-03-10T13:19:09Z</time>
      </trkpt>
      <trkpt lat="43.34635" lon="5.23719">
        <ele>192</ele>
        <time>2016-03-10T13:19:10Z</time>
      </trkpt>
      <trkpt lat="43.34634" lon="5.2372">
        <ele>192</ele>
        <time>2016-03-10T13:19:11Z</time>
      </trkpt>
      <trkpt lat="43.34632" lon="5.2372">
        <ele>192</ele>
        <time>2016-03-10T13:19:12Z</time>
      </trkpt>
      <trkpt lat="43.34631" lon="5.2372">
        <ele>192</ele>
        <time>2016-03-10T13:19:13Z</time>
      </trkpt>
      <trkpt lat="43.34629" lon="5.23721">
        <ele>192</ele>
        <time>2016-03-10T13:19:14Z</time>
      </trkpt>
      <trkpt lat="43.34628" lon="5.23721">
        <ele>192</ele>
        <time>2016-03-10T13:19:15Z</time>
      </trkpt>
      <trkpt lat="43.34626" lon="5.23722">
        <ele>192</ele>
        <time>2016-03-10T13:19:16Z</time>
      </trkpt>
      <trkpt lat="43.34625" lon="5.23722">
        <ele>192</ele>
        <time>2016-03-10T13:19:17Z</time>
      </trkpt>
      <trkpt lat="43.34623" lon="5.23722">
        <ele>192</ele>
        <time>2016-03-10T13:19:18Z</time>
      </trkpt>
      <trkpt lat="43.34621" lon="5.23723">
        <ele>192</ele>
        <time>2016-03-10T13:19:19Z</time>
      </trkpt>
      <trkpt lat="43.3462" lon="5.23723">
        <ele>192</ele>
        <time>2016-03-10T13:19:20Z</time>
      </trkpt>
      <trkpt lat="43.34618" lon="5.23723">
        <ele>192</ele>
        <time>2016-03-10T13:19:21Z</time>
      </trkpt>
      <trkpt lat="43.34617" lon="5.23724">
        <ele>191</ele>
        <time>2016-03-10T13:19:22Z</time>
      </trkpt>
      <trkpt lat="43.34615" lon="5.23724">
        <ele>191</ele>
        <time>2016-03-10T13:19:23Z</time>
      </trkpt>
      <trkpt lat="43.34614" lon="5.23724">
        <ele>191</ele>
        <time>2016-03-10T13:19:24Z</time>
      </trkpt>
      <trkpt lat="43.34612" lon="5.23725">
        <ele>191</ele>
        <time>2016-03-10T13:19:25Z</time>
      </trkpt>
      <trkpt lat="43.34611" lon="5.23725">
        <ele>191</ele>
        <time>2016-03-10T13:19:26Z</time>
      </trkpt>
      <trkpt lat="43.34609" lon="5.23726">
        <ele>191</ele>
        <time>2016-03-10T13:19:27Z</time>
      </trkpt>
      <trkpt lat="43.34608" lon="5.23726">
        <ele>191</ele>
        <time>2016-03-10T13:19:28Z</time>
      </trkpt>
      <trkpt lat="43.34606" lon="5.23726">
        <ele>191</ele>
        <time>2016-03-10T13:19:29Z</time>
      </trkpt>
      <trkpt lat="43.34605" lon="5.23726">
        <ele>191</ele>
        <time>2016-03-10T13:19:30Z</time>
      </trkpt>
      <trkpt lat="43.34603" lon="5.23726">
        <ele>191</ele>
        <time>2016-03-10T13:19:31Z</time>
      </trkpt>
      <trkpt lat="43.34602" lon="5.23727">
        <ele>191</ele>
        <time>2016-03-10T13:19:32Z</time>
      </trkpt>
      <trkpt lat="43.346" lon="5.23727">
        <ele>191</ele>
        <time>2016-03-10T13:19:33Z</time>
      </trkpt>
      <trkpt lat="43.34599" lon="5.23727">
        <ele>191</ele>
        <time>2016-03-10T13:19:34Z</time>
      </trkpt>
      <trkpt lat="43.34597" lon="5.23728">
        <ele>191</ele>
        <time>2016-03-10T13:19:35Z</time>
      </trkpt>
      <trkpt lat="43.34595" lon="5.23728">
        <ele>191</ele>
        <time>2016-03-10T13:19:36Z</time>
      </trkpt>
      <trkpt lat="43.34594" lon="5.23728">
        <ele>191</ele>
        <time>2016-03-10T13:19:37Z</time>
      </trkpt>
      <trkpt lat="43.34592" lon="5.23729">
        <ele>191</ele>
        <time>2016-03-10T13:19:38Z</time>
      </trkpt>
      <trkpt lat="43.34591" lon="5.23729">
        <ele>191</ele>
        <time>2016-03-10T13:19:39Z</time>
      </trkpt>
      <trkpt lat="43.34589" lon="5.23729">
        <ele>191</ele>
        <time>2016-03-10T13:19:40Z</time>
      </trkpt>
      <trkpt lat="43.34588" lon="5.2373">
        <ele>190</ele>
        <time>2016-03-10T13:19:41Z</time>
      </trkpt>
      <trkpt lat="43.34586" lon="5.2373">
        <ele>190</ele>
        <time>2016-03-10T13:19:42Z</time>
      </trkpt>
      <trkpt lat="43.34585" lon="5.2373">
        <ele>190</ele>
        <time>2016-03-10T13:19:43Z</time>
      </trkpt>
      <trkpt lat="43.34583" lon="5.23731">
        <ele>190</ele>
        <time>2016-03-10T13:19:44Z</time>
      </trkpt>
      <trkpt lat="43.34581" lon="5.23731">
        <ele>190</ele>
        <time>2016-03-10T13:19:45Z</time>
      </trkpt>
      <trkpt lat="43.3458" lon="5.23731">
        <ele>190</ele>
        <time>2016-03-10T13:19:46Z</time>
      </trkpt>
      <trkpt lat="43.34578" lon="5.23731">
        <ele>190</ele>
        <time>2016-03-10T13:19:47Z</time>
      </trkpt>
      <trkpt lat="43.34577" lon="5.23732">
        <ele>190</ele>
        <time>2016-03-10T13:19:48Z</time>
      </trkpt>
      <trkpt lat="43.34575" lon="5.23732">
        <ele>190</ele>
        <time>2016-03-10T13:19:49Z</time>
      </trkpt>
      <trkpt lat="43.34573" lon="5.23732">
        <ele>190</ele>
        <time>2016-03-10T13:19:50Z</time>
      </trkpt>
      <trkpt lat="43.34572" lon="5.23733">
        <ele>190</ele>
        <time>2016-03-10T13:19:51Z</time>
      </trkpt>
      <trkpt lat="43.3457" lon="5.23733">
        <ele>190</ele>
        <time>2016-03-10T13:19:52Z</time>
      </trkpt>
      <trkpt lat="43.34569" lon="5.23733">
        <ele>190</ele>
        <time>2016-03-10T13:19:53Z</time>
      </trkpt>
      <trkpt lat="43.34567" lon="5.23733">
        <ele>190</ele>
        <time>2016-03-10T13:19:54Z</time>
      </trkpt>
      <trkpt lat="43.34565" lon="5.23733">
        <ele>190</ele>
        <time>2016-03-10T13:19:55Z</time>
      </trkpt>
      <trkpt lat="43.34564" lon="5.23733">
        <ele>190</ele>
        <time>2016-03-10T13:19:56Z</time>
      </trkpt>
      <trkpt lat="43.34562" lon="5.23733">
        <ele>190</ele>
        <time>2016-03-10T13:19:57Z</time>
      </trkpt>
      <trkpt lat="43.34561" lon="5.23733">
        <ele>189</ele>
        <time>2016-03-10T13:19:58Z</time>
      </trkpt>
      <trkpt lat="43.34559" lon="5.23733">
        <ele>189</ele>
        <time>2016-03-10T13:19:59Z</time>
      </trkpt>
      <trkpt lat="43.34558" lon="5.23733">
        <ele>189</ele>
        <time>2016-03-10T13:20:00Z</time>
      </trkpt>
      <trkpt lat="43.34556" lon="5.23733">
        <ele>189</ele>
        <time>2016-03-10T13:20:01Z</time>
      </trkpt>
      <trkpt lat="43.34555" lon="5.23733">
        <ele>189</ele>
        <time>2016-03-10T13:20:02Z</time>
      </trkpt>
      <trkpt lat="43.34553" lon="5.23732">
        <ele>189</ele>
        <time>2016-03-10T13:20:03Z</time>
      </trkpt>
      <trkpt lat="43.34552" lon="5.23732">
        <ele>189</ele>
        <time>2016-03-10T13:20:04Z</time>
      </trkpt>
      <trkpt lat="43.3455" lon="5.23732">
        <ele>189</ele>
        <time>2016-03-10T13:20:05Z</time>
      </trkpt>
      <trkpt lat="43.34548" lon="5.23732">
        <ele>189</ele>
        <time>2016-03-10T13:20:06Z</time>
      </trkpt>
      <trkpt lat="43.34547" lon="5.23732">
        <ele>189</ele>
        <time>2016-03-10T13:20:07Z</time>
      </trkpt>
      <trkpt lat="43.34545" lon="5.23732">
        <ele>189</ele>
        <time>2016-03-10T13:20:08Z</time>
      </trkpt>
      <trkpt lat="43.34543" lon="5.23732">
        <ele>189</ele>
        <time>2016-03-10T13:20:09Z</time>
      </trkpt>
      <trkpt lat="43.34542" lon="5.23731">
        <ele>189</ele>
        <time>2016-03-10T13:20:10Z</time>
      </trkpt>
      <trkpt lat="43.3454" lon="5.23731">
        <ele>189</ele>
        <time>2016-03-10T13:20:11Z</time>
      </trkpt>
      <trkpt lat="43.34539" lon="5.23731">
        <ele>189</ele>
        <time>2016-03-10T13:20:12Z</time>
      </trkpt>
      <trkpt lat="43.34537" lon="5.2373">
        <ele>189</ele>
        <time>2016-03-10T13:20:13Z</time>
      </trkpt>
      <trkpt lat="43.34536" lon="5.2373">
        <ele>189</ele>
        <time>2016-03-10T13:20:14Z</time>
      </trkpt>
      <trkpt lat="43.34534" lon="5.23729">
        <ele>188</ele>
        <time>2016-03-10T13:20:15Z</time>
      </trkpt>
      <trkpt lat="43.34533" lon="5.23729">
        <ele>188</ele>
        <time>2016-03-10T13:20:16Z</time>
      </trkpt>
      <trkpt lat="43.34531" lon="5.23728">
        <ele>188</ele>
        <time>2016-03-10T13:20:17Z</time>
      </trkpt>
      <trkpt lat="43.3453" lon="5.23728">
        <ele>188</ele>
        <time>2016-03-10T13:20:18Z</time>
      </trkpt>
      <trkpt lat="43.34528" lon="5.23727">
        <ele>188</ele>
        <time>2016-03-10T13:20:19Z</time>
      </trkpt>
      <trkpt lat="43.34527" lon="5.23727">
        <ele>188</ele>
        <time>2016-03-10T13:20:20Z</time>
      </trkpt>
      <trkpt lat="43.34525" lon="5.23726">
        <ele>188</ele>
        <time>2016-03-10T13:20:21Z</time>
      </trkpt>
      <trkpt lat="43.34524" lon="5.23725">
        <ele>187</ele>
        <time>2016-03-10T13:20:22Z</time>
      </trkpt>
      <trkpt lat="43.34523" lon="5.23725">
        <ele>187</ele>
        <time>2016-03-10T13:20:23Z</time>
      </trkpt>
      <trkpt lat="43.34521" lon="5.23724">
        <ele>187</ele>
        <time>2016-03-10T13:20:24Z</time>
      </trkpt>
      <trkpt lat="43.3452" lon="5.23724">
        <ele>187</ele>
        <time>2016-03-10T13:20:25Z</time>
      </trkpt>
      <trkpt lat="43.34518" lon="5.23723">
        <ele>187</ele>
        <time>2016-03-10T13:20:26Z</time>
      </trkpt>
      <trkpt lat="43.34517" lon="5.23722">
        <ele>187</ele>
        <time>2016-03-10T13:20:27Z</time>
      </trkpt>
      <trkpt lat="43.34515" lon="5.23721">
        <ele>187</ele>
        <time>2016-03-10T13:20:28Z</time>
      </trkpt>
      <trkpt lat="43.34514" lon="5.23721">
        <ele>187</ele>
        <time>2016-03-10T13:20:29Z</time>
      </trkpt>
      <trkpt lat="43.34512" lon="5.2372">
        <ele>187</ele>
        <time>2016-03-10T13:20:30Z</time>
      </trkpt>
      <trkpt lat="43.34511" lon="5.2372">
        <ele>187</ele>
        <time>2016-03-10T13:20:31Z</time>
      </trkpt>
      <trkpt lat="43.34509" lon="5.23719">
        <ele>186</ele>
        <time>2016-03-10T13:20:32Z</time>
      </trkpt>
      <trkpt lat="43.34508" lon="5.23719">
        <ele>186</ele>
        <time>2016-03-10T13:20:33Z</time>
      </trkpt>
      <trkpt lat="43.34506" lon="5.23718">
        <ele>186</ele>
        <time>2016-03-10T13:20:34Z</time>
      </trkpt>
      <trkpt lat="43.34505" lon="5.23718">
        <ele>186</ele>
        <time>2016-03-10T13:20:35Z</time>
      </trkpt>
      <trkpt lat="43.34503" lon="5.23717">
        <ele>186</ele>
        <time>2016-03-10T13:20:36Z</time>
      </trkpt>
      <trkpt lat="43.34502" lon="5.23716">
        <ele>186</ele>
        <time>2016-03-10T13:20:37Z</time>
      </trkpt>
      <trkpt lat="43.34501" lon="5.23716">
        <ele>186</ele>
        <time>2016-03-10T13:20:38Z</time>
      </trkpt>
      <trkpt lat="43.34499" lon="5.23716">
        <ele>186</ele>
        <time>2016-03-10T13:20:39Z</time>
      </trkpt>
      <trkpt lat="43.34497" lon="5.23716">
        <ele>186</ele>
        <time>2016-03-10T13:20:40Z</time>
      </trkpt>
      <trkpt lat="43.34496" lon="5.23715">
        <ele>186</ele>
        <time>2016-03-10T13:20:41Z</time>
      </trkpt>
      <trkpt lat="43.34494" lon="5.23715">
        <ele>186</ele>
        <time>2016-03-10T13:20:42Z</time>
      </trkpt>
      <trkpt lat="43.34493" lon="5.23715">
        <ele>186</ele>
        <time>2016-03-10T13:20:43Z</time>
      </trkpt>
      <trkpt lat="43.34491" lon="5.23715">
        <ele>186</ele>
        <time>2016-03-10T13:20:44Z</time>
      </trkpt>
      <trkpt lat="43.3449" lon="5.23715">
        <ele>186</ele>
        <time>2016-03-10T13:20:45Z</time>
      </trkpt>
      <trkpt lat="43.34489" lon="5.23715">
        <ele>186</ele>
        <time>2016-03-10T13:20:46Z</time>
      </trkpt>
      <trkpt lat="43.34487" lon="5.23715">
        <ele>186</ele>
        <time>2016-03-10T13:20:47Z</time>
      </trkpt>
      <trkpt lat="43.34486" lon="5.23715">
        <ele>186</ele>
        <time>2016-03-10T13:20:48Z</time>
      </trkpt>
      <trkpt lat="43.34484" lon="5.23715">
        <ele>185</ele>
        <time>2016-03-10T13:20:49Z</time>
      </trkpt>
      <trkpt lat="43.34483" lon="5.23716">
        <ele>185</ele>
        <time>2016-03-10T13:20:50Z</time>
      </trkpt>
      <trkpt lat="43.34481" lon="5.23716">
        <ele>185</ele>
        <time>2016-03-10T13:20:51Z</time>
      </trkpt>
      <trkpt lat="43.34479" lon="5.23717">
        <ele>185</ele>
        <time>2016-03-10T13:20:52Z</time>
      </trkpt>
      <trkpt lat="43.34478" lon="5.23717">
        <ele>185</ele>
        <time>2016-03-10T13:20:53Z</time>
      </trkpt>
      <trkpt lat="43.34476" lon="5.23717">
        <ele>185</ele>
        <time>2016-03-10T13:20:54Z</time>
      </trkpt>
      <trkpt lat="43.34475" lon="5.23718">
        <ele>185</ele>
        <time>2016-03-10T13:20:55Z</time>
      </trkpt>
      <trkpt lat="43.34473" lon="5.23719">
        <ele>185</ele>
        <time>2016-03-10T13:20:56Z</time>
      </trkpt>
      <trkpt lat="43.34472" lon="5.23719">
        <ele>185</ele>
        <time>2016-03-10T13:20:57Z</time>
      </trkpt>
      <trkpt lat="43.34471" lon="5.23719">
        <ele>185</ele>
        <time>2016-03-10T13:20:58Z</time>
      </trkpt>
      <trkpt lat="43.34468" lon="5.23719">
        <ele>185</ele>
        <time>2016-03-10T13:21:00Z</time>
      </trkpt>
      <trkpt lat="43.34467" lon="5.2372">
        <ele>185</ele>
        <time>2016-03-10T13:21:01Z</time>
      </trkpt>
      <trkpt lat="43.34465" lon="5.2372">
        <ele>185</ele>
        <time>2016-03-10T13:21:02Z</time>
      </trkpt>
      <trkpt lat="43.34464" lon="5.23721">
        <ele>185</ele>
        <time>2016-03-10T13:21:03Z</time>
      </trkpt>
      <trkpt lat="43.34463" lon="5.23721">
        <ele>185</ele>
        <time>2016-03-10T13:21:04Z</time>
      </trkpt>
      <trkpt lat="43.34461" lon="5.23722">
        <ele>185</ele>
        <time>2016-03-10T13:21:05Z</time>
      </trkpt>
      <trkpt lat="43.3446" lon="5.23723">
        <ele>185</ele>
        <time>2016-03-10T13:21:06Z</time>
      </trkpt>
      <trkpt lat="43.34459" lon="5.23723">
        <ele>185</ele>
        <time>2016-03-10T13:21:07Z</time>
      </trkpt>
      <trkpt lat="43.34457" lon="5.23724">
        <ele>185</ele>
        <time>2016-03-10T13:21:08Z</time>
      </trkpt>
      <trkpt lat="43.34455" lon="5.23725">
        <ele>185</ele>
        <time>2016-03-10T13:21:09Z</time>
      </trkpt>
      <trkpt lat="43.34454" lon="5.23726">
        <ele>185</ele>
        <time>2016-03-10T13:21:10Z</time>
      </trkpt>
      <trkpt lat="43.34453" lon="5.23726">
        <ele>185</ele>
        <time>2016-03-10T13:21:11Z</time>
      </trkpt>
      <trkpt lat="43.34452" lon="5.23727">
        <ele>185</ele>
        <time>2016-03-10T13:21:12Z</time>
      </trkpt>
      <trkpt lat="43.3445" lon="5.23728">
        <ele>185</ele>
        <time>2016-03-10T13:21:13Z</time>
      </trkpt>
      <trkpt lat="43.34449" lon="5.23729">
        <ele>185</ele>
        <time>2016-03-10T13:21:14Z</time>
      </trkpt>
      <trkpt lat="43.34447" lon="5.23729">
        <ele>185</ele>
        <time>2016-03-10T13:21:15Z</time>
      </trkpt>
      <trkpt lat="43.34446" lon="5.2373">
        <ele>185</ele>
        <time>2016-03-10T13:21:16Z</time>
      </trkpt>
      <trkpt lat="43.34444" lon="5.23731">
        <ele>185</ele>
        <time>2016-03-10T13:21:17Z</time>
      </trkpt>
      <trkpt lat="43.34443" lon="5.23731">
        <ele>185</ele>
        <time>2016-03-10T13:21:18Z</time>
      </trkpt>
      <trkpt lat="43.34442" lon="5.23732">
        <ele>185</ele>
        <time>2016-03-10T13:21:19Z</time>
      </trkpt>
      <trkpt lat="43.34441" lon="5.23733">
        <ele>185</ele>
        <time>2016-03-10T13:21:20Z</time>
      </trkpt>
      <trkpt lat="43.34439" lon="5.23733">
        <ele>185</ele>
        <time>2016-03-10T13:21:21Z</time>
      </trkpt>
      <trkpt lat="43.34438" lon="5.23734">
        <ele>185</ele>
        <time>2016-03-10T13:21:22Z</time>
      </trkpt>
      <trkpt lat="43.34436" lon="5.23735">
        <ele>185</ele>
        <time>2016-03-10T13:21:23Z</time>
      </trkpt>
      <trkpt lat="43.34435" lon="5.23735">
        <ele>185</ele>
        <time>2016-03-10T13:21:24Z</time>
      </trkpt>
      <trkpt lat="43.34433" lon="5.23736">
        <ele>185</ele>
        <time>2016-03-10T13:21:25Z</time>
      </trkpt>
      <trkpt lat="43.34432" lon="5.23736">
        <ele>185</ele>
        <time>2016-03-10T13:21:26Z</time>
      </trkpt>
      <trkpt lat="43.3443" lon="5.23737">
        <ele>185</ele>
        <time>2016-03-10T13:21:27Z</time>
      </trkpt>
      <trkpt lat="43.34429" lon="5.23737">
        <ele>185</ele>
        <time>2016-03-10T13:21:28Z</time>
      </trkpt>
      <trkpt lat="43.34428" lon="5.23738">
        <ele>185</ele>
        <time>2016-03-10T13:21:29Z</time>
      </trkpt>
      <trkpt lat="43.34426" lon="5.23738">
        <ele>185</ele>
        <time>2016-03-10T13:21:30Z</time>
      </trkpt>
      <trkpt lat="43.34425" lon="5.23739">
        <ele>185</ele>
        <time>2016-03-10T13:21:31Z</time>
      </trkpt>
      <trkpt lat="43.34423" lon="5.23739">
        <ele>185</ele>
        <time>2016-03-10T13:21:32Z</time>
      </trkpt>
      <trkpt lat="43.34422" lon="5.23739">
        <ele>185</ele>
        <time>2016-03-10T13:21:33Z</time>
      </trkpt>
      <trkpt lat="43.3442" lon="5.23739">
        <ele>185</ele>
        <time>2016-03-10T13:21:34Z</time>
      </trkpt>
      <trkpt lat="43.34418" lon="5.23739">
        <ele>185</ele>
        <time>2016-03-10T13:21:35Z</time>
      </trkpt>
      <trkpt lat="43.34417" lon="5.23738">
        <ele>185</ele>
        <time>2016-03-10T13:21:36Z</time>
      </trkpt>
      <trkpt lat="43.34416" lon="5.23738">
        <ele>184</ele>
        <time>2016-03-10T13:21:37Z</time>
      </trkpt>
      <trkpt lat="43.34414" lon="5.23737">
        <ele>184</ele>
        <time>2016-03-10T13:21:38Z</time>
      </trkpt>
      <trkpt lat="43.34413" lon="5.23736">
        <ele>184</ele>
        <time>2016-03-10T13:21:39Z</time>
      </trkpt>
      <trkpt lat="43.34412" lon="5.23735">
        <ele>184</ele>
        <time>2016-03-10T13:21:40Z</time>
      </trkpt>
      <trkpt lat="43.3441" lon="5.23735">
        <ele>184</ele>
        <time>2016-03-10T13:21:41Z</time>
      </trkpt>
      <trkpt lat="43.34409" lon="5.23734">
        <ele>184</ele>
        <time>2016-03-10T13:21:42Z</time>
      </trkpt>
      <trkpt lat="43.34408" lon="5.23733">
        <ele>184</ele>
        <time>2016-03-10T13:21:43Z</time>
      </trkpt>
      <trkpt lat="43.34407" lon="5.23732">
        <ele>183</ele>
        <time>2016-03-10T13:21:44Z</time>
      </trkpt>
      <trkpt lat="43.34406" lon="5.23731">
        <ele>183</ele>
        <time>2016-03-10T13:21:45Z</time>
      </trkpt>
      <trkpt lat="43.34404" lon="5.23731">
        <ele>183</ele>
        <time>2016-03-10T13:21:46Z</time>
      </trkpt>
      <trkpt lat="43.34403" lon="5.2373">
        <ele>183</ele>
        <time>2016-03-10T13:21:47Z</time>
      </trkpt>
      <trkpt lat="43.34402" lon="5.23729">
        <ele>183</ele>
        <time>2016-03-10T13:21:49Z</time>
      </trkpt>
      <trkpt lat="43.344" lon="5.23726">
        <ele>183</ele>
        <time>2016-03-10T13:21:50Z</time>
      </trkpt>
      <trkpt lat="43.34398" lon="5.23724">
        <ele>182</ele>
        <time>2016-03-10T13:21:52Z</time>
      </trkpt>
      <trkpt lat="43.34396" lon="5.23722">
        <ele>182</ele>
        <time>2016-03-10T13:21:54Z</time>
      </trkpt>
      <trkpt lat="43.34395" lon="5.23719">
        <ele>182</ele>
        <time>2016-03-10T13:21:56Z</time>
      </trkpt>
      <trkpt lat="43.34394" lon="5.23717">
        <ele>182</ele>
        <time>2016-03-10T13:21:57Z</time>
      </trkpt>
      <trkpt lat="43.34393" lon="5.23716">
        <ele>182</ele>
        <time>2016-03-10T13:21:58Z</time>
      </trkpt>
      <trkpt lat="43.34393" lon="5.23714">
        <ele>181</ele>
        <time>2016-03-10T13:21:59Z</time>
      </trkpt>
      <trkpt lat="43.34392" lon="5.23711">
        <ele>181</ele>
        <time>2016-03-10T13:22:01Z</time>
      </trkpt>
      <trkpt lat="43.34391" lon="5.23709">
        <ele>181</ele>
        <time>2016-03-10T13:22:02Z</time>
      </trkpt>
      <trkpt lat="43.34391" lon="5.23708">
        <ele>181</ele>
        <time>2016-03-10T13:22:03Z</time>
      </trkpt>
      <trkpt lat="43.34391" lon="5.23706">
        <ele>181</ele>
        <time>2016-03-10T13:22:04Z</time>
      </trkpt>
      <trkpt lat="43.34391" lon="5.23704">
        <ele>181</ele>
        <time>2016-03-10T13:22:05Z</time>
      </trkpt>
      <trkpt lat="43.3439" lon="5.23703">
        <ele>181</ele>
        <time>2016-03-10T13:22:06Z</time>
      </trkpt>
      <trkpt lat="43.3439" lon="5.23701">
        <ele>181</ele>
        <time>2016-03-10T13:22:07Z</time>
      </trkpt>
      <trkpt lat="43.3439" lon="5.23699">
        <ele>180</ele>
        <time>2016-03-10T13:22:08Z</time>
      </trkpt>
      <trkpt lat="43.3439" lon="5.23698">
        <ele>180</ele>
        <time>2016-03-10T13:22:09Z</time>
      </trkpt>
      <trkpt lat="43.3439" lon="5.23696">
        <ele>180</ele>
        <time>2016-03-10T13:22:10Z</time>
      </trkpt>
      <trkpt lat="43.3439" lon="5.23694">
        <ele>180</ele>
        <time>2016-03-10T13:22:11Z</time>
      </trkpt>
      <trkpt lat="43.34391" lon="5.23692">
        <ele>180</ele>
        <time>2016-03-10T13:22:12Z</time>
      </trkpt>
      <trkpt lat="43.34391" lon="5.2369">
        <ele>180</ele>
        <time>2016-03-10T13:22:13Z</time>
      </trkpt>
      <trkpt lat="43.34391" lon="5.23688">
        <ele>180</ele>
        <time>2016-03-10T13:22:14Z</time>
      </trkpt>
      <trkpt lat="43.34391" lon="5.23686">
        <ele>180</ele>
        <time>2016-03-10T13:22:15Z</time>
      </trkpt>
      <trkpt lat="43.34391" lon="5.23684">
        <ele>179</ele>
        <time>2016-03-10T13:22:16Z</time>
      </trkpt>
      <trkpt lat="43.34391" lon="5.23682">
        <ele>179</ele>
        <time>2016-03-10T13:22:17Z</time>
      </trkpt>
      <trkpt lat="43.34391" lon="5.2368">
        <ele>179</ele>
        <time>2016-03-10T13:22:18Z</time>
      </trkpt>
      <trkpt lat="43.34391" lon="5.23679">
        <ele>179</ele>
        <time>2016-03-10T13:22:19Z</time>
      </trkpt>
      <trkpt lat="43.34391" lon="5.23677">
        <ele>179</ele>
        <time>2016-03-10T13:22:20Z</time>
      </trkpt>
      <trkpt lat="43.34391" lon="5.23675">
        <ele>179</ele>
        <time>2016-03-10T13:22:21Z</time>
      </trkpt>
      <trkpt lat="43.3439" lon="5.23673">
        <ele>179</ele>
        <time>2016-03-10T13:22:22Z</time>
      </trkpt>
      <trkpt lat="43.3439" lon="5.23672">
        <ele>179</ele>
        <time>2016-03-10T13:22:23Z</time>
      </trkpt>
      <trkpt lat="43.3439" lon="5.2367">
        <ele>179</ele>
        <time>2016-03-10T13:22:24Z</time>
      </trkpt>
      <trkpt lat="43.34389" lon="5.23668">
        <ele>179</ele>
        <time>2016-03-10T13:22:25Z</time>
      </trkpt>
      <trkpt lat="43.34389" lon="5.23666">
        <ele>178</ele>
        <time>2016-03-10T13:22:26Z</time>
      </trkpt>
      <trkpt lat="43.34388" lon="5.23664">
        <ele>178</ele>
        <time>2016-03-10T13:22:27Z</time>
      </trkpt>
      <trkpt lat="43.34388" lon="5.23662">
        <ele>178</ele>
        <time>2016-03-10T13:22:28Z</time>
      </trkpt>
      <trkpt lat="43.34387" lon="5.2366">
        <ele>178</ele>
        <time>2016-03-10T13:22:29Z</time>
      </trkpt>
      <trkpt lat="43.34387" lon="5.23659">
        <ele>178</ele>
        <time>2016-03-10T13:22:30Z</time>
      </trkpt>
      <trkpt lat="43.34386" lon="5.23657">
        <ele>178</ele>
        <time>2016-03-10T13:22:31Z</time>
      </trkpt>
      <trkpt lat="43.34386" lon="5.23655">
        <ele>178</ele>
        <time>2016-03-10T13:22:32Z</time>
      </trkpt>
      <trkpt lat="43.34386" lon="5.23654">
        <ele>177</ele>
        <time>2016-03-10T13:22:33Z</time>
      </trkpt>
      <trkpt lat="43.34386" lon="5.23652">
        <ele>177</ele>
        <time>2016-03-10T13:22:34Z</time>
      </trkpt>
      <trkpt lat="43.34385" lon="5.2365">
        <ele>177</ele>
        <time>2016-03-10T13:22:35Z</time>
      </trkpt>
      <trkpt lat="43.34385" lon="5.23648">
        <ele>177</ele>
        <time>2016-03-10T13:22:36Z</time>
      </trkpt>
      <trkpt lat="43.34385" lon="5.23646">
        <ele>176</ele>
        <time>2016-03-10T13:22:37Z</time>
      </trkpt>
      <trkpt lat="43.34385" lon="5.23645">
        <ele>176</ele>
        <time>2016-03-10T13:22:38Z</time>
      </trkpt>
      <trkpt lat="43.34385" lon="5.23643">
        <ele>176</ele>
        <time>2016-03-10T13:22:39Z</time>
      </trkpt>
      <trkpt lat="43.34385" lon="5.23641">
        <ele>176</ele>
        <time>2016-03-10T13:22:40Z</time>
      </trkpt>
      <trkpt lat="43.34384" lon="5.23638">
        <ele>175</ele>
        <time>2016-03-10T13:22:41Z</time>
      </trkpt>
      <trkpt lat="43.34384" lon="5.23637">
        <ele>175</ele>
        <time>2016-03-10T13:22:42Z</time>
      </trkpt>
      <trkpt lat="43.34383" lon="5.23635">
        <ele>175</ele>
        <time>2016-03-10T13:22:43Z</time>
      </trkpt>
      <trkpt lat="43.34383" lon="5.23633">
        <ele>174</ele>
        <time>2016-03-10T13:22:44Z</time>
      </trkpt>
      <trkpt lat="43.34383" lon="5.23631">
        <ele>174</ele>
        <time>2016-03-10T13:22:45Z</time>
      </trkpt>
      <trkpt lat="43.34383" lon="5.23629">
        <ele>174</ele>
        <time>2016-03-10T13:22:46Z</time>
      </trkpt>
      <trkpt lat="43.34382" lon="5.23627">
        <ele>174</ele>
        <time>2016-03-10T13:22:47Z</time>
      </trkpt>
      <trkpt lat="43.34382" lon="5.23625">
        <ele>174</ele>
        <time>2016-03-10T13:22:48Z</time>
      </trkpt>
      <trkpt lat="43.34382" lon="5.23624">
        <ele>173</ele>
        <time>2016-03-10T13:22:49Z</time>
      </trkpt>
      <trkpt lat="43.34381" lon="5.23622">
        <ele>173</ele>
        <time>2016-03-10T13:22:50Z</time>
      </trkpt>
      <trkpt lat="43.34381" lon="5.2362">
        <ele>173</ele>
        <time>2016-03-10T13:22:51Z</time>
      </trkpt>
      <trkpt lat="43.3438" lon="5.23618">
        <ele>173</ele>
        <time>2016-03-10T13:22:52Z</time>
      </trkpt>
      <trkpt lat="43.3438" lon="5.23616">
        <ele>173</ele>
        <time>2016-03-10T13:22:53Z</time>
      </trkpt>
      <trkpt lat="43.3438" lon="5.23614">
        <ele>172</ele>
        <time>2016-03-10T13:22:54Z</time>
      </trkpt>
      <trkpt lat="43.34379" lon="5.23612">
        <ele>172</ele>
        <time>2016-03-10T13:22:55Z</time>
      </trkpt>
      <trkpt lat="43.34378" lon="5.2361">
        <ele>172</ele>
        <time>2016-03-10T13:22:56Z</time>
      </trkpt>
      <trkpt lat="43.34378" lon="5.23608">
        <ele>172</ele>
        <time>2016-03-10T13:22:57Z</time>
      </trkpt>
      <trkpt lat="43.34378" lon="5.23606">
        <ele>172</ele>
        <time>2016-03-10T13:22:58Z</time>
      </trkpt>
      <trkpt lat="43.34377" lon="5.23604">
        <ele>172</ele>
        <time>2016-03-10T13:22:59Z</time>
      </trkpt>
      <trkpt lat="43.34377" lon="5.23602">
        <ele>172</ele>
        <time>2016-03-10T13:23:00Z</time>
      </trkpt>
      <trkpt lat="43.34376" lon="5.236">
        <ele>172</ele>
        <time>2016-03-10T13:23:01Z</time>
      </trkpt>
      <trkpt lat="43.34375" lon="5.23598">
        <ele>172</ele>
        <time>2016-03-10T13:23:02Z</time>
      </trkpt>
      <trkpt lat="43.34375" lon="5.23596">
        <ele>172</ele>
        <time>2016-03-10T13:23:03Z</time>
      </trkpt>
      <trkpt lat="43.34375" lon="5.23594">
        <ele>172</ele>
        <time>2016-03-10T13:23:04Z</time>
      </trkpt>
      <trkpt lat="43.34374" lon="5.23592">
        <ele>172</ele>
        <time>2016-03-10T13:23:05Z</time>
      </trkpt>
      <trkpt lat="43.34373" lon="5.2359">
        <ele>172</ele>
        <time>2016-03-10T13:23:06Z</time>
      </trkpt>
      <trkpt lat="43.34373" lon="5.23588">
        <ele>172</ele>
        <time>2016-03-10T13:23:07Z</time>
      </trkpt>
      <trkpt lat="43.34372" lon="5.23586">
        <ele>172</ele>
        <time>2016-03-10T13:23:08Z</time>
      </trkpt>
      <trkpt lat="43.34372" lon="5.23584">
        <ele>172</ele>
        <time>2016-03-10T13:23:09Z</time>
      </trkpt>
      <trkpt lat="43.34371" lon="5.23582">
        <ele>172</ele>
        <time>2016-03-10T13:23:10Z</time>
      </trkpt>
      <trkpt lat="43.3437" lon="5.2358">
        <ele>172</ele>
        <time>2016-03-10T13:23:11Z</time>
      </trkpt>
      <trkpt lat="43.3437" lon="5.23578">
        <ele>172</ele>
        <time>2016-03-10T13:23:12Z</time>
      </trkpt>
      <trkpt lat="43.34369" lon="5.23576">
        <ele>172</ele>
        <time>2016-03-10T13:23:13Z</time>
      </trkpt>
      <trkpt lat="43.34368" lon="5.23574">
        <ele>172</ele>
        <time>2016-03-10T13:23:14Z</time>
      </trkpt>
      <trkpt lat="43.34368" lon="5.23572">
        <ele>171</ele>
        <time>2016-03-10T13:23:15Z</time>
      </trkpt>
      <trkpt lat="43.34367" lon="5.23571">
        <ele>171</ele>
        <time>2016-03-10T13:23:16Z</time>
      </trkpt>
      <trkpt lat="43.34367" lon="5.23569">
        <ele>171</ele>
        <time>2016-03-10T13:23:17Z</time>
      </trkpt>
      <trkpt lat="43.34366" lon="5.23567">
        <ele>171</ele>
        <time>2016-03-10T13:23:18Z</time>
      </trkpt>
      <trkpt lat="43.34365" lon="5.23565">
        <ele>171</ele>
        <time>2016-03-10T13:23:19Z</time>
      </trkpt>
      <trkpt lat="43.34365" lon="5.23563">
        <ele>171</ele>
        <time>2016-03-10T13:23:20Z</time>
      </trkpt>
      <trkpt lat="43.34364" lon="5.23561">
        <ele>171</ele>
        <time>2016-03-10T13:23:21Z</time>
      </trkpt>
      <trkpt lat="43.34364" lon="5.23559">
        <ele>171</ele>
        <time>2016-03-10T13:23:22Z</time>
      </trkpt>
      <trkpt lat="43.34363" lon="5.23557">
        <ele>171</ele>
        <time>2016-03-10T13:23:23Z</time>
      </trkpt>
      <trkpt lat="43.34363" lon="5.23555">
        <ele>170</ele>
        <time>2016-03-10T13:23:24Z</time>
      </trkpt>
      <trkpt lat="43.34362" lon="5.23553">
        <ele>170</ele>
        <time>2016-03-10T13:23:25Z</time>
      </trkpt>
      <trkpt lat="43.34361" lon="5.23551">
        <ele>170</ele>
        <time>2016-03-10T13:23:26Z</time>
      </trkpt>
      <trkpt lat="43.34361" lon="5.23549">
        <ele>170</ele>
        <time>2016-03-10T13:23:27Z</time>
      </trkpt>
      <trkpt lat="43.3436" lon="5.23547">
        <ele>170</ele>
        <time>2016-03-10T13:23:28Z</time>
      </trkpt>
      <trkpt lat="43.34359" lon="5.23546">
        <ele>170</ele>
        <time>2016-03-10T13:23:29Z</time>
      </trkpt>
      <trkpt lat="43.34358" lon="5.23544">
        <ele>170</ele>
        <time>2016-03-10T13:23:30Z</time>
      </trkpt>
      <trkpt lat="43.34358" lon="5.23542">
        <ele>170</ele>
        <time>2016-03-10T13:23:31Z</time>
      </trkpt>
      <trkpt lat="43.34357" lon="5.2354">
        <ele>170</ele>
        <time>2016-03-10T13:23:32Z</time>
      </trkpt>
      <trkpt lat="43.34356" lon="5.23538">
        <ele>170</ele>
        <time>2016-03-10T13:23:33Z</time>
      </trkpt>
      <trkpt lat="43.34356" lon="5.23536">
        <ele>170</ele>
        <time>2016-03-10T13:23:34Z</time>
      </trkpt>
      <trkpt lat="43.34355" lon="5.23534">
        <ele>170</ele>
        <time>2016-03-10T13:23:35Z</time>
      </trkpt>
      <trkpt lat="43.34354" lon="5.23532">
        <ele>170</ele>
        <time>2016-03-10T13:23:36Z</time>
      </trkpt>
      <trkpt lat="43.34353" lon="5.23531">
        <ele>169</ele>
        <time>2016-03-10T13:23:37Z</time>
      </trkpt>
      <trkpt lat="43.34352" lon="5.23529">
        <ele>169</ele>
        <time>2016-03-10T13:23:38Z</time>
      </trkpt>
      <trkpt lat="43.34351" lon="5.23527">
        <ele>169</ele>
        <time>2016-03-10T13:23:39Z</time>
      </trkpt>
      <trkpt lat="43.3435" lon="5.23525">
        <ele>169</ele>
        <time>2016-03-10T13:23:40Z</time>
      </trkpt>
      <trkpt lat="43.34349" lon="5.23524">
        <ele>169</ele>
        <time>2016-03-10T13:23:41Z</time>
      </trkpt>
      <trkpt lat="43.34348" lon="5.23522">
        <ele>169</ele>
        <time>2016-03-10T13:23:42Z</time>
      </trkpt>
      <trkpt lat="43.34347" lon="5.23521">
        <ele>169</ele>
        <time>2016-03-10T13:23:43Z</time>
      </trkpt>
      <trkpt lat="43.34346" lon="5.23519">
        <ele>169</ele>
        <time>2016-03-10T13:23:44Z</time>
      </trkpt>
      <trkpt lat="43.34345" lon="5.23517">
        <ele>169</ele>
        <time>2016-03-10T13:23:45Z</time>
      </trkpt>
      <trkpt lat="43.34344" lon="5.23516">
        <ele>169</ele>
        <time>2016-03-10T13:23:46Z</time>
      </trkpt>
      <trkpt lat="43.34343" lon="5.23514">
        <ele>169</ele>
        <time>2016-03-10T13:23:47Z</time>
      </trkpt>
      <trkpt lat="43.34342" lon="5.23513">
        <ele>168</ele>
        <time>2016-03-10T13:23:48Z</time>
      </trkpt>
      <trkpt lat="43.34341" lon="5.23511">
        <ele>168</ele>
        <time>2016-03-10T13:23:49Z</time>
      </trkpt>
      <trkpt lat="43.3434" lon="5.2351">
        <ele>168</ele>
        <time>2016-03-10T13:23:50Z</time>
      </trkpt>
      <trkpt lat="43.34338" lon="5.23507">
        <ele>168</ele>
        <time>2016-03-10T13:23:52Z</time>
      </trkpt>
      <trkpt lat="43.34338" lon="5.23506">
        <ele>167</ele>
        <time>2016-03-10T13:23:53Z</time>
      </trkpt>
      <trkpt lat="43.34335" lon="5.23503">
        <ele>167</ele>
        <time>2016-03-10T13:23:55Z</time>
      </trkpt>
      <trkpt lat="43.34334" lon="5.23502">
        <ele>167</ele>
        <time>2016-03-10T13:23:56Z</time>
      </trkpt>
      <trkpt lat="43.34333" lon="5.23501">
        <ele>166</ele>
        <time>2016-03-10T13:23:57Z</time>
      </trkpt>
      <trkpt lat="43.34332" lon="5.235">
        <ele>166</ele>
        <time>2016-03-10T13:23:58Z</time>
      </trkpt>
      <trkpt lat="43.34331" lon="5.23499">
        <ele>166</ele>
        <time>2016-03-10T13:23:59Z</time>
      </trkpt>
      <trkpt lat="43.3433" lon="5.23498">
        <ele>166</ele>
        <time>2016-03-10T13:24:00Z</time>
      </trkpt>
      <trkpt lat="43.34328" lon="5.23498">
        <ele>166</ele>
        <time>2016-03-10T13:24:01Z</time>
      </trkpt>
      <trkpt lat="43.34327" lon="5.23498">
        <ele>166</ele>
        <time>2016-03-10T13:24:02Z</time>
      </trkpt>
      <trkpt lat="43.34325" lon="5.23498">
        <ele>166</ele>
        <time>2016-03-10T13:24:03Z</time>
      </trkpt>
      <trkpt lat="43.34324" lon="5.23498">
        <ele>165</ele>
        <time>2016-03-10T13:24:04Z</time>
      </trkpt>
      <trkpt lat="43.34322" lon="5.23499">
        <ele>165</ele>
        <time>2016-03-10T13:24:05Z</time>
      </trkpt>
      <trkpt lat="43.34321" lon="5.23499">
        <ele>165</ele>
        <time>2016-03-10T13:24:06Z</time>
      </trkpt>
      <trkpt lat="43.34319" lon="5.235">
        <ele>165</ele>
        <time>2016-03-10T13:24:07Z</time>
      </trkpt>
      <trkpt lat="43.34317" lon="5.23501">
        <ele>165</ele>
        <time>2016-03-10T13:24:08Z</time>
      </trkpt>
      <trkpt lat="43.34316" lon="5.23502">
        <ele>165</ele>
        <time>2016-03-10T13:24:09Z</time>
      </trkpt>
      <trkpt lat="43.34314" lon="5.23502">
        <ele>165</ele>
        <time>2016-03-10T13:24:10Z</time>
      </trkpt>
      <trkpt lat="43.34313" lon="5.23503">
        <ele>165</ele>
        <time>2016-03-10T13:24:11Z</time>
      </trkpt>
      <trkpt lat="43.34311" lon="5.23504">
        <ele>165</ele>
        <time>2016-03-10T13:24:12Z</time>
      </trkpt>
      <trkpt lat="43.3431" lon="5.23504">
        <ele>165</ele>
        <time>2016-03-10T13:24:13Z</time>
      </trkpt>
      <trkpt lat="43.34308" lon="5.23504">
        <ele>165</ele>
        <time>2016-03-10T13:24:14Z</time>
      </trkpt>
      <trkpt lat="43.34307" lon="5.23505">
        <ele>165</ele>
        <time>2016-03-10T13:24:15Z</time>
      </trkpt>
      <trkpt lat="43.34306" lon="5.23505">
        <ele>165</ele>
        <time>2016-03-10T13:24:16Z</time>
      </trkpt>
      <trkpt lat="43.34304" lon="5.23505">
        <ele>165</ele>
        <time>2016-03-10T13:24:17Z</time>
      </trkpt>
      <trkpt lat="43.34303" lon="5.23505">
        <ele>165</ele>
        <time>2016-03-10T13:24:18Z</time>
      </trkpt>
      <trkpt lat="43.34301" lon="5.23505">
        <ele>165</ele>
        <time>2016-03-10T13:24:19Z</time>
      </trkpt>
      <trkpt lat="43.34299" lon="5.23505">
        <ele>165</ele>
        <time>2016-03-10T13:24:20Z</time>
      </trkpt>
      <trkpt lat="43.34298" lon="5.23506">
        <ele>164</ele>
        <time>2016-03-10T13:24:21Z</time>
      </trkpt>
      <trkpt lat="43.34297" lon="5.23506">
        <ele>164</ele>
        <time>2016-03-10T13:24:22Z</time>
      </trkpt>
      <trkpt lat="43.34295" lon="5.23506">
        <ele>164</ele>
        <time>2016-03-10T13:24:23Z</time>
      </trkpt>
      <trkpt lat="43.34294" lon="5.23506">
        <ele>164</ele>
        <time>2016-03-10T13:24:24Z</time>
      </trkpt>
      <trkpt lat="43.34293" lon="5.23506">
        <ele>164</ele>
        <time>2016-03-10T13:24:25Z</time>
      </trkpt>
      <trkpt lat="43.34291" lon="5.23507">
        <ele>164</ele>
        <time>2016-03-10T13:24:26Z</time>
      </trkpt>
      <trkpt lat="43.3429" lon="5.23507">
        <ele>164</ele>
        <time>2016-03-10T13:24:27Z</time>
      </trkpt>
      <trkpt lat="43.34288" lon="5.23507">
        <ele>164</ele>
        <time>2016-03-10T13:24:28Z</time>
      </trkpt>
      <trkpt lat="43.34287" lon="5.23508">
        <ele>164</ele>
        <time>2016-03-10T13:24:29Z</time>
      </trkpt>
      <trkpt lat="43.34285" lon="5.23509">
        <ele>164</ele>
        <time>2016-03-10T13:24:30Z</time>
      </trkpt>
      <trkpt lat="43.34284" lon="5.23509">
        <ele>164</ele>
        <time>2016-03-10T13:24:31Z</time>
      </trkpt>
      <trkpt lat="43.34283" lon="5.2351">
        <ele>164</ele>
        <time>2016-03-10T13:24:32Z</time>
      </trkpt>
      <trkpt lat="43.34281" lon="5.23511">
        <ele>164</ele>
        <time>2016-03-10T13:24:33Z</time>
      </trkpt>
      <trkpt lat="43.3428" lon="5.23512">
        <ele>164</ele>
        <time>2016-03-10T13:24:34Z</time>
      </trkpt>
      <trkpt lat="43.34278" lon="5.23513">
        <ele>163</ele>
        <time>2016-03-10T13:24:35Z</time>
      </trkpt>
      <trkpt lat="43.34277" lon="5.23513">
        <ele>163</ele>
        <time>2016-03-10T13:24:36Z</time>
      </trkpt>
      <trkpt lat="43.34275" lon="5.23514">
        <ele>163</ele>
        <time>2016-03-10T13:24:37Z</time>
      </trkpt>
      <trkpt lat="43.34274" lon="5.23514">
        <ele>163</ele>
        <time>2016-03-10T13:24:38Z</time>
      </trkpt>
      <trkpt lat="43.34273" lon="5.23514">
        <ele>163</ele>
        <time>2016-03-10T13:24:39Z</time>
      </trkpt>
      <trkpt lat="43.34271" lon="5.23514">
        <ele>163</ele>
        <time>2016-03-10T13:24:40Z</time>
      </trkpt>
      <trkpt lat="43.3427" lon="5.23514">
        <ele>163</ele>
        <time>2016-03-10T13:24:41Z</time>
      </trkpt>
      <trkpt lat="43.34268" lon="5.23514">
        <ele>163</ele>
        <time>2016-03-10T13:24:42Z</time>
      </trkpt>
      <trkpt lat="43.34267" lon="5.23514">
        <ele>163</ele>
        <time>2016-03-10T13:24:43Z</time>
      </trkpt>
      <trkpt lat="43.34265" lon="5.23514">
        <ele>163</ele>
        <time>2016-03-10T13:24:44Z</time>
      </trkpt>
      <trkpt lat="43.34264" lon="5.23514">
        <ele>163</ele>
        <time>2016-03-10T13:24:45Z</time>
      </trkpt>
      <trkpt lat="43.34263" lon="5.23513">
        <ele>162</ele>
        <time>2016-03-10T13:24:46Z</time>
      </trkpt>
      <trkpt lat="43.34261" lon="5.23512">
        <ele>162</ele>
        <time>2016-03-10T13:24:47Z</time>
      </trkpt>
      <trkpt lat="43.3426" lon="5.23512">
        <ele>162</ele>
        <time>2016-03-10T13:24:48Z</time>
      </trkpt>
      <trkpt lat="43.34259" lon="5.23511">
        <ele>162</ele>
        <time>2016-03-10T13:24:49Z</time>
      </trkpt>
      <trkpt lat="43.34257" lon="5.23511">
        <ele>162</ele>
        <time>2016-03-10T13:24:50Z</time>
      </trkpt>
      <trkpt lat="43.34256" lon="5.2351">
        <ele>162</ele>
        <time>2016-03-10T13:24:51Z</time>
      </trkpt>
      <trkpt lat="43.34254" lon="5.2351">
        <ele>162</ele>
        <time>2016-03-10T13:24:52Z</time>
      </trkpt>
      <trkpt lat="43.34253" lon="5.23509">
        <ele>161</ele>
        <time>2016-03-10T13:24:53Z</time>
      </trkpt>
      <trkpt lat="43.34252" lon="5.23509">
        <ele>161</ele>
        <time>2016-03-10T13:24:54Z</time>
      </trkpt>
      <trkpt lat="43.34251" lon="5.23508">
        <ele>161</ele>
        <time>2016-03-10T13:24:55Z</time>
      </trkpt>
      <trkpt lat="43.34249" lon="5.23507">
        <ele>161</ele>
        <time>2016-03-10T13:24:56Z</time>
      </trkpt>
      <trkpt lat="43.34248" lon="5.23506">
        <ele>161</ele>
        <time>2016-03-10T13:24:57Z</time>
      </trkpt>
      <trkpt lat="43.34247" lon="5.23504">
        <ele>161</ele>
        <time>2016-03-10T13:24:58Z</time>
      </trkpt>
      <trkpt lat="43.34246" lon="5.23503">
        <ele>160</ele>
        <time>2016-03-10T13:24:59Z</time>
      </trkpt>
      <trkpt lat="43.34245" lon="5.23501">
        <ele>160</ele>
        <time>2016-03-10T13:25:00Z</time>
      </trkpt>
      <trkpt lat="43.34244" lon="5.235">
        <ele>160</ele>
        <time>2016-03-10T13:25:01Z</time>
      </trkpt>
      <trkpt lat="43.34243" lon="5.23499">
        <ele>160</ele>
        <time>2016-03-10T13:25:02Z</time>
      </trkpt>
      <trkpt lat="43.3424" lon="5.23497">
        <ele>159</ele>
        <time>2016-03-10T13:25:04Z</time>
      </trkpt>
      <trkpt lat="43.34239" lon="5.23496">
        <ele>159</ele>
        <time>2016-03-10T13:25:05Z</time>
      </trkpt>
      <trkpt lat="43.34238" lon="5.23496">
        <ele>159</ele>
        <time>2016-03-10T13:25:06Z</time>
      </trkpt>
      <trkpt lat="43.34236" lon="5.23496">
        <ele>159</ele>
        <time>2016-03-10T13:25:07Z</time>
      </trkpt>
      <trkpt lat="43.34235" lon="5.23496">
        <ele>159</ele>
        <time>2016-03-10T13:25:08Z</time>
      </trkpt>
      <trkpt lat="43.34233" lon="5.23496">
        <ele>159</ele>
        <time>2016-03-10T13:25:09Z</time>
      </trkpt>
      <trkpt lat="43.34232" lon="5.23495">
        <ele>159</ele>
        <time>2016-03-10T13:25:10Z</time>
      </trkpt>
      <trkpt lat="43.3423" lon="5.23495">
        <ele>159</ele>
        <time>2016-03-10T13:25:11Z</time>
      </trkpt>
      <trkpt lat="43.34229" lon="5.23494">
        <ele>158</ele>
        <time>2016-03-10T13:25:12Z</time>
      </trkpt>
      <trkpt lat="43.34227" lon="5.23493">
        <ele>158</ele>
        <time>2016-03-10T13:25:13Z</time>
      </trkpt>
      <trkpt lat="43.34226" lon="5.23492">
        <ele>158</ele>
        <time>2016-03-10T13:25:14Z</time>
      </trkpt>
      <trkpt lat="43.34224" lon="5.23491">
        <ele>158</ele>
        <time>2016-03-10T13:25:15Z</time>
      </trkpt>
      <trkpt lat="43.34223" lon="5.23491">
        <ele>158</ele>
        <time>2016-03-10T13:25:16Z</time>
      </trkpt>
      <trkpt lat="43.34222" lon="5.2349">
        <ele>158</ele>
        <time>2016-03-10T13:25:17Z</time>
      </trkpt>
      <trkpt lat="43.3422" lon="5.2349">
        <ele>158</ele>
        <time>2016-03-10T13:25:18Z</time>
      </trkpt>
      <trkpt lat="43.34219" lon="5.23489">
        <ele>158</ele>
        <time>2016-03-10T13:25:19Z</time>
      </trkpt>
      <trkpt lat="43.34217" lon="5.23489">
        <ele>158</ele>
        <time>2016-03-10T13:25:20Z</time>
      </trkpt>
      <trkpt lat="43.34216" lon="5.23489">
        <ele>158</ele>
        <time>2016-03-10T13:25:21Z</time>
      </trkpt>
      <trkpt lat="43.34214" lon="5.23489">
        <ele>158</ele>
        <time>2016-03-10T13:25:22Z</time>
      </trkpt>
      <trkpt lat="43.34213" lon="5.23489">
        <ele>158</ele>
        <time>2016-03-10T13:25:23Z</time>
      </trkpt>
      <trkpt lat="43.34212" lon="5.2349">
        <ele>157</ele>
        <time>2016-03-10T13:25:24Z</time>
      </trkpt>
      <trkpt lat="43.3421" lon="5.2349">
        <ele>157</ele>
        <time>2016-03-10T13:25:25Z</time>
      </trkpt>
      <trkpt lat="43.34209" lon="5.2349">
        <ele>157</ele>
        <time>2016-03-10T13:25:26Z</time>
      </trkpt>
      <trkpt lat="43.34208" lon="5.23491">
        <ele>157</ele>
        <time>2016-03-10T13:25:27Z</time>
      </trkpt>
      <trkpt lat="43.34206" lon="5.23492">
        <ele>157</ele>
        <time>2016-03-10T13:25:28Z</time>
      </trkpt>
      <trkpt lat="43.34205" lon="5.23493">
        <ele>157</ele>
        <time>2016-03-10T13:25:29Z</time>
      </trkpt>
      <trkpt lat="43.34203" lon="5.23493">
        <ele>157</ele>
        <time>2016-03-10T13:25:30Z</time>
      </trkpt>
      <trkpt lat="43.34202" lon="5.23494">
        <ele>156</ele>
        <time>2016-03-10T13:25:31Z</time>
      </trkpt>
      <trkpt lat="43.342" lon="5.23494">
        <ele>156</ele>
        <time>2016-03-10T13:25:32Z</time>
      </trkpt>
      <trkpt lat="43.34199" lon="5.23495">
        <ele>156</ele>
        <time>2016-03-10T13:25:33Z</time>
      </trkpt>
      <trkpt lat="43.34198" lon="5.23495">
        <ele>156</ele>
        <time>2016-03-10T13:25:34Z</time>
      </trkpt>
      <trkpt lat="43.34196" lon="5.23495">
        <ele>156</ele>
        <time>2016-03-10T13:25:35Z</time>
      </trkpt>
      <trkpt lat="43.34195" lon="5.23496">
        <ele>156</ele>
        <time>2016-03-10T13:25:36Z</time>
      </trkpt>
      <trkpt lat="43.34193" lon="5.23496">
        <ele>156</ele>
        <time>2016-03-10T13:25:37Z</time>
      </trkpt>
      <trkpt lat="43.34192" lon="5.23496">
        <ele>156</ele>
        <time>2016-03-10T13:25:38Z</time>
      </trkpt>
      <trkpt lat="43.34191" lon="5.23497">
        <ele>155</ele>
        <time>2016-03-10T13:25:39Z</time>
      </trkpt>
      <trkpt lat="43.34189" lon="5.23498">
        <ele>155</ele>
        <time>2016-03-10T13:25:40Z</time>
      </trkpt>
      <trkpt lat="43.34188" lon="5.23498">
        <ele>155</ele>
        <time>2016-03-10T13:25:41Z</time>
      </trkpt>
      <trkpt lat="43.34187" lon="5.23499">
        <ele>155</ele>
        <time>2016-03-10T13:25:42Z</time>
      </trkpt>
      <trkpt lat="43.34185" lon="5.235">
        <ele>154</ele>
        <time>2016-03-10T13:25:43Z</time>
      </trkpt>
      <trkpt lat="43.34184" lon="5.23501">
        <ele>154</ele>
        <time>2016-03-10T13:25:44Z</time>
      </trkpt>
      <trkpt lat="43.34183" lon="5.23501">
        <ele>154</ele>
        <time>2016-03-10T13:25:45Z</time>
      </trkpt>
      <trkpt lat="43.34181" lon="5.23503">
        <ele>153</ele>
        <time>2016-03-10T13:25:47Z</time>
      </trkpt>
      <trkpt lat="43.34179" lon="5.23505">
        <ele>152</ele>
        <time>2016-03-10T13:25:49Z</time>
      </trkpt>
      <trkpt lat="43.34178" lon="5.23506">
        <ele>152</ele>
        <time>2016-03-10T13:25:50Z</time>
      </trkpt>
      <trkpt lat="43.34177" lon="5.23508">
        <ele>151</ele>
        <time>2016-03-10T13:25:51Z</time>
      </trkpt>
      <trkpt lat="43.34175" lon="5.23509">
        <ele>151</ele>
        <time>2016-03-10T13:25:52Z</time>
      </trkpt>
      <trkpt lat="43.34174" lon="5.2351">
        <ele>151</ele>
        <time>2016-03-10T13:25:53Z</time>
      </trkpt>
      <trkpt lat="43.34173" lon="5.23511">
        <ele>151</ele>
        <time>2016-03-10T13:25:54Z</time>
      </trkpt>
      <trkpt lat="43.34171" lon="5.23512">
        <ele>151</ele>
        <time>2016-03-10T13:25:55Z</time>
      </trkpt>
      <trkpt lat="43.3417" lon="5.23513">
        <ele>151</ele>
        <time>2016-03-10T13:25:56Z</time>
      </trkpt>
      <trkpt lat="43.34169" lon="5.23515">
        <ele>150</ele>
        <time>2016-03-10T13:25:57Z</time>
      </trkpt>
      <trkpt lat="43.34168" lon="5.23516">
        <ele>150</ele>
        <time>2016-03-10T13:25:58Z</time>
      </trkpt>
      <trkpt lat="43.34167" lon="5.23517">
        <ele>150</ele>
        <time>2016-03-10T13:25:59Z</time>
      </trkpt>
      <trkpt lat="43.34166" lon="5.23518">
        <ele>150</ele>
        <time>2016-03-10T13:26:00Z</time>
      </trkpt>
      <trkpt lat="43.34164" lon="5.23519">
        <ele>149</ele>
        <time>2016-03-10T13:26:01Z</time>
      </trkpt>
      <trkpt lat="43.34163" lon="5.2352">
        <ele>149</ele>
        <time>2016-03-10T13:26:02Z</time>
      </trkpt>
      <trkpt lat="43.34162" lon="5.23521">
        <ele>149</ele>
        <time>2016-03-10T13:26:03Z</time>
      </trkpt>
      <trkpt lat="43.3416" lon="5.23522">
        <ele>149</ele>
        <time>2016-03-10T13:26:04Z</time>
      </trkpt>
      <trkpt lat="43.34159" lon="5.23523">
        <ele>149</ele>
        <time>2016-03-10T13:26:05Z</time>
      </trkpt>
      <trkpt lat="43.34158" lon="5.23524">
        <ele>149</ele>
        <time>2016-03-10T13:26:06Z</time>
      </trkpt>
      <trkpt lat="43.34156" lon="5.23525">
        <ele>149</ele>
        <time>2016-03-10T13:26:07Z</time>
      </trkpt>
      <trkpt lat="43.34155" lon="5.23526">
        <ele>149</ele>
        <time>2016-03-10T13:26:08Z</time>
      </trkpt>
      <trkpt lat="43.34153" lon="5.23527">
        <ele>149</ele>
        <time>2016-03-10T13:26:09Z</time>
      </trkpt>
      <trkpt lat="43.34152" lon="5.23528">
        <ele>149</ele>
        <time>2016-03-10T13:26:10Z</time>
      </trkpt>
      <trkpt lat="43.3415" lon="5.23528">
        <ele>149</ele>
        <time>2016-03-10T13:26:11Z</time>
      </trkpt>
      <trkpt lat="43.34149" lon="5.23529">
        <ele>149</ele>
        <time>2016-03-10T13:26:12Z</time>
      </trkpt>
      <trkpt lat="43.34148" lon="5.23529">
        <ele>149</ele>
        <time>2016-03-10T13:26:13Z</time>
      </trkpt>
      <trkpt lat="43.34146" lon="5.2353">
        <ele>149</ele>
        <time>2016-03-10T13:26:14Z</time>
      </trkpt>
      <trkpt lat="43.34145" lon="5.2353">
        <ele>149</ele>
        <time>2016-03-10T13:26:15Z</time>
      </trkpt>
      <trkpt lat="43.34143" lon="5.23531">
        <ele>149</ele>
        <time>2016-03-10T13:26:16Z</time>
      </trkpt>
      <trkpt lat="43.34142" lon="5.23531">
        <ele>149</ele>
        <time>2016-03-10T13:26:17Z</time>
      </trkpt>
      <trkpt lat="43.34141" lon="5.23532">
        <ele>149</ele>
        <time>2016-03-10T13:26:18Z</time>
      </trkpt>
      <trkpt lat="43.34139" lon="5.23533">
        <ele>149</ele>
        <time>2016-03-10T13:26:19Z</time>
      </trkpt>
      <trkpt lat="43.34138" lon="5.23533">
        <ele>149</ele>
        <time>2016-03-10T13:26:20Z</time>
      </trkpt>
      <trkpt lat="43.34136" lon="5.23534">
        <ele>149</ele>
        <time>2016-03-10T13:26:21Z</time>
      </trkpt>
      <trkpt lat="43.34135" lon="5.23535">
        <ele>149</ele>
        <time>2016-03-10T13:26:22Z</time>
      </trkpt>
      <trkpt lat="43.34133" lon="5.23536">
        <ele>149</ele>
        <time>2016-03-10T13:26:23Z</time>
      </trkpt>
      <trkpt lat="43.34132" lon="5.23536">
        <ele>149</ele>
        <time>2016-03-10T13:26:24Z</time>
      </trkpt>
      <trkpt lat="43.3413" lon="5.23537">
        <ele>149</ele>
        <time>2016-03-10T13:26:25Z</time>
      </trkpt>
      <trkpt lat="43.34129" lon="5.23538">
        <ele>149</ele>
        <time>2016-03-10T13:26:26Z</time>
      </trkpt>
      <trkpt lat="43.34127" lon="5.2354">
        <ele>149</ele>
        <time>2016-03-10T13:26:28Z</time>
      </trkpt>
      <trkpt lat="43.34126" lon="5.23542">
        <ele>149</ele>
        <time>2016-03-10T13:26:30Z</time>
      </trkpt>
      <trkpt lat="43.34125" lon="5.23544">
        <ele>149</ele>
        <time>2016-03-10T13:26:31Z</time>
      </trkpt>
      <trkpt lat="43.34124" lon="5.23546">
        <ele>149</ele>
        <time>2016-03-10T13:26:32Z</time>
      </trkpt>
      <trkpt lat="43.34123" lon="5.23548">
        <ele>149</ele>
        <time>2016-03-10T13:26:33Z</time>
      </trkpt>
      <trkpt lat="43.34122" lon="5.2355">
        <ele>149</ele>
        <time>2016-03-10T13:26:34Z</time>
      </trkpt>
      <trkpt lat="43.34121" lon="5.23551">
        <ele>149</ele>
        <time>2016-03-10T13:26:35Z</time>
      </trkpt>
      <trkpt lat="43.3412" lon="5.23553">
        <ele>149</ele>
        <time>2016-03-10T13:26:36Z</time>
      </trkpt>
      <trkpt lat="43.34119" lon="5.23555">
        <ele>149</ele>
        <time>2016-03-10T13:26:37Z</time>
      </trkpt>
      <trkpt lat="43.34119" lon="5.23557">
        <ele>149</ele>
        <time>2016-03-10T13:26:38Z</time>
      </trkpt>
      <trkpt lat="43.34118" lon="5.23559">
        <ele>149</ele>
        <time>2016-03-10T13:26:39Z</time>
      </trkpt>
      <trkpt lat="43.34117" lon="5.2356">
        <ele>149</ele>
        <time>2016-03-10T13:26:40Z</time>
      </trkpt>
      <trkpt lat="43.34117" lon="5.23562">
        <ele>149</ele>
        <time>2016-03-10T13:26:41Z</time>
      </trkpt>
      <trkpt lat="43.34116" lon="5.23564">
        <ele>149</ele>
        <time>2016-03-10T13:26:42Z</time>
      </trkpt>
      <trkpt lat="43.34115" lon="5.23565">
        <ele>149</ele>
        <time>2016-03-10T13:26:43Z</time>
      </trkpt>
      <trkpt lat="43.34114" lon="5.23567">
        <ele>149</ele>
        <time>2016-03-10T13:26:44Z</time>
      </trkpt>
      <trkpt lat="43.34113" lon="5.23569">
        <ele>149</ele>
        <time>2016-03-10T13:26:45Z</time>
      </trkpt>
      <trkpt lat="43.34113" lon="5.23571">
        <ele>149</ele>
        <time>2016-03-10T13:26:46Z</time>
      </trkpt>
      <trkpt lat="43.34112" lon="5.23573">
        <ele>149</ele>
        <time>2016-03-10T13:26:47Z</time>
      </trkpt>
      <trkpt lat="43.34111" lon="5.23575">
        <ele>149</ele>
        <time>2016-03-10T13:26:48Z</time>
      </trkpt>
      <trkpt lat="43.34111" lon="5.23576">
        <ele>149</ele>
        <time>2016-03-10T13:26:49Z</time>
      </trkpt>
      <trkpt lat="43.3411" lon="5.23578">
        <ele>149</ele>
        <time>2016-03-10T13:26:50Z</time>
      </trkpt>
      <trkpt lat="43.34109" lon="5.2358">
        <ele>149</ele>
        <time>2016-03-10T13:26:51Z</time>
      </trkpt>
      <trkpt lat="43.34108" lon="5.23582">
        <ele>149</ele>
        <time>2016-03-10T13:26:52Z</time>
      </trkpt>
      <trkpt lat="43.34107" lon="5.23583">
        <ele>149</ele>
        <time>2016-03-10T13:26:53Z</time>
      </trkpt>
      <trkpt lat="43.34106" lon="5.23585">
        <ele>149</ele>
        <time>2016-03-10T13:26:54Z</time>
      </trkpt>
      <trkpt lat="43.34105" lon="5.23586">
        <ele>149</ele>
        <time>2016-03-10T13:26:55Z</time>
      </trkpt>
      <trkpt lat="43.34103" lon="5.23588">
        <ele>149</ele>
        <time>2016-03-10T13:26:56Z</time>
      </trkpt>
      <trkpt lat="43.34102" lon="5.23589">
        <ele>149</ele>
        <time>2016-03-10T13:26:57Z</time>
      </trkpt>
      <trkpt lat="43.34101" lon="5.2359">
        <ele>148</ele>
        <time>2016-03-10T13:26:58Z</time>
      </trkpt>
      <trkpt lat="43.341" lon="5.23591">
        <ele>148</ele>
        <time>2016-03-10T13:26:59Z</time>
      </trkpt>
      <trkpt lat="43.34098" lon="5.23593">
        <ele>148</ele>
        <time>2016-03-10T13:27:01Z</time>
      </trkpt>
      <trkpt lat="43.34097" lon="5.23594">
        <ele>147</ele>
        <time>2016-03-10T13:27:02Z</time>
      </trkpt>
      <trkpt lat="43.34095" lon="5.23596">
        <ele>147</ele>
        <time>2016-03-10T13:27:03Z</time>
      </trkpt>
      <trkpt lat="43.34093" lon="5.23598">
        <ele>147</ele>
        <time>2016-03-10T13:27:05Z</time>
      </trkpt>
      <trkpt lat="43.34092" lon="5.23599">
        <ele>147</ele>
        <time>2016-03-10T13:27:06Z</time>
      </trkpt>
      <trkpt lat="43.34091" lon="5.23601">
        <ele>147</ele>
        <time>2016-03-10T13:27:07Z</time>
      </trkpt>
      <trkpt lat="43.3409" lon="5.23602">
        <ele>147</ele>
        <time>2016-03-10T13:27:08Z</time>
      </trkpt>
      <trkpt lat="43.34089" lon="5.23604">
        <ele>147</ele>
        <time>2016-03-10T13:27:09Z</time>
      </trkpt>
      <trkpt lat="43.34088" lon="5.23606">
        <ele>147</ele>
        <time>2016-03-10T13:27:10Z</time>
      </trkpt>
      <trkpt lat="43.34087" lon="5.23608">
        <ele>147</ele>
        <time>2016-03-10T13:27:11Z</time>
      </trkpt>
      <trkpt lat="43.34087" lon="5.23609">
        <ele>147</ele>
        <time>2016-03-10T13:27:12Z</time>
      </trkpt>
      <trkpt lat="43.34086" lon="5.23611">
        <ele>147</ele>
        <time>2016-03-10T13:27:13Z</time>
      </trkpt>
      <trkpt lat="43.34085" lon="5.23613">
        <ele>147</ele>
        <time>2016-03-10T13:27:14Z</time>
      </trkpt>
      <trkpt lat="43.34084" lon="5.23614">
        <ele>147</ele>
        <time>2016-03-10T13:27:15Z</time>
      </trkpt>
      <trkpt lat="43.34083" lon="5.23616">
        <ele>147</ele>
        <time>2016-03-10T13:27:16Z</time>
      </trkpt>
      <trkpt lat="43.34082" lon="5.23618">
        <ele>147</ele>
        <time>2016-03-10T13:27:17Z</time>
      </trkpt>
      <trkpt lat="43.34081" lon="5.23619">
        <ele>147</ele>
        <time>2016-03-10T13:27:18Z</time>
      </trkpt>
      <trkpt lat="43.34079" lon="5.23622">
        <ele>147</ele>
        <time>2016-03-10T13:27:20Z</time>
      </trkpt>
      <trkpt lat="43.34077" lon="5.23623">
        <ele>147</ele>
        <time>2016-03-10T13:27:21Z</time>
      </trkpt>
      <trkpt lat="43.34076" lon="5.23624">
        <ele>147</ele>
        <time>2016-03-10T13:27:22Z</time>
      </trkpt>
      <trkpt lat="43.34074" lon="5.23625">
        <ele>147</ele>
        <time>2016-03-10T13:27:23Z</time>
      </trkpt>
      <trkpt lat="43.34073" lon="5.23626">
        <ele>147</ele>
        <time>2016-03-10T13:27:24Z</time>
      </trkpt>
      <trkpt lat="43.34071" lon="5.23626">
        <ele>146</ele>
        <time>2016-03-10T13:27:25Z</time>
      </trkpt>
      <trkpt lat="43.3407" lon="5.23626">
        <ele>146</ele>
        <time>2016-03-10T13:27:26Z</time>
      </trkpt>
      <trkpt lat="43.34068" lon="5.23627">
        <ele>146</ele>
        <time>2016-03-10T13:27:27Z</time>
      </trkpt>
      <trkpt lat="43.34067" lon="5.23627">
        <ele>146</ele>
        <time>2016-03-10T13:27:28Z</time>
      </trkpt>
      <trkpt lat="43.34065" lon="5.23627">
        <ele>146</ele>
        <time>2016-03-10T13:27:29Z</time>
      </trkpt>
      <trkpt lat="43.34064" lon="5.23628">
        <ele>146</ele>
        <time>2016-03-10T13:27:30Z</time>
      </trkpt>
      <trkpt lat="43.34062" lon="5.23628">
        <ele>146</ele>
        <time>2016-03-10T13:27:31Z</time>
      </trkpt>
      <trkpt lat="43.34061" lon="5.23628">
        <ele>145</ele>
        <time>2016-03-10T13:27:32Z</time>
      </trkpt>
      <trkpt lat="43.34059" lon="5.23629">
        <ele>145</ele>
        <time>2016-03-10T13:27:33Z</time>
      </trkpt>
      <trkpt lat="43.34058" lon="5.23629">
        <ele>145</ele>
        <time>2016-03-10T13:27:34Z</time>
      </trkpt>
      <trkpt lat="43.34056" lon="5.23629">
        <ele>145</ele>
        <time>2016-03-10T13:27:35Z</time>
      </trkpt>
      <trkpt lat="43.34055" lon="5.23629">
        <ele>145</ele>
        <time>2016-03-10T13:27:36Z</time>
      </trkpt>
      <trkpt lat="43.34053" lon="5.23629">
        <ele>144</ele>
        <time>2016-03-10T13:27:37Z</time>
      </trkpt>
      <trkpt lat="43.34052" lon="5.23629">
        <ele>144</ele>
        <time>2016-03-10T13:27:38Z</time>
      </trkpt>
      <trkpt lat="43.3405" lon="5.23629">
        <ele>144</ele>
        <time>2016-03-10T13:27:39Z</time>
      </trkpt>
      <trkpt lat="43.34049" lon="5.2363">
        <ele>144</ele>
        <time>2016-03-10T13:27:40Z</time>
      </trkpt>
      <trkpt lat="43.34047" lon="5.2363">
        <ele>144</ele>
        <time>2016-03-10T13:27:41Z</time>
      </trkpt>
      <trkpt lat="43.34046" lon="5.2363">
        <ele>143</ele>
        <time>2016-03-10T13:27:42Z</time>
      </trkpt>
      <trkpt lat="43.34045" lon="5.2363">
        <ele>143</ele>
        <time>2016-03-10T13:27:43Z</time>
      </trkpt>
      <trkpt lat="43.34043" lon="5.2363">
        <ele>143</ele>
        <time>2016-03-10T13:27:44Z</time>
      </trkpt>
      <trkpt lat="43.34042" lon="5.2363">
        <ele>143</ele>
        <time>2016-03-10T13:27:45Z</time>
      </trkpt>
      <trkpt lat="43.3404" lon="5.2363">
        <ele>142</ele>
        <time>2016-03-10T13:27:46Z</time>
      </trkpt>
      <trkpt lat="43.34039" lon="5.2363">
        <ele>142</ele>
        <time>2016-03-10T13:27:47Z</time>
      </trkpt>
      <trkpt lat="43.34038" lon="5.2363">
        <ele>142</ele>
        <time>2016-03-10T13:27:48Z</time>
      </trkpt>
      <trkpt lat="43.34036" lon="5.2363">
        <ele>142</ele>
        <time>2016-03-10T13:27:49Z</time>
      </trkpt>
      <trkpt lat="43.34035" lon="5.2363">
        <ele>142</ele>
        <time>2016-03-10T13:27:50Z</time>
      </trkpt>
      <trkpt lat="43.34033" lon="5.2363">
        <ele>142</ele>
        <time>2016-03-10T13:27:51Z</time>
      </trkpt>
      <trkpt lat="43.34032" lon="5.2363">
        <ele>141</ele>
        <time>2016-03-10T13:27:52Z</time>
      </trkpt>
      <trkpt lat="43.34031" lon="5.2363">
        <ele>141</ele>
        <time>2016-03-10T13:27:53Z</time>
      </trkpt>
      <trkpt lat="43.34029" lon="5.2363">
        <ele>141</ele>
        <time>2016-03-10T13:27:54Z</time>
      </trkpt>
      <trkpt lat="43.34028" lon="5.23629">
        <ele>141</ele>
        <time>2016-03-10T13:27:55Z</time>
      </trkpt>
      <trkpt lat="43.34026" lon="5.23629">
        <ele>141</ele>
        <time>2016-03-10T13:27:56Z</time>
      </trkpt>
      <trkpt lat="43.34025" lon="5.23629">
        <ele>141</ele>
        <time>2016-03-10T13:27:57Z</time>
      </trkpt>
      <trkpt lat="43.34024" lon="5.23628">
        <ele>141</ele>
        <time>2016-03-10T13:27:58Z</time>
      </trkpt>
      <trkpt lat="43.34022" lon="5.23628">
        <ele>141</ele>
        <time>2016-03-10T13:27:59Z</time>
      </trkpt>
      <trkpt lat="43.34021" lon="5.23628">
        <ele>141</ele>
        <time>2016-03-10T13:28:00Z</time>
      </trkpt>
      <trkpt lat="43.3402" lon="5.23627">
        <ele>140</ele>
        <time>2016-03-10T13:28:01Z</time>
      </trkpt>
      <trkpt lat="43.34018" lon="5.23626">
        <ele>140</ele>
        <time>2016-03-10T13:28:02Z</time>
      </trkpt>
      <trkpt lat="43.34017" lon="5.23626">
        <ele>140</ele>
        <time>2016-03-10T13:28:04Z</time>
      </trkpt>
      <trkpt lat="43.34015" lon="5.23625">
        <ele>140</ele>
        <time>2016-03-10T13:28:06Z</time>
      </trkpt>
      <trkpt lat="43.34014" lon="5.23625">
        <ele>140</ele>
        <time>2016-03-10T13:28:09Z</time>
      </trkpt>
      <trkpt lat="43.34014" lon="5.23626">
        <ele>140</ele>
        <time>2016-03-10T13:28:38Z</time>
      </trkpt>
      <trkpt lat="43.34013" lon="5.23627">
        <ele>140</ele>
        <time>2016-03-10T13:28:54Z</time>
      </trkpt>
      <trkpt lat="43.34013" lon="5.23628">
        <ele>140</ele>
        <time>2016-03-10T13:29:45Z</time>
      </trkpt>
      <trkpt lat="43.34013" lon="5.2363">
        <ele>140</ele>
        <time>2016-03-10T13:29:49Z</time>
      </trkpt>
      <trkpt lat="43.34014" lon="5.23632">
        <ele>140</ele>
        <time>2016-03-10T13:29:52Z</time>
      </trkpt>
      <trkpt lat="43.34015" lon="5.23634">
        <ele>140</ele>
        <time>2016-03-10T13:29:55Z</time>
      </trkpt>
      <trkpt lat="43.34016" lon="5.23635">
        <ele>140</ele>
        <time>2016-03-10T13:29:57Z</time>
      </trkpt>
      <trkpt lat="43.34016" lon="5.23637">
        <ele>140</ele>
        <time>2016-03-10T13:29:59Z</time>
      </trkpt>
      <trkpt lat="43.34016" lon="5.23638">
        <ele>140</ele>
        <time>2016-03-10T13:30:01Z</time>
      </trkpt>
      <trkpt lat="43.34017" lon="5.2364">
        <ele>140</ele>
        <time>2016-03-10T13:30:03Z</time>
      </trkpt>
      <trkpt lat="43.34018" lon="5.23642">
        <ele>140</ele>
        <time>2016-03-10T13:30:06Z</time>
      </trkpt>
      <trkpt lat="43.34018" lon="5.23644">
        <ele>140</ele>
        <time>2016-03-10T13:30:08Z</time>
      </trkpt>
      <trkpt lat="43.34018" lon="5.23646">
        <ele>140</ele>
        <time>2016-03-10T13:30:10Z</time>
      </trkpt>
      <trkpt lat="43.34018" lon="5.23648">
        <ele>140</ele>
        <time>2016-03-10T13:30:12Z</time>
      </trkpt>
      <trkpt lat="43.34019" lon="5.2365">
        <ele>140</ele>
        <time>2016-03-10T13:30:14Z</time>
      </trkpt>
      <trkpt lat="43.34019" lon="5.23652">
        <ele>140</ele>
        <time>2016-03-10T13:30:16Z</time>
      </trkpt>
      <trkpt lat="43.3402" lon="5.23654">
        <ele>140</ele>
        <time>2016-03-10T13:30:18Z</time>
      </trkpt>
      <trkpt lat="43.34021" lon="5.23656">
        <ele>140</ele>
        <time>2016-03-10T13:30:20Z</time>
      </trkpt>
      <trkpt lat="43.34022" lon="5.23657">
        <ele>140</ele>
        <time>2016-03-10T13:30:22Z</time>
      </trkpt>
      <trkpt lat="43.34023" lon="5.23659">
        <ele>140</ele>
        <time>2016-03-10T13:30:24Z</time>
      </trkpt>
      <trkpt lat="43.34025" lon="5.2366">
        <ele>140</ele>
        <time>2016-03-10T13:30:26Z</time>
      </trkpt>
      <trkpt lat="43.34026" lon="5.23662">
        <ele>140</ele>
        <time>2016-03-10T13:30:29Z</time>
      </trkpt>
      <trkpt lat="43.34028" lon="5.23663">
        <ele>140</ele>
        <time>2016-03-10T13:30:31Z</time>
      </trkpt>
      <trkpt lat="43.34029" lon="5.23663">
        <ele>140</ele>
        <time>2016-03-10T13:30:33Z</time>
      </trkpt>
      <trkpt lat="43.34031" lon="5.23663">
        <ele>140</ele>
        <time>2016-03-10T13:30:34Z</time>
      </trkpt>
      <trkpt lat="43.34033" lon="5.23664">
        <ele>140</ele>
        <time>2016-03-10T13:30:36Z</time>
      </trkpt>
      <trkpt lat="43.34034" lon="5.23666">
        <ele>140</ele>
        <time>2016-03-10T13:30:38Z</time>
      </trkpt>
      <trkpt lat="43.34035" lon="5.23668">
        <ele>140</ele>
        <time>2016-03-10T13:30:40Z</time>
      </trkpt>
      <trkpt lat="43.34037" lon="5.2367">
        <ele>140</ele>
        <time>2016-03-10T13:30:42Z</time>
      </trkpt>
      <trkpt lat="43.34038" lon="5.23672">
        <ele>141</ele>
        <time>2016-03-10T13:30:44Z</time>
      </trkpt>
      <trkpt lat="43.34039" lon="5.23674">
        <ele>141</ele>
        <time>2016-03-10T13:30:46Z</time>
      </trkpt>
      <trkpt lat="43.34039" lon="5.23675">
        <ele>141</ele>
        <time>2016-03-10T13:30:47Z</time>
      </trkpt>
      <trkpt lat="43.34039" lon="5.23678">
        <ele>141</ele>
        <time>2016-03-10T13:30:49Z</time>
      </trkpt>
      <trkpt lat="43.34039" lon="5.2368">
        <ele>142</ele>
        <time>2016-03-10T13:30:51Z</time>
      </trkpt>
      <trkpt lat="43.34039" lon="5.23682">
        <ele>142</ele>
        <time>2016-03-10T13:30:53Z</time>
      </trkpt>
      <trkpt lat="43.34039" lon="5.23683">
        <ele>142</ele>
        <time>2016-03-10T13:30:54Z</time>
      </trkpt>
      <trkpt lat="43.34039" lon="5.23685">
        <ele>142</ele>
        <time>2016-03-10T13:30:55Z</time>
      </trkpt>
      <trkpt lat="43.34039" lon="5.23687">
        <ele>143</ele>
        <time>2016-03-10T13:30:57Z</time>
      </trkpt>
      <trkpt lat="43.3404" lon="5.23689">
        <ele>143</ele>
        <time>2016-03-10T13:30:59Z</time>
      </trkpt>
      <trkpt lat="43.34041" lon="5.23691">
        <ele>143</ele>
        <time>2016-03-10T13:31:01Z</time>
      </trkpt>
      <trkpt lat="43.34042" lon="5.23692">
        <ele>143</ele>
        <time>2016-03-10T13:31:03Z</time>
      </trkpt>
      <trkpt lat="43.34043" lon="5.23694">
        <ele>144</ele>
        <time>2016-03-10T13:31:05Z</time>
      </trkpt>
      <trkpt lat="43.34044" lon="5.23696">
        <ele>144</ele>
        <time>2016-03-10T13:31:07Z</time>
      </trkpt>
      <trkpt lat="43.34045" lon="5.23698">
        <ele>144</ele>
        <time>2016-03-10T13:31:09Z</time>
      </trkpt>
      <trkpt lat="43.34046" lon="5.237">
        <ele>145</ele>
        <time>2016-03-10T13:31:11Z</time>
      </trkpt>
      <trkpt lat="43.34047" lon="5.23701">
        <ele>145</ele>
        <time>2016-03-10T13:31:13Z</time>
      </trkpt>
      <trkpt lat="43.34049" lon="5.23702">
        <ele>145</ele>
        <time>2016-03-10T13:31:15Z</time>
      </trkpt>
      <trkpt lat="43.3405" lon="5.23703">
        <ele>146</ele>
        <time>2016-03-10T13:31:17Z</time>
      </trkpt>
      <trkpt lat="43.34052" lon="5.23704">
        <ele>146</ele>
        <time>2016-03-10T13:31:19Z</time>
      </trkpt>
      <trkpt lat="43.34054" lon="5.23704">
        <ele>147</ele>
        <time>2016-03-10T13:31:21Z</time>
      </trkpt>
      <trkpt lat="43.34055" lon="5.23704">
        <ele>148</ele>
        <time>2016-03-10T13:31:23Z</time>
      </trkpt>
      <trkpt lat="43.34057" lon="5.23703">
        <ele>148</ele>
        <time>2016-03-10T13:31:25Z</time>
      </trkpt>
      <trkpt lat="43.34059" lon="5.23702">
        <ele>149</ele>
        <time>2016-03-10T13:31:27Z</time>
      </trkpt>
      <trkpt lat="43.3406" lon="5.23701">
        <ele>150</ele>
        <time>2016-03-10T13:31:29Z</time>
      </trkpt>
      <trkpt lat="43.34062" lon="5.237">
        <ele>151</ele>
        <time>2016-03-10T13:31:31Z</time>
      </trkpt>
      <trkpt lat="43.34063" lon="5.23702">
        <ele>152</ele>
        <time>2016-03-10T13:31:33Z</time>
      </trkpt>
      <trkpt lat="43.34065" lon="5.23704">
        <ele>153</ele>
        <time>2016-03-10T13:31:35Z</time>
      </trkpt>
      <trkpt lat="43.34066" lon="5.23706">
        <ele>153</ele>
        <time>2016-03-10T13:31:37Z</time>
      </trkpt>
      <trkpt lat="43.34067" lon="5.23707">
        <ele>153</ele>
        <time>2016-03-10T13:31:39Z</time>
      </trkpt>
      <trkpt lat="43.34069" lon="5.23709">
        <ele>153</ele>
        <time>2016-03-10T13:31:41Z</time>
      </trkpt>
      <trkpt lat="43.3407" lon="5.2371">
        <ele>153</ele>
        <time>2016-03-10T13:31:43Z</time>
      </trkpt>
      <trkpt lat="43.34071" lon="5.2371">
        <ele>154</ele>
        <time>2016-03-10T13:31:45Z</time>
      </trkpt>
      <trkpt lat="43.34073" lon="5.23711">
        <ele>154</ele>
        <time>2016-03-10T13:31:47Z</time>
      </trkpt>
      <trkpt lat="43.34075" lon="5.23712">
        <ele>154</ele>
        <time>2016-03-10T13:31:49Z</time>
      </trkpt>
      <trkpt lat="43.34077" lon="5.23713">
        <ele>154</ele>
        <time>2016-03-10T13:31:51Z</time>
      </trkpt>
      <trkpt lat="43.34078" lon="5.23714">
        <ele>155</ele>
        <time>2016-03-10T13:31:53Z</time>
      </trkpt>
      <trkpt lat="43.3408" lon="5.23715">
        <ele>155</ele>
        <time>2016-03-10T13:31:55Z</time>
      </trkpt>
      <trkpt lat="43.34081" lon="5.23716">
        <ele>155</ele>
        <time>2016-03-10T13:31:57Z</time>
      </trkpt>
      <trkpt lat="43.34082" lon="5.23717">
        <ele>155</ele>
        <time>2016-03-10T13:31:59Z</time>
      </trkpt>
      <trkpt lat="43.34084" lon="5.23718">
        <ele>155</ele>
        <time>2016-03-10T13:32:01Z</time>
      </trkpt>
      <trkpt lat="43.34086" lon="5.2372">
        <ele>156</ele>
        <time>2016-03-10T13:32:04Z</time>
      </trkpt>
      <trkpt lat="43.34087" lon="5.23721">
        <ele>156</ele>
        <time>2016-03-10T13:32:06Z</time>
      </trkpt>
      <trkpt lat="43.34089" lon="5.23722">
        <ele>156</ele>
        <time>2016-03-10T13:32:08Z</time>
      </trkpt>
      <trkpt lat="43.3409" lon="5.23724">
        <ele>157</ele>
        <time>2016-03-10T13:32:11Z</time>
      </trkpt>
      <trkpt lat="43.34091" lon="5.23725">
        <ele>157</ele>
        <time>2016-03-10T13:32:13Z</time>
      </trkpt>
      <trkpt lat="43.34092" lon="5.23727">
        <ele>157</ele>
        <time>2016-03-10T13:32:16Z</time>
      </trkpt>
      <trkpt lat="43.34094" lon="5.23727">
        <ele>158</ele>
        <time>2016-03-10T13:32:18Z</time>
      </trkpt>
      <trkpt lat="43.34095" lon="5.23728">
        <ele>158</ele>
        <time>2016-03-10T13:32:20Z</time>
      </trkpt>
      <trkpt lat="43.34097" lon="5.23729">
        <ele>158</ele>
        <time>2016-03-10T13:32:22Z</time>
      </trkpt>
      <trkpt lat="43.34098" lon="5.2373">
        <ele>159</ele>
        <time>2016-03-10T13:32:24Z</time>
      </trkpt>
      <trkpt lat="43.341" lon="5.23732">
        <ele>159</ele>
        <time>2016-03-10T13:32:26Z</time>
      </trkpt>
      <trkpt lat="43.34101" lon="5.23733">
        <ele>160</ele>
        <time>2016-03-10T13:32:28Z</time>
      </trkpt>
      <trkpt lat="43.34103" lon="5.23734">
        <ele>160</ele>
        <time>2016-03-10T13:32:30Z</time>
      </trkpt>
      <trkpt lat="43.34104" lon="5.23735">
        <ele>160</ele>
        <time>2016-03-10T13:32:32Z</time>
      </trkpt>
      <trkpt lat="43.34105" lon="5.23737">
        <ele>161</ele>
        <time>2016-03-10T13:32:34Z</time>
      </trkpt>
      <trkpt lat="43.34106" lon="5.23739">
        <ele>161</ele>
        <time>2016-03-10T13:32:36Z</time>
      </trkpt>
      <trkpt lat="43.34107" lon="5.23741">
        <ele>162</ele>
        <time>2016-03-10T13:32:38Z</time>
      </trkpt>
      <trkpt lat="43.34108" lon="5.23743">
        <ele>162</ele>
        <time>2016-03-10T13:32:40Z</time>
      </trkpt>
      <trkpt lat="43.34109" lon="5.23745">
        <ele>163</ele>
        <time>2016-03-10T13:32:42Z</time>
      </trkpt>
      <trkpt lat="43.34109" lon="5.23746">
        <ele>163</ele>
        <time>2016-03-10T13:32:43Z</time>
      </trkpt>
      <trkpt lat="43.34109" lon="5.23748">
        <ele>163</ele>
        <time>2016-03-10T13:32:44Z</time>
      </trkpt>
      <trkpt lat="43.34108" lon="5.2375">
        <ele>164</ele>
        <time>2016-03-10T13:32:46Z</time>
      </trkpt>
      <trkpt lat="43.34108" lon="5.23753">
        <ele>164</ele>
        <time>2016-03-10T13:32:48Z</time>
      </trkpt>
      <trkpt lat="43.34108" lon="5.23755">
        <ele>165</ele>
        <time>2016-03-10T13:32:50Z</time>
      </trkpt>
      <trkpt lat="43.34108" lon="5.23757">
        <ele>165</ele>
        <time>2016-03-10T13:32:52Z</time>
      </trkpt>
      <trkpt lat="43.34107" lon="5.23759">
        <ele>166</ele>
        <time>2016-03-10T13:32:54Z</time>
      </trkpt>
      <trkpt lat="43.34107" lon="5.23761">
        <ele>166</ele>
        <time>2016-03-10T13:32:56Z</time>
      </trkpt>
      <trkpt lat="43.34107" lon="5.23763">
        <ele>167</ele>
        <time>2016-03-10T13:32:58Z</time>
      </trkpt>
      <trkpt lat="43.34107" lon="5.23765">
        <ele>167</ele>
        <time>2016-03-10T13:33:00Z</time>
      </trkpt>
      <trkpt lat="43.34107" lon="5.23767">
        <ele>168</ele>
        <time>2016-03-10T13:33:02Z</time>
      </trkpt>
      <trkpt lat="43.34108" lon="5.23769">
        <ele>168</ele>
        <time>2016-03-10T13:33:04Z</time>
      </trkpt>
      <trkpt lat="43.34109" lon="5.23771">
        <ele>169</ele>
        <time>2016-03-10T13:33:06Z</time>
      </trkpt>
      <trkpt lat="43.3411" lon="5.23773">
        <ele>169</ele>
        <time>2016-03-10T13:33:08Z</time>
      </trkpt>
      <trkpt lat="43.3411" lon="5.23775">
        <ele>170</ele>
        <time>2016-03-10T13:33:10Z</time>
      </trkpt>
      <trkpt lat="43.34111" lon="5.23777">
        <ele>170</ele>
        <time>2016-03-10T13:33:12Z</time>
      </trkpt>
      <trkpt lat="43.34111" lon="5.23778">
        <ele>171</ele>
        <time>2016-03-10T13:33:14Z</time>
      </trkpt>
      <trkpt lat="43.34112" lon="5.2378">
        <ele>171</ele>
        <time>2016-03-10T13:33:16Z</time>
      </trkpt>
      <trkpt lat="43.34113" lon="5.23782">
        <ele>171</ele>
        <time>2016-03-10T13:33:18Z</time>
      </trkpt>
      <trkpt lat="43.34113" lon="5.23784">
        <ele>171</ele>
        <time>2016-03-10T13:33:20Z</time>
      </trkpt>
      <trkpt lat="43.34113" lon="5.23786">
        <ele>171</ele>
        <time>2016-03-10T13:33:22Z</time>
      </trkpt>
      <trkpt lat="43.34114" lon="5.23788">
        <ele>172</ele>
        <time>2016-03-10T13:33:24Z</time>
      </trkpt>
      <trkpt lat="43.34114" lon="5.2379">
        <ele>172</ele>
        <time>2016-03-10T13:33:26Z</time>
      </trkpt>
      <trkpt lat="43.34115" lon="5.23792">
        <ele>173</ele>
        <time>2016-03-10T13:33:28Z</time>
      </trkpt>
      <trkpt lat="43.34117" lon="5.23794">
        <ele>173</ele>
        <time>2016-03-10T13:33:31Z</time>
      </trkpt>
      <trkpt lat="43.34118" lon="5.23795">
        <ele>174</ele>
        <time>2016-03-10T13:33:33Z</time>
      </trkpt>
      <trkpt lat="43.34119" lon="5.23797">
        <ele>174</ele>
        <time>2016-03-10T13:33:35Z</time>
      </trkpt>
      <trkpt lat="43.3412" lon="5.23799">
        <ele>174</ele>
        <time>2016-03-10T13:33:37Z</time>
      </trkpt>
      <trkpt lat="43.34121" lon="5.238">
        <ele>175</ele>
        <time>2016-03-10T13:33:39Z</time>
      </trkpt>
      <trkpt lat="43.34121" lon="5.23803">
        <ele>175</ele>
        <time>2016-03-10T13:33:41Z</time>
      </trkpt>
      <trkpt lat="43.34122" lon="5.23805">
        <ele>175</ele>
        <time>2016-03-10T13:33:43Z</time>
      </trkpt>
      <trkpt lat="43.34123" lon="5.23806">
        <ele>176</ele>
        <time>2016-03-10T13:33:45Z</time>
      </trkpt>
      <trkpt lat="43.34123" lon="5.23809">
        <ele>176</ele>
        <time>2016-03-10T13:33:47Z</time>
      </trkpt>
      <trkpt lat="43.34124" lon="5.23811">
        <ele>176</ele>
        <time>2016-03-10T13:33:49Z</time>
      </trkpt>
      <trkpt lat="43.34125" lon="5.23813">
        <ele>177</ele>
        <time>2016-03-10T13:33:51Z</time>
      </trkpt>
      <trkpt lat="43.34126" lon="5.23815">
        <ele>177</ele>
        <time>2016-03-10T13:33:53Z</time>
      </trkpt>
      <trkpt lat="43.34127" lon="5.23817">
        <ele>177</ele>
        <time>2016-03-10T13:33:55Z</time>
      </trkpt>
      <trkpt lat="43.34127" lon="5.23819">
        <ele>178</ele>
        <time>2016-03-10T13:33:57Z</time>
      </trkpt>
      <trkpt lat="43.34128" lon="5.23821">
        <ele>178</ele>
        <time>2016-03-10T13:33:59Z</time>
      </trkpt>
      <trkpt lat="43.34128" lon="5.23824">
        <ele>178</ele>
        <time>2016-03-10T13:34:01Z</time>
      </trkpt>
      <trkpt lat="43.34128" lon="5.23826">
        <ele>178</ele>
        <time>2016-03-10T13:34:03Z</time>
      </trkpt>
      <trkpt lat="43.34128" lon="5.23828">
        <ele>179</ele>
        <time>2016-03-10T13:34:04Z</time>
      </trkpt>
      <trkpt lat="43.34129" lon="5.2383">
        <ele>179</ele>
        <time>2016-03-10T13:34:06Z</time>
      </trkpt>
      <trkpt lat="43.34129" lon="5.23832">
        <ele>179</ele>
        <time>2016-03-10T13:34:08Z</time>
      </trkpt>
      <trkpt lat="43.3413" lon="5.23834">
        <ele>180</ele>
        <time>2016-03-10T13:34:10Z</time>
      </trkpt>
      <trkpt lat="43.34132" lon="5.23835">
        <ele>180</ele>
        <time>2016-03-10T13:34:12Z</time>
      </trkpt>
      <trkpt lat="43.34133" lon="5.23836">
        <ele>180</ele>
        <time>2016-03-10T13:34:14Z</time>
      </trkpt>
      <trkpt lat="43.34134" lon="5.23837">
        <ele>181</ele>
        <time>2016-03-10T13:34:16Z</time>
      </trkpt>
      <trkpt lat="43.34135" lon="5.23839">
        <ele>181</ele>
        <time>2016-03-10T13:34:18Z</time>
      </trkpt>
      <trkpt lat="43.34136" lon="5.23841">
        <ele>181</ele>
        <time>2016-03-10T13:34:20Z</time>
      </trkpt>
      <trkpt lat="43.34137" lon="5.23844">
        <ele>182</ele>
        <time>2016-03-10T13:34:22Z</time>
      </trkpt>
      <trkpt lat="43.34137" lon="5.23846">
        <ele>182</ele>
        <time>2016-03-10T13:34:24Z</time>
      </trkpt>
      <trkpt lat="43.34137" lon="5.23848">
        <ele>182</ele>
        <time>2016-03-10T13:34:25Z</time>
      </trkpt>
      <trkpt lat="43.34137" lon="5.23849">
        <ele>182</ele>
        <time>2016-03-10T13:34:26Z</time>
      </trkpt>
      <trkpt lat="43.34136" lon="5.23851">
        <ele>182</ele>
        <time>2016-03-10T13:34:27Z</time>
      </trkpt>
      <trkpt lat="43.34136" lon="5.23852">
        <ele>182</ele>
        <time>2016-03-10T13:34:28Z</time>
      </trkpt>
      <trkpt lat="43.34135" lon="5.23855">
        <ele>182</ele>
        <time>2016-03-10T13:34:30Z</time>
      </trkpt>
      <trkpt lat="43.34135" lon="5.23856">
        <ele>182</ele>
        <time>2016-03-10T13:34:31Z</time>
      </trkpt>
      <trkpt lat="43.34134" lon="5.23858">
        <ele>182</ele>
        <time>2016-03-10T13:34:33Z</time>
      </trkpt>
      <trkpt lat="43.34134" lon="5.2386">
        <ele>182</ele>
        <time>2016-03-10T13:34:35Z</time>
      </trkpt>
      <trkpt lat="43.34133" lon="5.23862">
        <ele>182</ele>
        <time>2016-03-10T13:34:37Z</time>
      </trkpt>
      <trkpt lat="43.34133" lon="5.23864">
        <ele>182</ele>
        <time>2016-03-10T13:34:39Z</time>
      </trkpt>
      <trkpt lat="43.34133" lon="5.23866">
        <ele>183</ele>
        <time>2016-03-10T13:34:41Z</time>
      </trkpt>
      <trkpt lat="43.34132" lon="5.23867">
        <ele>183</ele>
        <time>2016-03-10T13:34:43Z</time>
      </trkpt>
      <trkpt lat="43.34132" lon="5.23869">
        <ele>184</ele>
        <time>2016-03-10T13:34:45Z</time>
      </trkpt>
      <trkpt lat="43.34131" lon="5.2387">
        <ele>184</ele>
        <time>2016-03-10T13:34:47Z</time>
      </trkpt>
      <trkpt lat="43.3413" lon="5.23872">
        <ele>185</ele>
        <time>2016-03-10T13:34:49Z</time>
      </trkpt>
      <trkpt lat="43.3413" lon="5.23874">
        <ele>185</ele>
        <time>2016-03-10T13:34:52Z</time>
      </trkpt>
      <trkpt lat="43.3413" lon="5.23875">
        <ele>186</ele>
        <time>2016-03-10T13:34:58Z</time>
      </trkpt>
      <trkpt lat="43.34129" lon="5.23877">
        <ele>186</ele>
        <time>2016-03-10T13:35:01Z</time>
      </trkpt>
      <trkpt lat="43.34128" lon="5.23879">
        <ele>187</ele>
        <time>2016-03-10T13:35:04Z</time>
      </trkpt>
      <trkpt lat="43.34128" lon="5.23881">
        <ele>187</ele>
        <time>2016-03-10T13:35:06Z</time>
      </trkpt>
      <trkpt lat="43.34128" lon="5.23882">
        <ele>187</ele>
        <time>2016-03-10T13:35:08Z</time>
      </trkpt>
      <trkpt lat="43.34128" lon="5.23884">
        <ele>188</ele>
        <time>2016-03-10T13:35:10Z</time>
      </trkpt>
      <trkpt lat="43.34127" lon="5.23885">
        <ele>188</ele>
        <time>2016-03-10T13:35:13Z</time>
      </trkpt>
      <trkpt lat="43.34127" lon="5.23887">
        <ele>189</ele>
        <time>2016-03-10T13:35:16Z</time>
      </trkpt>
      <trkpt lat="43.34127" lon="5.23889">
        <ele>189</ele>
        <time>2016-03-10T13:35:20Z</time>
      </trkpt>
      <trkpt lat="43.34125" lon="5.23891">
        <ele>189</ele>
        <time>2016-03-10T13:35:24Z</time>
      </trkpt>
      <trkpt lat="43.34125" lon="5.23892">
        <ele>190</ele>
        <time>2016-03-10T13:35:27Z</time>
      </trkpt>
      <trkpt lat="43.34126" lon="5.23894">
        <ele>190</ele>
        <time>2016-03-10T13:35:30Z</time>
      </trkpt>
      <trkpt lat="43.34126" lon="5.23896">
        <ele>190</ele>
        <time>2016-03-10T13:35:32Z</time>
      </trkpt>
      <trkpt lat="43.34127" lon="5.23898">
        <ele>191</ele>
        <time>2016-03-10T13:35:35Z</time>
      </trkpt>
      <trkpt lat="43.34127" lon="5.23899">
        <ele>191</ele>
        <time>2016-03-10T13:35:37Z</time>
      </trkpt>
      <trkpt lat="43.34128" lon="5.23901">
        <ele>192</ele>
        <time>2016-03-10T13:35:40Z</time>
      </trkpt>
      <trkpt lat="43.34129" lon="5.23903">
        <ele>193</ele>
        <time>2016-03-10T13:35:43Z</time>
      </trkpt>
      <trkpt lat="43.34129" lon="5.23905">
        <ele>193</ele>
        <time>2016-03-10T13:35:46Z</time>
      </trkpt>
      <trkpt lat="43.3413" lon="5.23907">
        <ele>194</ele>
        <time>2016-03-10T13:35:50Z</time>
      </trkpt>
      <trkpt lat="43.3413" lon="5.23909">
        <ele>195</ele>
        <time>2016-03-10T13:35:53Z</time>
      </trkpt>
      <trkpt lat="43.34132" lon="5.23911">
        <ele>195</ele>
        <time>2016-03-10T13:35:56Z</time>
      </trkpt>
      <trkpt lat="43.34133" lon="5.23912">
        <ele>196</ele>
        <time>2016-03-10T13:35:59Z</time>
      </trkpt>
      <trkpt lat="43.34134" lon="5.23914">
        <ele>197</ele>
        <time>2016-03-10T13:36:02Z</time>
      </trkpt>
      <trkpt lat="43.34134" lon="5.23913">
        <ele>198</ele>
        <time>2016-03-10T13:36:55Z</time>
      </trkpt>
      <trkpt lat="43.34132" lon="5.23913">
        <ele>200</ele>
        <time>2016-03-10T13:37:29Z</time>
      </trkpt>
      <trkpt lat="43.34131" lon="5.23914">
        <ele>200</ele>
        <time>2016-03-10T13:37:31Z</time>
      </trkpt>
      <trkpt lat="43.34129" lon="5.23914">
        <ele>201</ele>
        <time>2016-03-10T13:37:33Z</time>
      </trkpt>
      <trkpt lat="43.34127" lon="5.23913">
        <ele>201</ele>
        <time>2016-03-10T13:37:35Z</time>
      </trkpt>
      <trkpt lat="43.34125" lon="5.23913">
        <ele>201</ele>
        <time>2016-03-10T13:37:37Z</time>
      </trkpt>
      <trkpt lat="43.34124" lon="5.23913">
        <ele>201</ele>
        <time>2016-03-10T13:37:38Z</time>
      </trkpt>
      <trkpt lat="43.34122" lon="5.23912">
        <ele>201</ele>
        <time>2016-03-10T13:37:40Z</time>
      </trkpt>
      <trkpt lat="43.3412" lon="5.23911">
        <ele>201</ele>
        <time>2016-03-10T13:37:42Z</time>
      </trkpt>
      <trkpt lat="43.34119" lon="5.23911">
        <ele>201</ele>
        <time>2016-03-10T13:37:43Z</time>
      </trkpt>
      <trkpt lat="43.34116" lon="5.2391">
        <ele>201</ele>
        <time>2016-03-10T13:37:45Z</time>
      </trkpt>
      <trkpt lat="43.34115" lon="5.23909">
        <ele>201</ele>
        <time>2016-03-10T13:37:46Z</time>
      </trkpt>
      <trkpt lat="43.34114" lon="5.23908">
        <ele>202</ele>
        <time>2016-03-10T13:37:47Z</time>
      </trkpt>
      <trkpt lat="43.34112" lon="5.23907">
        <ele>202</ele>
        <time>2016-03-10T13:37:49Z</time>
      </trkpt>
      <trkpt lat="43.3411" lon="5.23906">
        <ele>202</ele>
        <time>2016-03-10T13:37:51Z</time>
      </trkpt>
      <trkpt lat="43.34108" lon="5.23906">
        <ele>203</ele>
        <time>2016-03-10T13:37:53Z</time>
      </trkpt>
      <trkpt lat="43.34107" lon="5.23905">
        <ele>203</ele>
        <time>2016-03-10T13:37:54Z</time>
      </trkpt>
      <trkpt lat="43.34106" lon="5.23905">
        <ele>203</ele>
        <time>2016-03-10T13:37:55Z</time>
      </trkpt>
      <trkpt lat="43.34105" lon="5.23904">
        <ele>203</ele>
        <time>2016-03-10T13:37:56Z</time>
      </trkpt>
      <trkpt lat="43.34103" lon="5.23903">
        <ele>203</ele>
        <time>2016-03-10T13:37:57Z</time>
      </trkpt>
      <trkpt lat="43.34101" lon="5.23902">
        <ele>204</ele>
        <time>2016-03-10T13:37:59Z</time>
      </trkpt>
      <trkpt lat="43.341" lon="5.23902">
        <ele>204</ele>
        <time>2016-03-10T13:38:00Z</time>
      </trkpt>
      <trkpt lat="43.34098" lon="5.23901">
        <ele>204</ele>
        <time>2016-03-10T13:38:02Z</time>
      </trkpt>
      <trkpt lat="43.34097" lon="5.239">
        <ele>204</ele>
        <time>2016-03-10T13:38:03Z</time>
      </trkpt>
      <trkpt lat="43.34096" lon="5.239">
        <ele>204</ele>
        <time>2016-03-10T13:38:04Z</time>
      </trkpt>
      <trkpt lat="43.34094" lon="5.23899">
        <ele>205</ele>
        <time>2016-03-10T13:38:06Z</time>
      </trkpt>
      <trkpt lat="43.34092" lon="5.23897">
        <ele>205</ele>
        <time>2016-03-10T13:38:08Z</time>
      </trkpt>
      <trkpt lat="43.3409" lon="5.23896">
        <ele>205</ele>
        <time>2016-03-10T13:38:10Z</time>
      </trkpt>
      <trkpt lat="43.34088" lon="5.23895">
        <ele>206</ele>
        <time>2016-03-10T13:38:12Z</time>
      </trkpt>
      <trkpt lat="43.34087" lon="5.23895">
        <ele>206</ele>
        <time>2016-03-10T13:38:13Z</time>
      </trkpt>
      <trkpt lat="43.34085" lon="5.23894">
        <ele>206</ele>
        <time>2016-03-10T13:38:15Z</time>
      </trkpt>
      <trkpt lat="43.34083" lon="5.23893">
        <ele>206</ele>
        <time>2016-03-10T13:38:17Z</time>
      </trkpt>
      <trkpt lat="43.34082" lon="5.23893">
        <ele>206</ele>
        <time>2016-03-10T13:38:18Z</time>
      </trkpt>
      <trkpt lat="43.34081" lon="5.23893">
        <ele>207</ele>
        <time>2016-03-10T13:38:19Z</time>
      </trkpt>
      <trkpt lat="43.34079" lon="5.23892">
        <ele>207</ele>
        <time>2016-03-10T13:38:21Z</time>
      </trkpt>
      <trkpt lat="43.34077" lon="5.23892">
        <ele>207</ele>
        <time>2016-03-10T13:38:22Z</time>
      </trkpt>
      <trkpt lat="43.34076" lon="5.23892">
        <ele>207</ele>
        <time>2016-03-10T13:38:23Z</time>
      </trkpt>
      <trkpt lat="43.34075" lon="5.23891">
        <ele>207</ele>
        <time>2016-03-10T13:38:24Z</time>
      </trkpt>
      <trkpt lat="43.34073" lon="5.23891">
        <ele>207</ele>
        <time>2016-03-10T13:38:25Z</time>
      </trkpt>
      <trkpt lat="43.34072" lon="5.23892">
        <ele>208</ele>
        <time>2016-03-10T13:38:26Z</time>
      </trkpt>
      <trkpt lat="43.34071" lon="5.23892">
        <ele>208</ele>
        <time>2016-03-10T13:38:27Z</time>
      </trkpt>
      <trkpt lat="43.3407" lon="5.23892">
        <ele>208</ele>
        <time>2016-03-10T13:38:28Z</time>
      </trkpt>
      <trkpt lat="43.34069" lon="5.23892">
        <ele>208</ele>
        <time>2016-03-10T13:38:29Z</time>
      </trkpt>
      <trkpt lat="43.34066" lon="5.23892">
        <ele>208</ele>
        <time>2016-03-10T13:38:31Z</time>
      </trkpt>
      <trkpt lat="43.34065" lon="5.23893">
        <ele>209</ele>
        <time>2016-03-10T13:38:32Z</time>
      </trkpt>
      <trkpt lat="43.34064" lon="5.23893">
        <ele>209</ele>
        <time>2016-03-10T13:38:33Z</time>
      </trkpt>
      <trkpt lat="43.34062" lon="5.23895">
        <ele>209</ele>
        <time>2016-03-10T13:38:35Z</time>
      </trkpt>
      <trkpt lat="43.34061" lon="5.23896">
        <ele>209</ele>
        <time>2016-03-10T13:38:36Z</time>
      </trkpt>
      <trkpt lat="43.34059" lon="5.23897">
        <ele>209</ele>
        <time>2016-03-10T13:38:37Z</time>
      </trkpt>
      <trkpt lat="43.34058" lon="5.23898">
        <ele>209</ele>
        <time>2016-03-10T13:38:38Z</time>
      </trkpt>
      <trkpt lat="43.34057" lon="5.23899">
        <ele>210</ele>
        <time>2016-03-10T13:38:39Z</time>
      </trkpt>
      <trkpt lat="43.34056" lon="5.239">
        <ele>210</ele>
        <time>2016-03-10T13:38:40Z</time>
      </trkpt>
      <trkpt lat="43.34054" lon="5.23901">
        <ele>210</ele>
        <time>2016-03-10T13:38:41Z</time>
      </trkpt>
      <trkpt lat="43.34052" lon="5.23903">
        <ele>210</ele>
        <time>2016-03-10T13:38:43Z</time>
      </trkpt>
      <trkpt lat="43.3405" lon="5.23905">
        <ele>210</ele>
        <time>2016-03-10T13:38:45Z</time>
      </trkpt>
      <trkpt lat="43.34048" lon="5.23907">
        <ele>210</ele>
        <time>2016-03-10T13:38:47Z</time>
      </trkpt>
      <trkpt lat="43.34046" lon="5.2391">
        <ele>210</ele>
        <time>2016-03-10T13:38:49Z</time>
      </trkpt>
      <trkpt lat="43.34045" lon="5.23912">
        <ele>211</ele>
        <time>2016-03-10T13:38:51Z</time>
      </trkpt>
      <trkpt lat="43.34044" lon="5.23914">
        <ele>211</ele>
        <time>2016-03-10T13:38:52Z</time>
      </trkpt>
      <trkpt lat="43.34044" lon="5.23915">
        <ele>211</ele>
        <time>2016-03-10T13:38:53Z</time>
      </trkpt>
      <trkpt lat="43.34043" lon="5.23917">
        <ele>211</ele>
        <time>2016-03-10T13:38:54Z</time>
      </trkpt>
      <trkpt lat="43.34043" lon="5.23919">
        <ele>211</ele>
        <time>2016-03-10T13:38:55Z</time>
      </trkpt>
      <trkpt lat="43.34043" lon="5.23921">
        <ele>211</ele>
        <time>2016-03-10T13:38:56Z</time>
      </trkpt>
      <trkpt lat="43.34043" lon="5.23922">
        <ele>211</ele>
        <time>2016-03-10T13:38:57Z</time>
      </trkpt>
      <trkpt lat="43.34043" lon="5.23924">
        <ele>211</ele>
        <time>2016-03-10T13:38:58Z</time>
      </trkpt>
      <trkpt lat="43.34043" lon="5.23926">
        <ele>211</ele>
        <time>2016-03-10T13:38:59Z</time>
      </trkpt>
      <trkpt lat="43.34043" lon="5.23927">
        <ele>211</ele>
        <time>2016-03-10T13:39:00Z</time>
      </trkpt>
      <trkpt lat="43.34043" lon="5.23929">
        <ele>211</ele>
        <time>2016-03-10T13:39:01Z</time>
      </trkpt>
      <trkpt lat="43.34043" lon="5.23931">
        <ele>211</ele>
        <time>2016-03-10T13:39:02Z</time>
      </trkpt>
      <trkpt lat="43.34043" lon="5.23932">
        <ele>211</ele>
        <time>2016-03-10T13:39:03Z</time>
      </trkpt>
      <trkpt lat="43.34043" lon="5.23935">
        <ele>211</ele>
        <time>2016-03-10T13:39:05Z</time>
      </trkpt>
      <trkpt lat="43.34043" lon="5.23936">
        <ele>211</ele>
        <time>2016-03-10T13:39:06Z</time>
      </trkpt>
      <trkpt lat="43.34044" lon="5.23939">
        <ele>211</ele>
        <time>2016-03-10T13:39:08Z</time>
      </trkpt>
      <trkpt lat="43.34043" lon="5.2394">
        <ele>211</ele>
        <time>2016-03-10T13:39:27Z</time>
      </trkpt>
      <trkpt lat="43.34044" lon="5.23943">
        <ele>211</ele>
        <time>2016-03-10T13:39:35Z</time>
      </trkpt>
      <trkpt lat="43.34044" lon="5.23945">
        <ele>211</ele>
        <time>2016-03-10T13:39:37Z</time>
      </trkpt>
      <trkpt lat="43.34045" lon="5.23947">
        <ele>211</ele>
        <time>2016-03-10T13:39:38Z</time>
      </trkpt>
      <trkpt lat="43.34045" lon="5.23948">
        <ele>211</ele>
        <time>2016-03-10T13:39:39Z</time>
      </trkpt>
      <trkpt lat="43.34045" lon="5.2395">
        <ele>211</ele>
        <time>2016-03-10T13:39:40Z</time>
      </trkpt>
      <trkpt lat="43.34046" lon="5.23951">
        <ele>211</ele>
        <time>2016-03-10T13:39:41Z</time>
      </trkpt>
      <trkpt lat="43.34046" lon="5.23953">
        <ele>211</ele>
        <time>2016-03-10T13:39:42Z</time>
      </trkpt>
      <trkpt lat="43.34046" lon="5.23955">
        <ele>211</ele>
        <time>2016-03-10T13:39:43Z</time>
      </trkpt>
      <trkpt lat="43.34047" lon="5.23956">
        <ele>211</ele>
        <time>2016-03-10T13:39:44Z</time>
      </trkpt>
      <trkpt lat="43.34047" lon="5.23958">
        <ele>211</ele>
        <time>2016-03-10T13:39:45Z</time>
      </trkpt>
      <trkpt lat="43.34047" lon="5.23959">
        <ele>211</ele>
        <time>2016-03-10T13:39:46Z</time>
      </trkpt>
      <trkpt lat="43.34048" lon="5.23962">
        <ele>211</ele>
        <time>2016-03-10T13:39:48Z</time>
      </trkpt>
      <trkpt lat="43.34049" lon="5.23964">
        <ele>211</ele>
        <time>2016-03-10T13:39:49Z</time>
      </trkpt>
      <trkpt lat="43.34049" lon="5.23965">
        <ele>211</ele>
        <time>2016-03-10T13:39:50Z</time>
      </trkpt>
      <trkpt lat="43.3405" lon="5.23967">
        <ele>211</ele>
        <time>2016-03-10T13:39:51Z</time>
      </trkpt>
      <trkpt lat="43.3405" lon="5.23968">
        <ele>211</ele>
        <time>2016-03-10T13:39:52Z</time>
      </trkpt>
      <trkpt lat="43.3405" lon="5.2397">
        <ele>211</ele>
        <time>2016-03-10T13:39:53Z</time>
      </trkpt>
      <trkpt lat="43.34051" lon="5.23972">
        <ele>211</ele>
        <time>2016-03-10T13:39:54Z</time>
      </trkpt>
      <trkpt lat="43.34051" lon="5.23973">
        <ele>211</ele>
        <time>2016-03-10T13:39:55Z</time>
      </trkpt>
      <trkpt lat="43.34052" lon="5.23975">
        <ele>211</ele>
        <time>2016-03-10T13:39:56Z</time>
      </trkpt>
      <trkpt lat="43.34053" lon="5.23976">
        <ele>211</ele>
        <time>2016-03-10T13:39:57Z</time>
      </trkpt>
      <trkpt lat="43.34053" lon="5.23978">
        <ele>211</ele>
        <time>2016-03-10T13:39:58Z</time>
      </trkpt>
      <trkpt lat="43.34054" lon="5.2398">
        <ele>211</ele>
        <time>2016-03-10T13:39:59Z</time>
      </trkpt>
      <trkpt lat="43.34054" lon="5.23981">
        <ele>211</ele>
        <time>2016-03-10T13:40:00Z</time>
      </trkpt>
      <trkpt lat="43.34055" lon="5.23983">
        <ele>211</ele>
        <time>2016-03-10T13:40:01Z</time>
      </trkpt>
      <trkpt lat="43.34055" lon="5.23984">
        <ele>211</ele>
        <time>2016-03-10T13:40:02Z</time>
      </trkpt>
      <trkpt lat="43.34056" lon="5.23986">
        <ele>211</ele>
        <time>2016-03-10T13:40:03Z</time>
      </trkpt>
      <trkpt lat="43.34056" lon="5.23988">
        <ele>211</ele>
        <time>2016-03-10T13:40:04Z</time>
      </trkpt>
      <trkpt lat="43.34057" lon="5.23989">
        <ele>211</ele>
        <time>2016-03-10T13:40:05Z</time>
      </trkpt>
      <trkpt lat="43.34057" lon="5.23991">
        <ele>211</ele>
        <time>2016-03-10T13:40:06Z</time>
      </trkpt>
      <trkpt lat="43.34058" lon="5.23992">
        <ele>211</ele>
        <time>2016-03-10T13:40:07Z</time>
      </trkpt>
      <trkpt lat="43.34058" lon="5.23994">
        <ele>211</ele>
        <time>2016-03-10T13:40:08Z</time>
      </trkpt>
      <trkpt lat="43.34059" lon="5.23995">
        <ele>211</ele>
        <time>2016-03-10T13:40:09Z</time>
      </trkpt>
      <trkpt lat="43.3406" lon="5.23998">
        <ele>211</ele>
        <time>2016-03-10T13:40:11Z</time>
      </trkpt>
      <trkpt lat="43.34061" lon="5.24">
        <ele>211</ele>
        <time>2016-03-10T13:40:12Z</time>
      </trkpt>
      <trkpt lat="43.34061" lon="5.24002">
        <ele>211</ele>
        <time>2016-03-10T13:40:13Z</time>
      </trkpt>
      <trkpt lat="43.34061" lon="5.24003">
        <ele>211</ele>
        <time>2016-03-10T13:40:14Z</time>
      </trkpt>
      <trkpt lat="43.34062" lon="5.24005">
        <ele>211</ele>
        <time>2016-03-10T13:40:15Z</time>
      </trkpt>
      <trkpt lat="43.34062" lon="5.24006">
        <ele>211</ele>
        <time>2016-03-10T13:40:16Z</time>
      </trkpt>
      <trkpt lat="43.34063" lon="5.24008">
        <ele>211</ele>
        <time>2016-03-10T13:40:17Z</time>
      </trkpt>
      <trkpt lat="43.34063" lon="5.24009">
        <ele>211</ele>
        <time>2016-03-10T13:40:18Z</time>
      </trkpt>
      <trkpt lat="43.34064" lon="5.24011">
        <ele>211</ele>
        <time>2016-03-10T13:40:19Z</time>
      </trkpt>
      <trkpt lat="43.34065" lon="5.24014">
        <ele>211</ele>
        <time>2016-03-10T13:40:21Z</time>
      </trkpt>
      <trkpt lat="43.34066" lon="5.24015">
        <ele>211</ele>
        <time>2016-03-10T13:40:22Z</time>
      </trkpt>
      <trkpt lat="43.34066" lon="5.24017">
        <ele>211</ele>
        <time>2016-03-10T13:40:23Z</time>
      </trkpt>
      <trkpt lat="43.34066" lon="5.24018">
        <ele>211</ele>
        <time>2016-03-10T13:40:24Z</time>
      </trkpt>
      <trkpt lat="43.34067" lon="5.2402">
        <ele>211</ele>
        <time>2016-03-10T13:40:25Z</time>
      </trkpt>
      <trkpt lat="43.34068" lon="5.24021">
        <ele>211</ele>
        <time>2016-03-10T13:40:26Z</time>
      </trkpt>
      <trkpt lat="43.34068" lon="5.24023">
        <ele>211</ele>
        <time>2016-03-10T13:40:27Z</time>
      </trkpt>
      <trkpt lat="43.34069" lon="5.24024">
        <ele>211</ele>
        <time>2016-03-10T13:40:28Z</time>
      </trkpt>
      <trkpt lat="43.34069" lon="5.24026">
        <ele>211</ele>
        <time>2016-03-10T13:40:29Z</time>
      </trkpt>
      <trkpt lat="43.3407" lon="5.24027">
        <ele>211</ele>
        <time>2016-03-10T13:40:30Z</time>
      </trkpt>
      <trkpt lat="43.3407" lon="5.24029">
        <ele>211</ele>
        <time>2016-03-10T13:40:31Z</time>
      </trkpt>
      <trkpt lat="43.34071" lon="5.2403">
        <ele>211</ele>
        <time>2016-03-10T13:40:32Z</time>
      </trkpt>
      <trkpt lat="43.34072" lon="5.24032">
        <ele>211</ele>
        <time>2016-03-10T13:40:33Z</time>
      </trkpt>
      <trkpt lat="43.34072" lon="5.24033">
        <ele>211</ele>
        <time>2016-03-10T13:40:34Z</time>
      </trkpt>
      <trkpt lat="43.34073" lon="5.24035">
        <ele>211</ele>
        <time>2016-03-10T13:40:35Z</time>
      </trkpt>
      <trkpt lat="43.34073" lon="5.24037">
        <ele>211</ele>
        <time>2016-03-10T13:40:36Z</time>
      </trkpt>
      <trkpt lat="43.34074" lon="5.24038">
        <ele>211</ele>
        <time>2016-03-10T13:40:37Z</time>
      </trkpt>
      <trkpt lat="43.34075" lon="5.2404">
        <ele>211</ele>
        <time>2016-03-10T13:40:38Z</time>
      </trkpt>
      <trkpt lat="43.34075" lon="5.24041">
        <ele>211</ele>
        <time>2016-03-10T13:40:39Z</time>
      </trkpt>
      <trkpt lat="43.34076" lon="5.24043">
        <ele>211</ele>
        <time>2016-03-10T13:40:40Z</time>
      </trkpt>
      <trkpt lat="43.34076" lon="5.24045">
        <ele>211</ele>
        <time>2016-03-10T13:40:41Z</time>
      </trkpt>
      <trkpt lat="43.34077" lon="5.24046">
        <ele>211</ele>
        <time>2016-03-10T13:40:42Z</time>
      </trkpt>
      <trkpt lat="43.34077" lon="5.24048">
        <ele>211</ele>
        <time>2016-03-10T13:40:43Z</time>
      </trkpt>
      <trkpt lat="43.34078" lon="5.2405">
        <ele>211</ele>
        <time>2016-03-10T13:40:44Z</time>
      </trkpt>
      <trkpt lat="43.34079" lon="5.24051">
        <ele>211</ele>
        <time>2016-03-10T13:40:45Z</time>
      </trkpt>
      <trkpt lat="43.34079" lon="5.24053">
        <ele>211</ele>
        <time>2016-03-10T13:40:46Z</time>
      </trkpt>
      <trkpt lat="43.34079" lon="5.24054">
        <ele>211</ele>
        <time>2016-03-10T13:40:47Z</time>
      </trkpt>
      <trkpt lat="43.34081" lon="5.24057">
        <ele>211</ele>
        <time>2016-03-10T13:40:49Z</time>
      </trkpt>
      <trkpt lat="43.34081" lon="5.24059">
        <ele>211</ele>
        <time>2016-03-10T13:40:50Z</time>
      </trkpt>
      <trkpt lat="43.34081" lon="5.24061">
        <ele>211</ele>
        <time>2016-03-10T13:40:51Z</time>
      </trkpt>
      <trkpt lat="43.34081" lon="5.24062">
        <ele>211</ele>
        <time>2016-03-10T13:40:52Z</time>
      </trkpt>
      <trkpt lat="43.34082" lon="5.24064">
        <ele>211</ele>
        <time>2016-03-10T13:40:53Z</time>
      </trkpt>
      <trkpt lat="43.34082" lon="5.24066">
        <ele>211</ele>
        <time>2016-03-10T13:40:54Z</time>
      </trkpt>
      <trkpt lat="43.34082" lon="5.24067">
        <ele>211</ele>
        <time>2016-03-10T13:40:55Z</time>
      </trkpt>
      <trkpt lat="43.34082" lon="5.24069">
        <ele>211</ele>
        <time>2016-03-10T13:40:56Z</time>
      </trkpt>
      <trkpt lat="43.34082" lon="5.2407">
        <ele>211</ele>
        <time>2016-03-10T13:40:57Z</time>
      </trkpt>
      <trkpt lat="43.34082" lon="5.24072">
        <ele>211</ele>
        <time>2016-03-10T13:40:58Z</time>
      </trkpt>
      <trkpt lat="43.34081" lon="5.24073">
        <ele>211</ele>
        <time>2016-03-10T13:40:59Z</time>
      </trkpt>
      <trkpt lat="43.34081" lon="5.24075">
        <ele>211</ele>
        <time>2016-03-10T13:41:00Z</time>
      </trkpt>
      <trkpt lat="43.3408" lon="5.24076">
        <ele>211</ele>
        <time>2016-03-10T13:41:01Z</time>
      </trkpt>
      <trkpt lat="43.34079" lon="5.24079">
        <ele>211</ele>
        <time>2016-03-10T13:41:03Z</time>
      </trkpt>
      <trkpt lat="43.34078" lon="5.2408">
        <ele>211</ele>
        <time>2016-03-10T13:41:04Z</time>
      </trkpt>
      <trkpt lat="43.34077" lon="5.24083">
        <ele>211</ele>
        <time>2016-03-10T13:41:06Z</time>
      </trkpt>
      <trkpt lat="43.34076" lon="5.24085">
        <ele>211</ele>
        <time>2016-03-10T13:41:08Z</time>
      </trkpt>
      <trkpt lat="43.34075" lon="5.24088">
        <ele>211</ele>
        <time>2016-03-10T13:41:10Z</time>
      </trkpt>
      <trkpt lat="43.34075" lon="5.24089">
        <ele>211</ele>
        <time>2016-03-10T13:41:11Z</time>
      </trkpt>
      <trkpt lat="43.34074" lon="5.24092">
        <ele>211</ele>
        <time>2016-03-10T13:41:13Z</time>
      </trkpt>
      <trkpt lat="43.34073" lon="5.24095">
        <ele>211</ele>
        <time>2016-03-10T13:41:15Z</time>
      </trkpt>
      <trkpt lat="43.34071" lon="5.24097">
        <ele>211</ele>
        <time>2016-03-10T13:41:17Z</time>
      </trkpt>
      <trkpt lat="43.3407" lon="5.241">
        <ele>211</ele>
        <time>2016-03-10T13:41:19Z</time>
      </trkpt>
      <trkpt lat="43.34069" lon="5.24102">
        <ele>211</ele>
        <time>2016-03-10T13:41:21Z</time>
      </trkpt>
      <trkpt lat="43.34067" lon="5.24105">
        <ele>211</ele>
        <time>2016-03-10T13:41:23Z</time>
      </trkpt>
      <trkpt lat="43.34066" lon="5.24107">
        <ele>211</ele>
        <time>2016-03-10T13:41:25Z</time>
      </trkpt>
      <trkpt lat="43.34064" lon="5.24109">
        <ele>211</ele>
        <time>2016-03-10T13:41:27Z</time>
      </trkpt>
      <trkpt lat="43.34063" lon="5.24112">
        <ele>211</ele>
        <time>2016-03-10T13:41:29Z</time>
      </trkpt>
      <trkpt lat="43.34062" lon="5.24115">
        <ele>211</ele>
        <time>2016-03-10T13:41:31Z</time>
      </trkpt>
      <trkpt lat="43.34061" lon="5.24117">
        <ele>211</ele>
        <time>2016-03-10T13:41:33Z</time>
      </trkpt>
      <trkpt lat="43.3406" lon="5.24119">
        <ele>210</ele>
        <time>2016-03-10T13:41:35Z</time>
      </trkpt>
      <trkpt lat="43.34058" lon="5.24121">
        <ele>210</ele>
        <time>2016-03-10T13:41:37Z</time>
      </trkpt>
      <trkpt lat="43.34056" lon="5.24123">
        <ele>209</ele>
        <time>2016-03-10T13:41:39Z</time>
      </trkpt>
      <trkpt lat="43.34055" lon="5.24125">
        <ele>209</ele>
        <time>2016-03-10T13:41:41Z</time>
      </trkpt>
      <trkpt lat="43.34053" lon="5.24127">
        <ele>209</ele>
        <time>2016-03-10T13:41:43Z</time>
      </trkpt>
      <trkpt lat="43.34052" lon="5.24129">
        <ele>208</ele>
        <time>2016-03-10T13:41:45Z</time>
      </trkpt>
      <trkpt lat="43.3405" lon="5.24132">
        <ele>208</ele>
        <time>2016-03-10T13:41:47Z</time>
      </trkpt>
      <trkpt lat="43.34049" lon="5.24134">
        <ele>207</ele>
        <time>2016-03-10T13:41:49Z</time>
      </trkpt>
      <trkpt lat="43.34048" lon="5.24136">
        <ele>207</ele>
        <time>2016-03-10T13:41:50Z</time>
      </trkpt>
      <trkpt lat="43.34046" lon="5.24138">
        <ele>207</ele>
        <time>2016-03-10T13:41:52Z</time>
      </trkpt>
      <trkpt lat="43.34045" lon="5.24141">
        <ele>207</ele>
        <time>2016-03-10T13:41:54Z</time>
      </trkpt>
      <trkpt lat="43.34044" lon="5.24142">
        <ele>207</ele>
        <time>2016-03-10T13:41:55Z</time>
      </trkpt>
      <trkpt lat="43.34042" lon="5.24145">
        <ele>206</ele>
        <time>2016-03-10T13:41:57Z</time>
      </trkpt>
      <trkpt lat="43.34041" lon="5.24147">
        <ele>206</ele>
        <time>2016-03-10T13:41:59Z</time>
      </trkpt>
      <trkpt lat="43.34039" lon="5.2415">
        <ele>206</ele>
        <time>2016-03-10T13:42:01Z</time>
      </trkpt>
      <trkpt lat="43.34038" lon="5.24152">
        <ele>206</ele>
        <time>2016-03-10T13:42:03Z</time>
      </trkpt>
      <trkpt lat="43.34036" lon="5.24155">
        <ele>205</ele>
        <time>2016-03-10T13:42:05Z</time>
      </trkpt>
      <trkpt lat="43.34035" lon="5.24157">
        <ele>205</ele>
        <time>2016-03-10T13:42:07Z</time>
      </trkpt>
      <trkpt lat="43.34033" lon="5.2416">
        <ele>205</ele>
        <time>2016-03-10T13:42:09Z</time>
      </trkpt>
      <trkpt lat="43.34031" lon="5.24162">
        <ele>205</ele>
        <time>2016-03-10T13:42:11Z</time>
      </trkpt>
      <trkpt lat="43.34029" lon="5.24164">
        <ele>204</ele>
        <time>2016-03-10T13:42:13Z</time>
      </trkpt>
      <trkpt lat="43.34028" lon="5.24167">
        <ele>204</ele>
        <time>2016-03-10T13:42:15Z</time>
      </trkpt>
      <trkpt lat="43.34027" lon="5.24169">
        <ele>204</ele>
        <time>2016-03-10T13:42:16Z</time>
      </trkpt>
      <trkpt lat="43.34026" lon="5.2417">
        <ele>204</ele>
        <time>2016-03-10T13:42:17Z</time>
      </trkpt>
      <trkpt lat="43.34024" lon="5.24173">
        <ele>204</ele>
        <time>2016-03-10T13:42:19Z</time>
      </trkpt>
      <trkpt lat="43.34023" lon="5.24174">
        <ele>204</ele>
        <time>2016-03-10T13:42:20Z</time>
      </trkpt>
      <trkpt lat="43.34022" lon="5.24176">
        <ele>204</ele>
        <time>2016-03-10T13:42:21Z</time>
      </trkpt>
      <trkpt lat="43.34021" lon="5.24177">
        <ele>204</ele>
        <time>2016-03-10T13:42:22Z</time>
      </trkpt>
      <trkpt lat="43.34021" lon="5.24179">
        <ele>204</ele>
        <time>2016-03-10T13:42:23Z</time>
      </trkpt>
      <trkpt lat="43.34019" lon="5.2418">
        <ele>204</ele>
        <time>2016-03-10T13:42:24Z</time>
      </trkpt>
      <trkpt lat="43.34018" lon="5.24183">
        <ele>204</ele>
        <time>2016-03-10T13:42:26Z</time>
      </trkpt>
      <trkpt lat="43.34017" lon="5.24185">
        <ele>204</ele>
        <time>2016-03-10T13:42:27Z</time>
      </trkpt>
      <trkpt lat="43.34016" lon="5.24186">
        <ele>204</ele>
        <time>2016-03-10T13:42:28Z</time>
      </trkpt>
      <trkpt lat="43.34014" lon="5.24189">
        <ele>204</ele>
        <time>2016-03-10T13:42:30Z</time>
      </trkpt>
      <trkpt lat="43.34013" lon="5.24191">
        <ele>204</ele>
        <time>2016-03-10T13:42:32Z</time>
      </trkpt>
      <trkpt lat="43.34011" lon="5.24194">
        <ele>204</ele>
        <time>2016-03-10T13:42:34Z</time>
      </trkpt>
      <trkpt lat="43.3401" lon="5.24196">
        <ele>204</ele>
        <time>2016-03-10T13:42:36Z</time>
      </trkpt>
      <trkpt lat="43.34008" lon="5.24198">
        <ele>204</ele>
        <time>2016-03-10T13:42:38Z</time>
      </trkpt>
      <trkpt lat="43.34007" lon="5.242">
        <ele>204</ele>
        <time>2016-03-10T13:42:40Z</time>
      </trkpt>
      <trkpt lat="43.34005" lon="5.24202">
        <ele>204</ele>
        <time>2016-03-10T13:42:42Z</time>
      </trkpt>
      <trkpt lat="43.34003" lon="5.24204">
        <ele>204</ele>
        <time>2016-03-10T13:42:44Z</time>
      </trkpt>
      <trkpt lat="43.34001" lon="5.24205">
        <ele>204</ele>
        <time>2016-03-10T13:42:45Z</time>
      </trkpt>
      <trkpt lat="43.34" lon="5.24207">
        <ele>204</ele>
        <time>2016-03-10T13:42:47Z</time>
      </trkpt>
      <trkpt lat="43.33998" lon="5.24209">
        <ele>204</ele>
        <time>2016-03-10T13:42:49Z</time>
      </trkpt>
      <trkpt lat="43.33996" lon="5.24211">
        <ele>204</ele>
        <time>2016-03-10T13:42:51Z</time>
      </trkpt>
      <trkpt lat="43.33995" lon="5.24212">
        <ele>204</ele>
        <time>2016-03-10T13:42:52Z</time>
      </trkpt>
      <trkpt lat="43.33993" lon="5.24214">
        <ele>204</ele>
        <time>2016-03-10T13:42:54Z</time>
      </trkpt>
      <trkpt lat="43.33991" lon="5.24216">
        <ele>204</ele>
        <time>2016-03-10T13:42:56Z</time>
      </trkpt>
      <trkpt lat="43.33989" lon="5.24218">
        <ele>204</ele>
        <time>2016-03-10T13:42:58Z</time>
      </trkpt>
      <trkpt lat="43.33988" lon="5.2422">
        <ele>204</ele>
        <time>2016-03-10T13:43:00Z</time>
      </trkpt>
      <trkpt lat="43.33986" lon="5.24222">
        <ele>204</ele>
        <time>2016-03-10T13:43:02Z</time>
      </trkpt>
      <trkpt lat="43.33985" lon="5.24223">
        <ele>204</ele>
        <time>2016-03-10T13:43:04Z</time>
      </trkpt>
      <trkpt lat="43.33983" lon="5.24225">
        <ele>204</ele>
        <time>2016-03-10T13:43:06Z</time>
      </trkpt>
      <trkpt lat="43.33981" lon="5.24226">
        <ele>204</ele>
        <time>2016-03-10T13:43:08Z</time>
      </trkpt>
      <trkpt lat="43.33979" lon="5.24228">
        <ele>204</ele>
        <time>2016-03-10T13:43:10Z</time>
      </trkpt>
      <trkpt lat="43.33978" lon="5.2423">
        <ele>204</ele>
        <time>2016-03-10T13:43:12Z</time>
      </trkpt>
      <trkpt lat="43.33976" lon="5.24233">
        <ele>204</ele>
        <time>2016-03-10T13:43:14Z</time>
      </trkpt>
      <trkpt lat="43.33974" lon="5.24235">
        <ele>204</ele>
        <time>2016-03-10T13:43:16Z</time>
      </trkpt>
      <trkpt lat="43.33973" lon="5.24238">
        <ele>204</ele>
        <time>2016-03-10T13:43:18Z</time>
      </trkpt>
      <trkpt lat="43.33971" lon="5.24239">
        <ele>204</ele>
        <time>2016-03-10T13:43:20Z</time>
      </trkpt>
      <trkpt lat="43.3397" lon="5.24241">
        <ele>205</ele>
        <time>2016-03-10T13:43:22Z</time>
      </trkpt>
      <trkpt lat="43.33968" lon="5.24244">
        <ele>205</ele>
        <time>2016-03-10T13:43:24Z</time>
      </trkpt>
      <trkpt lat="43.33966" lon="5.24246">
        <ele>205</ele>
        <time>2016-03-10T13:43:26Z</time>
      </trkpt>
      <trkpt lat="43.33964" lon="5.24248">
        <ele>205</ele>
        <time>2016-03-10T13:43:28Z</time>
      </trkpt>
      <trkpt lat="43.33962" lon="5.2425">
        <ele>206</ele>
        <time>2016-03-10T13:43:30Z</time>
      </trkpt>
      <trkpt lat="43.3396" lon="5.24251">
        <ele>206</ele>
        <time>2016-03-10T13:43:32Z</time>
      </trkpt>
      <trkpt lat="43.33959" lon="5.24252">
        <ele>206</ele>
        <time>2016-03-10T13:43:33Z</time>
      </trkpt>
      <trkpt lat="43.33957" lon="5.24254">
        <ele>206</ele>
        <time>2016-03-10T13:43:35Z</time>
      </trkpt>
      <trkpt lat="43.33955" lon="5.24255">
        <ele>206</ele>
        <time>2016-03-10T13:43:36Z</time>
      </trkpt>
      <trkpt lat="43.33953" lon="5.24257">
        <ele>206</ele>
        <time>2016-03-10T13:43:38Z</time>
      </trkpt>
      <trkpt lat="43.33951" lon="5.24259">
        <ele>206</ele>
        <time>2016-03-10T13:43:40Z</time>
      </trkpt>
      <trkpt lat="43.33949" lon="5.24261">
        <ele>206</ele>
        <time>2016-03-10T13:43:42Z</time>
      </trkpt>
      <trkpt lat="43.33947" lon="5.24264">
        <ele>206</ele>
        <time>2016-03-10T13:43:44Z</time>
      </trkpt>
      <trkpt lat="43.33947" lon="5.24265">
        <ele>206</ele>
        <time>2016-03-10T13:43:45Z</time>
      </trkpt>
      <trkpt lat="43.33946" lon="5.24267">
        <ele>206</ele>
        <time>2016-03-10T13:43:46Z</time>
      </trkpt>
      <trkpt lat="43.33945" lon="5.24268">
        <ele>206</ele>
        <time>2016-03-10T13:43:47Z</time>
      </trkpt>
      <trkpt lat="43.33945" lon="5.2427">
        <ele>206</ele>
        <time>2016-03-10T13:43:48Z</time>
      </trkpt>
      <trkpt lat="43.33943" lon="5.24272">
        <ele>206</ele>
        <time>2016-03-10T13:43:50Z</time>
      </trkpt>
      <trkpt lat="43.33941" lon="5.24275">
        <ele>206</ele>
        <time>2016-03-10T13:43:52Z</time>
      </trkpt>
      <trkpt lat="43.3394" lon="5.24277">
        <ele>206</ele>
        <time>2016-03-10T13:43:54Z</time>
      </trkpt>
      <trkpt lat="43.33939" lon="5.2428">
        <ele>206</ele>
        <time>2016-03-10T13:43:56Z</time>
      </trkpt>
      <trkpt lat="43.33938" lon="5.24281">
        <ele>206</ele>
        <time>2016-03-10T13:43:57Z</time>
      </trkpt>
      <trkpt lat="43.33938" lon="5.24283">
        <ele>206</ele>
        <time>2016-03-10T13:43:58Z</time>
      </trkpt>
      <trkpt lat="43.33938" lon="5.24284">
        <ele>206</ele>
        <time>2016-03-10T13:43:59Z</time>
      </trkpt>
      <trkpt lat="43.33937" lon="5.24286">
        <ele>206</ele>
        <time>2016-03-10T13:44:00Z</time>
      </trkpt>
      <trkpt lat="43.33937" lon="5.24287">
        <ele>206</ele>
        <time>2016-03-10T13:44:01Z</time>
      </trkpt>
      <trkpt lat="43.33937" lon="5.24289">
        <ele>206</ele>
        <time>2016-03-10T13:44:02Z</time>
      </trkpt>
      <trkpt lat="43.33936" lon="5.24291">
        <ele>206</ele>
        <time>2016-03-10T13:44:04Z</time>
      </trkpt>
      <trkpt lat="43.33936" lon="5.24293">
        <ele>206</ele>
        <time>2016-03-10T13:44:06Z</time>
      </trkpt>
      <trkpt lat="43.33935" lon="5.24295">
        <ele>206</ele>
        <time>2016-03-10T13:44:08Z</time>
      </trkpt>
      <trkpt lat="43.33934" lon="5.24297">
        <ele>206</ele>
        <time>2016-03-10T13:44:10Z</time>
      </trkpt>
      <trkpt lat="43.33934" lon="5.24299">
        <ele>206</ele>
        <time>2016-03-10T13:44:12Z</time>
      </trkpt>
      <trkpt lat="43.33934" lon="5.24301">
        <ele>206</ele>
        <time>2016-03-10T13:44:14Z</time>
      </trkpt>
      <trkpt lat="43.33933" lon="5.24302">
        <ele>206</ele>
        <time>2016-03-10T13:44:16Z</time>
      </trkpt>
      <trkpt lat="43.33932" lon="5.24304">
        <ele>206</ele>
        <time>2016-03-10T13:44:19Z</time>
      </trkpt>
      <trkpt lat="43.33932" lon="5.24306">
        <ele>206</ele>
        <time>2016-03-10T13:44:21Z</time>
      </trkpt>
      <trkpt lat="43.33931" lon="5.24309">
        <ele>206</ele>
        <time>2016-03-10T13:44:23Z</time>
      </trkpt>
      <trkpt lat="43.33931" lon="5.2431">
        <ele>206</ele>
        <time>2016-03-10T13:44:24Z</time>
      </trkpt>
      <trkpt lat="43.3393" lon="5.24313">
        <ele>206</ele>
        <time>2016-03-10T13:44:26Z</time>
      </trkpt>
      <trkpt lat="43.33929" lon="5.24316">
        <ele>206</ele>
        <time>2016-03-10T13:44:28Z</time>
      </trkpt>
      <trkpt lat="43.33929" lon="5.24318">
        <ele>206</ele>
        <time>2016-03-10T13:44:30Z</time>
      </trkpt>
      <trkpt lat="43.33928" lon="5.2432">
        <ele>206</ele>
        <time>2016-03-10T13:44:32Z</time>
      </trkpt>
      <trkpt lat="43.33926" lon="5.24322">
        <ele>206</ele>
        <time>2016-03-10T13:44:34Z</time>
      </trkpt>
      <trkpt lat="43.33925" lon="5.24323">
        <ele>206</ele>
        <time>2016-03-10T13:44:36Z</time>
      </trkpt>
      <trkpt lat="43.33924" lon="5.24324">
        <ele>206</ele>
        <time>2016-03-10T13:44:38Z</time>
      </trkpt>
      <trkpt lat="43.33922" lon="5.24326">
        <ele>206</ele>
        <time>2016-03-10T13:44:40Z</time>
      </trkpt>
      <trkpt lat="43.33922" lon="5.24329">
        <ele>206</ele>
        <time>2016-03-10T13:44:42Z</time>
      </trkpt>
      <trkpt lat="43.33922" lon="5.2433">
        <ele>206</ele>
        <time>2016-03-10T13:44:43Z</time>
      </trkpt>
      <trkpt lat="43.33921" lon="5.24333">
        <ele>206</ele>
        <time>2016-03-10T13:44:45Z</time>
      </trkpt>
      <trkpt lat="43.33921" lon="5.24334">
        <ele>206</ele>
        <time>2016-03-10T13:44:46Z</time>
      </trkpt>
      <trkpt lat="43.33921" lon="5.24337">
        <ele>206</ele>
        <time>2016-03-10T13:44:48Z</time>
      </trkpt>
      <trkpt lat="43.3392" lon="5.24339">
        <ele>206</ele>
        <time>2016-03-10T13:44:50Z</time>
      </trkpt>
      <trkpt lat="43.3392" lon="5.2434">
        <ele>206</ele>
        <time>2016-03-10T13:44:51Z</time>
      </trkpt>
      <trkpt lat="43.33919" lon="5.24343">
        <ele>206</ele>
        <time>2016-03-10T13:44:53Z</time>
      </trkpt>
      <trkpt lat="43.33919" lon="5.24345">
        <ele>206</ele>
        <time>2016-03-10T13:44:55Z</time>
      </trkpt>
      <trkpt lat="43.33919" lon="5.24347">
        <ele>206</ele>
        <time>2016-03-10T13:44:56Z</time>
      </trkpt>
      <trkpt lat="43.33919" lon="5.24348">
        <ele>206</ele>
        <time>2016-03-10T13:44:57Z</time>
      </trkpt>
      <trkpt lat="43.33918" lon="5.2435">
        <ele>205</ele>
        <time>2016-03-10T13:44:58Z</time>
      </trkpt>
      <trkpt lat="43.33918" lon="5.24351">
        <ele>205</ele>
        <time>2016-03-10T13:44:59Z</time>
      </trkpt>
      <trkpt lat="43.33918" lon="5.24353">
        <ele>205</ele>
        <time>2016-03-10T13:45:00Z</time>
      </trkpt>
      <trkpt lat="43.33918" lon="5.24354">
        <ele>205</ele>
        <time>2016-03-10T13:45:01Z</time>
      </trkpt>
      <trkpt lat="43.33918" lon="5.24357">
        <ele>205</ele>
        <time>2016-03-10T13:45:03Z</time>
      </trkpt>
      <trkpt lat="43.33918" lon="5.24359">
        <ele>205</ele>
        <time>2016-03-10T13:45:04Z</time>
      </trkpt>
      <trkpt lat="43.33919" lon="5.2436">
        <ele>204</ele>
        <time>2016-03-10T13:45:05Z</time>
      </trkpt>
      <trkpt lat="43.33919" lon="5.24362">
        <ele>204</ele>
        <time>2016-03-10T13:45:06Z</time>
      </trkpt>
      <trkpt lat="43.33919" lon="5.24363">
        <ele>204</ele>
        <time>2016-03-10T13:45:07Z</time>
      </trkpt>
      <trkpt lat="43.33919" lon="5.24365">
        <ele>204</ele>
        <time>2016-03-10T13:45:08Z</time>
      </trkpt>
      <trkpt lat="43.3392" lon="5.24367">
        <ele>204</ele>
        <time>2016-03-10T13:45:09Z</time>
      </trkpt>
      <trkpt lat="43.3392" lon="5.24369">
        <ele>204</ele>
        <time>2016-03-10T13:45:10Z</time>
      </trkpt>
      <trkpt lat="43.3392" lon="5.2437">
        <ele>203</ele>
        <time>2016-03-10T13:45:11Z</time>
      </trkpt>
      <trkpt lat="43.3392" lon="5.24372">
        <ele>203</ele>
        <time>2016-03-10T13:45:12Z</time>
      </trkpt>
      <trkpt lat="43.3392" lon="5.24373">
        <ele>203</ele>
        <time>2016-03-10T13:45:13Z</time>
      </trkpt>
      <trkpt lat="43.3392" lon="5.24375">
        <ele>203</ele>
        <time>2016-03-10T13:45:14Z</time>
      </trkpt>
      <trkpt lat="43.3392" lon="5.24377">
        <ele>203</ele>
        <time>2016-03-10T13:45:16Z</time>
      </trkpt>
      <trkpt lat="43.3392" lon="5.24379">
        <ele>203</ele>
        <time>2016-03-10T13:45:18Z</time>
      </trkpt>
      <trkpt lat="43.3392" lon="5.24381">
        <ele>202</ele>
        <time>2016-03-10T13:45:20Z</time>
      </trkpt>
      <trkpt lat="43.33921" lon="5.24383">
        <ele>202</ele>
        <time>2016-03-10T13:45:22Z</time>
      </trkpt>
      <trkpt lat="43.33921" lon="5.24386">
        <ele>202</ele>
        <time>2016-03-10T13:45:24Z</time>
      </trkpt>
      <trkpt lat="43.33921" lon="5.24388">
        <ele>202</ele>
        <time>2016-03-10T13:45:25Z</time>
      </trkpt>
      <trkpt lat="43.33921" lon="5.24389">
        <ele>202</ele>
        <time>2016-03-10T13:45:26Z</time>
      </trkpt>
      <trkpt lat="43.33921" lon="5.24391">
        <ele>202</ele>
        <time>2016-03-10T13:45:27Z</time>
      </trkpt>
      <trkpt lat="43.33921" lon="5.24393">
        <ele>201</ele>
        <time>2016-03-10T13:45:29Z</time>
      </trkpt>
      <trkpt lat="43.33921" lon="5.24395">
        <ele>201</ele>
        <time>2016-03-10T13:45:31Z</time>
      </trkpt>
      <trkpt lat="43.33921" lon="5.24397">
        <ele>201</ele>
        <time>2016-03-10T13:45:33Z</time>
      </trkpt>
      <trkpt lat="43.3392" lon="5.244">
        <ele>200</ele>
        <time>2016-03-10T13:45:35Z</time>
      </trkpt>
      <trkpt lat="43.3392" lon="5.24402">
        <ele>200</ele>
        <time>2016-03-10T13:45:37Z</time>
      </trkpt>
      <trkpt lat="43.33919" lon="5.24404">
        <ele>200</ele>
        <time>2016-03-10T13:45:39Z</time>
      </trkpt>
      <trkpt lat="43.33919" lon="5.24406">
        <ele>200</ele>
        <time>2016-03-10T13:45:41Z</time>
      </trkpt>
      <trkpt lat="43.33918" lon="5.24407">
        <ele>199</ele>
        <time>2016-03-10T13:45:43Z</time>
      </trkpt>
      <trkpt lat="43.33916" lon="5.24409">
        <ele>199</ele>
        <time>2016-03-10T13:45:46Z</time>
      </trkpt>
      <trkpt lat="43.33915" lon="5.2441">
        <ele>198</ele>
        <time>2016-03-10T13:45:48Z</time>
      </trkpt>
      <trkpt lat="43.33914" lon="5.24412">
        <ele>198</ele>
        <time>2016-03-10T13:45:50Z</time>
      </trkpt>
      <trkpt lat="43.33913" lon="5.24414">
        <ele>197</ele>
        <time>2016-03-10T13:45:51Z</time>
      </trkpt>
      <trkpt lat="43.33913" lon="5.24416">
        <ele>197</ele>
        <time>2016-03-10T13:45:53Z</time>
      </trkpt>
      <trkpt lat="43.33913" lon="5.24418">
        <ele>197</ele>
        <time>2016-03-10T13:45:54Z</time>
      </trkpt>
      <trkpt lat="43.33912" lon="5.2442">
        <ele>197</ele>
        <time>2016-03-10T13:45:56Z</time>
      </trkpt>
      <trkpt lat="43.33911" lon="5.24422">
        <ele>196</ele>
        <time>2016-03-10T13:45:58Z</time>
      </trkpt>
      <trkpt lat="43.3391" lon="5.24423">
        <ele>196</ele>
        <time>2016-03-10T13:46:00Z</time>
      </trkpt>
      <trkpt lat="43.3391" lon="5.24425">
        <ele>196</ele>
        <time>2016-03-10T13:46:02Z</time>
      </trkpt>
      <trkpt lat="43.33909" lon="5.24426">
        <ele>195</ele>
        <time>2016-03-10T13:46:04Z</time>
      </trkpt>
      <trkpt lat="43.33907" lon="5.24428">
        <ele>195</ele>
        <time>2016-03-10T13:46:07Z</time>
      </trkpt>
      <trkpt lat="43.33906" lon="5.2443">
        <ele>194</ele>
        <time>2016-03-10T13:46:10Z</time>
      </trkpt>
      <trkpt lat="43.33906" lon="5.24432">
        <ele>194</ele>
        <time>2016-03-10T13:46:13Z</time>
      </trkpt>
      <trkpt lat="43.33905" lon="5.24433">
        <ele>193</ele>
        <time>2016-03-10T13:46:15Z</time>
      </trkpt>
      <trkpt lat="43.33904" lon="5.24435">
        <ele>193</ele>
        <time>2016-03-10T13:46:17Z</time>
      </trkpt>
      <trkpt lat="43.33904" lon="5.24437">
        <ele>193</ele>
        <time>2016-03-10T13:46:19Z</time>
      </trkpt>
      <trkpt lat="43.33904" lon="5.24438">
        <ele>193</ele>
        <time>2016-03-10T13:46:21Z</time>
      </trkpt>
      <trkpt lat="43.33903" lon="5.2444">
        <ele>192</ele>
        <time>2016-03-10T13:46:24Z</time>
      </trkpt>
      <trkpt lat="43.33902" lon="5.24441">
        <ele>192</ele>
        <time>2016-03-10T13:46:27Z</time>
      </trkpt>
      <trkpt lat="43.339" lon="5.24441">
        <ele>192</ele>
        <time>2016-03-10T13:46:29Z</time>
      </trkpt>
      <trkpt lat="43.33899" lon="5.24442">
        <ele>191</ele>
        <time>2016-03-10T13:46:31Z</time>
      </trkpt>
      <trkpt lat="43.33898" lon="5.24442">
        <ele>191</ele>
        <time>2016-03-10T13:46:33Z</time>
      </trkpt>
      <trkpt lat="43.33897" lon="5.24442">
        <ele>191</ele>
        <time>2016-03-10T13:46:35Z</time>
      </trkpt>
      <trkpt lat="43.33895" lon="5.24442">
        <ele>190</ele>
        <time>2016-03-10T13:46:38Z</time>
      </trkpt>
      <trkpt lat="43.33894" lon="5.24442">
        <ele>190</ele>
        <time>2016-03-10T13:46:40Z</time>
      </trkpt>
      <trkpt lat="43.33893" lon="5.24443">
        <ele>189</ele>
        <time>2016-03-10T13:46:42Z</time>
      </trkpt>
      <trkpt lat="43.33892" lon="5.24443">
        <ele>189</ele>
        <time>2016-03-10T13:46:45Z</time>
      </trkpt>
      <trkpt lat="43.3389" lon="5.24444">
        <ele>189</ele>
        <time>2016-03-10T13:46:47Z</time>
      </trkpt>
      <trkpt lat="43.33889" lon="5.24444">
        <ele>188</ele>
        <time>2016-03-10T13:46:49Z</time>
      </trkpt>
      <trkpt lat="43.33888" lon="5.24444">
        <ele>188</ele>
        <time>2016-03-10T13:46:51Z</time>
      </trkpt>
      <trkpt lat="43.33886" lon="5.24445">
        <ele>187</ele>
        <time>2016-03-10T13:46:53Z</time>
      </trkpt>
      <trkpt lat="43.33885" lon="5.24447">
        <ele>187</ele>
        <time>2016-03-10T13:46:55Z</time>
      </trkpt>
      <trkpt lat="43.33884" lon="5.24449">
        <ele>187</ele>
        <time>2016-03-10T13:46:56Z</time>
      </trkpt>
      <trkpt lat="43.33884" lon="5.2445">
        <ele>187</ele>
        <time>2016-03-10T13:46:57Z</time>
      </trkpt>
      <trkpt lat="43.33884" lon="5.24452">
        <ele>187</ele>
        <time>2016-03-10T13:46:58Z</time>
      </trkpt>
      <trkpt lat="43.33884" lon="5.24453">
        <ele>187</ele>
        <time>2016-03-10T13:46:59Z</time>
      </trkpt>
      <trkpt lat="43.33884" lon="5.24455">
        <ele>187</ele>
        <time>2016-03-10T13:47:00Z</time>
      </trkpt>
      <trkpt lat="43.33884" lon="5.24457">
        <ele>186</ele>
        <time>2016-03-10T13:47:02Z</time>
      </trkpt>
      <trkpt lat="43.33884" lon="5.2446">
        <ele>186</ele>
        <time>2016-03-10T13:47:04Z</time>
      </trkpt>
      <trkpt lat="43.33884" lon="5.24462">
        <ele>186</ele>
        <time>2016-03-10T13:47:06Z</time>
      </trkpt>
      <trkpt lat="43.33883" lon="5.24464">
        <ele>186</ele>
        <time>2016-03-10T13:47:07Z</time>
      </trkpt>
      <trkpt lat="43.33883" lon="5.24466">
        <ele>185</ele>
        <time>2016-03-10T13:47:08Z</time>
      </trkpt>
      <trkpt lat="43.33883" lon="5.24468">
        <ele>185</ele>
        <time>2016-03-10T13:47:09Z</time>
      </trkpt>
      <trkpt lat="43.33883" lon="5.24469">
        <ele>185</ele>
        <time>2016-03-10T13:47:10Z</time>
      </trkpt>
      <trkpt lat="43.33882" lon="5.24471">
        <ele>185</ele>
        <time>2016-03-10T13:47:11Z</time>
      </trkpt>
      <trkpt lat="43.33882" lon="5.24472">
        <ele>185</ele>
        <time>2016-03-10T13:47:12Z</time>
      </trkpt>
      <trkpt lat="43.33881" lon="5.24474">
        <ele>185</ele>
        <time>2016-03-10T13:47:13Z</time>
      </trkpt>
      <trkpt lat="43.33881" lon="5.24475">
        <ele>185</ele>
        <time>2016-03-10T13:47:14Z</time>
      </trkpt>
      <trkpt lat="43.33881" lon="5.24477">
        <ele>185</ele>
        <time>2016-03-10T13:47:15Z</time>
      </trkpt>
      <trkpt lat="43.33881" lon="5.24479">
        <ele>184</ele>
        <time>2016-03-10T13:47:16Z</time>
      </trkpt>
      <trkpt lat="43.33881" lon="5.24481">
        <ele>184</ele>
        <time>2016-03-10T13:47:17Z</time>
      </trkpt>
      <trkpt lat="43.3388" lon="5.24483">
        <ele>184</ele>
        <time>2016-03-10T13:47:18Z</time>
      </trkpt>
      <trkpt lat="43.3388" lon="5.24484">
        <ele>184</ele>
        <time>2016-03-10T13:47:19Z</time>
      </trkpt>
      <trkpt lat="43.3388" lon="5.24487">
        <ele>184</ele>
        <time>2016-03-10T13:47:20Z</time>
      </trkpt>
      <trkpt lat="43.33879" lon="5.24489">
        <ele>184</ele>
        <time>2016-03-10T13:47:21Z</time>
      </trkpt>
      <trkpt lat="43.33879" lon="5.24491">
        <ele>184</ele>
        <time>2016-03-10T13:47:22Z</time>
      </trkpt>
      <trkpt lat="43.33878" lon="5.24493">
        <ele>184</ele>
        <time>2016-03-10T13:47:23Z</time>
      </trkpt>
      <trkpt lat="43.33878" lon="5.24495">
        <ele>184</ele>
        <time>2016-03-10T13:47:24Z</time>
      </trkpt>
      <trkpt lat="43.33878" lon="5.24496">
        <ele>184</ele>
        <time>2016-03-10T13:47:25Z</time>
      </trkpt>
      <trkpt lat="43.33878" lon="5.24498">
        <ele>184</ele>
        <time>2016-03-10T13:47:26Z</time>
      </trkpt>
      <trkpt lat="43.33878" lon="5.245">
        <ele>184</ele>
        <time>2016-03-10T13:47:27Z</time>
      </trkpt>
      <trkpt lat="43.33878" lon="5.24502">
        <ele>184</ele>
        <time>2016-03-10T13:47:28Z</time>
      </trkpt>
      <trkpt lat="43.33877" lon="5.24504">
        <ele>184</ele>
        <time>2016-03-10T13:47:29Z</time>
      </trkpt>
      <trkpt lat="43.33877" lon="5.24506">
        <ele>184</ele>
        <time>2016-03-10T13:47:30Z</time>
      </trkpt>
      <trkpt lat="43.33876" lon="5.24508">
        <ele>184</ele>
        <time>2016-03-10T13:47:31Z</time>
      </trkpt>
      <trkpt lat="43.33876" lon="5.2451">
        <ele>184</ele>
        <time>2016-03-10T13:47:32Z</time>
      </trkpt>
      <trkpt lat="43.33876" lon="5.24511">
        <ele>184</ele>
        <time>2016-03-10T13:47:33Z</time>
      </trkpt>
      <trkpt lat="43.33875" lon="5.24513">
        <ele>184</ele>
        <time>2016-03-10T13:47:34Z</time>
      </trkpt>
      <trkpt lat="43.33875" lon="5.24515">
        <ele>184</ele>
        <time>2016-03-10T13:47:35Z</time>
      </trkpt>
      <trkpt lat="43.33874" lon="5.24516">
        <ele>184</ele>
        <time>2016-03-10T13:47:36Z</time>
      </trkpt>
      <trkpt lat="43.33873" lon="5.24519">
        <ele>184</ele>
        <time>2016-03-10T13:47:38Z</time>
      </trkpt>
      <trkpt lat="43.33872" lon="5.24521">
        <ele>184</ele>
        <time>2016-03-10T13:47:40Z</time>
      </trkpt>
      <trkpt lat="43.33871" lon="5.24523">
        <ele>184</ele>
        <time>2016-03-10T13:47:42Z</time>
      </trkpt>
      <trkpt lat="43.33869" lon="5.24525">
        <ele>184</ele>
        <time>2016-03-10T13:47:44Z</time>
      </trkpt>
      <trkpt lat="43.33868" lon="5.24527">
        <ele>184</ele>
        <time>2016-03-10T13:47:46Z</time>
      </trkpt>
      <trkpt lat="43.33866" lon="5.24528">
        <ele>184</ele>
        <time>2016-03-10T13:47:48Z</time>
      </trkpt>
      <trkpt lat="43.33864" lon="5.2453">
        <ele>184</ele>
        <time>2016-03-10T13:47:50Z</time>
      </trkpt>
      <trkpt lat="43.33862" lon="5.24532">
        <ele>184</ele>
        <time>2016-03-10T13:47:52Z</time>
      </trkpt>
      <trkpt lat="43.33861" lon="5.24534">
        <ele>184</ele>
        <time>2016-03-10T13:47:54Z</time>
      </trkpt>
      <trkpt lat="43.33859" lon="5.24535">
        <ele>184</ele>
        <time>2016-03-10T13:47:56Z</time>
      </trkpt>
      <trkpt lat="43.33857" lon="5.24537">
        <ele>184</ele>
        <time>2016-03-10T13:47:58Z</time>
      </trkpt>
      <trkpt lat="43.33856" lon="5.24538">
        <ele>184</ele>
        <time>2016-03-10T13:47:59Z</time>
      </trkpt>
      <trkpt lat="43.33854" lon="5.2454">
        <ele>184</ele>
        <time>2016-03-10T13:48:01Z</time>
      </trkpt>
      <trkpt lat="43.33852" lon="5.24541">
        <ele>184</ele>
        <time>2016-03-10T13:48:03Z</time>
      </trkpt>
      <trkpt lat="43.3385" lon="5.24543">
        <ele>184</ele>
        <time>2016-03-10T13:48:05Z</time>
      </trkpt>
      <trkpt lat="43.33848" lon="5.24544">
        <ele>184</ele>
        <time>2016-03-10T13:48:07Z</time>
      </trkpt>
      <trkpt lat="43.33846" lon="5.24545">
        <ele>184</ele>
        <time>2016-03-10T13:48:09Z</time>
      </trkpt>
      <trkpt lat="43.33844" lon="5.24546">
        <ele>185</ele>
        <time>2016-03-10T13:48:11Z</time>
      </trkpt>
      <trkpt lat="43.33843" lon="5.24547">
        <ele>185</ele>
        <time>2016-03-10T13:48:12Z</time>
      </trkpt>
      <trkpt lat="43.33841" lon="5.24548">
        <ele>185</ele>
        <time>2016-03-10T13:48:14Z</time>
      </trkpt>
      <trkpt lat="43.3384" lon="5.24549">
        <ele>185</ele>
        <time>2016-03-10T13:48:15Z</time>
      </trkpt>
      <trkpt lat="43.33838" lon="5.24551">
        <ele>185</ele>
        <time>2016-03-10T13:48:17Z</time>
      </trkpt>
      <trkpt lat="43.33836" lon="5.24553">
        <ele>185</ele>
        <time>2016-03-10T13:48:19Z</time>
      </trkpt>
      <trkpt lat="43.33833" lon="5.24554">
        <ele>186</ele>
        <time>2016-03-10T13:48:21Z</time>
      </trkpt>
      <trkpt lat="43.33831" lon="5.24556">
        <ele>186</ele>
        <time>2016-03-10T13:48:23Z</time>
      </trkpt>
      <trkpt lat="43.3383" lon="5.24556">
        <ele>186</ele>
        <time>2016-03-10T13:48:24Z</time>
      </trkpt>
      <trkpt lat="43.33828" lon="5.24558">
        <ele>186</ele>
        <time>2016-03-10T13:48:26Z</time>
      </trkpt>
      <trkpt lat="43.33827" lon="5.24558">
        <ele>186</ele>
        <time>2016-03-10T13:48:27Z</time>
      </trkpt>
      <trkpt lat="43.33826" lon="5.24558">
        <ele>186</ele>
        <time>2016-03-10T13:48:28Z</time>
      </trkpt>
      <trkpt lat="43.33824" lon="5.24558">
        <ele>186</ele>
        <time>2016-03-10T13:48:30Z</time>
      </trkpt>
      <trkpt lat="43.33822" lon="5.24559">
        <ele>187</ele>
        <time>2016-03-10T13:48:32Z</time>
      </trkpt>
      <trkpt lat="43.33821" lon="5.2456">
        <ele>187</ele>
        <time>2016-03-10T13:48:34Z</time>
      </trkpt>
      <trkpt lat="43.3382" lon="5.24563">
        <ele>187</ele>
        <time>2016-03-10T13:48:36Z</time>
      </trkpt>
      <trkpt lat="43.3382" lon="5.24565">
        <ele>187</ele>
        <time>2016-03-10T13:48:38Z</time>
      </trkpt>
      <trkpt lat="43.33819" lon="5.24567">
        <ele>187</ele>
        <time>2016-03-10T13:48:40Z</time>
      </trkpt>
      <trkpt lat="43.3382" lon="5.24569">
        <ele>188</ele>
        <time>2016-03-10T13:48:42Z</time>
      </trkpt>
      <trkpt lat="43.33822" lon="5.2457">
        <ele>188</ele>
        <time>2016-03-10T13:48:44Z</time>
      </trkpt>
      <trkpt lat="43.33824" lon="5.24572">
        <ele>188</ele>
        <time>2016-03-10T13:48:46Z</time>
      </trkpt>
      <trkpt lat="43.33825" lon="5.24574">
        <ele>188</ele>
        <time>2016-03-10T13:48:48Z</time>
      </trkpt>
      <trkpt lat="43.33826" lon="5.24576">
        <ele>189</ele>
        <time>2016-03-10T13:48:50Z</time>
      </trkpt>
      <trkpt lat="43.33827" lon="5.24578">
        <ele>189</ele>
        <time>2016-03-10T13:48:52Z</time>
      </trkpt>
      <trkpt lat="43.33828" lon="5.2458">
        <ele>189</ele>
        <time>2016-03-10T13:48:54Z</time>
      </trkpt>
      <trkpt lat="43.33829" lon="5.24582">
        <ele>189</ele>
        <time>2016-03-10T13:48:56Z</time>
      </trkpt>
      <trkpt lat="43.33829" lon="5.24584">
        <ele>190</ele>
        <time>2016-03-10T13:48:58Z</time>
      </trkpt>
      <trkpt lat="43.3383" lon="5.24586">
        <ele>190</ele>
        <time>2016-03-10T13:49:00Z</time>
      </trkpt>
      <trkpt lat="43.33831" lon="5.24588">
        <ele>190</ele>
        <time>2016-03-10T13:49:02Z</time>
      </trkpt>
      <trkpt lat="43.33831" lon="5.2459">
        <ele>190</ele>
        <time>2016-03-10T13:49:03Z</time>
      </trkpt>
      <trkpt lat="43.33831" lon="5.24591">
        <ele>190</ele>
        <time>2016-03-10T13:49:04Z</time>
      </trkpt>
      <trkpt lat="43.33831" lon="5.24593">
        <ele>190</ele>
        <time>2016-03-10T13:49:05Z</time>
      </trkpt>
      <trkpt lat="43.33832" lon="5.24595">
        <ele>190</ele>
        <time>2016-03-10T13:49:07Z</time>
      </trkpt>
      <trkpt lat="43.33832" lon="5.24598">
        <ele>190</ele>
        <time>2016-03-10T13:49:09Z</time>
      </trkpt>
      <trkpt lat="43.33832" lon="5.246">
        <ele>190</ele>
        <time>2016-03-10T13:49:11Z</time>
      </trkpt>
      <trkpt lat="43.33833" lon="5.246">
        <ele>191</ele>
        <time>2016-03-10T13:49:23Z</time>
      </trkpt>
      <trkpt lat="43.33835" lon="5.246">
        <ele>191</ele>
        <time>2016-03-10T13:49:25Z</time>
      </trkpt>
      <trkpt lat="43.33836" lon="5.246">
        <ele>191</ele>
        <time>2016-03-10T13:49:27Z</time>
      </trkpt>
      <trkpt lat="43.33838" lon="5.246">
        <ele>191</ele>
        <time>2016-03-10T13:49:29Z</time>
      </trkpt>
      <trkpt lat="43.3384" lon="5.24601">
        <ele>191</ele>
        <time>2016-03-10T13:49:31Z</time>
      </trkpt>
      <trkpt lat="43.33842" lon="5.24601">
        <ele>191</ele>
        <time>2016-03-10T13:49:33Z</time>
      </trkpt>
      <trkpt lat="43.33844" lon="5.24601">
        <ele>191</ele>
        <time>2016-03-10T13:49:35Z</time>
      </trkpt>
      <trkpt lat="43.33845" lon="5.24601">
        <ele>191</ele>
        <time>2016-03-10T13:49:37Z</time>
      </trkpt>
      <trkpt lat="43.33847" lon="5.24601">
        <ele>191</ele>
        <time>2016-03-10T13:49:39Z</time>
      </trkpt>
      <trkpt lat="43.33849" lon="5.24602">
        <ele>191</ele>
        <time>2016-03-10T13:49:41Z</time>
      </trkpt>
      <trkpt lat="43.3385" lon="5.24603">
        <ele>191</ele>
        <time>2016-03-10T13:49:43Z</time>
      </trkpt>
      <trkpt lat="43.33852" lon="5.24605">
        <ele>191</ele>
        <time>2016-03-10T13:49:45Z</time>
      </trkpt>
      <trkpt lat="43.33853" lon="5.24606">
        <ele>191</ele>
        <time>2016-03-10T13:49:47Z</time>
      </trkpt>
      <trkpt lat="43.33854" lon="5.24607">
        <ele>191</ele>
        <time>2016-03-10T13:49:49Z</time>
      </trkpt>
      <trkpt lat="43.33856" lon="5.24609">
        <ele>191</ele>
        <time>2016-03-10T13:49:51Z</time>
      </trkpt>
      <trkpt lat="43.33857" lon="5.24611">
        <ele>191</ele>
        <time>2016-03-10T13:49:53Z</time>
      </trkpt>
      <trkpt lat="43.33859" lon="5.24612">
        <ele>191</ele>
        <time>2016-03-10T13:49:55Z</time>
      </trkpt>
      <trkpt lat="43.3386" lon="5.24614">
        <ele>191</ele>
        <time>2016-03-10T13:49:57Z</time>
      </trkpt>
      <trkpt lat="43.33862" lon="5.24616">
        <ele>191</ele>
        <time>2016-03-10T13:49:59Z</time>
      </trkpt>
      <trkpt lat="43.33864" lon="5.24617">
        <ele>191</ele>
        <time>2016-03-10T13:50:01Z</time>
      </trkpt>
      <trkpt lat="43.33865" lon="5.24619">
        <ele>191</ele>
        <time>2016-03-10T13:50:03Z</time>
      </trkpt>
      <trkpt lat="43.33867" lon="5.24621">
        <ele>191</ele>
        <time>2016-03-10T13:50:05Z</time>
      </trkpt>
      <trkpt lat="43.33869" lon="5.24622">
        <ele>191</ele>
        <time>2016-03-10T13:50:07Z</time>
      </trkpt>
      <trkpt lat="43.3387" lon="5.24623">
        <ele>190</ele>
        <time>2016-03-10T13:50:09Z</time>
      </trkpt>
      <trkpt lat="43.33872" lon="5.24624">
        <ele>190</ele>
        <time>2016-03-10T13:50:11Z</time>
      </trkpt>
      <trkpt lat="43.33874" lon="5.24625">
        <ele>189</ele>
        <time>2016-03-10T13:50:13Z</time>
      </trkpt>
      <trkpt lat="43.33876" lon="5.24626">
        <ele>189</ele>
        <time>2016-03-10T13:50:15Z</time>
      </trkpt>
      <trkpt lat="43.33876" lon="5.24628">
        <ele>189</ele>
        <time>2016-03-10T13:50:16Z</time>
      </trkpt>
      <trkpt lat="43.33876" lon="5.24629">
        <ele>189</ele>
        <time>2016-03-10T13:50:17Z</time>
      </trkpt>
      <trkpt lat="43.33876" lon="5.24631">
        <ele>189</ele>
        <time>2016-03-10T13:50:18Z</time>
      </trkpt>
      <trkpt lat="43.33874" lon="5.24634">
        <ele>188</ele>
        <time>2016-03-10T13:50:20Z</time>
      </trkpt>
      <trkpt lat="43.33873" lon="5.24636">
        <ele>188</ele>
        <time>2016-03-10T13:50:22Z</time>
      </trkpt>
      <trkpt lat="43.33871" lon="5.24637">
        <ele>188</ele>
        <time>2016-03-10T13:50:23Z</time>
      </trkpt>
      <trkpt lat="43.3387" lon="5.24637">
        <ele>188</ele>
        <time>2016-03-10T13:50:24Z</time>
      </trkpt>
      <trkpt lat="43.33869" lon="5.24638">
        <ele>188</ele>
        <time>2016-03-10T13:50:25Z</time>
      </trkpt>
      <trkpt lat="43.33868" lon="5.24638">
        <ele>188</ele>
        <time>2016-03-10T13:50:26Z</time>
      </trkpt>
      <trkpt lat="43.33866" lon="5.2464">
        <ele>188</ele>
        <time>2016-03-10T13:50:28Z</time>
      </trkpt>
      <trkpt lat="43.33865" lon="5.2464">
        <ele>188</ele>
        <time>2016-03-10T13:50:29Z</time>
      </trkpt>
      <trkpt lat="43.33864" lon="5.24641">
        <ele>188</ele>
        <time>2016-03-10T13:50:30Z</time>
      </trkpt>
      <trkpt lat="43.33862" lon="5.24641">
        <ele>188</ele>
        <time>2016-03-10T13:50:31Z</time>
      </trkpt>
      <trkpt lat="43.33861" lon="5.24641">
        <ele>188</ele>
        <time>2016-03-10T13:50:32Z</time>
      </trkpt>
      <trkpt lat="43.33859" lon="5.24642">
        <ele>188</ele>
        <time>2016-03-10T13:50:34Z</time>
      </trkpt>
      <trkpt lat="43.33858" lon="5.24642">
        <ele>188</ele>
        <time>2016-03-10T13:50:35Z</time>
      </trkpt>
      <trkpt lat="43.33857" lon="5.24642">
        <ele>188</ele>
        <time>2016-03-10T13:50:36Z</time>
      </trkpt>
      <trkpt lat="43.33855" lon="5.24642">
        <ele>188</ele>
        <time>2016-03-10T13:50:37Z</time>
      </trkpt>
      <trkpt lat="43.33854" lon="5.24643">
        <ele>188</ele>
        <time>2016-03-10T13:50:38Z</time>
      </trkpt>
      <trkpt lat="43.33853" lon="5.24643">
        <ele>188</ele>
        <time>2016-03-10T13:50:39Z</time>
      </trkpt>
      <trkpt lat="43.33851" lon="5.24643">
        <ele>188</ele>
        <time>2016-03-10T13:50:40Z</time>
      </trkpt>
      <trkpt lat="43.3385" lon="5.24642">
        <ele>188</ele>
        <time>2016-03-10T13:50:41Z</time>
      </trkpt>
      <trkpt lat="43.33849" lon="5.24642">
        <ele>188</ele>
        <time>2016-03-10T13:50:42Z</time>
      </trkpt>
      <trkpt lat="43.33847" lon="5.24642">
        <ele>188</ele>
        <time>2016-03-10T13:50:43Z</time>
      </trkpt>
      <trkpt lat="43.33846" lon="5.24641">
        <ele>188</ele>
        <time>2016-03-10T13:50:44Z</time>
      </trkpt>
      <trkpt lat="43.33845" lon="5.24641">
        <ele>187</ele>
        <time>2016-03-10T13:50:45Z</time>
      </trkpt>
      <trkpt lat="43.33844" lon="5.24641">
        <ele>187</ele>
        <time>2016-03-10T13:50:46Z</time>
      </trkpt>
      <trkpt lat="43.33843" lon="5.2464">
        <ele>187</ele>
        <time>2016-03-10T13:50:47Z</time>
      </trkpt>
      <trkpt lat="43.33842" lon="5.24639">
        <ele>187</ele>
        <time>2016-03-10T13:50:48Z</time>
      </trkpt>
      <trkpt lat="43.3384" lon="5.24637">
        <ele>187</ele>
        <time>2016-03-10T13:50:50Z</time>
      </trkpt>
      <trkpt lat="43.33839" lon="5.24635">
        <ele>187</ele>
        <time>2016-03-10T13:50:52Z</time>
      </trkpt>
      <trkpt lat="43.33837" lon="5.24633">
        <ele>187</ele>
        <time>2016-03-10T13:50:54Z</time>
      </trkpt>
      <trkpt lat="43.33836" lon="5.24631">
        <ele>187</ele>
        <time>2016-03-10T13:50:56Z</time>
      </trkpt>
      <trkpt lat="43.33834" lon="5.2463">
        <ele>187</ele>
        <time>2016-03-10T13:50:58Z</time>
      </trkpt>
      <trkpt lat="43.33834" lon="5.24628">
        <ele>187</ele>
        <time>2016-03-10T13:51:13Z</time>
      </trkpt>
      <trkpt lat="43.33834" lon="5.2463">
        <ele>187</ele>
        <time>2016-03-10T13:51:59Z</time>
      </trkpt>
      <trkpt lat="43.33835" lon="5.24632">
        <ele>187</ele>
        <time>2016-03-10T13:52:19Z</time>
      </trkpt>
      <trkpt lat="43.33833" lon="5.24633">
        <ele>187</ele>
        <time>2016-03-10T13:52:25Z</time>
      </trkpt>
      <trkpt lat="43.33833" lon="5.24634">
        <ele>187</ele>
        <time>2016-03-10T13:52:54Z</time>
      </trkpt>
      <trkpt lat="43.33834" lon="5.24636">
        <ele>187</ele>
        <time>2016-03-10T13:53:02Z</time>
      </trkpt>
      <trkpt lat="43.33836" lon="5.24636">
        <ele>187</ele>
        <time>2016-03-10T13:53:04Z</time>
      </trkpt>
      <trkpt lat="43.33837" lon="5.24638">
        <ele>187</ele>
        <time>2016-03-10T13:53:06Z</time>
      </trkpt>
      <trkpt lat="43.33838" lon="5.2464">
        <ele>187</ele>
        <time>2016-03-10T13:53:07Z</time>
      </trkpt>
      <trkpt lat="43.33838" lon="5.24641">
        <ele>187</ele>
        <time>2016-03-10T13:53:08Z</time>
      </trkpt>
      <trkpt lat="43.33837" lon="5.24643">
        <ele>187</ele>
        <time>2016-03-10T13:53:09Z</time>
      </trkpt>
      <trkpt lat="43.33835" lon="5.24645">
        <ele>187</ele>
        <time>2016-03-10T13:53:11Z</time>
      </trkpt>
      <trkpt lat="43.33833" lon="5.24647">
        <ele>187</ele>
        <time>2016-03-10T13:53:13Z</time>
      </trkpt>
      <trkpt lat="43.33831" lon="5.24648">
        <ele>187</ele>
        <time>2016-03-10T13:53:15Z</time>
      </trkpt>
      <trkpt lat="43.33829" lon="5.24649">
        <ele>187</ele>
        <time>2016-03-10T13:53:16Z</time>
      </trkpt>
      <trkpt lat="43.33828" lon="5.24649">
        <ele>187</ele>
        <time>2016-03-10T13:53:17Z</time>
      </trkpt>
      <trkpt lat="43.33827" lon="5.24649">
        <ele>187</ele>
        <time>2016-03-10T13:53:18Z</time>
      </trkpt>
      <trkpt lat="43.33826" lon="5.2465">
        <ele>187</ele>
        <time>2016-03-10T13:53:19Z</time>
      </trkpt>
      <trkpt lat="43.33824" lon="5.2465">
        <ele>187</ele>
        <time>2016-03-10T13:53:20Z</time>
      </trkpt>
      <trkpt lat="43.33823" lon="5.24651">
        <ele>187</ele>
        <time>2016-03-10T13:53:21Z</time>
      </trkpt>
      <trkpt lat="43.33822" lon="5.24651">
        <ele>187</ele>
        <time>2016-03-10T13:53:22Z</time>
      </trkpt>
      <trkpt lat="43.33821" lon="5.24652">
        <ele>186</ele>
        <time>2016-03-10T13:53:23Z</time>
      </trkpt>
      <trkpt lat="43.3382" lon="5.24653">
        <ele>186</ele>
        <time>2016-03-10T13:53:24Z</time>
      </trkpt>
      <trkpt lat="43.33818" lon="5.24653">
        <ele>186</ele>
        <time>2016-03-10T13:53:25Z</time>
      </trkpt>
      <trkpt lat="43.33817" lon="5.24654">
        <ele>186</ele>
        <time>2016-03-10T13:53:26Z</time>
      </trkpt>
      <trkpt lat="43.33815" lon="5.24654">
        <ele>186</ele>
        <time>2016-03-10T13:53:27Z</time>
      </trkpt>
      <trkpt lat="43.33814" lon="5.24654">
        <ele>186</ele>
        <time>2016-03-10T13:53:28Z</time>
      </trkpt>
      <trkpt lat="43.33813" lon="5.24655">
        <ele>186</ele>
        <time>2016-03-10T13:53:29Z</time>
      </trkpt>
      <trkpt lat="43.33812" lon="5.24655">
        <ele>185</ele>
        <time>2016-03-10T13:53:30Z</time>
      </trkpt>
      <trkpt lat="43.3381" lon="5.24656">
        <ele>185</ele>
        <time>2016-03-10T13:53:31Z</time>
      </trkpt>
      <trkpt lat="43.33809" lon="5.24656">
        <ele>185</ele>
        <time>2016-03-10T13:53:32Z</time>
      </trkpt>
      <trkpt lat="43.33807" lon="5.24657">
        <ele>185</ele>
        <time>2016-03-10T13:53:33Z</time>
      </trkpt>
      <trkpt lat="43.33806" lon="5.24657">
        <ele>185</ele>
        <time>2016-03-10T13:53:34Z</time>
      </trkpt>
      <trkpt lat="43.33805" lon="5.24657">
        <ele>185</ele>
        <time>2016-03-10T13:53:35Z</time>
      </trkpt>
      <trkpt lat="43.33804" lon="5.24657">
        <ele>184</ele>
        <time>2016-03-10T13:53:36Z</time>
      </trkpt>
      <trkpt lat="43.33802" lon="5.24657">
        <ele>184</ele>
        <time>2016-03-10T13:53:37Z</time>
      </trkpt>
      <trkpt lat="43.33801" lon="5.24657">
        <ele>184</ele>
        <time>2016-03-10T13:53:38Z</time>
      </trkpt>
      <trkpt lat="43.33799" lon="5.24657">
        <ele>184</ele>
        <time>2016-03-10T13:53:39Z</time>
      </trkpt>
      <trkpt lat="43.33798" lon="5.24657">
        <ele>184</ele>
        <time>2016-03-10T13:53:40Z</time>
      </trkpt>
      <trkpt lat="43.33796" lon="5.24657">
        <ele>184</ele>
        <time>2016-03-10T13:53:41Z</time>
      </trkpt>
      <trkpt lat="43.33795" lon="5.24657">
        <ele>183</ele>
        <time>2016-03-10T13:53:42Z</time>
      </trkpt>
      <trkpt lat="43.33794" lon="5.24658">
        <ele>183</ele>
        <time>2016-03-10T13:53:43Z</time>
      </trkpt>
      <trkpt lat="43.33792" lon="5.24658">
        <ele>183</ele>
        <time>2016-03-10T13:53:44Z</time>
      </trkpt>
      <trkpt lat="43.33791" lon="5.24658">
        <ele>183</ele>
        <time>2016-03-10T13:53:45Z</time>
      </trkpt>
      <trkpt lat="43.3379" lon="5.24658">
        <ele>183</ele>
        <time>2016-03-10T13:53:46Z</time>
      </trkpt>
      <trkpt lat="43.33789" lon="5.24658">
        <ele>183</ele>
        <time>2016-03-10T13:53:47Z</time>
      </trkpt>
      <trkpt lat="43.33787" lon="5.24658">
        <ele>183</ele>
        <time>2016-03-10T13:53:48Z</time>
      </trkpt>
      <trkpt lat="43.33786" lon="5.24659">
        <ele>183</ele>
        <time>2016-03-10T13:53:49Z</time>
      </trkpt>
      <trkpt lat="43.33785" lon="5.24659">
        <ele>183</ele>
        <time>2016-03-10T13:53:50Z</time>
      </trkpt>
      <trkpt lat="43.33783" lon="5.2466">
        <ele>183</ele>
        <time>2016-03-10T13:53:51Z</time>
      </trkpt>
      <trkpt lat="43.33782" lon="5.2466">
        <ele>183</ele>
        <time>2016-03-10T13:53:52Z</time>
      </trkpt>
      <trkpt lat="43.33781" lon="5.2466">
        <ele>183</ele>
        <time>2016-03-10T13:53:53Z</time>
      </trkpt>
      <trkpt lat="43.3378" lon="5.24661">
        <ele>183</ele>
        <time>2016-03-10T13:53:54Z</time>
      </trkpt>
      <trkpt lat="43.33778" lon="5.24661">
        <ele>183</ele>
        <time>2016-03-10T13:53:55Z</time>
      </trkpt>
      <trkpt lat="43.33777" lon="5.24662">
        <ele>183</ele>
        <time>2016-03-10T13:53:56Z</time>
      </trkpt>
      <trkpt lat="43.33776" lon="5.24662">
        <ele>183</ele>
        <time>2016-03-10T13:53:57Z</time>
      </trkpt>
      <trkpt lat="43.33775" lon="5.24663">
        <ele>183</ele>
        <time>2016-03-10T13:53:58Z</time>
      </trkpt>
      <trkpt lat="43.33774" lon="5.24663">
        <ele>183</ele>
        <time>2016-03-10T13:53:59Z</time>
      </trkpt>
      <trkpt lat="43.33773" lon="5.24664">
        <ele>183</ele>
        <time>2016-03-10T13:54:00Z</time>
      </trkpt>
      <trkpt lat="43.33771" lon="5.24664">
        <ele>183</ele>
        <time>2016-03-10T13:54:01Z</time>
      </trkpt>
      <trkpt lat="43.3377" lon="5.24665">
        <ele>183</ele>
        <time>2016-03-10T13:54:02Z</time>
      </trkpt>
      <trkpt lat="43.33769" lon="5.24666">
        <ele>183</ele>
        <time>2016-03-10T13:54:03Z</time>
      </trkpt>
      <trkpt lat="43.33768" lon="5.24667">
        <ele>182</ele>
        <time>2016-03-10T13:54:04Z</time>
      </trkpt>
      <trkpt lat="43.33766" lon="5.24669">
        <ele>182</ele>
        <time>2016-03-10T13:54:06Z</time>
      </trkpt>
      <trkpt lat="43.33767" lon="5.24671">
        <ele>182</ele>
        <time>2016-03-10T13:54:08Z</time>
      </trkpt>
      <trkpt lat="43.33768" lon="5.24673">
        <ele>182</ele>
        <time>2016-03-10T13:54:10Z</time>
      </trkpt>
      <trkpt lat="43.3377" lon="5.24674">
        <ele>182</ele>
        <time>2016-03-10T13:54:12Z</time>
      </trkpt>
      <trkpt lat="43.33771" lon="5.24674">
        <ele>182</ele>
        <time>2016-03-10T13:54:13Z</time>
      </trkpt>
      <trkpt lat="43.33773" lon="5.24674">
        <ele>182</ele>
        <time>2016-03-10T13:54:14Z</time>
      </trkpt>
      <trkpt lat="43.33775" lon="5.24673">
        <ele>182</ele>
        <time>2016-03-10T13:54:16Z</time>
      </trkpt>
      <trkpt lat="43.33776" lon="5.24673">
        <ele>182</ele>
        <time>2016-03-10T13:54:17Z</time>
      </trkpt>
      <trkpt lat="43.33777" lon="5.24672">
        <ele>182</ele>
        <time>2016-03-10T13:54:18Z</time>
      </trkpt>
      <trkpt lat="43.33778" lon="5.24672">
        <ele>181</ele>
        <time>2016-03-10T13:54:19Z</time>
      </trkpt>
      <trkpt lat="43.3378" lon="5.24671">
        <ele>181</ele>
        <time>2016-03-10T13:54:20Z</time>
      </trkpt>
      <trkpt lat="43.33781" lon="5.24671">
        <ele>181</ele>
        <time>2016-03-10T13:54:21Z</time>
      </trkpt>
      <trkpt lat="43.33782" lon="5.24671">
        <ele>181</ele>
        <time>2016-03-10T13:54:22Z</time>
      </trkpt>
      <trkpt lat="43.33783" lon="5.24671">
        <ele>181</ele>
        <time>2016-03-10T13:54:23Z</time>
      </trkpt>
      <trkpt lat="43.33785" lon="5.24671">
        <ele>181</ele>
        <time>2016-03-10T13:54:24Z</time>
      </trkpt>
      <trkpt lat="43.33786" lon="5.24671">
        <ele>181</ele>
        <time>2016-03-10T13:54:25Z</time>
      </trkpt>
      <trkpt lat="43.33788" lon="5.24671">
        <ele>181</ele>
        <time>2016-03-10T13:54:26Z</time>
      </trkpt>
      <trkpt lat="43.33789" lon="5.24671">
        <ele>181</ele>
        <time>2016-03-10T13:54:27Z</time>
      </trkpt>
      <trkpt lat="43.3379" lon="5.24672">
        <ele>180</ele>
        <time>2016-03-10T13:54:28Z</time>
      </trkpt>
      <trkpt lat="43.33791" lon="5.24672">
        <ele>180</ele>
        <time>2016-03-10T13:54:29Z</time>
      </trkpt>
      <trkpt lat="43.33793" lon="5.24672">
        <ele>180</ele>
        <time>2016-03-10T13:54:30Z</time>
      </trkpt>
      <trkpt lat="43.33794" lon="5.24672">
        <ele>180</ele>
        <time>2016-03-10T13:54:31Z</time>
      </trkpt>
      <trkpt lat="43.33795" lon="5.24673">
        <ele>179</ele>
        <time>2016-03-10T13:54:32Z</time>
      </trkpt>
      <trkpt lat="43.33796" lon="5.24673">
        <ele>179</ele>
        <time>2016-03-10T13:54:33Z</time>
      </trkpt>
      <trkpt lat="43.33798" lon="5.24674">
        <ele>179</ele>
        <time>2016-03-10T13:54:34Z</time>
      </trkpt>
      <trkpt lat="43.33799" lon="5.24674">
        <ele>179</ele>
        <time>2016-03-10T13:54:35Z</time>
      </trkpt>
      <trkpt lat="43.338" lon="5.24675">
        <ele>179</ele>
        <time>2016-03-10T13:54:36Z</time>
      </trkpt>
      <trkpt lat="43.33801" lon="5.24675">
        <ele>179</ele>
        <time>2016-03-10T13:54:37Z</time>
      </trkpt>
      <trkpt lat="43.33802" lon="5.24676">
        <ele>178</ele>
        <time>2016-03-10T13:54:38Z</time>
      </trkpt>
      <trkpt lat="43.33804" lon="5.24677">
        <ele>178</ele>
        <time>2016-03-10T13:54:39Z</time>
      </trkpt>
      <trkpt lat="43.33805" lon="5.24677">
        <ele>178</ele>
        <time>2016-03-10T13:54:40Z</time>
      </trkpt>
      <trkpt lat="43.33806" lon="5.24678">
        <ele>178</ele>
        <time>2016-03-10T13:54:41Z</time>
      </trkpt>
      <trkpt lat="43.33807" lon="5.24678">
        <ele>177</ele>
        <time>2016-03-10T13:54:42Z</time>
      </trkpt>
      <trkpt lat="43.33809" lon="5.24679">
        <ele>177</ele>
        <time>2016-03-10T13:54:43Z</time>
      </trkpt>
      <trkpt lat="43.3381" lon="5.24679">
        <ele>177</ele>
        <time>2016-03-10T13:54:44Z</time>
      </trkpt>
      <trkpt lat="43.33812" lon="5.2468">
        <ele>177</ele>
        <time>2016-03-10T13:54:45Z</time>
      </trkpt>
      <trkpt lat="43.33813" lon="5.2468">
        <ele>177</ele>
        <time>2016-03-10T13:54:46Z</time>
      </trkpt>
      <trkpt lat="43.33814" lon="5.24681">
        <ele>177</ele>
        <time>2016-03-10T13:54:47Z</time>
      </trkpt>
      <trkpt lat="43.33816" lon="5.24681">
        <ele>177</ele>
        <time>2016-03-10T13:54:48Z</time>
      </trkpt>
      <trkpt lat="43.33817" lon="5.24682">
        <ele>176</ele>
        <time>2016-03-10T13:54:49Z</time>
      </trkpt>
      <trkpt lat="43.33818" lon="5.24682">
        <ele>176</ele>
        <time>2016-03-10T13:54:50Z</time>
      </trkpt>
      <trkpt lat="43.3382" lon="5.24682">
        <ele>176</ele>
        <time>2016-03-10T13:54:51Z</time>
      </trkpt>
      <trkpt lat="43.33821" lon="5.24683">
        <ele>176</ele>
        <time>2016-03-10T13:54:52Z</time>
      </trkpt>
      <trkpt lat="43.33823" lon="5.24683">
        <ele>176</ele>
        <time>2016-03-10T13:54:53Z</time>
      </trkpt>
      <trkpt lat="43.33824" lon="5.24683">
        <ele>176</ele>
        <time>2016-03-10T13:54:54Z</time>
      </trkpt>
      <trkpt lat="43.33825" lon="5.24683">
        <ele>176</ele>
        <time>2016-03-10T13:54:55Z</time>
      </trkpt>
      <trkpt lat="43.33827" lon="5.24684">
        <ele>175</ele>
        <time>2016-03-10T13:54:56Z</time>
      </trkpt>
      <trkpt lat="43.33828" lon="5.24684">
        <ele>175</ele>
        <time>2016-03-10T13:54:57Z</time>
      </trkpt>
      <trkpt lat="43.33829" lon="5.24684">
        <ele>175</ele>
        <time>2016-03-10T13:54:58Z</time>
      </trkpt>
      <trkpt lat="43.33831" lon="5.24684">
        <ele>175</ele>
        <time>2016-03-10T13:54:59Z</time>
      </trkpt>
      <trkpt lat="43.33832" lon="5.24684">
        <ele>175</ele>
        <time>2016-03-10T13:55:00Z</time>
      </trkpt>
      <trkpt lat="43.33833" lon="5.24684">
        <ele>175</ele>
        <time>2016-03-10T13:55:01Z</time>
      </trkpt>
      <trkpt lat="43.33835" lon="5.24684">
        <ele>175</ele>
        <time>2016-03-10T13:55:02Z</time>
      </trkpt>
      <trkpt lat="43.33836" lon="5.24685">
        <ele>174</ele>
        <time>2016-03-10T13:55:03Z</time>
      </trkpt>
      <trkpt lat="43.33837" lon="5.24685">
        <ele>174</ele>
        <time>2016-03-10T13:55:04Z</time>
      </trkpt>
      <trkpt lat="43.33839" lon="5.24685">
        <ele>174</ele>
        <time>2016-03-10T13:55:05Z</time>
      </trkpt>
      <trkpt lat="43.3384" lon="5.24685">
        <ele>174</ele>
        <time>2016-03-10T13:55:06Z</time>
      </trkpt>
      <trkpt lat="43.33842" lon="5.24686">
        <ele>174</ele>
        <time>2016-03-10T13:55:07Z</time>
      </trkpt>
      <trkpt lat="43.33843" lon="5.24686">
        <ele>174</ele>
        <time>2016-03-10T13:55:08Z</time>
      </trkpt>
      <trkpt lat="43.33844" lon="5.24686">
        <ele>173</ele>
        <time>2016-03-10T13:55:09Z</time>
      </trkpt>
      <trkpt lat="43.33846" lon="5.24686">
        <ele>173</ele>
        <time>2016-03-10T13:55:10Z</time>
      </trkpt>
      <trkpt lat="43.33847" lon="5.24687">
        <ele>173</ele>
        <time>2016-03-10T13:55:11Z</time>
      </trkpt>
      <trkpt lat="43.33849" lon="5.24687">
        <ele>173</ele>
        <time>2016-03-10T13:55:12Z</time>
      </trkpt>
      <trkpt lat="43.3385" lon="5.24688">
        <ele>172</ele>
        <time>2016-03-10T13:55:14Z</time>
      </trkpt>
      <trkpt lat="43.33851" lon="5.24688">
        <ele>172</ele>
        <time>2016-03-10T13:55:14Z</time>
      </trkpt>
      <trkpt lat="43.33852" lon="5.24688">
        <ele>172</ele>
        <time>2016-03-10T13:55:15Z</time>
      </trkpt>
      <trkpt lat="43.33854" lon="5.24689">
        <ele>171</ele>
        <time>2016-03-10T13:55:16Z</time>
      </trkpt>
      <trkpt lat="43.33855" lon="5.24689">
        <ele>171</ele>
        <time>2016-03-10T13:55:17Z</time>
      </trkpt>
      <trkpt lat="43.33856" lon="5.2469">
        <ele>171</ele>
        <time>2016-03-10T13:55:18Z</time>
      </trkpt>
      <trkpt lat="43.33857" lon="5.24691">
        <ele>171</ele>
        <time>2016-03-10T13:55:19Z</time>
      </trkpt>
      <trkpt lat="43.33859" lon="5.24692">
        <ele>170</ele>
        <time>2016-03-10T13:55:20Z</time>
      </trkpt>
      <trkpt lat="43.3386" lon="5.24692">
        <ele>170</ele>
        <time>2016-03-10T13:55:21Z</time>
      </trkpt>
      <trkpt lat="43.33861" lon="5.24693">
        <ele>170</ele>
        <time>2016-03-10T13:55:22Z</time>
      </trkpt>
      <trkpt lat="43.33863" lon="5.24694">
        <ele>170</ele>
        <time>2016-03-10T13:55:23Z</time>
      </trkpt>
      <trkpt lat="43.33864" lon="5.24695">
        <ele>169</ele>
        <time>2016-03-10T13:55:24Z</time>
      </trkpt>
      <trkpt lat="43.33865" lon="5.24695">
        <ele>169</ele>
        <time>2016-03-10T13:55:25Z</time>
      </trkpt>
      <trkpt lat="43.33867" lon="5.24696">
        <ele>169</ele>
        <time>2016-03-10T13:55:26Z</time>
      </trkpt>
      <trkpt lat="43.33868" lon="5.24697">
        <ele>169</ele>
        <time>2016-03-10T13:55:27Z</time>
      </trkpt>
      <trkpt lat="43.33869" lon="5.24698">
        <ele>169</ele>
        <time>2016-03-10T13:55:28Z</time>
      </trkpt>
      <trkpt lat="43.33871" lon="5.24699">
        <ele>168</ele>
        <time>2016-03-10T13:55:29Z</time>
      </trkpt>
      <trkpt lat="43.33872" lon="5.24699">
        <ele>168</ele>
        <time>2016-03-10T13:55:30Z</time>
      </trkpt>
      <trkpt lat="43.33873" lon="5.247">
        <ele>168</ele>
        <time>2016-03-10T13:55:31Z</time>
      </trkpt>
      <trkpt lat="43.33875" lon="5.24701">
        <ele>168</ele>
        <time>2016-03-10T13:55:32Z</time>
      </trkpt>
      <trkpt lat="43.33876" lon="5.24702">
        <ele>168</ele>
        <time>2016-03-10T13:55:33Z</time>
      </trkpt>
      <trkpt lat="43.33877" lon="5.24702">
        <ele>168</ele>
        <time>2016-03-10T13:55:34Z</time>
      </trkpt>
      <trkpt lat="43.33879" lon="5.24703">
        <ele>168</ele>
        <time>2016-03-10T13:55:35Z</time>
      </trkpt>
      <trkpt lat="43.3388" lon="5.24703">
        <ele>167</ele>
        <time>2016-03-10T13:55:36Z</time>
      </trkpt>
      <trkpt lat="43.33881" lon="5.24704">
        <ele>167</ele>
        <time>2016-03-10T13:55:37Z</time>
      </trkpt>
      <trkpt lat="43.33883" lon="5.24704">
        <ele>167</ele>
        <time>2016-03-10T13:55:38Z</time>
      </trkpt>
      <trkpt lat="43.33884" lon="5.24703">
        <ele>167</ele>
        <time>2016-03-10T13:55:39Z</time>
      </trkpt>
      <trkpt lat="43.33886" lon="5.24703">
        <ele>167</ele>
        <time>2016-03-10T13:55:40Z</time>
      </trkpt>
      <trkpt lat="43.33887" lon="5.24703">
        <ele>167</ele>
        <time>2016-03-10T13:55:41Z</time>
      </trkpt>
      <trkpt lat="43.33889" lon="5.24702">
        <ele>167</ele>
        <time>2016-03-10T13:55:42Z</time>
      </trkpt>
      <trkpt lat="43.3389" lon="5.24701">
        <ele>167</ele>
        <time>2016-03-10T13:55:43Z</time>
      </trkpt>
      <trkpt lat="43.33891" lon="5.247">
        <ele>167</ele>
        <time>2016-03-10T13:55:44Z</time>
      </trkpt>
      <trkpt lat="43.33892" lon="5.24698">
        <ele>167</ele>
        <time>2016-03-10T13:55:45Z</time>
      </trkpt>
      <trkpt lat="43.33892" lon="5.24697">
        <ele>166</ele>
        <time>2016-03-10T13:55:46Z</time>
      </trkpt>
      <trkpt lat="43.33893" lon="5.24695">
        <ele>166</ele>
        <time>2016-03-10T13:55:47Z</time>
      </trkpt>
      <trkpt lat="43.33894" lon="5.24693">
        <ele>166</ele>
        <time>2016-03-10T13:55:48Z</time>
      </trkpt>
      <trkpt lat="43.33894" lon="5.24691">
        <ele>166</ele>
        <time>2016-03-10T13:55:49Z</time>
      </trkpt>
      <trkpt lat="43.33894" lon="5.24689">
        <ele>166</ele>
        <time>2016-03-10T13:55:50Z</time>
      </trkpt>
      <trkpt lat="43.33894" lon="5.24687">
        <ele>166</ele>
        <time>2016-03-10T13:55:51Z</time>
      </trkpt>
      <trkpt lat="43.33895" lon="5.24685">
        <ele>166</ele>
        <time>2016-03-10T13:55:52Z</time>
      </trkpt>
      <trkpt lat="43.33895" lon="5.24683">
        <ele>166</ele>
        <time>2016-03-10T13:55:53Z</time>
      </trkpt>
      <trkpt lat="43.33895" lon="5.24682">
        <ele>166</ele>
        <time>2016-03-10T13:55:54Z</time>
      </trkpt>
      <trkpt lat="43.33896" lon="5.2468">
        <ele>166</ele>
        <time>2016-03-10T13:55:55Z</time>
      </trkpt>
      <trkpt lat="43.33896" lon="5.24678">
        <ele>166</ele>
        <time>2016-03-10T13:55:56Z</time>
      </trkpt>
      <trkpt lat="43.33897" lon="5.24676">
        <ele>166</ele>
        <time>2016-03-10T13:55:57Z</time>
      </trkpt>
      <trkpt lat="43.33897" lon="5.24674">
        <ele>166</ele>
        <time>2016-03-10T13:55:58Z</time>
      </trkpt>
      <trkpt lat="43.33898" lon="5.24673">
        <ele>166</ele>
        <time>2016-03-10T13:55:59Z</time>
      </trkpt>
      <trkpt lat="43.33898" lon="5.24671">
        <ele>166</ele>
        <time>2016-03-10T13:56:00Z</time>
      </trkpt>
      <trkpt lat="43.33899" lon="5.2467">
        <ele>166</ele>
        <time>2016-03-10T13:56:01Z</time>
      </trkpt>
      <trkpt lat="43.33899" lon="5.24668">
        <ele>166</ele>
        <time>2016-03-10T13:56:02Z</time>
      </trkpt>
      <trkpt lat="43.33899" lon="5.24666">
        <ele>166</ele>
        <time>2016-03-10T13:56:03Z</time>
      </trkpt>
      <trkpt lat="43.339" lon="5.24664">
        <ele>166</ele>
        <time>2016-03-10T13:56:04Z</time>
      </trkpt>
      <trkpt lat="43.339" lon="5.24662">
        <ele>166</ele>
        <time>2016-03-10T13:56:05Z</time>
      </trkpt>
      <trkpt lat="43.339" lon="5.24661">
        <ele>166</ele>
        <time>2016-03-10T13:56:06Z</time>
      </trkpt>
      <trkpt lat="43.33901" lon="5.24659">
        <ele>165</ele>
        <time>2016-03-10T13:56:07Z</time>
      </trkpt>
      <trkpt lat="43.33901" lon="5.24657">
        <ele>165</ele>
        <time>2016-03-10T13:56:08Z</time>
      </trkpt>
      <trkpt lat="43.33902" lon="5.24655">
        <ele>165</ele>
        <time>2016-03-10T13:56:09Z</time>
      </trkpt>
      <trkpt lat="43.33902" lon="5.24654">
        <ele>165</ele>
        <time>2016-03-10T13:56:10Z</time>
      </trkpt>
      <trkpt lat="43.33903" lon="5.24652">
        <ele>165</ele>
        <time>2016-03-10T13:56:11Z</time>
      </trkpt>
      <trkpt lat="43.33903" lon="5.2465">
        <ele>165</ele>
        <time>2016-03-10T13:56:12Z</time>
      </trkpt>
      <trkpt lat="43.33904" lon="5.24648">
        <ele>165</ele>
        <time>2016-03-10T13:56:13Z</time>
      </trkpt>
      <trkpt lat="43.33904" lon="5.24647">
        <ele>165</ele>
        <time>2016-03-10T13:56:14Z</time>
      </trkpt>
      <trkpt lat="43.33905" lon="5.24645">
        <ele>165</ele>
        <time>2016-03-10T13:56:15Z</time>
      </trkpt>
      <trkpt lat="43.33905" lon="5.24643">
        <ele>165</ele>
        <time>2016-03-10T13:56:16Z</time>
      </trkpt>
      <trkpt lat="43.33905" lon="5.24641">
        <ele>165</ele>
        <time>2016-03-10T13:56:17Z</time>
      </trkpt>
      <trkpt lat="43.33906" lon="5.24639">
        <ele>165</ele>
        <time>2016-03-10T13:56:18Z</time>
      </trkpt>
      <trkpt lat="43.33906" lon="5.24637">
        <ele>165</ele>
        <time>2016-03-10T13:56:19Z</time>
      </trkpt>
      <trkpt lat="43.33907" lon="5.24635">
        <ele>165</ele>
        <time>2016-03-10T13:56:20Z</time>
      </trkpt>
      <trkpt lat="43.33907" lon="5.24633">
        <ele>165</ele>
        <time>2016-03-10T13:56:21Z</time>
      </trkpt>
      <trkpt lat="43.33907" lon="5.24631">
        <ele>165</ele>
        <time>2016-03-10T13:56:22Z</time>
      </trkpt>
      <trkpt lat="43.33907" lon="5.24629">
        <ele>165</ele>
        <time>2016-03-10T13:56:23Z</time>
      </trkpt>
      <trkpt lat="43.33907" lon="5.24627">
        <ele>165</ele>
        <time>2016-03-10T13:56:24Z</time>
      </trkpt>
      <trkpt lat="43.33907" lon="5.24625">
        <ele>164</ele>
        <time>2016-03-10T13:56:25Z</time>
      </trkpt>
      <trkpt lat="43.33907" lon="5.24623">
        <ele>164</ele>
        <time>2016-03-10T13:56:26Z</time>
      </trkpt>
      <trkpt lat="43.33907" lon="5.24621">
        <ele>164</ele>
        <time>2016-03-10T13:56:27Z</time>
      </trkpt>
      <trkpt lat="43.33907" lon="5.24619">
        <ele>164</ele>
        <time>2016-03-10T13:56:28Z</time>
      </trkpt>
      <trkpt lat="43.33907" lon="5.24617">
        <ele>164</ele>
        <time>2016-03-10T13:56:29Z</time>
      </trkpt>
      <trkpt lat="43.33907" lon="5.24615">
        <ele>163</ele>
        <time>2016-03-10T13:56:30Z</time>
      </trkpt>
      <trkpt lat="43.33907" lon="5.24613">
        <ele>163</ele>
        <time>2016-03-10T13:56:31Z</time>
      </trkpt>
      <trkpt lat="43.33907" lon="5.24611">
        <ele>163</ele>
        <time>2016-03-10T13:56:32Z</time>
      </trkpt>
      <trkpt lat="43.33907" lon="5.24608">
        <ele>163</ele>
        <time>2016-03-10T13:56:33Z</time>
      </trkpt>
      <trkpt lat="43.33907" lon="5.24606">
        <ele>163</ele>
        <time>2016-03-10T13:56:34Z</time>
      </trkpt>
      <trkpt lat="43.33907" lon="5.24604">
        <ele>163</ele>
        <time>2016-03-10T13:56:35Z</time>
      </trkpt>
      <trkpt lat="43.33906" lon="5.24602">
        <ele>163</ele>
        <time>2016-03-10T13:56:36Z</time>
      </trkpt>
      <trkpt lat="43.33906" lon="5.246">
        <ele>163</ele>
        <time>2016-03-10T13:56:37Z</time>
      </trkpt>
      <trkpt lat="43.33905" lon="5.24598">
        <ele>163</ele>
        <time>2016-03-10T13:56:38Z</time>
      </trkpt>
      <trkpt lat="43.33905" lon="5.24595">
        <ele>163</ele>
        <time>2016-03-10T13:56:39Z</time>
      </trkpt>
      <trkpt lat="43.33905" lon="5.24593">
        <ele>162</ele>
        <time>2016-03-10T13:56:40Z</time>
      </trkpt>
      <trkpt lat="43.33905" lon="5.24591">
        <ele>162</ele>
        <time>2016-03-10T13:56:41Z</time>
      </trkpt>
      <trkpt lat="43.33905" lon="5.24589">
        <ele>162</ele>
        <time>2016-03-10T13:56:42Z</time>
      </trkpt>
      <trkpt lat="43.33905" lon="5.24587">
        <ele>162</ele>
        <time>2016-03-10T13:56:43Z</time>
      </trkpt>
      <trkpt lat="43.33905" lon="5.24585">
        <ele>162</ele>
        <time>2016-03-10T13:56:44Z</time>
      </trkpt>
      <trkpt lat="43.33906" lon="5.24583">
        <ele>162</ele>
        <time>2016-03-10T13:56:45Z</time>
      </trkpt>
      <trkpt lat="43.33905" lon="5.24581">
        <ele>162</ele>
        <time>2016-03-10T13:56:46Z</time>
      </trkpt>
      <trkpt lat="43.33905" lon="5.24579">
        <ele>162</ele>
        <time>2016-03-10T13:56:47Z</time>
      </trkpt>
      <trkpt lat="43.33906" lon="5.24577">
        <ele>162</ele>
        <time>2016-03-10T13:56:48Z</time>
      </trkpt>
      <trkpt lat="43.33906" lon="5.24575">
        <ele>162</ele>
        <time>2016-03-10T13:56:49Z</time>
      </trkpt>
      <trkpt lat="43.33906" lon="5.24574">
        <ele>162</ele>
        <time>2016-03-10T13:56:50Z</time>
      </trkpt>
      <trkpt lat="43.33906" lon="5.24571">
        <ele>162</ele>
        <time>2016-03-10T13:56:51Z</time>
      </trkpt>
      <trkpt lat="43.33906" lon="5.2457">
        <ele>162</ele>
        <time>2016-03-10T13:56:52Z</time>
      </trkpt>
      <trkpt lat="43.33907" lon="5.24568">
        <ele>162</ele>
        <time>2016-03-10T13:56:53Z</time>
      </trkpt>
      <trkpt lat="43.33907" lon="5.24566">
        <ele>162</ele>
        <time>2016-03-10T13:56:54Z</time>
      </trkpt>
      <trkpt lat="43.33907" lon="5.24563">
        <ele>162</ele>
        <time>2016-03-10T13:56:55Z</time>
      </trkpt>
      <trkpt lat="43.33907" lon="5.24562">
        <ele>162</ele>
        <time>2016-03-10T13:56:56Z</time>
      </trkpt>
      <trkpt lat="43.33907" lon="5.24559">
        <ele>162</ele>
        <time>2016-03-10T13:56:57Z</time>
      </trkpt>
      <trkpt lat="43.33908" lon="5.24558">
        <ele>162</ele>
        <time>2016-03-10T13:56:58Z</time>
      </trkpt>
      <trkpt lat="43.33908" lon="5.24556">
        <ele>162</ele>
        <time>2016-03-10T13:56:59Z</time>
      </trkpt>
      <trkpt lat="43.33908" lon="5.24553">
        <ele>162</ele>
        <time>2016-03-10T13:57:00Z</time>
      </trkpt>
      <trkpt lat="43.33908" lon="5.24551">
        <ele>162</ele>
        <time>2016-03-10T13:57:01Z</time>
      </trkpt>
      <trkpt lat="43.33908" lon="5.24549">
        <ele>162</ele>
        <time>2016-03-10T13:57:02Z</time>
      </trkpt>
      <trkpt lat="43.33909" lon="5.24547">
        <ele>162</ele>
        <time>2016-03-10T13:57:03Z</time>
      </trkpt>
      <trkpt lat="43.33909" lon="5.24545">
        <ele>162</ele>
        <time>2016-03-10T13:57:04Z</time>
      </trkpt>
      <trkpt lat="43.33909" lon="5.24543">
        <ele>162</ele>
        <time>2016-03-10T13:57:05Z</time>
      </trkpt>
      <trkpt lat="43.33909" lon="5.24541">
        <ele>162</ele>
        <time>2016-03-10T13:57:06Z</time>
      </trkpt>
      <trkpt lat="43.33909" lon="5.24539">
        <ele>162</ele>
        <time>2016-03-10T13:57:07Z</time>
      </trkpt>
      <trkpt lat="43.3391" lon="5.24537">
        <ele>162</ele>
        <time>2016-03-10T13:57:08Z</time>
      </trkpt>
      <trkpt lat="43.3391" lon="5.24535">
        <ele>162</ele>
        <time>2016-03-10T13:57:09Z</time>
      </trkpt>
      <trkpt lat="43.3391" lon="5.24532">
        <ele>162</ele>
        <time>2016-03-10T13:57:10Z</time>
      </trkpt>
      <trkpt lat="43.3391" lon="5.2453">
        <ele>162</ele>
        <time>2016-03-10T13:57:11Z</time>
      </trkpt>
      <trkpt lat="43.3391" lon="5.24528">
        <ele>162</ele>
        <time>2016-03-10T13:57:12Z</time>
      </trkpt>
      <trkpt lat="43.3391" lon="5.24526">
        <ele>162</ele>
        <time>2016-03-10T13:57:13Z</time>
      </trkpt>
      <trkpt lat="43.3391" lon="5.24524">
        <ele>162</ele>
        <time>2016-03-10T13:57:14Z</time>
      </trkpt>
      <trkpt lat="43.3391" lon="5.24522">
        <ele>162</ele>
        <time>2016-03-10T13:57:15Z</time>
      </trkpt>
      <trkpt lat="43.3391" lon="5.2452">
        <ele>162</ele>
        <time>2016-03-10T13:57:16Z</time>
      </trkpt>
      <trkpt lat="43.33911" lon="5.24518">
        <ele>162</ele>
        <time>2016-03-10T13:57:17Z</time>
      </trkpt>
      <trkpt lat="43.33912" lon="5.24516">
        <ele>162</ele>
        <time>2016-03-10T13:57:18Z</time>
      </trkpt>
      <trkpt lat="43.33913" lon="5.24515">
        <ele>162</ele>
        <time>2016-03-10T13:57:19Z</time>
      </trkpt>
      <trkpt lat="43.33914" lon="5.24513">
        <ele>162</ele>
        <time>2016-03-10T13:57:20Z</time>
      </trkpt>
      <trkpt lat="43.33915" lon="5.24512">
        <ele>161</ele>
        <time>2016-03-10T13:57:21Z</time>
      </trkpt>
      <trkpt lat="43.33916" lon="5.24511">
        <ele>161</ele>
        <time>2016-03-10T13:57:22Z</time>
      </trkpt>
      <trkpt lat="43.33918" lon="5.24509">
        <ele>161</ele>
        <time>2016-03-10T13:57:23Z</time>
      </trkpt>
      <trkpt lat="43.33919" lon="5.24508">
        <ele>161</ele>
        <time>2016-03-10T13:57:24Z</time>
      </trkpt>
      <trkpt lat="43.3392" lon="5.24507">
        <ele>161</ele>
        <time>2016-03-10T13:57:25Z</time>
      </trkpt>
      <trkpt lat="43.33921" lon="5.24505">
        <ele>161</ele>
        <time>2016-03-10T13:57:26Z</time>
      </trkpt>
      <trkpt lat="43.33922" lon="5.24504">
        <ele>161</ele>
        <time>2016-03-10T13:57:27Z</time>
      </trkpt>
      <trkpt lat="43.33923" lon="5.24503">
        <ele>161</ele>
        <time>2016-03-10T13:57:28Z</time>
      </trkpt>
      <trkpt lat="43.33925" lon="5.245">
        <ele>160</ele>
        <time>2016-03-10T13:57:30Z</time>
      </trkpt>
      <trkpt lat="43.33927" lon="5.24499">
        <ele>160</ele>
        <time>2016-03-10T13:57:31Z</time>
      </trkpt>
      <trkpt lat="43.33928" lon="5.24498">
        <ele>160</ele>
        <time>2016-03-10T13:57:32Z</time>
      </trkpt>
      <trkpt lat="43.33929" lon="5.24497">
        <ele>160</ele>
        <time>2016-03-10T13:57:33Z</time>
      </trkpt>
      <trkpt lat="43.33931" lon="5.24496">
        <ele>160</ele>
        <time>2016-03-10T13:57:34Z</time>
      </trkpt>
      <trkpt lat="43.33932" lon="5.24495">
        <ele>159</ele>
        <time>2016-03-10T13:57:35Z</time>
      </trkpt>
      <trkpt lat="43.33933" lon="5.24494">
        <ele>159</ele>
        <time>2016-03-10T13:57:36Z</time>
      </trkpt>
      <trkpt lat="43.33934" lon="5.24493">
        <ele>159</ele>
        <time>2016-03-10T13:57:37Z</time>
      </trkpt>
      <trkpt lat="43.33936" lon="5.24492">
        <ele>159</ele>
        <time>2016-03-10T13:57:38Z</time>
      </trkpt>
      <trkpt lat="43.33937" lon="5.24491">
        <ele>159</ele>
        <time>2016-03-10T13:57:39Z</time>
      </trkpt>
      <trkpt lat="43.33939" lon="5.24489">
        <ele>159</ele>
        <time>2016-03-10T13:57:40Z</time>
      </trkpt>
      <trkpt lat="43.3394" lon="5.24488">
        <ele>159</ele>
        <time>2016-03-10T13:57:41Z</time>
      </trkpt>
      <trkpt lat="43.33942" lon="5.24487">
        <ele>159</ele>
        <time>2016-03-10T13:57:42Z</time>
      </trkpt>
      <trkpt lat="43.33943" lon="5.24486">
        <ele>159</ele>
        <time>2016-03-10T13:57:43Z</time>
      </trkpt>
      <trkpt lat="43.33944" lon="5.24485">
        <ele>159</ele>
        <time>2016-03-10T13:57:44Z</time>
      </trkpt>
      <trkpt lat="43.33946" lon="5.24484">
        <ele>159</ele>
        <time>2016-03-10T13:57:45Z</time>
      </trkpt>
      <trkpt lat="43.33947" lon="5.24483">
        <ele>159</ele>
        <time>2016-03-10T13:57:46Z</time>
      </trkpt>
      <trkpt lat="43.33948" lon="5.24482">
        <ele>159</ele>
        <time>2016-03-10T13:57:47Z</time>
      </trkpt>
      <trkpt lat="43.3395" lon="5.2448">
        <ele>159</ele>
        <time>2016-03-10T13:57:49Z</time>
      </trkpt>
      <trkpt lat="43.33953" lon="5.24477">
        <ele>159</ele>
        <time>2016-03-10T13:57:51Z</time>
      </trkpt>
      <trkpt lat="43.33955" lon="5.24475">
        <ele>159</ele>
        <time>2016-03-10T13:57:53Z</time>
      </trkpt>
      <trkpt lat="43.33957" lon="5.24473">
        <ele>159</ele>
        <time>2016-03-10T13:57:55Z</time>
      </trkpt>
      <trkpt lat="43.33959" lon="5.2447">
        <ele>159</ele>
        <time>2016-03-10T13:57:57Z</time>
      </trkpt>
      <trkpt lat="43.3396" lon="5.24469">
        <ele>159</ele>
        <time>2016-03-10T13:57:58Z</time>
      </trkpt>
      <trkpt lat="43.33961" lon="5.24468">
        <ele>159</ele>
        <time>2016-03-10T13:57:59Z</time>
      </trkpt>
      <trkpt lat="43.33962" lon="5.24466">
        <ele>159</ele>
        <time>2016-03-10T13:58:00Z</time>
      </trkpt>
      <trkpt lat="43.33963" lon="5.24465">
        <ele>159</ele>
        <time>2016-03-10T13:58:01Z</time>
      </trkpt>
      <trkpt lat="43.33965" lon="5.24462">
        <ele>159</ele>
        <time>2016-03-10T13:58:03Z</time>
      </trkpt>
      <trkpt lat="43.33967" lon="5.2446">
        <ele>159</ele>
        <time>2016-03-10T13:58:05Z</time>
      </trkpt>
      <trkpt lat="43.33969" lon="5.24458">
        <ele>159</ele>
        <time>2016-03-10T13:58:07Z</time>
      </trkpt>
      <trkpt lat="43.3397" lon="5.24458">
        <ele>160</ele>
        <time>2016-03-10T13:58:08Z</time>
      </trkpt>
      <trkpt lat="43.33971" lon="5.24457">
        <ele>160</ele>
        <time>2016-03-10T13:58:09Z</time>
      </trkpt>
      <trkpt lat="43.33972" lon="5.24457">
        <ele>160</ele>
        <time>2016-03-10T13:58:10Z</time>
      </trkpt>
      <trkpt lat="43.33974" lon="5.24456">
        <ele>160</ele>
        <time>2016-03-10T13:58:11Z</time>
      </trkpt>
      <trkpt lat="43.33975" lon="5.24455">
        <ele>160</ele>
        <time>2016-03-10T13:58:12Z</time>
      </trkpt>
      <trkpt lat="43.33976" lon="5.24454">
        <ele>160</ele>
        <time>2016-03-10T13:58:13Z</time>
      </trkpt>
      <trkpt lat="43.33978" lon="5.24453">
        <ele>160</ele>
        <time>2016-03-10T13:58:14Z</time>
      </trkpt>
      <trkpt lat="43.33979" lon="5.24452">
        <ele>160</ele>
        <time>2016-03-10T13:58:15Z</time>
      </trkpt>
      <trkpt lat="43.3398" lon="5.24451">
        <ele>160</ele>
        <time>2016-03-10T13:58:16Z</time>
      </trkpt>
      <trkpt lat="43.33981" lon="5.2445">
        <ele>160</ele>
        <time>2016-03-10T13:58:17Z</time>
      </trkpt>
      <trkpt lat="43.33983" lon="5.24449">
        <ele>160</ele>
        <time>2016-03-10T13:58:18Z</time>
      </trkpt>
      <trkpt lat="43.33984" lon="5.24448">
        <ele>160</ele>
        <time>2016-03-10T13:58:19Z</time>
      </trkpt>
      <trkpt lat="43.33986" lon="5.24447">
        <ele>160</ele>
        <time>2016-03-10T13:58:20Z</time>
      </trkpt>
      <trkpt lat="43.33987" lon="5.24445">
        <ele>160</ele>
        <time>2016-03-10T13:58:21Z</time>
      </trkpt>
      <trkpt lat="43.33988" lon="5.24444">
        <ele>160</ele>
        <time>2016-03-10T13:58:22Z</time>
      </trkpt>
      <trkpt lat="43.33989" lon="5.24443">
        <ele>160</ele>
        <time>2016-03-10T13:58:23Z</time>
      </trkpt>
      <trkpt lat="43.33991" lon="5.2444">
        <ele>161</ele>
        <time>2016-03-10T13:58:25Z</time>
      </trkpt>
      <trkpt lat="43.33993" lon="5.24438">
        <ele>161</ele>
        <time>2016-03-10T13:58:27Z</time>
      </trkpt>
      <trkpt lat="43.33995" lon="5.24435">
        <ele>161</ele>
        <time>2016-03-10T13:58:29Z</time>
      </trkpt>
      <trkpt lat="43.33996" lon="5.24433">
        <ele>162</ele>
        <time>2016-03-10T13:58:31Z</time>
      </trkpt>
      <trkpt lat="43.33997" lon="5.2443">
        <ele>162</ele>
        <time>2016-03-10T13:58:33Z</time>
      </trkpt>
      <trkpt lat="43.33997" lon="5.24429">
        <ele>163</ele>
        <time>2016-03-10T13:58:34Z</time>
      </trkpt>
      <trkpt lat="43.33998" lon="5.24427">
        <ele>163</ele>
        <time>2016-03-10T13:58:35Z</time>
      </trkpt>
      <trkpt lat="43.33998" lon="5.24425">
        <ele>163</ele>
        <time>2016-03-10T13:58:36Z</time>
      </trkpt>
      <trkpt lat="43.34" lon="5.24423">
        <ele>164</ele>
        <time>2016-03-10T13:58:38Z</time>
      </trkpt>
      <trkpt lat="43.34001" lon="5.24421">
        <ele>164</ele>
        <time>2016-03-10T13:58:39Z</time>
      </trkpt>
      <trkpt lat="43.34002" lon="5.24419">
        <ele>164</ele>
        <time>2016-03-10T13:58:41Z</time>
      </trkpt>
      <trkpt lat="43.34003" lon="5.24417">
        <ele>165</ele>
        <time>2016-03-10T13:58:42Z</time>
      </trkpt>
      <trkpt lat="43.34004" lon="5.24416">
        <ele>165</ele>
        <time>2016-03-10T13:58:43Z</time>
      </trkpt>
      <trkpt lat="43.34005" lon="5.24413">
        <ele>165</ele>
        <time>2016-03-10T13:58:45Z</time>
      </trkpt>
      <trkpt lat="43.34006" lon="5.24412">
        <ele>165</ele>
        <time>2016-03-10T13:58:46Z</time>
      </trkpt>
      <trkpt lat="43.34007" lon="5.2441">
        <ele>165</ele>
        <time>2016-03-10T13:58:47Z</time>
      </trkpt>
      <trkpt lat="43.34008" lon="5.24408">
        <ele>165</ele>
        <time>2016-03-10T13:58:48Z</time>
      </trkpt>
      <trkpt lat="43.34009" lon="5.24407">
        <ele>165</ele>
        <time>2016-03-10T13:58:49Z</time>
      </trkpt>
      <trkpt lat="43.3401" lon="5.24405">
        <ele>165</ele>
        <time>2016-03-10T13:58:50Z</time>
      </trkpt>
      <trkpt lat="43.3401" lon="5.24404">
        <ele>165</ele>
        <time>2016-03-10T13:58:51Z</time>
      </trkpt>
      <trkpt lat="43.34011" lon="5.24402">
        <ele>165</ele>
        <time>2016-03-10T13:58:52Z</time>
      </trkpt>
      <trkpt lat="43.34012" lon="5.24401">
        <ele>165</ele>
        <time>2016-03-10T13:58:53Z</time>
      </trkpt>
      <trkpt lat="43.34013" lon="5.24399">
        <ele>165</ele>
        <time>2016-03-10T13:58:54Z</time>
      </trkpt>
      <trkpt lat="43.34014" lon="5.24397">
        <ele>165</ele>
        <time>2016-03-10T13:58:55Z</time>
      </trkpt>
      <trkpt lat="43.34015" lon="5.24396">
        <ele>165</ele>
        <time>2016-03-10T13:58:56Z</time>
      </trkpt>
      <trkpt lat="43.34015" lon="5.24394">
        <ele>165</ele>
        <time>2016-03-10T13:58:57Z</time>
      </trkpt>
      <trkpt lat="43.34016" lon="5.24392">
        <ele>165</ele>
        <time>2016-03-10T13:58:58Z</time>
      </trkpt>
      <trkpt lat="43.34016" lon="5.24391">
        <ele>165</ele>
        <time>2016-03-10T13:58:59Z</time>
      </trkpt>
      <trkpt lat="43.34017" lon="5.24389">
        <ele>165</ele>
        <time>2016-03-10T13:59:00Z</time>
      </trkpt>
      <trkpt lat="43.34017" lon="5.24387">
        <ele>165</ele>
        <time>2016-03-10T13:59:01Z</time>
      </trkpt>
      <trkpt lat="43.34018" lon="5.24385">
        <ele>165</ele>
        <time>2016-03-10T13:59:02Z</time>
      </trkpt>
      <trkpt lat="43.34018" lon="5.24383">
        <ele>165</ele>
        <time>2016-03-10T13:59:03Z</time>
      </trkpt>
      <trkpt lat="43.34018" lon="5.24381">
        <ele>165</ele>
        <time>2016-03-10T13:59:04Z</time>
      </trkpt>
      <trkpt lat="43.34018" lon="5.24379">
        <ele>165</ele>
        <time>2016-03-10T13:59:05Z</time>
      </trkpt>
      <trkpt lat="43.34018" lon="5.24377">
        <ele>165</ele>
        <time>2016-03-10T13:59:06Z</time>
      </trkpt>
      <trkpt lat="43.34018" lon="5.24375">
        <ele>165</ele>
        <time>2016-03-10T13:59:07Z</time>
      </trkpt>
      <trkpt lat="43.34017" lon="5.24372">
        <ele>165</ele>
        <time>2016-03-10T13:59:08Z</time>
      </trkpt>
      <trkpt lat="43.34017" lon="5.2437">
        <ele>165</ele>
        <time>2016-03-10T13:59:09Z</time>
      </trkpt>
      <trkpt lat="43.34017" lon="5.24368">
        <ele>165</ele>
        <time>2016-03-10T13:59:10Z</time>
      </trkpt>
      <trkpt lat="43.34018" lon="5.24367">
        <ele>165</ele>
        <time>2016-03-10T13:59:11Z</time>
      </trkpt>
      <trkpt lat="43.34018" lon="5.24365">
        <ele>165</ele>
        <time>2016-03-10T13:59:12Z</time>
      </trkpt>
      <trkpt lat="43.34019" lon="5.24363">
        <ele>165</ele>
        <time>2016-03-10T13:59:13Z</time>
      </trkpt>
      <trkpt lat="43.3402" lon="5.24361">
        <ele>165</ele>
        <time>2016-03-10T13:59:14Z</time>
      </trkpt>
      <trkpt lat="43.3402" lon="5.24359">
        <ele>165</ele>
        <time>2016-03-10T13:59:15Z</time>
      </trkpt>
      <trkpt lat="43.34021" lon="5.24358">
        <ele>165</ele>
        <time>2016-03-10T13:59:16Z</time>
      </trkpt>
      <trkpt lat="43.34021" lon="5.24356">
        <ele>165</ele>
        <time>2016-03-10T13:59:17Z</time>
      </trkpt>
      <trkpt lat="43.34022" lon="5.24355">
        <ele>165</ele>
        <time>2016-03-10T13:59:18Z</time>
      </trkpt>
      <trkpt lat="43.34023" lon="5.24353">
        <ele>165</ele>
        <time>2016-03-10T13:59:19Z</time>
      </trkpt>
      <trkpt lat="43.34024" lon="5.24352">
        <ele>165</ele>
        <time>2016-03-10T13:59:20Z</time>
      </trkpt>
      <trkpt lat="43.34024" lon="5.2435">
        <ele>165</ele>
        <time>2016-03-10T13:59:21Z</time>
      </trkpt>
      <trkpt lat="43.34024" lon="5.24348">
        <ele>165</ele>
        <time>2016-03-10T13:59:22Z</time>
      </trkpt>
      <trkpt lat="43.34025" lon="5.24347">
        <ele>165</ele>
        <time>2016-03-10T13:59:23Z</time>
      </trkpt>
      <trkpt lat="43.34026" lon="5.24344">
        <ele>165</ele>
        <time>2016-03-10T13:59:25Z</time>
      </trkpt>
      <trkpt lat="43.34026" lon="5.24343">
        <ele>165</ele>
        <time>2016-03-10T13:59:26Z</time>
      </trkpt>
      <trkpt lat="43.34027" lon="5.24341">
        <ele>165</ele>
        <time>2016-03-10T13:59:27Z</time>
      </trkpt>
      <trkpt lat="43.34027" lon="5.24337">
        <ele>165</ele>
        <time>2016-03-10T13:59:29Z</time>
      </trkpt>
      <trkpt lat="43.34026" lon="5.24335">
        <ele>165</ele>
        <time>2016-03-10T13:59:30Z</time>
      </trkpt>
      <trkpt lat="43.34026" lon="5.24333">
        <ele>165</ele>
        <time>2016-03-10T13:59:31Z</time>
      </trkpt>
      <trkpt lat="43.34027" lon="5.24332">
        <ele>165</ele>
        <time>2016-03-10T13:59:32Z</time>
      </trkpt>
      <trkpt lat="43.34028" lon="5.2433">
        <ele>165</ele>
        <time>2016-03-10T13:59:33Z</time>
      </trkpt>
      <trkpt lat="43.34029" lon="5.24328">
        <ele>165</ele>
        <time>2016-03-10T13:59:34Z</time>
      </trkpt>
      <trkpt lat="43.34029" lon="5.24327">
        <ele>165</ele>
        <time>2016-03-10T13:59:35Z</time>
      </trkpt>
      <trkpt lat="43.3403" lon="5.24325">
        <ele>165</ele>
        <time>2016-03-10T13:59:36Z</time>
      </trkpt>
      <trkpt lat="43.34031" lon="5.24323">
        <ele>165</ele>
        <time>2016-03-10T13:59:37Z</time>
      </trkpt>
      <trkpt lat="43.34031" lon="5.24321">
        <ele>165</ele>
        <time>2016-03-10T13:59:38Z</time>
      </trkpt>
      <trkpt lat="43.34032" lon="5.24319">
        <ele>165</ele>
        <time>2016-03-10T13:59:39Z</time>
      </trkpt>
      <trkpt lat="43.34032" lon="5.24317">
        <ele>165</ele>
        <time>2016-03-10T13:59:40Z</time>
      </trkpt>
      <trkpt lat="43.34033" lon="5.24315">
        <ele>165</ele>
        <time>2016-03-10T13:59:41Z</time>
      </trkpt>
      <trkpt lat="43.34034" lon="5.24313">
        <ele>165</ele>
        <time>2016-03-10T13:59:42Z</time>
      </trkpt>
      <trkpt lat="43.34034" lon="5.24311">
        <ele>165</ele>
        <time>2016-03-10T13:59:43Z</time>
      </trkpt>
      <trkpt lat="43.34034" lon="5.24309">
        <ele>165</ele>
        <time>2016-03-10T13:59:44Z</time>
      </trkpt>
      <trkpt lat="43.34034" lon="5.24307">
        <ele>165</ele>
        <time>2016-03-10T13:59:45Z</time>
      </trkpt>
      <trkpt lat="43.34034" lon="5.24305">
        <ele>165</ele>
        <time>2016-03-10T13:59:46Z</time>
      </trkpt>
      <trkpt lat="43.34034" lon="5.24303">
        <ele>165</ele>
        <time>2016-03-10T13:59:47Z</time>
      </trkpt>
      <trkpt lat="43.34035" lon="5.24301">
        <ele>165</ele>
        <time>2016-03-10T13:59:48Z</time>
      </trkpt>
      <trkpt lat="43.34035" lon="5.24299">
        <ele>165</ele>
        <time>2016-03-10T13:59:49Z</time>
      </trkpt>
      <trkpt lat="43.34035" lon="5.24297">
        <ele>165</ele>
        <time>2016-03-10T13:59:50Z</time>
      </trkpt>
      <trkpt lat="43.34035" lon="5.24295">
        <ele>165</ele>
        <time>2016-03-10T13:59:51Z</time>
      </trkpt>
      <trkpt lat="43.34035" lon="5.24293">
        <ele>165</ele>
        <time>2016-03-10T13:59:52Z</time>
      </trkpt>
      <trkpt lat="43.34035" lon="5.24291">
        <ele>165</ele>
        <time>2016-03-10T13:59:53Z</time>
      </trkpt>
      <trkpt lat="43.34035" lon="5.24288">
        <ele>165</ele>
        <time>2016-03-10T13:59:54Z</time>
      </trkpt>
      <trkpt lat="43.34034" lon="5.24286">
        <ele>165</ele>
        <time>2016-03-10T13:59:55Z</time>
      </trkpt>
      <trkpt lat="43.34034" lon="5.24284">
        <ele>165</ele>
        <time>2016-03-10T13:59:56Z</time>
      </trkpt>
      <trkpt lat="43.34034" lon="5.24281">
        <ele>165</ele>
        <time>2016-03-10T13:59:57Z</time>
      </trkpt>
      <trkpt lat="43.34034" lon="5.24279">
        <ele>165</ele>
        <time>2016-03-10T13:59:58Z</time>
      </trkpt>
      <trkpt lat="43.34034" lon="5.24277">
        <ele>165</ele>
        <time>2016-03-10T13:59:59Z</time>
      </trkpt>
      <trkpt lat="43.34034" lon="5.24275">
        <ele>165</ele>
        <time>2016-03-10T14:00:00Z</time>
      </trkpt>
      <trkpt lat="43.34034" lon="5.24273">
        <ele>165</ele>
        <time>2016-03-10T14:00:01Z</time>
      </trkpt>
      <trkpt lat="43.34034" lon="5.24272">
        <ele>165</ele>
        <time>2016-03-10T14:00:02Z</time>
      </trkpt>
      <trkpt lat="43.34034" lon="5.2427">
        <ele>165</ele>
        <time>2016-03-10T14:00:03Z</time>
      </trkpt>
      <trkpt lat="43.34034" lon="5.24268">
        <ele>165</ele>
        <time>2016-03-10T14:00:04Z</time>
      </trkpt>
      <trkpt lat="43.34034" lon="5.24266">
        <ele>165</ele>
        <time>2016-03-10T14:00:05Z</time>
      </trkpt>
      <trkpt lat="43.34034" lon="5.24265">
        <ele>165</ele>
        <time>2016-03-10T14:00:06Z</time>
      </trkpt>
      <trkpt lat="43.34035" lon="5.24263">
        <ele>165</ele>
        <time>2016-03-10T14:00:07Z</time>
      </trkpt>
      <trkpt lat="43.34036" lon="5.24262">
        <ele>165</ele>
        <time>2016-03-10T14:00:08Z</time>
      </trkpt>
      <trkpt lat="43.34037" lon="5.2426">
        <ele>165</ele>
        <time>2016-03-10T14:00:09Z</time>
      </trkpt>
      <trkpt lat="43.34038" lon="5.24259">
        <ele>165</ele>
        <time>2016-03-10T14:00:10Z</time>
      </trkpt>
      <trkpt lat="43.3404" lon="5.24258">
        <ele>165</ele>
        <time>2016-03-10T14:00:11Z</time>
      </trkpt>
      <trkpt lat="43.3404" lon="5.24256">
        <ele>165</ele>
        <time>2016-03-10T14:00:12Z</time>
      </trkpt>
      <trkpt lat="43.34041" lon="5.24255">
        <ele>165</ele>
        <time>2016-03-10T14:00:13Z</time>
      </trkpt>
      <trkpt lat="43.34041" lon="5.24253">
        <ele>165</ele>
        <time>2016-03-10T14:00:14Z</time>
      </trkpt>
      <trkpt lat="43.34042" lon="5.24251">
        <ele>165</ele>
        <time>2016-03-10T14:00:15Z</time>
      </trkpt>
      <trkpt lat="43.34043" lon="5.24249">
        <ele>165</ele>
        <time>2016-03-10T14:00:17Z</time>
      </trkpt>
      <trkpt lat="43.34044" lon="5.24247">
        <ele>165</ele>
        <time>2016-03-10T14:00:19Z</time>
      </trkpt>
      <trkpt lat="43.34045" lon="5.24245">
        <ele>165</ele>
        <time>2016-03-10T14:00:20Z</time>
      </trkpt>
      <trkpt lat="43.34047" lon="5.24243">
        <ele>165</ele>
        <time>2016-03-10T14:00:22Z</time>
      </trkpt>
      <trkpt lat="43.34049" lon="5.2424">
        <ele>165</ele>
        <time>2016-03-10T14:00:24Z</time>
      </trkpt>
      <trkpt lat="43.3405" lon="5.24238">
        <ele>165</ele>
        <time>2016-03-10T14:00:26Z</time>
      </trkpt>
      <trkpt lat="43.34053" lon="5.24235">
        <ele>165</ele>
        <time>2016-03-10T14:00:28Z</time>
      </trkpt>
      <trkpt lat="43.34053" lon="5.24234">
        <ele>165</ele>
        <time>2016-03-10T14:00:29Z</time>
      </trkpt>
      <trkpt lat="43.34055" lon="5.24232">
        <ele>165</ele>
        <time>2016-03-10T14:00:30Z</time>
      </trkpt>
      <trkpt lat="43.34056" lon="5.24229">
        <ele>165</ele>
        <time>2016-03-10T14:00:32Z</time>
      </trkpt>
      <trkpt lat="43.34057" lon="5.24228">
        <ele>165</ele>
        <time>2016-03-10T14:00:33Z</time>
      </trkpt>
      <trkpt lat="43.34059" lon="5.24225">
        <ele>165</ele>
        <time>2016-03-10T14:00:35Z</time>
      </trkpt>
      <trkpt lat="43.3406" lon="5.24223">
        <ele>165</ele>
        <time>2016-03-10T14:00:36Z</time>
      </trkpt>
      <trkpt lat="43.34061" lon="5.24222">
        <ele>165</ele>
        <time>2016-03-10T14:00:37Z</time>
      </trkpt>
      <trkpt lat="43.34062" lon="5.2422">
        <ele>165</ele>
        <time>2016-03-10T14:00:38Z</time>
      </trkpt>
      <trkpt lat="43.34063" lon="5.24219">
        <ele>165</ele>
        <time>2016-03-10T14:00:39Z</time>
      </trkpt>
      <trkpt lat="43.34064" lon="5.24217">
        <ele>165</ele>
        <time>2016-03-10T14:00:40Z</time>
      </trkpt>
      <trkpt lat="43.34065" lon="5.24215">
        <ele>165</ele>
        <time>2016-03-10T14:00:41Z</time>
      </trkpt>
      <trkpt lat="43.34065" lon="5.24214">
        <ele>165</ele>
        <time>2016-03-10T14:00:42Z</time>
      </trkpt>
      <trkpt lat="43.34067" lon="5.24212">
        <ele>165</ele>
        <time>2016-03-10T14:00:43Z</time>
      </trkpt>
      <trkpt lat="43.34068" lon="5.24211">
        <ele>165</ele>
        <time>2016-03-10T14:00:44Z</time>
      </trkpt>
      <trkpt lat="43.34069" lon="5.2421">
        <ele>165</ele>
        <time>2016-03-10T14:00:45Z</time>
      </trkpt>
      <trkpt lat="43.34071" lon="5.24209">
        <ele>165</ele>
        <time>2016-03-10T14:00:46Z</time>
      </trkpt>
      <trkpt lat="43.34072" lon="5.24206">
        <ele>166</ele>
        <time>2016-03-10T14:00:48Z</time>
      </trkpt>
      <trkpt lat="43.34074" lon="5.24203">
        <ele>166</ele>
        <time>2016-03-10T14:00:50Z</time>
      </trkpt>
      <trkpt lat="43.34075" lon="5.24202">
        <ele>166</ele>
        <time>2016-03-10T14:00:51Z</time>
      </trkpt>
      <trkpt lat="43.34077" lon="5.242">
        <ele>167</ele>
        <time>2016-03-10T14:00:53Z</time>
      </trkpt>
      <trkpt lat="43.34077" lon="5.24198">
        <ele>167</ele>
        <time>2016-03-10T14:00:54Z</time>
      </trkpt>
      <trkpt lat="43.34079" lon="5.24196">
        <ele>167</ele>
        <time>2016-03-10T14:00:56Z</time>
      </trkpt>
      <trkpt lat="43.3408" lon="5.24194">
        <ele>168</ele>
        <time>2016-03-10T14:00:57Z</time>
      </trkpt>
      <trkpt lat="43.34082" lon="5.24192">
        <ele>168</ele>
        <time>2016-03-10T14:00:59Z</time>
      </trkpt>
      <trkpt lat="43.34083" lon="5.2419">
        <ele>168</ele>
        <time>2016-03-10T14:01:00Z</time>
      </trkpt>
      <trkpt lat="43.34084" lon="5.24189">
        <ele>168</ele>
        <time>2016-03-10T14:01:01Z</time>
      </trkpt>
      <trkpt lat="43.34085" lon="5.24187">
        <ele>168</ele>
        <time>2016-03-10T14:01:02Z</time>
      </trkpt>
      <trkpt lat="43.34087" lon="5.24185">
        <ele>168</ele>
        <time>2016-03-10T14:01:04Z</time>
      </trkpt>
      <trkpt lat="43.34089" lon="5.24184">
        <ele>168</ele>
        <time>2016-03-10T14:01:05Z</time>
      </trkpt>
      <trkpt lat="43.34089" lon="5.24182">
        <ele>168</ele>
        <time>2016-03-10T14:01:06Z</time>
      </trkpt>
      <trkpt lat="43.34091" lon="5.24181">
        <ele>168</ele>
        <time>2016-03-10T14:01:07Z</time>
      </trkpt>
      <trkpt lat="43.34092" lon="5.24179">
        <ele>168</ele>
        <time>2016-03-10T14:01:08Z</time>
      </trkpt>
      <trkpt lat="43.34093" lon="5.24178">
        <ele>168</ele>
        <time>2016-03-10T14:01:09Z</time>
      </trkpt>
      <trkpt lat="43.34094" lon="5.24176">
        <ele>168</ele>
        <time>2016-03-10T14:01:10Z</time>
      </trkpt>
      <trkpt lat="43.34095" lon="5.24174">
        <ele>168</ele>
        <time>2016-03-10T14:01:12Z</time>
      </trkpt>
      <trkpt lat="43.34097" lon="5.24172">
        <ele>168</ele>
        <time>2016-03-10T14:01:13Z</time>
      </trkpt>
      <trkpt lat="43.34098" lon="5.24171">
        <ele>168</ele>
        <time>2016-03-10T14:01:14Z</time>
      </trkpt>
      <trkpt lat="43.341" lon="5.24168">
        <ele>168</ele>
        <time>2016-03-10T14:01:16Z</time>
      </trkpt>
      <trkpt lat="43.34101" lon="5.24166">
        <ele>169</ele>
        <time>2016-03-10T14:01:18Z</time>
      </trkpt>
      <trkpt lat="43.34103" lon="5.24163">
        <ele>169</ele>
        <time>2016-03-10T14:01:20Z</time>
      </trkpt>
      <trkpt lat="43.34105" lon="5.24161">
        <ele>170</ele>
        <time>2016-03-10T14:01:22Z</time>
      </trkpt>
      <trkpt lat="43.34106" lon="5.24159">
        <ele>170</ele>
        <time>2016-03-10T14:01:24Z</time>
      </trkpt>
      <trkpt lat="43.34108" lon="5.24158">
        <ele>171</ele>
        <time>2016-03-10T14:01:26Z</time>
      </trkpt>
      <trkpt lat="43.3411" lon="5.24157">
        <ele>171</ele>
        <time>2016-03-10T14:01:28Z</time>
      </trkpt>
      <trkpt lat="43.34112" lon="5.24155">
        <ele>172</ele>
        <time>2016-03-10T14:01:30Z</time>
      </trkpt>
      <trkpt lat="43.34114" lon="5.24155">
        <ele>172</ele>
        <time>2016-03-10T14:01:31Z</time>
      </trkpt>
      <trkpt lat="43.34116" lon="5.24154">
        <ele>173</ele>
        <time>2016-03-10T14:01:33Z</time>
      </trkpt>
      <trkpt lat="43.34118" lon="5.24152">
        <ele>173</ele>
        <time>2016-03-10T14:01:35Z</time>
      </trkpt>
      <trkpt lat="43.34119" lon="5.24151">
        <ele>174</ele>
        <time>2016-03-10T14:01:36Z</time>
      </trkpt>
      <trkpt lat="43.34121" lon="5.2415">
        <ele>174</ele>
        <time>2016-03-10T14:01:38Z</time>
      </trkpt>
      <trkpt lat="43.34122" lon="5.24148">
        <ele>174</ele>
        <time>2016-03-10T14:01:40Z</time>
      </trkpt>
      <trkpt lat="43.34124" lon="5.24146">
        <ele>174</ele>
        <time>2016-03-10T14:01:42Z</time>
      </trkpt>
      <trkpt lat="43.34126" lon="5.24144">
        <ele>175</ele>
        <time>2016-03-10T14:01:44Z</time>
      </trkpt>
      <trkpt lat="43.34127" lon="5.24142">
        <ele>175</ele>
        <time>2016-03-10T14:01:46Z</time>
      </trkpt>
      <trkpt lat="43.34129" lon="5.2414">
        <ele>175</ele>
        <time>2016-03-10T14:01:48Z</time>
      </trkpt>
      <trkpt lat="43.3413" lon="5.24139">
        <ele>175</ele>
        <time>2016-03-10T14:01:49Z</time>
      </trkpt>
      <trkpt lat="43.34132" lon="5.24136">
        <ele>175</ele>
        <time>2016-03-10T14:01:51Z</time>
      </trkpt>
      <trkpt lat="43.34134" lon="5.24134">
        <ele>175</ele>
        <time>2016-03-10T14:01:53Z</time>
      </trkpt>
      <trkpt lat="43.34135" lon="5.24132">
        <ele>175</ele>
        <time>2016-03-10T14:01:55Z</time>
      </trkpt>
      <trkpt lat="43.34137" lon="5.24129">
        <ele>176</ele>
        <time>2016-03-10T14:01:57Z</time>
      </trkpt>
      <trkpt lat="43.34138" lon="5.24128">
        <ele>176</ele>
        <time>2016-03-10T14:01:58Z</time>
      </trkpt>
      <trkpt lat="43.34138" lon="5.24126">
        <ele>176</ele>
        <time>2016-03-10T14:01:59Z</time>
      </trkpt>
      <trkpt lat="43.34139" lon="5.24124">
        <ele>176</ele>
        <time>2016-03-10T14:02:00Z</time>
      </trkpt>
      <trkpt lat="43.3414" lon="5.24123">
        <ele>176</ele>
        <time>2016-03-10T14:02:01Z</time>
      </trkpt>
      <trkpt lat="43.3414" lon="5.24121">
        <ele>176</ele>
        <time>2016-03-10T14:02:02Z</time>
      </trkpt>
      <trkpt lat="43.34141" lon="5.24119">
        <ele>176</ele>
        <time>2016-03-10T14:02:03Z</time>
      </trkpt>
      <trkpt lat="43.34142" lon="5.24118">
        <ele>176</ele>
        <time>2016-03-10T14:02:04Z</time>
      </trkpt>
      <trkpt lat="43.34143" lon="5.24116">
        <ele>176</ele>
        <time>2016-03-10T14:02:05Z</time>
      </trkpt>
      <trkpt lat="43.34144" lon="5.24115">
        <ele>176</ele>
        <time>2016-03-10T14:02:06Z</time>
      </trkpt>
      <trkpt lat="43.34145" lon="5.24113">
        <ele>176</ele>
        <time>2016-03-10T14:02:07Z</time>
      </trkpt>
      <trkpt lat="43.34146" lon="5.24112">
        <ele>177</ele>
        <time>2016-03-10T14:02:08Z</time>
      </trkpt>
      <trkpt lat="43.34147" lon="5.2411">
        <ele>177</ele>
        <time>2016-03-10T14:02:09Z</time>
      </trkpt>
      <trkpt lat="43.34149" lon="5.24108">
        <ele>177</ele>
        <time>2016-03-10T14:02:11Z</time>
      </trkpt>
      <trkpt lat="43.3415" lon="5.24107">
        <ele>177</ele>
        <time>2016-03-10T14:02:12Z</time>
      </trkpt>
      <trkpt lat="43.34152" lon="5.24106">
        <ele>177</ele>
        <time>2016-03-10T14:02:13Z</time>
      </trkpt>
      <trkpt lat="43.34153" lon="5.24105">
        <ele>177</ele>
        <time>2016-03-10T14:02:14Z</time>
      </trkpt>
      <trkpt lat="43.34154" lon="5.24104">
        <ele>177</ele>
        <time>2016-03-10T14:02:15Z</time>
      </trkpt>
      <trkpt lat="43.34155" lon="5.24103">
        <ele>177</ele>
        <time>2016-03-10T14:02:16Z</time>
      </trkpt>
      <trkpt lat="43.34156" lon="5.24102">
        <ele>177</ele>
        <time>2016-03-10T14:02:17Z</time>
      </trkpt>
      <trkpt lat="43.34158" lon="5.24101">
        <ele>177</ele>
        <time>2016-03-10T14:02:18Z</time>
      </trkpt>
      <trkpt lat="43.34159" lon="5.241">
        <ele>177</ele>
        <time>2016-03-10T14:02:19Z</time>
      </trkpt>
      <trkpt lat="43.3416" lon="5.24099">
        <ele>177</ele>
        <time>2016-03-10T14:02:20Z</time>
      </trkpt>
      <trkpt lat="43.34161" lon="5.24098">
        <ele>177</ele>
        <time>2016-03-10T14:02:21Z</time>
      </trkpt>
      <trkpt lat="43.34164" lon="5.24096">
        <ele>177</ele>
        <time>2016-03-10T14:02:23Z</time>
      </trkpt>
      <trkpt lat="43.34165" lon="5.24095">
        <ele>177</ele>
        <time>2016-03-10T14:02:25Z</time>
      </trkpt>
      <trkpt lat="43.34167" lon="5.24093">
        <ele>177</ele>
        <time>2016-03-10T14:02:27Z</time>
      </trkpt>
      <trkpt lat="43.34168" lon="5.24093">
        <ele>177</ele>
        <time>2016-03-10T14:02:29Z</time>
      </trkpt>
      <trkpt lat="43.34169" lon="5.24093">
        <ele>177</ele>
        <time>2016-03-10T14:02:31Z</time>
      </trkpt>
      <trkpt lat="43.34171" lon="5.24094">
        <ele>177</ele>
        <time>2016-03-10T14:02:34Z</time>
      </trkpt>
      <trkpt lat="43.34171" lon="5.24096">
        <ele>177</ele>
        <time>2016-03-10T14:02:36Z</time>
      </trkpt>
      <trkpt lat="43.34172" lon="5.24098">
        <ele>176</ele>
        <time>2016-03-10T14:02:40Z</time>
      </trkpt>
      <trkpt lat="43.34174" lon="5.24098">
        <ele>176</ele>
        <time>2016-03-10T14:02:43Z</time>
      </trkpt>
      <trkpt lat="43.34175" lon="5.24099">
        <ele>175</ele>
        <time>2016-03-10T14:02:47Z</time>
      </trkpt>
      <trkpt lat="43.34176" lon="5.241">
        <ele>174</ele>
        <time>2016-03-10T14:02:50Z</time>
      </trkpt>
      <trkpt lat="43.34177" lon="5.24101">
        <ele>174</ele>
        <time>2016-03-10T14:02:53Z</time>
      </trkpt>
      <trkpt lat="43.34178" lon="5.24101">
        <ele>173</ele>
        <time>2016-03-10T14:02:56Z</time>
      </trkpt>
      <trkpt lat="43.3418" lon="5.24101">
        <ele>173</ele>
        <time>2016-03-10T14:02:59Z</time>
      </trkpt>
      <trkpt lat="43.34181" lon="5.24102">
        <ele>172</ele>
        <time>2016-03-10T14:03:03Z</time>
      </trkpt>
      <trkpt lat="43.34182" lon="5.24102">
        <ele>171</ele>
        <time>2016-03-10T14:03:06Z</time>
      </trkpt>
      <trkpt lat="43.34184" lon="5.24103">
        <ele>171</ele>
        <time>2016-03-10T14:03:08Z</time>
      </trkpt>
      <trkpt lat="43.34186" lon="5.24105">
        <ele>170</ele>
        <time>2016-03-10T14:03:10Z</time>
      </trkpt>
      <trkpt lat="43.34188" lon="5.24106">
        <ele>170</ele>
        <time>2016-03-10T14:03:11Z</time>
      </trkpt>
      <trkpt lat="43.3419" lon="5.24109">
        <ele>169</ele>
        <time>2016-03-10T14:03:12Z</time>
      </trkpt>
      <trkpt lat="43.34192" lon="5.24111">
        <ele>169</ele>
        <time>2016-03-10T14:03:13Z</time>
      </trkpt>
      <trkpt lat="43.34194" lon="5.24113">
        <ele>168</ele>
        <time>2016-03-10T14:03:14Z</time>
      </trkpt>
      <trkpt lat="43.34196" lon="5.24115">
        <ele>168</ele>
        <time>2016-03-10T14:03:15Z</time>
      </trkpt>
      <trkpt lat="43.34198" lon="5.24117">
        <ele>167</ele>
        <time>2016-03-10T14:03:16Z</time>
      </trkpt>
      <trkpt lat="43.342" lon="5.24118">
        <ele>167</ele>
        <time>2016-03-10T14:03:17Z</time>
      </trkpt>
      <trkpt lat="43.34201" lon="5.24119">
        <ele>167</ele>
        <time>2016-03-10T14:03:18Z</time>
      </trkpt>
      <trkpt lat="43.34203" lon="5.24119">
        <ele>167</ele>
        <time>2016-03-10T14:03:19Z</time>
      </trkpt>
      <trkpt lat="43.34204" lon="5.2412">
        <ele>167</ele>
        <time>2016-03-10T14:03:20Z</time>
      </trkpt>
      <trkpt lat="43.34206" lon="5.24121">
        <ele>167</ele>
        <time>2016-03-10T14:03:21Z</time>
      </trkpt>
      <trkpt lat="43.34207" lon="5.24121">
        <ele>167</ele>
        <time>2016-03-10T14:03:22Z</time>
      </trkpt>
      <trkpt lat="43.34208" lon="5.24122">
        <ele>167</ele>
        <time>2016-03-10T14:03:23Z</time>
      </trkpt>
      <trkpt lat="43.3421" lon="5.24122">
        <ele>167</ele>
        <time>2016-03-10T14:03:24Z</time>
      </trkpt>
      <trkpt lat="43.34211" lon="5.24123">
        <ele>167</ele>
        <time>2016-03-10T14:03:25Z</time>
      </trkpt>
      <trkpt lat="43.34212" lon="5.24123">
        <ele>167</ele>
        <time>2016-03-10T14:03:26Z</time>
      </trkpt>
      <trkpt lat="43.34214" lon="5.24124">
        <ele>167</ele>
        <time>2016-03-10T14:03:27Z</time>
      </trkpt>
      <trkpt lat="43.34215" lon="5.24125">
        <ele>167</ele>
        <time>2016-03-10T14:03:28Z</time>
      </trkpt>
      <trkpt lat="43.34216" lon="5.24126">
        <ele>167</ele>
        <time>2016-03-10T14:03:29Z</time>
      </trkpt>
      <trkpt lat="43.34217" lon="5.24127">
        <ele>167</ele>
        <time>2016-03-10T14:03:30Z</time>
      </trkpt>
      <trkpt lat="43.34218" lon="5.24128">
        <ele>167</ele>
        <time>2016-03-10T14:03:31Z</time>
      </trkpt>
      <trkpt lat="43.34219" lon="5.24129">
        <ele>167</ele>
        <time>2016-03-10T14:03:32Z</time>
      </trkpt>
      <trkpt lat="43.34221" lon="5.2413">
        <ele>167</ele>
        <time>2016-03-10T14:03:33Z</time>
      </trkpt>
      <trkpt lat="43.34222" lon="5.24131">
        <ele>167</ele>
        <time>2016-03-10T14:03:34Z</time>
      </trkpt>
      <trkpt lat="43.34223" lon="5.24132">
        <ele>167</ele>
        <time>2016-03-10T14:03:35Z</time>
      </trkpt>
      <trkpt lat="43.34224" lon="5.24133">
        <ele>167</ele>
        <time>2016-03-10T14:03:36Z</time>
      </trkpt>
      <trkpt lat="43.34226" lon="5.24133">
        <ele>167</ele>
        <time>2016-03-10T14:03:37Z</time>
      </trkpt>
      <trkpt lat="43.34228" lon="5.24135">
        <ele>167</ele>
        <time>2016-03-10T14:03:39Z</time>
      </trkpt>
      <trkpt lat="43.3423" lon="5.24137">
        <ele>167</ele>
        <time>2016-03-10T14:03:41Z</time>
      </trkpt>
      <trkpt lat="43.34232" lon="5.24139">
        <ele>167</ele>
        <time>2016-03-10T14:03:43Z</time>
      </trkpt>
      <trkpt lat="43.34234" lon="5.24141">
        <ele>167</ele>
        <time>2016-03-10T14:03:45Z</time>
      </trkpt>
      <trkpt lat="43.34235" lon="5.24143">
        <ele>167</ele>
        <time>2016-03-10T14:03:47Z</time>
      </trkpt>
      <trkpt lat="43.34236" lon="5.24145">
        <ele>167</ele>
        <time>2016-03-10T14:03:48Z</time>
      </trkpt>
      <trkpt lat="43.34237" lon="5.24146">
        <ele>167</ele>
        <time>2016-03-10T14:03:49Z</time>
      </trkpt>
      <trkpt lat="43.34239" lon="5.24149">
        <ele>167</ele>
        <time>2016-03-10T14:03:51Z</time>
      </trkpt>
      <trkpt lat="43.3424" lon="5.24151">
        <ele>167</ele>
        <time>2016-03-10T14:03:52Z</time>
      </trkpt>
      <trkpt lat="43.3424" lon="5.24152">
        <ele>167</ele>
        <time>2016-03-10T14:03:53Z</time>
      </trkpt>
      <trkpt lat="43.34241" lon="5.24154">
        <ele>167</ele>
        <time>2016-03-10T14:03:54Z</time>
      </trkpt>
      <trkpt lat="43.34242" lon="5.24155">
        <ele>167</ele>
        <time>2016-03-10T14:03:55Z</time>
      </trkpt>
      <trkpt lat="43.34243" lon="5.24157">
        <ele>167</ele>
        <time>2016-03-10T14:03:56Z</time>
      </trkpt>
      <trkpt lat="43.34244" lon="5.2416">
        <ele>167</ele>
        <time>2016-03-10T14:03:58Z</time>
      </trkpt>
      <trkpt lat="43.34245" lon="5.24161">
        <ele>167</ele>
        <time>2016-03-10T14:03:59Z</time>
      </trkpt>
      <trkpt lat="43.34246" lon="5.24164">
        <ele>167</ele>
        <time>2016-03-10T14:04:01Z</time>
      </trkpt>
      <trkpt lat="43.34247" lon="5.24165">
        <ele>167</ele>
        <time>2016-03-10T14:04:02Z</time>
      </trkpt>
      <trkpt lat="43.34249" lon="5.24168">
        <ele>167</ele>
        <time>2016-03-10T14:04:04Z</time>
      </trkpt>
      <trkpt lat="43.3425" lon="5.24169">
        <ele>167</ele>
        <time>2016-03-10T14:04:05Z</time>
      </trkpt>
      <trkpt lat="43.34252" lon="5.24171">
        <ele>168</ele>
        <time>2016-03-10T14:04:07Z</time>
      </trkpt>
      <trkpt lat="43.34253" lon="5.24172">
        <ele>168</ele>
        <time>2016-03-10T14:04:08Z</time>
      </trkpt>
      <trkpt lat="43.34256" lon="5.24173">
        <ele>168</ele>
        <time>2016-03-10T14:04:10Z</time>
      </trkpt>
      <trkpt lat="43.34257" lon="5.24174">
        <ele>168</ele>
        <time>2016-03-10T14:04:11Z</time>
      </trkpt>
      <trkpt lat="43.34258" lon="5.24175">
        <ele>168</ele>
        <time>2016-03-10T14:04:12Z</time>
      </trkpt>
      <trkpt lat="43.34259" lon="5.24176">
        <ele>168</ele>
        <time>2016-03-10T14:04:13Z</time>
      </trkpt>
      <trkpt lat="43.3426" lon="5.24177">
        <ele>168</ele>
        <time>2016-03-10T14:04:14Z</time>
      </trkpt>
      <trkpt lat="43.34261" lon="5.24177">
        <ele>168</ele>
        <time>2016-03-10T14:04:15Z</time>
      </trkpt>
      <trkpt lat="43.34262" lon="5.24178">
        <ele>168</ele>
        <time>2016-03-10T14:04:16Z</time>
      </trkpt>
      <trkpt lat="43.34264" lon="5.24181">
        <ele>168</ele>
        <time>2016-03-10T14:04:18Z</time>
      </trkpt>
      <trkpt lat="43.34267" lon="5.24184">
        <ele>168</ele>
        <time>2016-03-10T14:04:20Z</time>
      </trkpt>
      <trkpt lat="43.34267" lon="5.24185">
        <ele>168</ele>
        <time>2016-03-10T14:04:21Z</time>
      </trkpt>
      <trkpt lat="43.34268" lon="5.24187">
        <ele>168</ele>
        <time>2016-03-10T14:04:22Z</time>
      </trkpt>
      <trkpt lat="43.34269" lon="5.24188">
        <ele>168</ele>
        <time>2016-03-10T14:04:23Z</time>
      </trkpt>
      <trkpt lat="43.3427" lon="5.2419">
        <ele>168</ele>
        <time>2016-03-10T14:04:24Z</time>
      </trkpt>
      <trkpt lat="43.34271" lon="5.24191">
        <ele>168</ele>
        <time>2016-03-10T14:04:25Z</time>
      </trkpt>
      <trkpt lat="43.34272" lon="5.24193">
        <ele>168</ele>
        <time>2016-03-10T14:04:26Z</time>
      </trkpt>
      <trkpt lat="43.34273" lon="5.24195">
        <ele>168</ele>
        <time>2016-03-10T14:04:27Z</time>
      </trkpt>
      <trkpt lat="43.34274" lon="5.24196">
        <ele>168</ele>
        <time>2016-03-10T14:04:28Z</time>
      </trkpt>
      <trkpt lat="43.34275" lon="5.24198">
        <ele>169</ele>
        <time>2016-03-10T14:04:29Z</time>
      </trkpt>
      <trkpt lat="43.34276" lon="5.24199">
        <ele>169</ele>
        <time>2016-03-10T14:04:30Z</time>
      </trkpt>
      <trkpt lat="43.34277" lon="5.24202">
        <ele>169</ele>
        <time>2016-03-10T14:04:32Z</time>
      </trkpt>
      <trkpt lat="43.3428" lon="5.24204">
        <ele>169</ele>
        <time>2016-03-10T14:04:34Z</time>
      </trkpt>
      <trkpt lat="43.34281" lon="5.24207">
        <ele>169</ele>
        <time>2016-03-10T14:04:36Z</time>
      </trkpt>
      <trkpt lat="43.34283" lon="5.24209">
        <ele>170</ele>
        <time>2016-03-10T14:04:38Z</time>
      </trkpt>
      <trkpt lat="43.34285" lon="5.24212">
        <ele>170</ele>
        <time>2016-03-10T14:04:40Z</time>
      </trkpt>
      <trkpt lat="43.34287" lon="5.24215">
        <ele>170</ele>
        <time>2016-03-10T14:04:42Z</time>
      </trkpt>
      <trkpt lat="43.34288" lon="5.24217">
        <ele>170</ele>
        <time>2016-03-10T14:04:44Z</time>
      </trkpt>
      <trkpt lat="43.3429" lon="5.2422">
        <ele>171</ele>
        <time>2016-03-10T14:04:46Z</time>
      </trkpt>
      <trkpt lat="43.34293" lon="5.24222">
        <ele>171</ele>
        <time>2016-03-10T14:04:48Z</time>
      </trkpt>
      <trkpt lat="43.34295" lon="5.24224">
        <ele>171</ele>
        <time>2016-03-10T14:04:50Z</time>
      </trkpt>
      <trkpt lat="43.34297" lon="5.24227">
        <ele>171</ele>
        <time>2016-03-10T14:04:52Z</time>
      </trkpt>
      <trkpt lat="43.34299" lon="5.24229">
        <ele>171</ele>
        <time>2016-03-10T14:04:54Z</time>
      </trkpt>
      <trkpt lat="43.34301" lon="5.2423">
        <ele>171</ele>
        <time>2016-03-10T14:04:55Z</time>
      </trkpt>
      <trkpt lat="43.34302" lon="5.2423">
        <ele>171</ele>
        <time>2016-03-10T14:04:56Z</time>
      </trkpt>
      <trkpt lat="43.34303" lon="5.24231">
        <ele>171</ele>
        <time>2016-03-10T14:04:57Z</time>
      </trkpt>
      <trkpt lat="43.34304" lon="5.24232">
        <ele>171</ele>
        <time>2016-03-10T14:04:58Z</time>
      </trkpt>
      <trkpt lat="43.34306" lon="5.24232">
        <ele>171</ele>
        <time>2016-03-10T14:04:59Z</time>
      </trkpt>
      <trkpt lat="43.34307" lon="5.24233">
        <ele>171</ele>
        <time>2016-03-10T14:05:00Z</time>
      </trkpt>
      <trkpt lat="43.34309" lon="5.24233">
        <ele>171</ele>
        <time>2016-03-10T14:05:01Z</time>
      </trkpt>
      <trkpt lat="43.3431" lon="5.24234">
        <ele>171</ele>
        <time>2016-03-10T14:05:02Z</time>
      </trkpt>
      <trkpt lat="43.34311" lon="5.24235">
        <ele>171</ele>
        <time>2016-03-10T14:05:03Z</time>
      </trkpt>
      <trkpt lat="43.34312" lon="5.24236">
        <ele>171</ele>
        <time>2016-03-10T14:05:04Z</time>
      </trkpt>
      <trkpt lat="43.34314" lon="5.24237">
        <ele>171</ele>
        <time>2016-03-10T14:05:05Z</time>
      </trkpt>
      <trkpt lat="43.34315" lon="5.24238">
        <ele>171</ele>
        <time>2016-03-10T14:05:06Z</time>
      </trkpt>
      <trkpt lat="43.34316" lon="5.24238">
        <ele>171</ele>
        <time>2016-03-10T14:05:07Z</time>
      </trkpt>
      <trkpt lat="43.34317" lon="5.24239">
        <ele>171</ele>
        <time>2016-03-10T14:05:08Z</time>
      </trkpt>
      <trkpt lat="43.34319" lon="5.2424">
        <ele>171</ele>
        <time>2016-03-10T14:05:09Z</time>
      </trkpt>
      <trkpt lat="43.3432" lon="5.2424">
        <ele>171</ele>
        <time>2016-03-10T14:05:10Z</time>
      </trkpt>
      <trkpt lat="43.34322" lon="5.24241">
        <ele>171</ele>
        <time>2016-03-10T14:05:11Z</time>
      </trkpt>
      <trkpt lat="43.34323" lon="5.24242">
        <ele>171</ele>
        <time>2016-03-10T14:05:12Z</time>
      </trkpt>
      <trkpt lat="43.34324" lon="5.24243">
        <ele>171</ele>
        <time>2016-03-10T14:05:13Z</time>
      </trkpt>
      <trkpt lat="43.34325" lon="5.24244">
        <ele>171</ele>
        <time>2016-03-10T14:05:14Z</time>
      </trkpt>
      <trkpt lat="43.34326" lon="5.24246">
        <ele>171</ele>
        <time>2016-03-10T14:05:15Z</time>
      </trkpt>
      <trkpt lat="43.34328" lon="5.24248">
        <ele>171</ele>
        <time>2016-03-10T14:05:17Z</time>
      </trkpt>
      <trkpt lat="43.3433" lon="5.24249">
        <ele>171</ele>
        <time>2016-03-10T14:05:18Z</time>
      </trkpt>
      <trkpt lat="43.34331" lon="5.2425">
        <ele>171</ele>
        <time>2016-03-10T14:05:19Z</time>
      </trkpt>
      <trkpt lat="43.34332" lon="5.24251">
        <ele>171</ele>
        <time>2016-03-10T14:05:20Z</time>
      </trkpt>
      <trkpt lat="43.34333" lon="5.24252">
        <ele>171</ele>
        <time>2016-03-10T14:05:21Z</time>
      </trkpt>
      <trkpt lat="43.34335" lon="5.24252">
        <ele>171</ele>
        <time>2016-03-10T14:05:22Z</time>
      </trkpt>
      <trkpt lat="43.34336" lon="5.24252">
        <ele>171</ele>
        <time>2016-03-10T14:05:23Z</time>
      </trkpt>
      <trkpt lat="43.34337" lon="5.24252">
        <ele>171</ele>
        <time>2016-03-10T14:05:24Z</time>
      </trkpt>
      <trkpt lat="43.34339" lon="5.24252">
        <ele>171</ele>
        <time>2016-03-10T14:05:25Z</time>
      </trkpt>
      <trkpt lat="43.3434" lon="5.24252">
        <ele>171</ele>
        <time>2016-03-10T14:05:26Z</time>
      </trkpt>
      <trkpt lat="43.34341" lon="5.24252">
        <ele>171</ele>
        <time>2016-03-10T14:05:27Z</time>
      </trkpt>
      <trkpt lat="43.34343" lon="5.24252">
        <ele>171</ele>
        <time>2016-03-10T14:05:28Z</time>
      </trkpt>
      <trkpt lat="43.34344" lon="5.24251">
        <ele>171</ele>
        <time>2016-03-10T14:05:29Z</time>
      </trkpt>
      <trkpt lat="43.34345" lon="5.2425">
        <ele>171</ele>
        <time>2016-03-10T14:05:30Z</time>
      </trkpt>
      <trkpt lat="43.34346" lon="5.24249">
        <ele>171</ele>
        <time>2016-03-10T14:05:31Z</time>
      </trkpt>
      <trkpt lat="43.34349" lon="5.24248">
        <ele>171</ele>
        <time>2016-03-10T14:05:33Z</time>
      </trkpt>
      <trkpt lat="43.34351" lon="5.24247">
        <ele>171</ele>
        <time>2016-03-10T14:05:35Z</time>
      </trkpt>
      <trkpt lat="43.34352" lon="5.24246">
        <ele>171</ele>
        <time>2016-03-10T14:05:36Z</time>
      </trkpt>
      <trkpt lat="43.34353" lon="5.24245">
        <ele>171</ele>
        <time>2016-03-10T14:05:37Z</time>
      </trkpt>
      <trkpt lat="43.34354" lon="5.24245">
        <ele>171</ele>
        <time>2016-03-10T14:05:38Z</time>
      </trkpt>
      <trkpt lat="43.34356" lon="5.24245">
        <ele>171</ele>
        <time>2016-03-10T14:05:39Z</time>
      </trkpt>
      <trkpt lat="43.34357" lon="5.24244">
        <ele>172</ele>
        <time>2016-03-10T14:05:40Z</time>
      </trkpt>
      <trkpt lat="43.34358" lon="5.24244">
        <ele>172</ele>
        <time>2016-03-10T14:05:41Z</time>
      </trkpt>
      <trkpt lat="43.3436" lon="5.24244">
        <ele>172</ele>
        <time>2016-03-10T14:05:42Z</time>
      </trkpt>
      <trkpt lat="43.34361" lon="5.24244">
        <ele>172</ele>
        <time>2016-03-10T14:05:43Z</time>
      </trkpt>
      <trkpt lat="43.34362" lon="5.24244">
        <ele>172</ele>
        <time>2016-03-10T14:05:44Z</time>
      </trkpt>
      <trkpt lat="43.34364" lon="5.24244">
        <ele>172</ele>
        <time>2016-03-10T14:05:45Z</time>
      </trkpt>
      <trkpt lat="43.34365" lon="5.24244">
        <ele>173</ele>
        <time>2016-03-10T14:05:46Z</time>
      </trkpt>
      <trkpt lat="43.34366" lon="5.24244">
        <ele>173</ele>
        <time>2016-03-10T14:05:47Z</time>
      </trkpt>
      <trkpt lat="43.34367" lon="5.24244">
        <ele>173</ele>
        <time>2016-03-10T14:05:48Z</time>
      </trkpt>
      <trkpt lat="43.34369" lon="5.24244">
        <ele>173</ele>
        <time>2016-03-10T14:05:49Z</time>
      </trkpt>
      <trkpt lat="43.3437" lon="5.24244">
        <ele>173</ele>
        <time>2016-03-10T14:05:50Z</time>
      </trkpt>
      <trkpt lat="43.34371" lon="5.24244">
        <ele>174</ele>
        <time>2016-03-10T14:05:51Z</time>
      </trkpt>
      <trkpt lat="43.34373" lon="5.24243">
        <ele>174</ele>
        <time>2016-03-10T14:05:52Z</time>
      </trkpt>
      <trkpt lat="43.34374" lon="5.24243">
        <ele>174</ele>
        <time>2016-03-10T14:05:53Z</time>
      </trkpt>
      <trkpt lat="43.34375" lon="5.24242">
        <ele>174</ele>
        <time>2016-03-10T14:05:54Z</time>
      </trkpt>
      <trkpt lat="43.34377" lon="5.24242">
        <ele>174</ele>
        <time>2016-03-10T14:05:55Z</time>
      </trkpt>
      <trkpt lat="43.34378" lon="5.24241">
        <ele>174</ele>
        <time>2016-03-10T14:05:56Z</time>
      </trkpt>
      <trkpt lat="43.34379" lon="5.24241">
        <ele>174</ele>
        <time>2016-03-10T14:05:57Z</time>
      </trkpt>
      <trkpt lat="43.3438" lon="5.2424">
        <ele>174</ele>
        <time>2016-03-10T14:05:58Z</time>
      </trkpt>
      <trkpt lat="43.34382" lon="5.24239">
        <ele>174</ele>
        <time>2016-03-10T14:05:59Z</time>
      </trkpt>
      <trkpt lat="43.34383" lon="5.24238">
        <ele>174</ele>
        <time>2016-03-10T14:06:00Z</time>
      </trkpt>
      <trkpt lat="43.34385" lon="5.24237">
        <ele>174</ele>
        <time>2016-03-10T14:06:01Z</time>
      </trkpt>
      <trkpt lat="43.34386" lon="5.24237">
        <ele>174</ele>
        <time>2016-03-10T14:06:02Z</time>
      </trkpt>
      <trkpt lat="43.34388" lon="5.24236">
        <ele>174</ele>
        <time>2016-03-10T14:06:03Z</time>
      </trkpt>
      <trkpt lat="43.34389" lon="5.24235">
        <ele>174</ele>
        <time>2016-03-10T14:06:04Z</time>
      </trkpt>
      <trkpt lat="43.3439" lon="5.24235">
        <ele>174</ele>
        <time>2016-03-10T14:06:05Z</time>
      </trkpt>
      <trkpt lat="43.34392" lon="5.24234">
        <ele>174</ele>
        <time>2016-03-10T14:06:06Z</time>
      </trkpt>
      <trkpt lat="43.34393" lon="5.24233">
        <ele>174</ele>
        <time>2016-03-10T14:06:07Z</time>
      </trkpt>
      <trkpt lat="43.34394" lon="5.24233">
        <ele>174</ele>
        <time>2016-03-10T14:06:08Z</time>
      </trkpt>
      <trkpt lat="43.34396" lon="5.24232">
        <ele>174</ele>
        <time>2016-03-10T14:06:09Z</time>
      </trkpt>
      <trkpt lat="43.34397" lon="5.24231">
        <ele>174</ele>
        <time>2016-03-10T14:06:10Z</time>
      </trkpt>
      <trkpt lat="43.34398" lon="5.2423">
        <ele>174</ele>
        <time>2016-03-10T14:06:11Z</time>
      </trkpt>
      <trkpt lat="43.34399" lon="5.24229">
        <ele>174</ele>
        <time>2016-03-10T14:06:12Z</time>
      </trkpt>
      <trkpt lat="43.34401" lon="5.24229">
        <ele>174</ele>
        <time>2016-03-10T14:06:13Z</time>
      </trkpt>
      <trkpt lat="43.34402" lon="5.24228">
        <ele>174</ele>
        <time>2016-03-10T14:06:14Z</time>
      </trkpt>
      <trkpt lat="43.34403" lon="5.24227">
        <ele>174</ele>
        <time>2016-03-10T14:06:15Z</time>
      </trkpt>
      <trkpt lat="43.34404" lon="5.24226">
        <ele>174</ele>
        <time>2016-03-10T14:06:16Z</time>
      </trkpt>
      <trkpt lat="43.34405" lon="5.24225">
        <ele>174</ele>
        <time>2016-03-10T14:06:17Z</time>
      </trkpt>
      <trkpt lat="43.34407" lon="5.24225">
        <ele>174</ele>
        <time>2016-03-10T14:06:18Z</time>
      </trkpt>
      <trkpt lat="43.34408" lon="5.24224">
        <ele>174</ele>
        <time>2016-03-10T14:06:19Z</time>
      </trkpt>
      <trkpt lat="43.34409" lon="5.24223">
        <ele>174</ele>
        <time>2016-03-10T14:06:20Z</time>
      </trkpt>
      <trkpt lat="43.3441" lon="5.24222">
        <ele>174</ele>
        <time>2016-03-10T14:06:21Z</time>
      </trkpt>
      <trkpt lat="43.34412" lon="5.24221">
        <ele>174</ele>
        <time>2016-03-10T14:06:23Z</time>
      </trkpt>
      <trkpt lat="43.34415" lon="5.24219">
        <ele>174</ele>
        <time>2016-03-10T14:06:25Z</time>
      </trkpt>
      <trkpt lat="43.34416" lon="5.24218">
        <ele>175</ele>
        <time>2016-03-10T14:06:26Z</time>
      </trkpt>
      <trkpt lat="43.34417" lon="5.24217">
        <ele>175</ele>
        <time>2016-03-10T14:06:27Z</time>
      </trkpt>
      <trkpt lat="43.34418" lon="5.24216">
        <ele>175</ele>
        <time>2016-03-10T14:06:28Z</time>
      </trkpt>
      <trkpt lat="43.3442" lon="5.24216">
        <ele>175</ele>
        <time>2016-03-10T14:06:29Z</time>
      </trkpt>
      <trkpt lat="43.34421" lon="5.24215">
        <ele>175</ele>
        <time>2016-03-10T14:06:30Z</time>
      </trkpt>
      <trkpt lat="43.34422" lon="5.24214">
        <ele>175</ele>
        <time>2016-03-10T14:06:31Z</time>
      </trkpt>
      <trkpt lat="43.34423" lon="5.24214">
        <ele>175</ele>
        <time>2016-03-10T14:06:32Z</time>
      </trkpt>
      <trkpt lat="43.34425" lon="5.24213">
        <ele>175</ele>
        <time>2016-03-10T14:06:33Z</time>
      </trkpt>
      <trkpt lat="43.34426" lon="5.24212">
        <ele>175</ele>
        <time>2016-03-10T14:06:34Z</time>
      </trkpt>
      <trkpt lat="43.34427" lon="5.24211">
        <ele>176</ele>
        <time>2016-03-10T14:06:35Z</time>
      </trkpt>
      <trkpt lat="43.34428" lon="5.2421">
        <ele>176</ele>
        <time>2016-03-10T14:06:36Z</time>
      </trkpt>
      <trkpt lat="43.3443" lon="5.24209">
        <ele>176</ele>
        <time>2016-03-10T14:06:38Z</time>
      </trkpt>
      <trkpt lat="43.34432" lon="5.24209">
        <ele>176</ele>
        <time>2016-03-10T14:06:39Z</time>
      </trkpt>
      <trkpt lat="43.34433" lon="5.24208">
        <ele>176</ele>
        <time>2016-03-10T14:06:40Z</time>
      </trkpt>
      <trkpt lat="43.34434" lon="5.24207">
        <ele>176</ele>
        <time>2016-03-10T14:06:41Z</time>
      </trkpt>
      <trkpt lat="43.34436" lon="5.24206">
        <ele>176</ele>
        <time>2016-03-10T14:06:42Z</time>
      </trkpt>
      <trkpt lat="43.34436" lon="5.24204">
        <ele>176</ele>
        <time>2016-03-10T14:06:43Z</time>
      </trkpt>
      <trkpt lat="43.34438" lon="5.24203">
        <ele>177</ele>
        <time>2016-03-10T14:06:44Z</time>
      </trkpt>
      <trkpt lat="43.34439" lon="5.24202">
        <ele>177</ele>
        <time>2016-03-10T14:06:45Z</time>
      </trkpt>
      <trkpt lat="43.3444" lon="5.24201">
        <ele>177</ele>
        <time>2016-03-10T14:06:46Z</time>
      </trkpt>
      <trkpt lat="43.34442" lon="5.24198">
        <ele>177</ele>
        <time>2016-03-10T14:06:48Z</time>
      </trkpt>
      <trkpt lat="43.34443" lon="5.24197">
        <ele>177</ele>
        <time>2016-03-10T14:06:49Z</time>
      </trkpt>
      <trkpt lat="43.34444" lon="5.24195">
        <ele>177</ele>
        <time>2016-03-10T14:06:50Z</time>
      </trkpt>
      <trkpt lat="43.34446" lon="5.24193">
        <ele>177</ele>
        <time>2016-03-10T14:06:52Z</time>
      </trkpt>
      <trkpt lat="43.34447" lon="5.24192">
        <ele>178</ele>
        <time>2016-03-10T14:06:53Z</time>
      </trkpt>
      <trkpt lat="43.34448" lon="5.24191">
        <ele>178</ele>
        <time>2016-03-10T14:06:54Z</time>
      </trkpt>
      <trkpt lat="43.34449" lon="5.24191">
        <ele>178</ele>
        <time>2016-03-10T14:06:55Z</time>
      </trkpt>
      <trkpt lat="43.34452" lon="5.24189">
        <ele>178</ele>
        <time>2016-03-10T14:06:57Z</time>
      </trkpt>
      <trkpt lat="43.34453" lon="5.24189">
        <ele>178</ele>
        <time>2016-03-10T14:06:58Z</time>
      </trkpt>
      <trkpt lat="43.34454" lon="5.24188">
        <ele>178</ele>
        <time>2016-03-10T14:06:59Z</time>
      </trkpt>
      <trkpt lat="43.34455" lon="5.24187">
        <ele>178</ele>
        <time>2016-03-10T14:07:00Z</time>
      </trkpt>
      <trkpt lat="43.34456" lon="5.24187">
        <ele>178</ele>
        <time>2016-03-10T14:07:01Z</time>
      </trkpt>
      <trkpt lat="43.34458" lon="5.24187">
        <ele>179</ele>
        <time>2016-03-10T14:07:02Z</time>
      </trkpt>
      <trkpt lat="43.34459" lon="5.24187">
        <ele>179</ele>
        <time>2016-03-10T14:07:03Z</time>
      </trkpt>
      <trkpt lat="43.3446" lon="5.24186">
        <ele>179</ele>
        <time>2016-03-10T14:07:04Z</time>
      </trkpt>
      <trkpt lat="43.34462" lon="5.24186">
        <ele>179</ele>
        <time>2016-03-10T14:07:05Z</time>
      </trkpt>
      <trkpt lat="43.34463" lon="5.24186">
        <ele>179</ele>
        <time>2016-03-10T14:07:06Z</time>
      </trkpt>
      <trkpt lat="43.34464" lon="5.24186">
        <ele>179</ele>
        <time>2016-03-10T14:07:07Z</time>
      </trkpt>
      <trkpt lat="43.34465" lon="5.24185">
        <ele>179</ele>
        <time>2016-03-10T14:07:08Z</time>
      </trkpt>
      <trkpt lat="43.34467" lon="5.24185">
        <ele>180</ele>
        <time>2016-03-10T14:07:09Z</time>
      </trkpt>
      <trkpt lat="43.34468" lon="5.24184">
        <ele>180</ele>
        <time>2016-03-10T14:07:10Z</time>
      </trkpt>
      <trkpt lat="43.34469" lon="5.24184">
        <ele>180</ele>
        <time>2016-03-10T14:07:11Z</time>
      </trkpt>
      <trkpt lat="43.3447" lon="5.24183">
        <ele>180</ele>
        <time>2016-03-10T14:07:12Z</time>
      </trkpt>
      <trkpt lat="43.34472" lon="5.24183">
        <ele>180</ele>
        <time>2016-03-10T14:07:13Z</time>
      </trkpt>
      <trkpt lat="43.34473" lon="5.24182">
        <ele>180</ele>
        <time>2016-03-10T14:07:14Z</time>
      </trkpt>
      <trkpt lat="43.34475" lon="5.24182">
        <ele>180</ele>
        <time>2016-03-10T14:07:15Z</time>
      </trkpt>
      <trkpt lat="43.34476" lon="5.24182">
        <ele>180</ele>
        <time>2016-03-10T14:07:16Z</time>
      </trkpt>
      <trkpt lat="43.34477" lon="5.24181">
        <ele>180</ele>
        <time>2016-03-10T14:07:17Z</time>
      </trkpt>
      <trkpt lat="43.34479" lon="5.24181">
        <ele>180</ele>
        <time>2016-03-10T14:07:18Z</time>
      </trkpt>
      <trkpt lat="43.3448" lon="5.2418">
        <ele>181</ele>
        <time>2016-03-10T14:07:19Z</time>
      </trkpt>
      <trkpt lat="43.34481" lon="5.24179">
        <ele>181</ele>
        <time>2016-03-10T14:07:20Z</time>
      </trkpt>
      <trkpt lat="43.34483" lon="5.24179">
        <ele>181</ele>
        <time>2016-03-10T14:07:21Z</time>
      </trkpt>
      <trkpt lat="43.34484" lon="5.24178">
        <ele>181</ele>
        <time>2016-03-10T14:07:22Z</time>
      </trkpt>
      <trkpt lat="43.34485" lon="5.24177">
        <ele>181</ele>
        <time>2016-03-10T14:07:23Z</time>
      </trkpt>
      <trkpt lat="43.34486" lon="5.24176">
        <ele>181</ele>
        <time>2016-03-10T14:07:24Z</time>
      </trkpt>
      <trkpt lat="43.34488" lon="5.24175">
        <ele>181</ele>
        <time>2016-03-10T14:07:25Z</time>
      </trkpt>
      <trkpt lat="43.34489" lon="5.24175">
        <ele>181</ele>
        <time>2016-03-10T14:07:26Z</time>
      </trkpt>
      <trkpt lat="43.34491" lon="5.24172">
        <ele>182</ele>
        <time>2016-03-10T14:07:28Z</time>
      </trkpt>
      <trkpt lat="43.34492" lon="5.24171">
        <ele>182</ele>
        <time>2016-03-10T14:07:29Z</time>
      </trkpt>
      <trkpt lat="43.34493" lon="5.2417">
        <ele>182</ele>
        <time>2016-03-10T14:07:30Z</time>
      </trkpt>
      <trkpt lat="43.34494" lon="5.24169">
        <ele>182</ele>
        <time>2016-03-10T14:07:31Z</time>
      </trkpt>
      <trkpt lat="43.34497" lon="5.24167">
        <ele>183</ele>
        <time>2016-03-10T14:07:33Z</time>
      </trkpt>
      <trkpt lat="43.34499" lon="5.24164">
        <ele>183</ele>
        <time>2016-03-10T14:07:35Z</time>
      </trkpt>
      <trkpt lat="43.345" lon="5.24161">
        <ele>183</ele>
        <time>2016-03-10T14:07:37Z</time>
      </trkpt>
      <trkpt lat="43.34501" lon="5.2416">
        <ele>183</ele>
        <time>2016-03-10T14:07:38Z</time>
      </trkpt>
      <trkpt lat="43.34502" lon="5.24158">
        <ele>184</ele>
        <time>2016-03-10T14:07:39Z</time>
      </trkpt>
      <trkpt lat="43.34503" lon="5.24157">
        <ele>184</ele>
        <time>2016-03-10T14:07:40Z</time>
      </trkpt>
      <trkpt lat="43.34505" lon="5.24154">
        <ele>184</ele>
        <time>2016-03-10T14:07:42Z</time>
      </trkpt>
      <trkpt lat="43.34506" lon="5.24153">
        <ele>184</ele>
        <time>2016-03-10T14:07:43Z</time>
      </trkpt>
      <trkpt lat="43.34507" lon="5.2415">
        <ele>185</ele>
        <time>2016-03-10T14:07:45Z</time>
      </trkpt>
      <trkpt lat="43.34509" lon="5.24148">
        <ele>185</ele>
        <time>2016-03-10T14:07:46Z</time>
      </trkpt>
      <trkpt lat="43.3451" lon="5.24146">
        <ele>185</ele>
        <time>2016-03-10T14:07:48Z</time>
      </trkpt>
      <trkpt lat="43.34512" lon="5.24145">
        <ele>185</ele>
        <time>2016-03-10T14:07:49Z</time>
      </trkpt>
      <trkpt lat="43.34513" lon="5.24144">
        <ele>186</ele>
        <time>2016-03-10T14:07:50Z</time>
      </trkpt>
      <trkpt lat="43.34514" lon="5.24143">
        <ele>186</ele>
        <time>2016-03-10T14:07:51Z</time>
      </trkpt>
      <trkpt lat="43.34515" lon="5.24142">
        <ele>186</ele>
        <time>2016-03-10T14:07:52Z</time>
      </trkpt>
      <trkpt lat="43.34516" lon="5.24141">
        <ele>186</ele>
        <time>2016-03-10T14:07:53Z</time>
      </trkpt>
      <trkpt lat="43.34518" lon="5.2414">
        <ele>186</ele>
        <time>2016-03-10T14:07:54Z</time>
      </trkpt>
      <trkpt lat="43.34519" lon="5.24139">
        <ele>186</ele>
        <time>2016-03-10T14:07:55Z</time>
      </trkpt>
      <trkpt lat="43.3452" lon="5.24138">
        <ele>186</ele>
        <time>2016-03-10T14:07:56Z</time>
      </trkpt>
      <trkpt lat="43.34521" lon="5.24137">
        <ele>186</ele>
        <time>2016-03-10T14:07:57Z</time>
      </trkpt>
      <trkpt lat="43.34523" lon="5.24137">
        <ele>186</ele>
        <time>2016-03-10T14:07:58Z</time>
      </trkpt>
      <trkpt lat="43.34524" lon="5.24136">
        <ele>186</ele>
        <time>2016-03-10T14:07:59Z</time>
      </trkpt>
      <trkpt lat="43.34526" lon="5.24135">
        <ele>187</ele>
        <time>2016-03-10T14:08:01Z</time>
      </trkpt>
      <trkpt lat="43.34527" lon="5.24134">
        <ele>187</ele>
        <time>2016-03-10T14:08:02Z</time>
      </trkpt>
      <trkpt lat="43.34528" lon="5.24133">
        <ele>187</ele>
        <time>2016-03-10T14:08:03Z</time>
      </trkpt>
      <trkpt lat="43.34529" lon="5.24132">
        <ele>187</ele>
        <time>2016-03-10T14:08:04Z</time>
      </trkpt>
      <trkpt lat="43.34531" lon="5.24131">
        <ele>187</ele>
        <time>2016-03-10T14:08:05Z</time>
      </trkpt>
      <trkpt lat="43.34532" lon="5.2413">
        <ele>187</ele>
        <time>2016-03-10T14:08:06Z</time>
      </trkpt>
      <trkpt lat="43.34533" lon="5.24129">
        <ele>187</ele>
        <time>2016-03-10T14:08:07Z</time>
      </trkpt>
      <trkpt lat="43.34534" lon="5.24129">
        <ele>188</ele>
        <time>2016-03-10T14:08:08Z</time>
      </trkpt>
      <trkpt lat="43.34536" lon="5.24128">
        <ele>188</ele>
        <time>2016-03-10T14:08:09Z</time>
      </trkpt>
      <trkpt lat="43.34537" lon="5.24127">
        <ele>188</ele>
        <time>2016-03-10T14:08:10Z</time>
      </trkpt>
      <trkpt lat="43.34538" lon="5.24127">
        <ele>188</ele>
        <time>2016-03-10T14:08:11Z</time>
      </trkpt>
      <trkpt lat="43.34539" lon="5.24126">
        <ele>188</ele>
        <time>2016-03-10T14:08:12Z</time>
      </trkpt>
      <trkpt lat="43.34541" lon="5.24125">
        <ele>188</ele>
        <time>2016-03-10T14:08:13Z</time>
      </trkpt>
      <trkpt lat="43.34542" lon="5.24125">
        <ele>188</ele>
        <time>2016-03-10T14:08:14Z</time>
      </trkpt>
      <trkpt lat="43.34543" lon="5.24124">
        <ele>189</ele>
        <time>2016-03-10T14:08:15Z</time>
      </trkpt>
      <trkpt lat="43.34544" lon="5.24124">
        <ele>189</ele>
        <time>2016-03-10T14:08:16Z</time>
      </trkpt>
      <trkpt lat="43.34546" lon="5.24123">
        <ele>189</ele>
        <time>2016-03-10T14:08:17Z</time>
      </trkpt>
      <trkpt lat="43.34547" lon="5.24122">
        <ele>189</ele>
        <time>2016-03-10T14:08:18Z</time>
      </trkpt>
      <trkpt lat="43.34548" lon="5.24121">
        <ele>189</ele>
        <time>2016-03-10T14:08:19Z</time>
      </trkpt>
      <trkpt lat="43.34549" lon="5.2412">
        <ele>189</ele>
        <time>2016-03-10T14:08:20Z</time>
      </trkpt>
      <trkpt lat="43.3455" lon="5.2412">
        <ele>189</ele>
        <time>2016-03-10T14:08:21Z</time>
      </trkpt>
      <trkpt lat="43.34552" lon="5.24119">
        <ele>189</ele>
        <time>2016-03-10T14:08:22Z</time>
      </trkpt>
      <trkpt lat="43.34553" lon="5.24118">
        <ele>189</ele>
        <time>2016-03-10T14:08:23Z</time>
      </trkpt>
      <trkpt lat="43.34555" lon="5.24117">
        <ele>190</ele>
        <time>2016-03-10T14:08:25Z</time>
      </trkpt>
      <trkpt lat="43.34556" lon="5.24117">
        <ele>190</ele>
        <time>2016-03-10T14:08:26Z</time>
      </trkpt>
      <trkpt lat="43.34558" lon="5.24117">
        <ele>190</ele>
        <time>2016-03-10T14:08:27Z</time>
      </trkpt>
      <trkpt lat="43.34559" lon="5.24116">
        <ele>190</ele>
        <time>2016-03-10T14:08:28Z</time>
      </trkpt>
      <trkpt lat="43.3456" lon="5.24116">
        <ele>190</ele>
        <time>2016-03-10T14:08:29Z</time>
      </trkpt>
      <trkpt lat="43.34562" lon="5.24115">
        <ele>190</ele>
        <time>2016-03-10T14:08:30Z</time>
      </trkpt>
      <trkpt lat="43.34563" lon="5.24115">
        <ele>190</ele>
        <time>2016-03-10T14:08:31Z</time>
      </trkpt>
      <trkpt lat="43.34564" lon="5.24115">
        <ele>190</ele>
        <time>2016-03-10T14:08:32Z</time>
      </trkpt>
      <trkpt lat="43.34566" lon="5.24114">
        <ele>190</ele>
        <time>2016-03-10T14:08:33Z</time>
      </trkpt>
      <trkpt lat="43.34567" lon="5.24114">
        <ele>191</ele>
        <time>2016-03-10T14:08:34Z</time>
      </trkpt>
      <trkpt lat="43.34569" lon="5.24113">
        <ele>191</ele>
        <time>2016-03-10T14:08:36Z</time>
      </trkpt>
      <trkpt lat="43.3457" lon="5.24113">
        <ele>191</ele>
        <time>2016-03-10T14:08:37Z</time>
      </trkpt>
      <trkpt lat="43.34572" lon="5.24113">
        <ele>191</ele>
        <time>2016-03-10T14:08:38Z</time>
      </trkpt>
      <trkpt lat="43.34573" lon="5.24112">
        <ele>191</ele>
        <time>2016-03-10T14:08:39Z</time>
      </trkpt>
      <trkpt lat="43.34574" lon="5.24112">
        <ele>191</ele>
        <time>2016-03-10T14:08:40Z</time>
      </trkpt>
      <trkpt lat="43.34575" lon="5.24112">
        <ele>191</ele>
        <time>2016-03-10T14:08:41Z</time>
      </trkpt>
      <trkpt lat="43.34576" lon="5.24112">
        <ele>191</ele>
        <time>2016-03-10T14:08:42Z</time>
      </trkpt>
      <trkpt lat="43.34578" lon="5.24111">
        <ele>191</ele>
        <time>2016-03-10T14:08:43Z</time>
      </trkpt>
      <trkpt lat="43.34579" lon="5.24111">
        <ele>191</ele>
        <time>2016-03-10T14:08:44Z</time>
      </trkpt>
      <trkpt lat="43.3458" lon="5.2411">
        <ele>192</ele>
        <time>2016-03-10T14:08:45Z</time>
      </trkpt>
      <trkpt lat="43.34581" lon="5.2411">
        <ele>192</ele>
        <time>2016-03-10T14:08:46Z</time>
      </trkpt>
      <trkpt lat="43.34582" lon="5.24109">
        <ele>192</ele>
        <time>2016-03-10T14:08:47Z</time>
      </trkpt>
      <trkpt lat="43.34584" lon="5.24109">
        <ele>192</ele>
        <time>2016-03-10T14:08:48Z</time>
      </trkpt>
      <trkpt lat="43.34585" lon="5.24108">
        <ele>192</ele>
        <time>2016-03-10T14:08:49Z</time>
      </trkpt>
      <trkpt lat="43.34586" lon="5.24107">
        <ele>192</ele>
        <time>2016-03-10T14:08:50Z</time>
      </trkpt>
      <trkpt lat="43.34587" lon="5.24107">
        <ele>192</ele>
        <time>2016-03-10T14:08:51Z</time>
      </trkpt>
      <trkpt lat="43.34589" lon="5.24105">
        <ele>193</ele>
        <time>2016-03-10T14:08:53Z</time>
      </trkpt>
      <trkpt lat="43.34591" lon="5.24103">
        <ele>193</ele>
        <time>2016-03-10T14:08:55Z</time>
      </trkpt>
      <trkpt lat="43.34592" lon="5.24102">
        <ele>193</ele>
        <time>2016-03-10T14:08:56Z</time>
      </trkpt>
      <trkpt lat="43.34594" lon="5.24102">
        <ele>193</ele>
        <time>2016-03-10T14:08:57Z</time>
      </trkpt>
      <trkpt lat="43.34596" lon="5.24099">
        <ele>193</ele>
        <time>2016-03-10T14:08:59Z</time>
      </trkpt>
      <trkpt lat="43.34597" lon="5.24099">
        <ele>193</ele>
        <time>2016-03-10T14:09:00Z</time>
      </trkpt>
      <trkpt lat="43.34599" lon="5.24097">
        <ele>194</ele>
        <time>2016-03-10T14:09:02Z</time>
      </trkpt>
      <trkpt lat="43.346" lon="5.24096">
        <ele>194</ele>
        <time>2016-03-10T14:09:03Z</time>
      </trkpt>
      <trkpt lat="43.34601" lon="5.24095">
        <ele>194</ele>
        <time>2016-03-10T14:09:04Z</time>
      </trkpt>
      <trkpt lat="43.34602" lon="5.24094">
        <ele>194</ele>
        <time>2016-03-10T14:09:05Z</time>
      </trkpt>
      <trkpt lat="43.34604" lon="5.24093">
        <ele>194</ele>
        <time>2016-03-10T14:09:06Z</time>
      </trkpt>
      <trkpt lat="43.34605" lon="5.24092">
        <ele>194</ele>
        <time>2016-03-10T14:09:07Z</time>
      </trkpt>
      <trkpt lat="43.34606" lon="5.24091">
        <ele>194</ele>
        <time>2016-03-10T14:09:08Z</time>
      </trkpt>
      <trkpt lat="43.34608" lon="5.24089">
        <ele>195</ele>
        <time>2016-03-10T14:09:10Z</time>
      </trkpt>
      <trkpt lat="43.3461" lon="5.24088">
        <ele>195</ele>
        <time>2016-03-10T14:09:12Z</time>
      </trkpt>
      <trkpt lat="43.34612" lon="5.24088">
        <ele>195</ele>
        <time>2016-03-10T14:09:13Z</time>
      </trkpt>
      <trkpt lat="43.34613" lon="5.24087">
        <ele>195</ele>
        <time>2016-03-10T14:09:14Z</time>
      </trkpt>
      <trkpt lat="43.34614" lon="5.24086">
        <ele>195</ele>
        <time>2016-03-10T14:09:15Z</time>
      </trkpt>
      <trkpt lat="43.34615" lon="5.24086">
        <ele>195</ele>
        <time>2016-03-10T14:09:16Z</time>
      </trkpt>
      <trkpt lat="43.34617" lon="5.24085">
        <ele>195</ele>
        <time>2016-03-10T14:09:17Z</time>
      </trkpt>
      <trkpt lat="43.34618" lon="5.24084">
        <ele>196</ele>
        <time>2016-03-10T14:09:18Z</time>
      </trkpt>
      <trkpt lat="43.34619" lon="5.24084">
        <ele>196</ele>
        <time>2016-03-10T14:09:19Z</time>
      </trkpt>
      <trkpt lat="43.3462" lon="5.24083">
        <ele>196</ele>
        <time>2016-03-10T14:09:20Z</time>
      </trkpt>
      <trkpt lat="43.34622" lon="5.24081">
        <ele>196</ele>
        <time>2016-03-10T14:09:22Z</time>
      </trkpt>
      <trkpt lat="43.34624" lon="5.2408">
        <ele>197</ele>
        <time>2016-03-10T14:09:24Z</time>
      </trkpt>
      <trkpt lat="43.34626" lon="5.24078">
        <ele>197</ele>
        <time>2016-03-10T14:09:25Z</time>
      </trkpt>
      <trkpt lat="43.34627" lon="5.24077">
        <ele>197</ele>
        <time>2016-03-10T14:09:26Z</time>
      </trkpt>
      <trkpt lat="43.34629" lon="5.24075">
        <ele>197</ele>
        <time>2016-03-10T14:09:28Z</time>
      </trkpt>
      <trkpt lat="43.34631" lon="5.24072">
        <ele>197</ele>
        <time>2016-03-10T14:09:30Z</time>
      </trkpt>
      <trkpt lat="43.34631" lon="5.24071">
        <ele>197</ele>
        <time>2016-03-10T14:09:31Z</time>
      </trkpt>
      <trkpt lat="43.34632" lon="5.24069">
        <ele>198</ele>
        <time>2016-03-10T14:09:32Z</time>
      </trkpt>
      <trkpt lat="43.34634" lon="5.24067">
        <ele>198</ele>
        <time>2016-03-10T14:09:34Z</time>
      </trkpt>
      <trkpt lat="43.34634" lon="5.24065">
        <ele>198</ele>
        <time>2016-03-10T14:09:35Z</time>
      </trkpt>
      <trkpt lat="43.34634" lon="5.24063">
        <ele>198</ele>
        <time>2016-03-10T14:09:36Z</time>
      </trkpt>
      <trkpt lat="43.34635" lon="5.24061">
        <ele>198</ele>
        <time>2016-03-10T14:09:37Z</time>
      </trkpt>
      <trkpt lat="43.34636" lon="5.2406">
        <ele>198</ele>
        <time>2016-03-10T14:09:38Z</time>
      </trkpt>
      <trkpt lat="43.34636" lon="5.24058">
        <ele>198</ele>
        <time>2016-03-10T14:09:39Z</time>
      </trkpt>
      <trkpt lat="43.34637" lon="5.24056">
        <ele>199</ele>
        <time>2016-03-10T14:09:41Z</time>
      </trkpt>
      <trkpt lat="43.34638" lon="5.24053">
        <ele>199</ele>
        <time>2016-03-10T14:09:43Z</time>
      </trkpt>
      <trkpt lat="43.34639" lon="5.24052">
        <ele>199</ele>
        <time>2016-03-10T14:09:44Z</time>
      </trkpt>
      <trkpt lat="43.3464" lon="5.2405">
        <ele>199</ele>
        <time>2016-03-10T14:09:45Z</time>
      </trkpt>
      <trkpt lat="43.3464" lon="5.24049">
        <ele>199</ele>
        <time>2016-03-10T14:09:46Z</time>
      </trkpt>
      <trkpt lat="43.34641" lon="5.24047">
        <ele>200</ele>
        <time>2016-03-10T14:09:47Z</time>
      </trkpt>
      <trkpt lat="43.34642" lon="5.24045">
        <ele>200</ele>
        <time>2016-03-10T14:09:49Z</time>
      </trkpt>
      <trkpt lat="43.34642" lon="5.24042">
        <ele>201</ele>
        <time>2016-03-10T14:09:51Z</time>
      </trkpt>
      <trkpt lat="43.34643" lon="5.24041">
        <ele>201</ele>
        <time>2016-03-10T14:09:52Z</time>
      </trkpt>
      <trkpt lat="43.34643" lon="5.24039">
        <ele>201</ele>
        <time>2016-03-10T14:09:53Z</time>
      </trkpt>
      <trkpt lat="43.34644" lon="5.24038">
        <ele>201</ele>
        <time>2016-03-10T14:09:54Z</time>
      </trkpt>
      <trkpt lat="43.34644" lon="5.24036">
        <ele>201</ele>
        <time>2016-03-10T14:09:55Z</time>
      </trkpt>
      <trkpt lat="43.34644" lon="5.24035">
        <ele>201</ele>
        <time>2016-03-10T14:09:56Z</time>
      </trkpt>
      <trkpt lat="43.34645" lon="5.24032">
        <ele>202</ele>
        <time>2016-03-10T14:09:58Z</time>
      </trkpt>
      <trkpt lat="43.34645" lon="5.2403">
        <ele>203</ele>
        <time>2016-03-10T14:10:00Z</time>
      </trkpt>
      <trkpt lat="43.34645" lon="5.24028">
        <ele>203</ele>
        <time>2016-03-10T14:10:01Z</time>
      </trkpt>
      <trkpt lat="43.34645" lon="5.24027">
        <ele>203</ele>
        <time>2016-03-10T14:10:02Z</time>
      </trkpt>
      <trkpt lat="43.34645" lon="5.24024">
        <ele>204</ele>
        <time>2016-03-10T14:10:04Z</time>
      </trkpt>
      <trkpt lat="43.34646" lon="5.24022">
        <ele>204</ele>
        <time>2016-03-10T14:10:05Z</time>
      </trkpt>
      <trkpt lat="43.34646" lon="5.24021">
        <ele>205</ele>
        <time>2016-03-10T14:10:06Z</time>
      </trkpt>
      <trkpt lat="43.34646" lon="5.24019">
        <ele>205</ele>
        <time>2016-03-10T14:10:07Z</time>
      </trkpt>
      <trkpt lat="43.34646" lon="5.24018">
        <ele>205</ele>
        <time>2016-03-10T14:10:08Z</time>
      </trkpt>
      <trkpt lat="43.34646" lon="5.24016">
        <ele>206</ele>
        <time>2016-03-10T14:10:09Z</time>
      </trkpt>
      <trkpt lat="43.34646" lon="5.24015">
        <ele>206</ele>
        <time>2016-03-10T14:10:10Z</time>
      </trkpt>
      <trkpt lat="43.34646" lon="5.24013">
        <ele>206</ele>
        <time>2016-03-10T14:10:11Z</time>
      </trkpt>
      <trkpt lat="43.34646" lon="5.24012">
        <ele>206</ele>
        <time>2016-03-10T14:10:12Z</time>
      </trkpt>
      <trkpt lat="43.34647" lon="5.2401">
        <ele>207</ele>
        <time>2016-03-10T14:10:13Z</time>
      </trkpt>
      <trkpt lat="43.34647" lon="5.24008">
        <ele>207</ele>
        <time>2016-03-10T14:10:14Z</time>
      </trkpt>
      <trkpt lat="43.34647" lon="5.24006">
        <ele>207</ele>
        <time>2016-03-10T14:10:15Z</time>
      </trkpt>
      <trkpt lat="43.34647" lon="5.24005">
        <ele>207</ele>
        <time>2016-03-10T14:10:16Z</time>
      </trkpt>
      <trkpt lat="43.34647" lon="5.24003">
        <ele>208</ele>
        <time>2016-03-10T14:10:17Z</time>
      </trkpt>
      <trkpt lat="43.34647" lon="5.24002">
        <ele>208</ele>
        <time>2016-03-10T14:10:18Z</time>
      </trkpt>
      <trkpt lat="43.34647" lon="5.24">
        <ele>208</ele>
        <time>2016-03-10T14:10:19Z</time>
      </trkpt>
      <trkpt lat="43.34648" lon="5.23999">
        <ele>208</ele>
        <time>2016-03-10T14:10:20Z</time>
      </trkpt>
      <trkpt lat="43.34648" lon="5.23997">
        <ele>209</ele>
        <time>2016-03-10T14:10:21Z</time>
      </trkpt>
      <trkpt lat="43.34648" lon="5.23995">
        <ele>209</ele>
        <time>2016-03-10T14:10:22Z</time>
      </trkpt>
      <trkpt lat="43.34649" lon="5.23994">
        <ele>209</ele>
        <time>2016-03-10T14:10:23Z</time>
      </trkpt>
      <trkpt lat="43.34649" lon="5.23992">
        <ele>209</ele>
        <time>2016-03-10T14:10:24Z</time>
      </trkpt>
      <trkpt lat="43.3465" lon="5.23991">
        <ele>210</ele>
        <time>2016-03-10T14:10:25Z</time>
      </trkpt>
      <trkpt lat="43.3465" lon="5.23989">
        <ele>210</ele>
        <time>2016-03-10T14:10:26Z</time>
      </trkpt>
      <trkpt lat="43.3465" lon="5.23988">
        <ele>210</ele>
        <time>2016-03-10T14:10:27Z</time>
      </trkpt>
      <trkpt lat="43.34652" lon="5.23985">
        <ele>211</ele>
        <time>2016-03-10T14:10:29Z</time>
      </trkpt>
      <trkpt lat="43.34652" lon="5.23983">
        <ele>211</ele>
        <time>2016-03-10T14:10:30Z</time>
      </trkpt>
      <trkpt lat="43.34653" lon="5.23981">
        <ele>211</ele>
        <time>2016-03-10T14:10:32Z</time>
      </trkpt>
      <trkpt lat="43.34654" lon="5.23979">
        <ele>212</ele>
        <time>2016-03-10T14:10:33Z</time>
      </trkpt>
      <trkpt lat="43.34655" lon="5.23978">
        <ele>212</ele>
        <time>2016-03-10T14:10:34Z</time>
      </trkpt>
      <trkpt lat="43.34656" lon="5.23976">
        <ele>212</ele>
        <time>2016-03-10T14:10:35Z</time>
      </trkpt>
      <trkpt lat="43.34657" lon="5.23974">
        <ele>212</ele>
        <time>2016-03-10T14:10:37Z</time>
      </trkpt>
      <trkpt lat="43.34659" lon="5.23971">
        <ele>213</ele>
        <time>2016-03-10T14:10:39Z</time>
      </trkpt>
      <trkpt lat="43.34659" lon="5.2397">
        <ele>213</ele>
        <time>2016-03-10T14:10:40Z</time>
      </trkpt>
      <trkpt lat="43.34661" lon="5.23968">
        <ele>213</ele>
        <time>2016-03-10T14:10:42Z</time>
      </trkpt>
      <trkpt lat="43.34663" lon="5.23965">
        <ele>213</ele>
        <time>2016-03-10T14:10:44Z</time>
      </trkpt>
      <trkpt lat="43.34665" lon="5.23963">
        <ele>214</ele>
        <time>2016-03-10T14:10:46Z</time>
      </trkpt>
      <trkpt lat="43.34666" lon="5.23961">
        <ele>214</ele>
        <time>2016-03-10T14:10:48Z</time>
      </trkpt>
      <trkpt lat="43.34668" lon="5.23958">
        <ele>214</ele>
        <time>2016-03-10T14:10:50Z</time>
      </trkpt>
      <trkpt lat="43.3467" lon="5.23956">
        <ele>214</ele>
        <time>2016-03-10T14:10:52Z</time>
      </trkpt>
      <trkpt lat="43.34671" lon="5.23953">
        <ele>214</ele>
        <time>2016-03-10T14:10:54Z</time>
      </trkpt>
      <trkpt lat="43.34672" lon="5.23952">
        <ele>215</ele>
        <time>2016-03-10T14:10:55Z</time>
      </trkpt>
      <trkpt lat="43.34673" lon="5.23949">
        <ele>215</ele>
        <time>2016-03-10T14:10:57Z</time>
      </trkpt>
      <trkpt lat="43.34674" lon="5.23948">
        <ele>215</ele>
        <time>2016-03-10T14:10:58Z</time>
      </trkpt>
      <trkpt lat="43.34675" lon="5.23946">
        <ele>215</ele>
        <time>2016-03-10T14:10:59Z</time>
      </trkpt>
      <trkpt lat="43.34675" lon="5.23945">
        <ele>215</ele>
        <time>2016-03-10T14:11:00Z</time>
      </trkpt>
      <trkpt lat="43.34676" lon="5.23943">
        <ele>215</ele>
        <time>2016-03-10T14:11:02Z</time>
      </trkpt>
      <trkpt lat="43.34676" lon="5.23941">
        <ele>216</ele>
        <time>2016-03-10T14:11:04Z</time>
      </trkpt>
      <trkpt lat="43.34676" lon="5.23942">
        <ele>217</ele>
        <time>2016-03-10T14:11:30Z</time>
      </trkpt>
      <trkpt lat="43.34676" lon="5.23944">
        <ele>219</ele>
        <time>2016-03-10T14:11:59Z</time>
      </trkpt>
      <trkpt lat="43.34675" lon="5.23943">
        <ele>221</ele>
        <time>2016-03-10T14:12:58Z</time>
      </trkpt>
      <trkpt lat="43.34675" lon="5.23942">
        <ele>221</ele>
        <time>2016-03-10T14:13:02Z</time>
      </trkpt>
      <trkpt lat="43.34676" lon="5.23942">
        <ele>221</ele>
        <time>2016-03-10T14:13:53Z</time>
      </trkpt>
      <trkpt lat="43.34679" lon="5.23943">
        <ele>221</ele>
        <time>2016-03-10T14:13:55Z</time>
      </trkpt>
      <trkpt lat="43.3468" lon="5.23942">
        <ele>221</ele>
        <time>2016-03-10T14:13:56Z</time>
      </trkpt>
      <trkpt lat="43.34681" lon="5.23942">
        <ele>221</ele>
        <time>2016-03-10T14:13:57Z</time>
      </trkpt>
      <trkpt lat="43.34682" lon="5.23942">
        <ele>221</ele>
        <time>2016-03-10T14:13:58Z</time>
      </trkpt>
      <trkpt lat="43.34684" lon="5.23942">
        <ele>221</ele>
        <time>2016-03-10T14:13:59Z</time>
      </trkpt>
      <trkpt lat="43.34685" lon="5.23942">
        <ele>221</ele>
        <time>2016-03-10T14:14:00Z</time>
      </trkpt>
      <trkpt lat="43.34686" lon="5.23942">
        <ele>221</ele>
        <time>2016-03-10T14:14:01Z</time>
      </trkpt>
      <trkpt lat="43.34688" lon="5.23942">
        <ele>221</ele>
        <time>2016-03-10T14:14:02Z</time>
      </trkpt>
      <trkpt lat="43.34689" lon="5.23942">
        <ele>221</ele>
        <time>2016-03-10T14:14:03Z</time>
      </trkpt>
      <trkpt lat="43.3469" lon="5.23942">
        <ele>221</ele>
        <time>2016-03-10T14:14:04Z</time>
      </trkpt>
      <trkpt lat="43.34692" lon="5.23942">
        <ele>221</ele>
        <time>2016-03-10T14:14:05Z</time>
      </trkpt>
      <trkpt lat="43.34693" lon="5.23943">
        <ele>221</ele>
        <time>2016-03-10T14:14:06Z</time>
      </trkpt>
      <trkpt lat="43.34694" lon="5.23942">
        <ele>221</ele>
        <time>2016-03-10T14:14:07Z</time>
      </trkpt>
      <trkpt lat="43.34696" lon="5.23942">
        <ele>221</ele>
        <time>2016-03-10T14:14:08Z</time>
      </trkpt>
      <trkpt lat="43.34697" lon="5.23942">
        <ele>221</ele>
        <time>2016-03-10T14:14:09Z</time>
      </trkpt>
      <trkpt lat="43.34698" lon="5.23942">
        <ele>221</ele>
        <time>2016-03-10T14:14:10Z</time>
      </trkpt>
      <trkpt lat="43.347" lon="5.23942">
        <ele>221</ele>
        <time>2016-03-10T14:14:11Z</time>
      </trkpt>
      <trkpt lat="43.34702" lon="5.23942">
        <ele>221</ele>
        <time>2016-03-10T14:14:12Z</time>
      </trkpt>
      <trkpt lat="43.34703" lon="5.23943">
        <ele>221</ele>
        <time>2016-03-10T14:14:13Z</time>
      </trkpt>
      <trkpt lat="43.34704" lon="5.23943">
        <ele>221</ele>
        <time>2016-03-10T14:14:14Z</time>
      </trkpt>
      <trkpt lat="43.34706" lon="5.23943">
        <ele>221</ele>
        <time>2016-03-10T14:14:15Z</time>
      </trkpt>
      <trkpt lat="43.34707" lon="5.23943">
        <ele>221</ele>
        <time>2016-03-10T14:14:16Z</time>
      </trkpt>
      <trkpt lat="43.34709" lon="5.23943">
        <ele>221</ele>
        <time>2016-03-10T14:14:17Z</time>
      </trkpt>
      <trkpt lat="43.3471" lon="5.23943">
        <ele>221</ele>
        <time>2016-03-10T14:14:18Z</time>
      </trkpt>
      <trkpt lat="43.34712" lon="5.23943">
        <ele>221</ele>
        <time>2016-03-10T14:14:19Z</time>
      </trkpt>
      <trkpt lat="43.34713" lon="5.23943">
        <ele>221</ele>
        <time>2016-03-10T14:14:20Z</time>
      </trkpt>
      <trkpt lat="43.34715" lon="5.23943">
        <ele>221</ele>
        <time>2016-03-10T14:14:21Z</time>
      </trkpt>
      <trkpt lat="43.34716" lon="5.23943">
        <ele>221</ele>
        <time>2016-03-10T14:14:22Z</time>
      </trkpt>
      <trkpt lat="43.34718" lon="5.23943">
        <ele>221</ele>
        <time>2016-03-10T14:14:23Z</time>
      </trkpt>
      <trkpt lat="43.34719" lon="5.23943">
        <ele>221</ele>
        <time>2016-03-10T14:14:24Z</time>
      </trkpt>
      <trkpt lat="43.34721" lon="5.23943">
        <ele>221</ele>
        <time>2016-03-10T14:14:25Z</time>
      </trkpt>
      <trkpt lat="43.34723" lon="5.23942">
        <ele>221</ele>
        <time>2016-03-10T14:14:26Z</time>
      </trkpt>
      <trkpt lat="43.34724" lon="5.23942">
        <ele>221</ele>
        <time>2016-03-10T14:14:27Z</time>
      </trkpt>
      <trkpt lat="43.34726" lon="5.23942">
        <ele>221</ele>
        <time>2016-03-10T14:14:28Z</time>
      </trkpt>
      <trkpt lat="43.34727" lon="5.23942">
        <ele>221</ele>
        <time>2016-03-10T14:14:29Z</time>
      </trkpt>
      <trkpt lat="43.34729" lon="5.23941">
        <ele>221</ele>
        <time>2016-03-10T14:14:30Z</time>
      </trkpt>
      <trkpt lat="43.3473" lon="5.23941">
        <ele>221</ele>
        <time>2016-03-10T14:14:31Z</time>
      </trkpt>
      <trkpt lat="43.34732" lon="5.23941">
        <ele>221</ele>
        <time>2016-03-10T14:14:32Z</time>
      </trkpt>
      <trkpt lat="43.34733" lon="5.23941">
        <ele>221</ele>
        <time>2016-03-10T14:14:33Z</time>
      </trkpt>
      <trkpt lat="43.34734" lon="5.2394">
        <ele>221</ele>
        <time>2016-03-10T14:14:34Z</time>
      </trkpt>
      <trkpt lat="43.34736" lon="5.2394">
        <ele>221</ele>
        <time>2016-03-10T14:14:35Z</time>
      </trkpt>
      <trkpt lat="43.34737" lon="5.2394">
        <ele>221</ele>
        <time>2016-03-10T14:14:36Z</time>
      </trkpt>
      <trkpt lat="43.34739" lon="5.23939">
        <ele>221</ele>
        <time>2016-03-10T14:14:37Z</time>
      </trkpt>
      <trkpt lat="43.3474" lon="5.23939">
        <ele>221</ele>
        <time>2016-03-10T14:14:38Z</time>
      </trkpt>
      <trkpt lat="43.34742" lon="5.23939">
        <ele>221</ele>
        <time>2016-03-10T14:14:39Z</time>
      </trkpt>
      <trkpt lat="43.34743" lon="5.23938">
        <ele>221</ele>
        <time>2016-03-10T14:14:40Z</time>
      </trkpt>
      <trkpt lat="43.34745" lon="5.23938">
        <ele>220</ele>
        <time>2016-03-10T14:14:41Z</time>
      </trkpt>
      <trkpt lat="43.34746" lon="5.23938">
        <ele>220</ele>
        <time>2016-03-10T14:14:42Z</time>
      </trkpt>
      <trkpt lat="43.34748" lon="5.23937">
        <ele>220</ele>
        <time>2016-03-10T14:14:43Z</time>
      </trkpt>
      <trkpt lat="43.3475" lon="5.23937">
        <ele>220</ele>
        <time>2016-03-10T14:14:44Z</time>
      </trkpt>
      <trkpt lat="43.34751" lon="5.23937">
        <ele>220</ele>
        <time>2016-03-10T14:14:45Z</time>
      </trkpt>
      <trkpt lat="43.34752" lon="5.23936">
        <ele>220</ele>
        <time>2016-03-10T14:14:46Z</time>
      </trkpt>
      <trkpt lat="43.34754" lon="5.23936">
        <ele>220</ele>
        <time>2016-03-10T14:14:47Z</time>
      </trkpt>
      <trkpt lat="43.34755" lon="5.23935">
        <ele>220</ele>
        <time>2016-03-10T14:14:48Z</time>
      </trkpt>
      <trkpt lat="43.34757" lon="5.23934">
        <ele>220</ele>
        <time>2016-03-10T14:14:49Z</time>
      </trkpt>
      <trkpt lat="43.34758" lon="5.23934">
        <ele>220</ele>
        <time>2016-03-10T14:14:50Z</time>
      </trkpt>
      <trkpt lat="43.3476" lon="5.23933">
        <ele>220</ele>
        <time>2016-03-10T14:14:51Z</time>
      </trkpt>
      <trkpt lat="43.34761" lon="5.23933">
        <ele>220</ele>
        <time>2016-03-10T14:14:52Z</time>
      </trkpt>
      <trkpt lat="43.34763" lon="5.23932">
        <ele>220</ele>
        <time>2016-03-10T14:14:53Z</time>
      </trkpt>
      <trkpt lat="43.34764" lon="5.23932">
        <ele>220</ele>
        <time>2016-03-10T14:14:54Z</time>
      </trkpt>
      <trkpt lat="43.34766" lon="5.23931">
        <ele>220</ele>
        <time>2016-03-10T14:14:55Z</time>
      </trkpt>
      <trkpt lat="43.34767" lon="5.23931">
        <ele>220</ele>
        <time>2016-03-10T14:14:56Z</time>
      </trkpt>
      <trkpt lat="43.34769" lon="5.2393">
        <ele>220</ele>
        <time>2016-03-10T14:14:57Z</time>
      </trkpt>
      <trkpt lat="43.3477" lon="5.23929">
        <ele>220</ele>
        <time>2016-03-10T14:14:58Z</time>
      </trkpt>
      <trkpt lat="43.34772" lon="5.23929">
        <ele>220</ele>
        <time>2016-03-10T14:14:59Z</time>
      </trkpt>
      <trkpt lat="43.34773" lon="5.23928">
        <ele>220</ele>
        <time>2016-03-10T14:15:00Z</time>
      </trkpt>
      <trkpt lat="43.34774" lon="5.23928">
        <ele>220</ele>
        <time>2016-03-10T14:15:01Z</time>
      </trkpt>
      <trkpt lat="43.34776" lon="5.23927">
        <ele>220</ele>
        <time>2016-03-10T14:15:02Z</time>
      </trkpt>
      <trkpt lat="43.34777" lon="5.23927">
        <ele>220</ele>
        <time>2016-03-10T14:15:03Z</time>
      </trkpt>
      <trkpt lat="43.34779" lon="5.23927">
        <ele>220</ele>
        <time>2016-03-10T14:15:04Z</time>
      </trkpt>
      <trkpt lat="43.34781" lon="5.23927">
        <ele>220</ele>
        <time>2016-03-10T14:15:05Z</time>
      </trkpt>
      <trkpt lat="43.34782" lon="5.23927">
        <ele>220</ele>
        <time>2016-03-10T14:15:06Z</time>
      </trkpt>
      <trkpt lat="43.34784" lon="5.23927">
        <ele>220</ele>
        <time>2016-03-10T14:15:07Z</time>
      </trkpt>
      <trkpt lat="43.34785" lon="5.23927">
        <ele>220</ele>
        <time>2016-03-10T14:15:08Z</time>
      </trkpt>
      <trkpt lat="43.34787" lon="5.23927">
        <ele>220</ele>
        <time>2016-03-10T14:15:09Z</time>
      </trkpt>
      <trkpt lat="43.34788" lon="5.23927">
        <ele>220</ele>
        <time>2016-03-10T14:15:10Z</time>
      </trkpt>
      <trkpt lat="43.34789" lon="5.23927">
        <ele>220</ele>
        <time>2016-03-10T14:15:11Z</time>
      </trkpt>
      <trkpt lat="43.34791" lon="5.23928">
        <ele>220</ele>
        <time>2016-03-10T14:15:12Z</time>
      </trkpt>
      <trkpt lat="43.34792" lon="5.23928">
        <ele>220</ele>
        <time>2016-03-10T14:15:13Z</time>
      </trkpt>
      <trkpt lat="43.34794" lon="5.23929">
        <ele>220</ele>
        <time>2016-03-10T14:15:14Z</time>
      </trkpt>
      <trkpt lat="43.34795" lon="5.2393">
        <ele>220</ele>
        <time>2016-03-10T14:15:15Z</time>
      </trkpt>
      <trkpt lat="43.34797" lon="5.23931">
        <ele>220</ele>
        <time>2016-03-10T14:15:16Z</time>
      </trkpt>
      <trkpt lat="43.34798" lon="5.23932">
        <ele>220</ele>
        <time>2016-03-10T14:15:17Z</time>
      </trkpt>
      <trkpt lat="43.34799" lon="5.23933">
        <ele>220</ele>
        <time>2016-03-10T14:15:18Z</time>
      </trkpt>
      <trkpt lat="43.34801" lon="5.23934">
        <ele>220</ele>
        <time>2016-03-10T14:15:19Z</time>
      </trkpt>
      <trkpt lat="43.34802" lon="5.23935">
        <ele>220</ele>
        <time>2016-03-10T14:15:20Z</time>
      </trkpt>
      <trkpt lat="43.34803" lon="5.23936">
        <ele>220</ele>
        <time>2016-03-10T14:15:21Z</time>
      </trkpt>
      <trkpt lat="43.34805" lon="5.23936">
        <ele>220</ele>
        <time>2016-03-10T14:15:22Z</time>
      </trkpt>
      <trkpt lat="43.34806" lon="5.23937">
        <ele>220</ele>
        <time>2016-03-10T14:15:23Z</time>
      </trkpt>
      <trkpt lat="43.34808" lon="5.23938">
        <ele>220</ele>
        <time>2016-03-10T14:15:24Z</time>
      </trkpt>
      <trkpt lat="43.34809" lon="5.23939">
        <ele>220</ele>
        <time>2016-03-10T14:15:25Z</time>
      </trkpt>
      <trkpt lat="43.34811" lon="5.23939">
        <ele>220</ele>
        <time>2016-03-10T14:15:26Z</time>
      </trkpt>
      <trkpt lat="43.34812" lon="5.2394">
        <ele>220</ele>
        <time>2016-03-10T14:15:27Z</time>
      </trkpt>
      <trkpt lat="43.34814" lon="5.23941">
        <ele>220</ele>
        <time>2016-03-10T14:15:28Z</time>
      </trkpt>
      <trkpt lat="43.34815" lon="5.23942">
        <ele>220</ele>
        <time>2016-03-10T14:15:29Z</time>
      </trkpt>
      <trkpt lat="43.34817" lon="5.23943">
        <ele>220</ele>
        <time>2016-03-10T14:15:30Z</time>
      </trkpt>
      <trkpt lat="43.34818" lon="5.23943">
        <ele>220</ele>
        <time>2016-03-10T14:15:31Z</time>
      </trkpt>
      <trkpt lat="43.3482" lon="5.23944">
        <ele>220</ele>
        <time>2016-03-10T14:15:32Z</time>
      </trkpt>
      <trkpt lat="43.34821" lon="5.23945">
        <ele>220</ele>
        <time>2016-03-10T14:15:33Z</time>
      </trkpt>
      <trkpt lat="43.34822" lon="5.23945">
        <ele>220</ele>
        <time>2016-03-10T14:15:34Z</time>
      </trkpt>
      <trkpt lat="43.34824" lon="5.23946">
        <ele>220</ele>
        <time>2016-03-10T14:15:35Z</time>
      </trkpt>
      <trkpt lat="43.34826" lon="5.23947">
        <ele>220</ele>
        <time>2016-03-10T14:15:36Z</time>
      </trkpt>
      <trkpt lat="43.34827" lon="5.23947">
        <ele>220</ele>
        <time>2016-03-10T14:15:37Z</time>
      </trkpt>
      <trkpt lat="43.34828" lon="5.23948">
        <ele>220</ele>
        <time>2016-03-10T14:15:38Z</time>
      </trkpt>
      <trkpt lat="43.3483" lon="5.23949">
        <ele>220</ele>
        <time>2016-03-10T14:15:39Z</time>
      </trkpt>
      <trkpt lat="43.34831" lon="5.23949">
        <ele>220</ele>
        <time>2016-03-10T14:15:40Z</time>
      </trkpt>
      <trkpt lat="43.34833" lon="5.2395">
        <ele>220</ele>
        <time>2016-03-10T14:15:41Z</time>
      </trkpt>
      <trkpt lat="43.34835" lon="5.2395">
        <ele>220</ele>
        <time>2016-03-10T14:15:42Z</time>
      </trkpt>
      <trkpt lat="43.34836" lon="5.23951">
        <ele>220</ele>
        <time>2016-03-10T14:15:43Z</time>
      </trkpt>
      <trkpt lat="43.34838" lon="5.23951">
        <ele>220</ele>
        <time>2016-03-10T14:15:44Z</time>
      </trkpt>
      <trkpt lat="43.34839" lon="5.23951">
        <ele>220</ele>
        <time>2016-03-10T14:15:45Z</time>
      </trkpt>
      <trkpt lat="43.34841" lon="5.23951">
        <ele>220</ele>
        <time>2016-03-10T14:15:46Z</time>
      </trkpt>
      <trkpt lat="43.34842" lon="5.23952">
        <ele>220</ele>
        <time>2016-03-10T14:15:47Z</time>
      </trkpt>
      <trkpt lat="43.34844" lon="5.23952">
        <ele>220</ele>
        <time>2016-03-10T14:15:48Z</time>
      </trkpt>
      <trkpt lat="43.34845" lon="5.23952">
        <ele>220</ele>
        <time>2016-03-10T14:15:49Z</time>
      </trkpt>
      <trkpt lat="43.34847" lon="5.23951">
        <ele>220</ele>
        <time>2016-03-10T14:15:50Z</time>
      </trkpt>
      <trkpt lat="43.34848" lon="5.23951">
        <ele>220</ele>
        <time>2016-03-10T14:15:51Z</time>
      </trkpt>
      <trkpt lat="43.3485" lon="5.2395">
        <ele>220</ele>
        <time>2016-03-10T14:15:52Z</time>
      </trkpt>
      <trkpt lat="43.34851" lon="5.2395">
        <ele>220</ele>
        <time>2016-03-10T14:15:53Z</time>
      </trkpt>
      <trkpt lat="43.34853" lon="5.23949">
        <ele>220</ele>
        <time>2016-03-10T14:15:54Z</time>
      </trkpt>
      <trkpt lat="43.34855" lon="5.23949">
        <ele>220</ele>
        <time>2016-03-10T14:15:55Z</time>
      </trkpt>
      <trkpt lat="43.34856" lon="5.23948">
        <ele>220</ele>
        <time>2016-03-10T14:15:56Z</time>
      </trkpt>
      <trkpt lat="43.34857" lon="5.23947">
        <ele>220</ele>
        <time>2016-03-10T14:15:57Z</time>
      </trkpt>
      <trkpt lat="43.34859" lon="5.23947">
        <ele>220</ele>
        <time>2016-03-10T14:15:58Z</time>
      </trkpt>
      <trkpt lat="43.3486" lon="5.23946">
        <ele>220</ele>
        <time>2016-03-10T14:15:59Z</time>
      </trkpt>
      <trkpt lat="43.34861" lon="5.23945">
        <ele>220</ele>
        <time>2016-03-10T14:16:00Z</time>
      </trkpt>
      <trkpt lat="43.34863" lon="5.23944">
        <ele>220</ele>
        <time>2016-03-10T14:16:01Z</time>
      </trkpt>
      <trkpt lat="43.34864" lon="5.23943">
        <ele>220</ele>
        <time>2016-03-10T14:16:02Z</time>
      </trkpt>
      <trkpt lat="43.34866" lon="5.23942">
        <ele>220</ele>
        <time>2016-03-10T14:16:03Z</time>
      </trkpt>
      <trkpt lat="43.34867" lon="5.2394">
        <ele>220</ele>
        <time>2016-03-10T14:16:04Z</time>
      </trkpt>
      <trkpt lat="43.34868" lon="5.23939">
        <ele>220</ele>
        <time>2016-03-10T14:16:05Z</time>
      </trkpt>
      <trkpt lat="43.3487" lon="5.23936">
        <ele>220</ele>
        <time>2016-03-10T14:16:07Z</time>
      </trkpt>
      <trkpt lat="43.34871" lon="5.23935">
        <ele>220</ele>
        <time>2016-03-10T14:16:08Z</time>
      </trkpt>
      <trkpt lat="43.34872" lon="5.23933">
        <ele>220</ele>
        <time>2016-03-10T14:16:09Z</time>
      </trkpt>
      <trkpt lat="43.34874" lon="5.23932">
        <ele>220</ele>
        <time>2016-03-10T14:16:10Z</time>
      </trkpt>
      <trkpt lat="43.34875" lon="5.2393">
        <ele>220</ele>
        <time>2016-03-10T14:16:11Z</time>
      </trkpt>
      <trkpt lat="43.34876" lon="5.23929">
        <ele>220</ele>
        <time>2016-03-10T14:16:12Z</time>
      </trkpt>
      <trkpt lat="43.34877" lon="5.23927">
        <ele>220</ele>
        <time>2016-03-10T14:16:13Z</time>
      </trkpt>
      <trkpt lat="43.34878" lon="5.23926">
        <ele>220</ele>
        <time>2016-03-10T14:16:14Z</time>
      </trkpt>
      <trkpt lat="43.34879" lon="5.23924">
        <ele>220</ele>
        <time>2016-03-10T14:16:15Z</time>
      </trkpt>
      <trkpt lat="43.3488" lon="5.23922">
        <ele>220</ele>
        <time>2016-03-10T14:16:16Z</time>
      </trkpt>
      <trkpt lat="43.34881" lon="5.23921">
        <ele>220</ele>
        <time>2016-03-10T14:16:17Z</time>
      </trkpt>
      <trkpt lat="43.34882" lon="5.23919">
        <ele>220</ele>
        <time>2016-03-10T14:16:18Z</time>
      </trkpt>
      <trkpt lat="43.34883" lon="5.23918">
        <ele>220</ele>
        <time>2016-03-10T14:16:19Z</time>
      </trkpt>
      <trkpt lat="43.34884" lon="5.23916">
        <ele>220</ele>
        <time>2016-03-10T14:16:20Z</time>
      </trkpt>
      <trkpt lat="43.34885" lon="5.23914">
        <ele>220</ele>
        <time>2016-03-10T14:16:21Z</time>
      </trkpt>
      <trkpt lat="43.34886" lon="5.23913">
        <ele>220</ele>
        <time>2016-03-10T14:16:22Z</time>
      </trkpt>
      <trkpt lat="43.34887" lon="5.23911">
        <ele>220</ele>
        <time>2016-03-10T14:16:23Z</time>
      </trkpt>
      <trkpt lat="43.34888" lon="5.2391">
        <ele>220</ele>
        <time>2016-03-10T14:16:24Z</time>
      </trkpt>
      <trkpt lat="43.34889" lon="5.23908">
        <ele>220</ele>
        <time>2016-03-10T14:16:25Z</time>
      </trkpt>
      <trkpt lat="43.3489" lon="5.23907">
        <ele>220</ele>
        <time>2016-03-10T14:16:26Z</time>
      </trkpt>
      <trkpt lat="43.34891" lon="5.23905">
        <ele>220</ele>
        <time>2016-03-10T14:16:27Z</time>
      </trkpt>
      <trkpt lat="43.34892" lon="5.23903">
        <ele>220</ele>
        <time>2016-03-10T14:16:28Z</time>
      </trkpt>
      <trkpt lat="43.34893" lon="5.23902">
        <ele>220</ele>
        <time>2016-03-10T14:16:29Z</time>
      </trkpt>
      <trkpt lat="43.34894" lon="5.239">
        <ele>220</ele>
        <time>2016-03-10T14:16:30Z</time>
      </trkpt>
      <trkpt lat="43.34895" lon="5.23899">
        <ele>220</ele>
        <time>2016-03-10T14:16:31Z</time>
      </trkpt>
      <trkpt lat="43.34896" lon="5.23897">
        <ele>220</ele>
        <time>2016-03-10T14:16:32Z</time>
      </trkpt>
      <trkpt lat="43.34897" lon="5.23896">
        <ele>220</ele>
        <time>2016-03-10T14:16:33Z</time>
      </trkpt>
      <trkpt lat="43.34898" lon="5.23894">
        <ele>220</ele>
        <time>2016-03-10T14:16:34Z</time>
      </trkpt>
      <trkpt lat="43.34899" lon="5.23893">
        <ele>220</ele>
        <time>2016-03-10T14:16:35Z</time>
      </trkpt>
      <trkpt lat="43.349" lon="5.23891">
        <ele>220</ele>
        <time>2016-03-10T14:16:36Z</time>
      </trkpt>
      <trkpt lat="43.34901" lon="5.2389">
        <ele>220</ele>
        <time>2016-03-10T14:16:37Z</time>
      </trkpt>
      <trkpt lat="43.34902" lon="5.23888">
        <ele>220</ele>
        <time>2016-03-10T14:16:38Z</time>
      </trkpt>
      <trkpt lat="43.34903" lon="5.23887">
        <ele>220</ele>
        <time>2016-03-10T14:16:39Z</time>
      </trkpt>
      <trkpt lat="43.34904" lon="5.23885">
        <ele>220</ele>
        <time>2016-03-10T14:16:40Z</time>
      </trkpt>
      <trkpt lat="43.34905" lon="5.23884">
        <ele>220</ele>
        <time>2016-03-10T14:16:41Z</time>
      </trkpt>
      <trkpt lat="43.34906" lon="5.23882">
        <ele>220</ele>
        <time>2016-03-10T14:16:42Z</time>
      </trkpt>
      <trkpt lat="43.34907" lon="5.23881">
        <ele>220</ele>
        <time>2016-03-10T14:16:43Z</time>
      </trkpt>
      <trkpt lat="43.34908" lon="5.23879">
        <ele>220</ele>
        <time>2016-03-10T14:16:44Z</time>
      </trkpt>
      <trkpt lat="43.34909" lon="5.23877">
        <ele>220</ele>
        <time>2016-03-10T14:16:45Z</time>
      </trkpt>
      <trkpt lat="43.34911" lon="5.23876">
        <ele>220</ele>
        <time>2016-03-10T14:16:46Z</time>
      </trkpt>
      <trkpt lat="43.34912" lon="5.23874">
        <ele>220</ele>
        <time>2016-03-10T14:16:47Z</time>
      </trkpt>
      <trkpt lat="43.34914" lon="5.23872">
        <ele>221</ele>
        <time>2016-03-10T14:16:49Z</time>
      </trkpt>
      <trkpt lat="43.34915" lon="5.2387">
        <ele>221</ele>
        <time>2016-03-10T14:16:50Z</time>
      </trkpt>
      <trkpt lat="43.34916" lon="5.23868">
        <ele>221</ele>
        <time>2016-03-10T14:16:51Z</time>
      </trkpt>
      <trkpt lat="43.34917" lon="5.23867">
        <ele>221</ele>
        <time>2016-03-10T14:16:52Z</time>
      </trkpt>
      <trkpt lat="43.34918" lon="5.23865">
        <ele>221</ele>
        <time>2016-03-10T14:16:53Z</time>
      </trkpt>
      <trkpt lat="43.34919" lon="5.23864">
        <ele>221</ele>
        <time>2016-03-10T14:16:54Z</time>
      </trkpt>
      <trkpt lat="43.3492" lon="5.23862">
        <ele>221</ele>
        <time>2016-03-10T14:16:55Z</time>
      </trkpt>
      <trkpt lat="43.34921" lon="5.23861">
        <ele>221</ele>
        <time>2016-03-10T14:16:56Z</time>
      </trkpt>
      <trkpt lat="43.34922" lon="5.23859">
        <ele>221</ele>
        <time>2016-03-10T14:16:57Z</time>
      </trkpt>
      <trkpt lat="43.34923" lon="5.23858">
        <ele>221</ele>
        <time>2016-03-10T14:16:58Z</time>
      </trkpt>
      <trkpt lat="43.34924" lon="5.23856">
        <ele>221</ele>
        <time>2016-03-10T14:16:59Z</time>
      </trkpt>
      <trkpt lat="43.34925" lon="5.23855">
        <ele>221</ele>
        <time>2016-03-10T14:17:00Z</time>
      </trkpt>
      <trkpt lat="43.34926" lon="5.23853">
        <ele>221</ele>
        <time>2016-03-10T14:17:01Z</time>
      </trkpt>
      <trkpt lat="43.34927" lon="5.23852">
        <ele>221</ele>
        <time>2016-03-10T14:17:02Z</time>
      </trkpt>
      <trkpt lat="43.34928" lon="5.2385">
        <ele>221</ele>
        <time>2016-03-10T14:17:03Z</time>
      </trkpt>
      <trkpt lat="43.34929" lon="5.23848">
        <ele>221</ele>
        <time>2016-03-10T14:17:04Z</time>
      </trkpt>
      <trkpt lat="43.3493" lon="5.23847">
        <ele>221</ele>
        <time>2016-03-10T14:17:05Z</time>
      </trkpt>
      <trkpt lat="43.34931" lon="5.23845">
        <ele>221</ele>
        <time>2016-03-10T14:17:06Z</time>
      </trkpt>
      <trkpt lat="43.34932" lon="5.23844">
        <ele>221</ele>
        <time>2016-03-10T14:17:07Z</time>
      </trkpt>
      <trkpt lat="43.34933" lon="5.23842">
        <ele>222</ele>
        <time>2016-03-10T14:17:08Z</time>
      </trkpt>
      <trkpt lat="43.34934" lon="5.23841">
        <ele>222</ele>
        <time>2016-03-10T14:17:09Z</time>
      </trkpt>
      <trkpt lat="43.34935" lon="5.23839">
        <ele>222</ele>
        <time>2016-03-10T14:17:10Z</time>
      </trkpt>
      <trkpt lat="43.34936" lon="5.23838">
        <ele>222</ele>
        <time>2016-03-10T14:17:11Z</time>
      </trkpt>
      <trkpt lat="43.34937" lon="5.23836">
        <ele>222</ele>
        <time>2016-03-10T14:17:12Z</time>
      </trkpt>
      <trkpt lat="43.34938" lon="5.23835">
        <ele>222</ele>
        <time>2016-03-10T14:17:13Z</time>
      </trkpt>
      <trkpt lat="43.34939" lon="5.23833">
        <ele>222</ele>
        <time>2016-03-10T14:17:14Z</time>
      </trkpt>
      <trkpt lat="43.3494" lon="5.23832">
        <ele>222</ele>
        <time>2016-03-10T14:17:15Z</time>
      </trkpt>
      <trkpt lat="43.34941" lon="5.2383">
        <ele>222</ele>
        <time>2016-03-10T14:17:16Z</time>
      </trkpt>
      <trkpt lat="43.34942" lon="5.23829">
        <ele>222</ele>
        <time>2016-03-10T14:17:17Z</time>
      </trkpt>
      <trkpt lat="43.34943" lon="5.23827">
        <ele>222</ele>
        <time>2016-03-10T14:17:18Z</time>
      </trkpt>
      <trkpt lat="43.34944" lon="5.23825">
        <ele>222</ele>
        <time>2016-03-10T14:17:19Z</time>
      </trkpt>
      <trkpt lat="43.34946" lon="5.23824">
        <ele>222</ele>
        <time>2016-03-10T14:17:20Z</time>
      </trkpt>
      <trkpt lat="43.34946" lon="5.23822">
        <ele>222</ele>
        <time>2016-03-10T14:17:21Z</time>
      </trkpt>
      <trkpt lat="43.34948" lon="5.23821">
        <ele>222</ele>
        <time>2016-03-10T14:17:22Z</time>
      </trkpt>
      <trkpt lat="43.34948" lon="5.23819">
        <ele>222</ele>
        <time>2016-03-10T14:17:23Z</time>
      </trkpt>
      <trkpt lat="43.34949" lon="5.23817">
        <ele>222</ele>
        <time>2016-03-10T14:17:24Z</time>
      </trkpt>
      <trkpt lat="43.34951" lon="5.23816">
        <ele>222</ele>
        <time>2016-03-10T14:17:25Z</time>
      </trkpt>
      <trkpt lat="43.34952" lon="5.23814">
        <ele>222</ele>
        <time>2016-03-10T14:17:26Z</time>
      </trkpt>
      <trkpt lat="43.34953" lon="5.23813">
        <ele>222</ele>
        <time>2016-03-10T14:17:27Z</time>
      </trkpt>
      <trkpt lat="43.34954" lon="5.23811">
        <ele>222</ele>
        <time>2016-03-10T14:17:28Z</time>
      </trkpt>
      <trkpt lat="43.34955" lon="5.2381">
        <ele>222</ele>
        <time>2016-03-10T14:17:29Z</time>
      </trkpt>
      <trkpt lat="43.34956" lon="5.23808">
        <ele>222</ele>
        <time>2016-03-10T14:17:30Z</time>
      </trkpt>
      <trkpt lat="43.34957" lon="5.23806">
        <ele>222</ele>
        <time>2016-03-10T14:17:31Z</time>
      </trkpt>
      <trkpt lat="43.34958" lon="5.23805">
        <ele>222</ele>
        <time>2016-03-10T14:17:32Z</time>
      </trkpt>
      <trkpt lat="43.34959" lon="5.23804">
        <ele>222</ele>
        <time>2016-03-10T14:17:33Z</time>
      </trkpt>
      <trkpt lat="43.3496" lon="5.23802">
        <ele>222</ele>
        <time>2016-03-10T14:17:34Z</time>
      </trkpt>
      <trkpt lat="43.34961" lon="5.23801">
        <ele>222</ele>
        <time>2016-03-10T14:17:35Z</time>
      </trkpt>
      <trkpt lat="43.34962" lon="5.23799">
        <ele>222</ele>
        <time>2016-03-10T14:17:36Z</time>
      </trkpt>
      <trkpt lat="43.34963" lon="5.23797">
        <ele>222</ele>
        <time>2016-03-10T14:17:37Z</time>
      </trkpt>
      <trkpt lat="43.34964" lon="5.23796">
        <ele>222</ele>
        <time>2016-03-10T14:17:38Z</time>
      </trkpt>
      <trkpt lat="43.34965" lon="5.23794">
        <ele>222</ele>
        <time>2016-03-10T14:17:39Z</time>
      </trkpt>
      <trkpt lat="43.34966" lon="5.23792">
        <ele>222</ele>
        <time>2016-03-10T14:17:40Z</time>
      </trkpt>
      <trkpt lat="43.34967" lon="5.23791">
        <ele>222</ele>
        <time>2016-03-10T14:17:41Z</time>
      </trkpt>
      <trkpt lat="43.34969" lon="5.23789">
        <ele>222</ele>
        <time>2016-03-10T14:17:42Z</time>
      </trkpt>
      <trkpt lat="43.3497" lon="5.23787">
        <ele>222</ele>
        <time>2016-03-10T14:17:43Z</time>
      </trkpt>
      <trkpt lat="43.34971" lon="5.23785">
        <ele>222</ele>
        <time>2016-03-10T14:17:44Z</time>
      </trkpt>
      <trkpt lat="43.34972" lon="5.23783">
        <ele>222</ele>
        <time>2016-03-10T14:17:45Z</time>
      </trkpt>
      <trkpt lat="43.34973" lon="5.23781">
        <ele>222</ele>
        <time>2016-03-10T14:17:46Z</time>
      </trkpt>
      <trkpt lat="43.34975" lon="5.2378">
        <ele>222</ele>
        <time>2016-03-10T14:17:47Z</time>
      </trkpt>
      <trkpt lat="43.34976" lon="5.23778">
        <ele>222</ele>
        <time>2016-03-10T14:17:48Z</time>
      </trkpt>
      <trkpt lat="43.34977" lon="5.23776">
        <ele>222</ele>
        <time>2016-03-10T14:17:49Z</time>
      </trkpt>
      <trkpt lat="43.34978" lon="5.23775">
        <ele>222</ele>
        <time>2016-03-10T14:17:50Z</time>
      </trkpt>
      <trkpt lat="43.34979" lon="5.23773">
        <ele>222</ele>
        <time>2016-03-10T14:17:51Z</time>
      </trkpt>
      <trkpt lat="43.3498" lon="5.23771">
        <ele>222</ele>
        <time>2016-03-10T14:17:52Z</time>
      </trkpt>
      <trkpt lat="43.34982" lon="5.23769">
        <ele>222</ele>
        <time>2016-03-10T14:17:53Z</time>
      </trkpt>
      <trkpt lat="43.34983" lon="5.23768">
        <ele>222</ele>
        <time>2016-03-10T14:17:54Z</time>
      </trkpt>
      <trkpt lat="43.34984" lon="5.23766">
        <ele>222</ele>
        <time>2016-03-10T14:17:55Z</time>
      </trkpt>
      <trkpt lat="43.34985" lon="5.23764">
        <ele>222</ele>
        <time>2016-03-10T14:17:56Z</time>
      </trkpt>
      <trkpt lat="43.34986" lon="5.23762">
        <ele>222</ele>
        <time>2016-03-10T14:17:57Z</time>
      </trkpt>
      <trkpt lat="43.34987" lon="5.23761">
        <ele>222</ele>
        <time>2016-03-10T14:17:58Z</time>
      </trkpt>
      <trkpt lat="43.34988" lon="5.23759">
        <ele>222</ele>
        <time>2016-03-10T14:17:59Z</time>
      </trkpt>
      <trkpt lat="43.3499" lon="5.23757">
        <ele>222</ele>
        <time>2016-03-10T14:18:00Z</time>
      </trkpt>
      <trkpt lat="43.3499" lon="5.23756">
        <ele>222</ele>
        <time>2016-03-10T14:18:01Z</time>
      </trkpt>
      <trkpt lat="43.34992" lon="5.23754">
        <ele>222</ele>
        <time>2016-03-10T14:18:02Z</time>
      </trkpt>
      <trkpt lat="43.34993" lon="5.23752">
        <ele>222</ele>
        <time>2016-03-10T14:18:03Z</time>
      </trkpt>
      <trkpt lat="43.34994" lon="5.2375">
        <ele>222</ele>
        <time>2016-03-10T14:18:04Z</time>
      </trkpt>
      <trkpt lat="43.34995" lon="5.23748">
        <ele>222</ele>
        <time>2016-03-10T14:18:05Z</time>
      </trkpt>
      <trkpt lat="43.34996" lon="5.23746">
        <ele>222</ele>
        <time>2016-03-10T14:18:06Z</time>
      </trkpt>
      <trkpt lat="43.34997" lon="5.23745">
        <ele>222</ele>
        <time>2016-03-10T14:18:07Z</time>
      </trkpt>
      <trkpt lat="43.34998" lon="5.23743">
        <ele>222</ele>
        <time>2016-03-10T14:18:08Z</time>
      </trkpt>
      <trkpt lat="43.35" lon="5.23741">
        <ele>222</ele>
        <time>2016-03-10T14:18:09Z</time>
      </trkpt>
      <trkpt lat="43.35001" lon="5.23739">
        <ele>222</ele>
        <time>2016-03-10T14:18:10Z</time>
      </trkpt>
      <trkpt lat="43.35002" lon="5.23738">
        <ele>222</ele>
        <time>2016-03-10T14:18:11Z</time>
      </trkpt>
      <trkpt lat="43.35003" lon="5.23736">
        <ele>222</ele>
        <time>2016-03-10T14:18:12Z</time>
      </trkpt>
      <trkpt lat="43.35004" lon="5.23734">
        <ele>222</ele>
        <time>2016-03-10T14:18:13Z</time>
      </trkpt>
      <trkpt lat="43.35006" lon="5.23733">
        <ele>222</ele>
        <time>2016-03-10T14:18:14Z</time>
      </trkpt>
      <trkpt lat="43.35007" lon="5.23731">
        <ele>222</ele>
        <time>2016-03-10T14:18:15Z</time>
      </trkpt>
      <trkpt lat="43.35008" lon="5.2373">
        <ele>222</ele>
        <time>2016-03-10T14:18:16Z</time>
      </trkpt>
      <trkpt lat="43.35009" lon="5.23728">
        <ele>222</ele>
        <time>2016-03-10T14:18:17Z</time>
      </trkpt>
      <trkpt lat="43.3501" lon="5.23726">
        <ele>222</ele>
        <time>2016-03-10T14:18:18Z</time>
      </trkpt>
      <trkpt lat="43.35011" lon="5.23724">
        <ele>222</ele>
        <time>2016-03-10T14:18:19Z</time>
      </trkpt>
      <trkpt lat="43.35012" lon="5.23723">
        <ele>222</ele>
        <time>2016-03-10T14:18:20Z</time>
      </trkpt>
      <trkpt lat="43.35014" lon="5.23721">
        <ele>222</ele>
        <time>2016-03-10T14:18:21Z</time>
      </trkpt>
      <trkpt lat="43.35015" lon="5.2372">
        <ele>222</ele>
        <time>2016-03-10T14:18:22Z</time>
      </trkpt>
      <trkpt lat="43.35016" lon="5.23718">
        <ele>222</ele>
        <time>2016-03-10T14:18:23Z</time>
      </trkpt>
      <trkpt lat="43.35017" lon="5.23716">
        <ele>222</ele>
        <time>2016-03-10T14:18:24Z</time>
      </trkpt>
      <trkpt lat="43.35018" lon="5.23714">
        <ele>222</ele>
        <time>2016-03-10T14:18:25Z</time>
      </trkpt>
      <trkpt lat="43.35019" lon="5.23713">
        <ele>222</ele>
        <time>2016-03-10T14:18:26Z</time>
      </trkpt>
      <trkpt lat="43.3502" lon="5.23711">
        <ele>222</ele>
        <time>2016-03-10T14:18:27Z</time>
      </trkpt>
      <trkpt lat="43.35022" lon="5.23709">
        <ele>222</ele>
        <time>2016-03-10T14:18:28Z</time>
      </trkpt>
      <trkpt lat="43.35023" lon="5.23708">
        <ele>222</ele>
        <time>2016-03-10T14:18:29Z</time>
      </trkpt>
      <trkpt lat="43.35024" lon="5.23706">
        <ele>222</ele>
        <time>2016-03-10T14:18:30Z</time>
      </trkpt>
      <trkpt lat="43.35025" lon="5.23705">
        <ele>222</ele>
        <time>2016-03-10T14:18:31Z</time>
      </trkpt>
      <trkpt lat="43.35026" lon="5.23703">
        <ele>222</ele>
        <time>2016-03-10T14:18:32Z</time>
      </trkpt>
      <trkpt lat="43.35027" lon="5.23701">
        <ele>222</ele>
        <time>2016-03-10T14:18:33Z</time>
      </trkpt>
      <trkpt lat="43.35028" lon="5.237">
        <ele>222</ele>
        <time>2016-03-10T14:18:34Z</time>
      </trkpt>
      <trkpt lat="43.35029" lon="5.23698">
        <ele>222</ele>
        <time>2016-03-10T14:18:35Z</time>
      </trkpt>
      <trkpt lat="43.3503" lon="5.23697">
        <ele>222</ele>
        <time>2016-03-10T14:18:36Z</time>
      </trkpt>
      <trkpt lat="43.35032" lon="5.23695">
        <ele>222</ele>
        <time>2016-03-10T14:18:37Z</time>
      </trkpt>
      <trkpt lat="43.35032" lon="5.23694">
        <ele>222</ele>
        <time>2016-03-10T14:18:38Z</time>
      </trkpt>
      <trkpt lat="43.35033" lon="5.23692">
        <ele>222</ele>
        <time>2016-03-10T14:18:39Z</time>
      </trkpt>
      <trkpt lat="43.35034" lon="5.2369">
        <ele>222</ele>
        <time>2016-03-10T14:18:40Z</time>
      </trkpt>
      <trkpt lat="43.35035" lon="5.23689">
        <ele>222</ele>
        <time>2016-03-10T14:18:41Z</time>
      </trkpt>
      <trkpt lat="43.35036" lon="5.23687">
        <ele>222</ele>
        <time>2016-03-10T14:18:42Z</time>
      </trkpt>
      <trkpt lat="43.35037" lon="5.23686">
        <ele>222</ele>
        <time>2016-03-10T14:18:43Z</time>
      </trkpt>
      <trkpt lat="43.35038" lon="5.23684">
        <ele>222</ele>
        <time>2016-03-10T14:18:44Z</time>
      </trkpt>
      <trkpt lat="43.35039" lon="5.23682">
        <ele>222</ele>
        <time>2016-03-10T14:18:45Z</time>
      </trkpt>
      <trkpt lat="43.3504" lon="5.23681">
        <ele>222</ele>
        <time>2016-03-10T14:18:46Z</time>
      </trkpt>
      <trkpt lat="43.35041" lon="5.23679">
        <ele>222</ele>
        <time>2016-03-10T14:18:47Z</time>
      </trkpt>
      <trkpt lat="43.35042" lon="5.23677">
        <ele>222</ele>
        <time>2016-03-10T14:18:48Z</time>
      </trkpt>
      <trkpt lat="43.35043" lon="5.23676">
        <ele>222</ele>
        <time>2016-03-10T14:18:49Z</time>
      </trkpt>
      <trkpt lat="43.35044" lon="5.23674">
        <ele>222</ele>
        <time>2016-03-10T14:18:50Z</time>
      </trkpt>
      <trkpt lat="43.35045" lon="5.23673">
        <ele>222</ele>
        <time>2016-03-10T14:18:51Z</time>
      </trkpt>
      <trkpt lat="43.35046" lon="5.23671">
        <ele>222</ele>
        <time>2016-03-10T14:18:52Z</time>
      </trkpt>
      <trkpt lat="43.35047" lon="5.23669">
        <ele>222</ele>
        <time>2016-03-10T14:18:53Z</time>
      </trkpt>
      <trkpt lat="43.35048" lon="5.23667">
        <ele>222</ele>
        <time>2016-03-10T14:18:54Z</time>
      </trkpt>
      <trkpt lat="43.35049" lon="5.23666">
        <ele>222</ele>
        <time>2016-03-10T14:18:55Z</time>
      </trkpt>
      <trkpt lat="43.3505" lon="5.23664">
        <ele>222</ele>
        <time>2016-03-10T14:18:56Z</time>
      </trkpt>
      <trkpt lat="43.35051" lon="5.23663">
        <ele>222</ele>
        <time>2016-03-10T14:18:57Z</time>
      </trkpt>
      <trkpt lat="43.35052" lon="5.23661">
        <ele>222</ele>
        <time>2016-03-10T14:18:58Z</time>
      </trkpt>
      <trkpt lat="43.35053" lon="5.23659">
        <ele>222</ele>
        <time>2016-03-10T14:18:59Z</time>
      </trkpt>
      <trkpt lat="43.35054" lon="5.23658">
        <ele>222</ele>
        <time>2016-03-10T14:19:00Z</time>
      </trkpt>
      <trkpt lat="43.35055" lon="5.23656">
        <ele>222</ele>
        <time>2016-03-10T14:19:01Z</time>
      </trkpt>
      <trkpt lat="43.35056" lon="5.23654">
        <ele>222</ele>
        <time>2016-03-10T14:19:02Z</time>
      </trkpt>
      <trkpt lat="43.35057" lon="5.23653">
        <ele>222</ele>
        <time>2016-03-10T14:19:03Z</time>
      </trkpt>
      <trkpt lat="43.35058" lon="5.23651">
        <ele>222</ele>
        <time>2016-03-10T14:19:04Z</time>
      </trkpt>
      <trkpt lat="43.35059" lon="5.23649">
        <ele>222</ele>
        <time>2016-03-10T14:19:05Z</time>
      </trkpt>
      <trkpt lat="43.3506" lon="5.23647">
        <ele>222</ele>
        <time>2016-03-10T14:19:06Z</time>
      </trkpt>
      <trkpt lat="43.35061" lon="5.23645">
        <ele>222</ele>
        <time>2016-03-10T14:19:07Z</time>
      </trkpt>
      <trkpt lat="43.35062" lon="5.23644">
        <ele>222</ele>
        <time>2016-03-10T14:19:08Z</time>
      </trkpt>
      <trkpt lat="43.35062" lon="5.23642">
        <ele>222</ele>
        <time>2016-03-10T14:19:09Z</time>
      </trkpt>
      <trkpt lat="43.35063" lon="5.2364">
        <ele>222</ele>
        <time>2016-03-10T14:19:10Z</time>
      </trkpt>
      <trkpt lat="43.35064" lon="5.23638">
        <ele>222</ele>
        <time>2016-03-10T14:19:11Z</time>
      </trkpt>
      <trkpt lat="43.35065" lon="5.23636">
        <ele>222</ele>
        <time>2016-03-10T14:19:12Z</time>
      </trkpt>
      <trkpt lat="43.35066" lon="5.23634">
        <ele>222</ele>
        <time>2016-03-10T14:19:13Z</time>
      </trkpt>
      <trkpt lat="43.35067" lon="5.23632">
        <ele>222</ele>
        <time>2016-03-10T14:19:14Z</time>
      </trkpt>
      <trkpt lat="43.35067" lon="5.2363">
        <ele>222</ele>
        <time>2016-03-10T14:19:15Z</time>
      </trkpt>
      <trkpt lat="43.35068" lon="5.23628">
        <ele>222</ele>
        <time>2016-03-10T14:19:16Z</time>
      </trkpt>
      <trkpt lat="43.35069" lon="5.23626">
        <ele>222</ele>
        <time>2016-03-10T14:19:17Z</time>
      </trkpt>
      <trkpt lat="43.3507" lon="5.23624">
        <ele>222</ele>
        <time>2016-03-10T14:19:18Z</time>
      </trkpt>
      <trkpt lat="43.3507" lon="5.23622">
        <ele>222</ele>
        <time>2016-03-10T14:19:19Z</time>
      </trkpt>
      <trkpt lat="43.35071" lon="5.2362">
        <ele>222</ele>
        <time>2016-03-10T14:19:20Z</time>
      </trkpt>
      <trkpt lat="43.35071" lon="5.23617">
        <ele>222</ele>
        <time>2016-03-10T14:19:21Z</time>
      </trkpt>
      <trkpt lat="43.35072" lon="5.23615">
        <ele>222</ele>
        <time>2016-03-10T14:19:22Z</time>
      </trkpt>
      <trkpt lat="43.35072" lon="5.23613">
        <ele>222</ele>
        <time>2016-03-10T14:19:23Z</time>
      </trkpt>
      <trkpt lat="43.35072" lon="5.23611">
        <ele>222</ele>
        <time>2016-03-10T14:19:24Z</time>
      </trkpt>
      <trkpt lat="43.35073" lon="5.23609">
        <ele>222</ele>
        <time>2016-03-10T14:19:25Z</time>
      </trkpt>
      <trkpt lat="43.35073" lon="5.23606">
        <ele>222</ele>
        <time>2016-03-10T14:19:26Z</time>
      </trkpt>
      <trkpt lat="43.35074" lon="5.23604">
        <ele>222</ele>
        <time>2016-03-10T14:19:27Z</time>
      </trkpt>
      <trkpt lat="43.35074" lon="5.23602">
        <ele>222</ele>
        <time>2016-03-10T14:19:28Z</time>
      </trkpt>
      <trkpt lat="43.35074" lon="5.23599">
        <ele>222</ele>
        <time>2016-03-10T14:19:29Z</time>
      </trkpt>
      <trkpt lat="43.35075" lon="5.23597">
        <ele>222</ele>
        <time>2016-03-10T14:19:30Z</time>
      </trkpt>
      <trkpt lat="43.35075" lon="5.23595">
        <ele>222</ele>
        <time>2016-03-10T14:19:31Z</time>
      </trkpt>
      <trkpt lat="43.35075" lon="5.23593">
        <ele>222</ele>
        <time>2016-03-10T14:19:32Z</time>
      </trkpt>
      <trkpt lat="43.35075" lon="5.2359">
        <ele>222</ele>
        <time>2016-03-10T14:19:33Z</time>
      </trkpt>
      <trkpt lat="43.35075" lon="5.23588">
        <ele>222</ele>
        <time>2016-03-10T14:19:34Z</time>
      </trkpt>
      <trkpt lat="43.35075" lon="5.23586">
        <ele>222</ele>
        <time>2016-03-10T14:19:35Z</time>
      </trkpt>
      <trkpt lat="43.35075" lon="5.23583">
        <ele>222</ele>
        <time>2016-03-10T14:19:36Z</time>
      </trkpt>
      <trkpt lat="43.35075" lon="5.23581">
        <ele>222</ele>
        <time>2016-03-10T14:19:37Z</time>
      </trkpt>
      <trkpt lat="43.35075" lon="5.23579">
        <ele>222</ele>
        <time>2016-03-10T14:19:38Z</time>
      </trkpt>
      <trkpt lat="43.35074" lon="5.23576">
        <ele>222</ele>
        <time>2016-03-10T14:19:39Z</time>
      </trkpt>
      <trkpt lat="43.35074" lon="5.23574">
        <ele>222</ele>
        <time>2016-03-10T14:19:40Z</time>
      </trkpt>
      <trkpt lat="43.35074" lon="5.23572">
        <ele>222</ele>
        <time>2016-03-10T14:19:41Z</time>
      </trkpt>
      <trkpt lat="43.35073" lon="5.23569">
        <ele>222</ele>
        <time>2016-03-10T14:19:42Z</time>
      </trkpt>
      <trkpt lat="43.35073" lon="5.23567">
        <ele>222</ele>
        <time>2016-03-10T14:19:43Z</time>
      </trkpt>
      <trkpt lat="43.35072" lon="5.23565">
        <ele>222</ele>
        <time>2016-03-10T14:19:44Z</time>
      </trkpt>
      <trkpt lat="43.35072" lon="5.23563">
        <ele>222</ele>
        <time>2016-03-10T14:19:45Z</time>
      </trkpt>
      <trkpt lat="43.35071" lon="5.23561">
        <ele>222</ele>
        <time>2016-03-10T14:19:46Z</time>
      </trkpt>
      <trkpt lat="43.35071" lon="5.23559">
        <ele>223</ele>
        <time>2016-03-10T14:19:47Z</time>
      </trkpt>
      <trkpt lat="43.3507" lon="5.23557">
        <ele>223</ele>
        <time>2016-03-10T14:19:48Z</time>
      </trkpt>
      <trkpt lat="43.3507" lon="5.23555">
        <ele>223</ele>
        <time>2016-03-10T14:19:49Z</time>
      </trkpt>
      <trkpt lat="43.35069" lon="5.23553">
        <ele>223</ele>
        <time>2016-03-10T14:19:50Z</time>
      </trkpt>
      <trkpt lat="43.35068" lon="5.23551">
        <ele>223</ele>
        <time>2016-03-10T14:19:51Z</time>
      </trkpt>
      <trkpt lat="43.35067" lon="5.23549">
        <ele>223</ele>
        <time>2016-03-10T14:19:52Z</time>
      </trkpt>
      <trkpt lat="43.35067" lon="5.23546">
        <ele>223</ele>
        <time>2016-03-10T14:19:53Z</time>
      </trkpt>
      <trkpt lat="43.35066" lon="5.23544">
        <ele>223</ele>
        <time>2016-03-10T14:19:54Z</time>
      </trkpt>
      <trkpt lat="43.35065" lon="5.23542">
        <ele>223</ele>
        <time>2016-03-10T14:19:55Z</time>
      </trkpt>
      <trkpt lat="43.35065" lon="5.2354">
        <ele>223</ele>
        <time>2016-03-10T14:19:56Z</time>
      </trkpt>
      <trkpt lat="43.35064" lon="5.23538">
        <ele>223</ele>
        <time>2016-03-10T14:19:57Z</time>
      </trkpt>
      <trkpt lat="43.35064" lon="5.23536">
        <ele>223</ele>
        <time>2016-03-10T14:19:58Z</time>
      </trkpt>
      <trkpt lat="43.35063" lon="5.23534">
        <ele>223</ele>
        <time>2016-03-10T14:19:59Z</time>
      </trkpt>
      <trkpt lat="43.35062" lon="5.23532">
        <ele>223</ele>
        <time>2016-03-10T14:20:00Z</time>
      </trkpt>
      <trkpt lat="43.35062" lon="5.2353">
        <ele>223</ele>
        <time>2016-03-10T14:20:01Z</time>
      </trkpt>
      <trkpt lat="43.35061" lon="5.23527">
        <ele>223</ele>
        <time>2016-03-10T14:20:02Z</time>
      </trkpt>
      <trkpt lat="43.35061" lon="5.23525">
        <ele>223</ele>
        <time>2016-03-10T14:20:03Z</time>
      </trkpt>
      <trkpt lat="43.3506" lon="5.23524">
        <ele>223</ele>
        <time>2016-03-10T14:20:04Z</time>
      </trkpt>
      <trkpt lat="43.3506" lon="5.23522">
        <ele>224</ele>
        <time>2016-03-10T14:20:05Z</time>
      </trkpt>
      <trkpt lat="43.35059" lon="5.23519">
        <ele>224</ele>
        <time>2016-03-10T14:20:06Z</time>
      </trkpt>
      <trkpt lat="43.35059" lon="5.23517">
        <ele>224</ele>
        <time>2016-03-10T14:20:07Z</time>
      </trkpt>
      <trkpt lat="43.35059" lon="5.23515">
        <ele>224</ele>
        <time>2016-03-10T14:20:08Z</time>
      </trkpt>
      <trkpt lat="43.35058" lon="5.23513">
        <ele>224</ele>
        <time>2016-03-10T14:20:09Z</time>
      </trkpt>
      <trkpt lat="43.35058" lon="5.23511">
        <ele>224</ele>
        <time>2016-03-10T14:20:10Z</time>
      </trkpt>
      <trkpt lat="43.35058" lon="5.23509">
        <ele>224</ele>
        <time>2016-03-10T14:20:11Z</time>
      </trkpt>
      <trkpt lat="43.35058" lon="5.23506">
        <ele>224</ele>
        <time>2016-03-10T14:20:12Z</time>
      </trkpt>
      <trkpt lat="43.35059" lon="5.23504">
        <ele>224</ele>
        <time>2016-03-10T14:20:13Z</time>
      </trkpt>
      <trkpt lat="43.35059" lon="5.23502">
        <ele>224</ele>
        <time>2016-03-10T14:20:14Z</time>
      </trkpt>
      <trkpt lat="43.35059" lon="5.235">
        <ele>224</ele>
        <time>2016-03-10T14:20:15Z</time>
      </trkpt>
      <trkpt lat="43.35059" lon="5.23498">
        <ele>224</ele>
        <time>2016-03-10T14:20:16Z</time>
      </trkpt>
      <trkpt lat="43.35059" lon="5.23496">
        <ele>224</ele>
        <time>2016-03-10T14:20:17Z</time>
      </trkpt>
      <trkpt lat="43.3506" lon="5.23494">
        <ele>224</ele>
        <time>2016-03-10T14:20:18Z</time>
      </trkpt>
      <trkpt lat="43.35061" lon="5.23492">
        <ele>224</ele>
        <time>2016-03-10T14:20:19Z</time>
      </trkpt>
      <trkpt lat="43.35061" lon="5.2349">
        <ele>224</ele>
        <time>2016-03-10T14:20:20Z</time>
      </trkpt>
      <trkpt lat="43.35062" lon="5.23488">
        <ele>224</ele>
        <time>2016-03-10T14:20:21Z</time>
      </trkpt>
      <trkpt lat="43.35062" lon="5.23487">
        <ele>224</ele>
        <time>2016-03-10T14:20:22Z</time>
      </trkpt>
      <trkpt lat="43.35063" lon="5.23485">
        <ele>224</ele>
        <time>2016-03-10T14:20:23Z</time>
      </trkpt>
      <trkpt lat="43.35064" lon="5.23483">
        <ele>224</ele>
        <time>2016-03-10T14:20:24Z</time>
      </trkpt>
      <trkpt lat="43.35065" lon="5.23481">
        <ele>224</ele>
        <time>2016-03-10T14:20:25Z</time>
      </trkpt>
      <trkpt lat="43.35066" lon="5.2348">
        <ele>224</ele>
        <time>2016-03-10T14:20:26Z</time>
      </trkpt>
      <trkpt lat="43.35067" lon="5.23478">
        <ele>224</ele>
        <time>2016-03-10T14:20:27Z</time>
      </trkpt>
      <trkpt lat="43.35067" lon="5.23476">
        <ele>224</ele>
        <time>2016-03-10T14:20:28Z</time>
      </trkpt>
      <trkpt lat="43.35068" lon="5.23474">
        <ele>224</ele>
        <time>2016-03-10T14:20:29Z</time>
      </trkpt>
      <trkpt lat="43.35069" lon="5.23472">
        <ele>224</ele>
        <time>2016-03-10T14:20:30Z</time>
      </trkpt>
      <trkpt lat="43.3507" lon="5.23471">
        <ele>224</ele>
        <time>2016-03-10T14:20:31Z</time>
      </trkpt>
      <trkpt lat="43.35071" lon="5.23469">
        <ele>224</ele>
        <time>2016-03-10T14:20:32Z</time>
      </trkpt>
      <trkpt lat="43.35072" lon="5.23467">
        <ele>224</ele>
        <time>2016-03-10T14:20:33Z</time>
      </trkpt>
      <trkpt lat="43.35072" lon="5.23466">
        <ele>224</ele>
        <time>2016-03-10T14:20:34Z</time>
      </trkpt>
      <trkpt lat="43.35073" lon="5.23464">
        <ele>224</ele>
        <time>2016-03-10T14:20:35Z</time>
      </trkpt>
      <trkpt lat="43.35074" lon="5.23462">
        <ele>224</ele>
        <time>2016-03-10T14:20:36Z</time>
      </trkpt>
      <trkpt lat="43.35075" lon="5.2346">
        <ele>224</ele>
        <time>2016-03-10T14:20:37Z</time>
      </trkpt>
      <trkpt lat="43.35076" lon="5.23459">
        <ele>224</ele>
        <time>2016-03-10T14:20:38Z</time>
      </trkpt>
      <trkpt lat="43.35077" lon="5.23457">
        <ele>224</ele>
        <time>2016-03-10T14:20:39Z</time>
      </trkpt>
      <trkpt lat="43.35078" lon="5.23455">
        <ele>224</ele>
        <time>2016-03-10T14:20:40Z</time>
      </trkpt>
      <trkpt lat="43.35079" lon="5.23453">
        <ele>225</ele>
        <time>2016-03-10T14:20:41Z</time>
      </trkpt>
      <trkpt lat="43.3508" lon="5.23452">
        <ele>225</ele>
        <time>2016-03-10T14:20:42Z</time>
      </trkpt>
      <trkpt lat="43.35081" lon="5.2345">
        <ele>225</ele>
        <time>2016-03-10T14:20:43Z</time>
      </trkpt>
      <trkpt lat="43.35082" lon="5.23448">
        <ele>225</ele>
        <time>2016-03-10T14:20:44Z</time>
      </trkpt>
      <trkpt lat="43.35083" lon="5.23446">
        <ele>225</ele>
        <time>2016-03-10T14:20:45Z</time>
      </trkpt>
      <trkpt lat="43.35084" lon="5.23445">
        <ele>225</ele>
        <time>2016-03-10T14:20:46Z</time>
      </trkpt>
      <trkpt lat="43.35085" lon="5.23443">
        <ele>225</ele>
        <time>2016-03-10T14:20:47Z</time>
      </trkpt>
      <trkpt lat="43.35086" lon="5.23441">
        <ele>225</ele>
        <time>2016-03-10T14:20:48Z</time>
      </trkpt>
      <trkpt lat="43.35086" lon="5.23439">
        <ele>225</ele>
        <time>2016-03-10T14:20:49Z</time>
      </trkpt>
      <trkpt lat="43.35087" lon="5.23437">
        <ele>225</ele>
        <time>2016-03-10T14:20:50Z</time>
      </trkpt>
      <trkpt lat="43.35088" lon="5.23435">
        <ele>225</ele>
        <time>2016-03-10T14:20:51Z</time>
      </trkpt>
      <trkpt lat="43.35089" lon="5.23434">
        <ele>225</ele>
        <time>2016-03-10T14:20:52Z</time>
      </trkpt>
      <trkpt lat="43.3509" lon="5.23432">
        <ele>225</ele>
        <time>2016-03-10T14:20:53Z</time>
      </trkpt>
      <trkpt lat="43.35091" lon="5.2343">
        <ele>225</ele>
        <time>2016-03-10T14:20:54Z</time>
      </trkpt>
      <trkpt lat="43.35092" lon="5.23428">
        <ele>225</ele>
        <time>2016-03-10T14:20:55Z</time>
      </trkpt>
      <trkpt lat="43.35093" lon="5.23426">
        <ele>225</ele>
        <time>2016-03-10T14:20:56Z</time>
      </trkpt>
      <trkpt lat="43.35094" lon="5.23424">
        <ele>225</ele>
        <time>2016-03-10T14:20:57Z</time>
      </trkpt>
      <trkpt lat="43.35094" lon="5.23423">
        <ele>225</ele>
        <time>2016-03-10T14:20:58Z</time>
      </trkpt>
      <trkpt lat="43.35095" lon="5.23421">
        <ele>225</ele>
        <time>2016-03-10T14:20:59Z</time>
      </trkpt>
      <trkpt lat="43.35096" lon="5.23419">
        <ele>225</ele>
        <time>2016-03-10T14:21:00Z</time>
      </trkpt>
      <trkpt lat="43.35097" lon="5.23418">
        <ele>226</ele>
        <time>2016-03-10T14:21:01Z</time>
      </trkpt>
      <trkpt lat="43.35098" lon="5.23416">
        <ele>226</ele>
        <time>2016-03-10T14:21:02Z</time>
      </trkpt>
      <trkpt lat="43.35099" lon="5.23414">
        <ele>226</ele>
        <time>2016-03-10T14:21:03Z</time>
      </trkpt>
      <trkpt lat="43.351" lon="5.23412">
        <ele>226</ele>
        <time>2016-03-10T14:21:04Z</time>
      </trkpt>
      <trkpt lat="43.35101" lon="5.23411">
        <ele>226</ele>
        <time>2016-03-10T14:21:05Z</time>
      </trkpt>
      <trkpt lat="43.35102" lon="5.23409">
        <ele>226</ele>
        <time>2016-03-10T14:21:06Z</time>
      </trkpt>
      <trkpt lat="43.35103" lon="5.23407">
        <ele>226</ele>
        <time>2016-03-10T14:21:07Z</time>
      </trkpt>
      <trkpt lat="43.35104" lon="5.23406">
        <ele>226</ele>
        <time>2016-03-10T14:21:08Z</time>
      </trkpt>
      <trkpt lat="43.35105" lon="5.23404">
        <ele>226</ele>
        <time>2016-03-10T14:21:09Z</time>
      </trkpt>
      <trkpt lat="43.35106" lon="5.23402">
        <ele>226</ele>
        <time>2016-03-10T14:21:10Z</time>
      </trkpt>
      <trkpt lat="43.35107" lon="5.234">
        <ele>226</ele>
        <time>2016-03-10T14:21:11Z</time>
      </trkpt>
      <trkpt lat="43.35107" lon="5.23398">
        <ele>226</ele>
        <time>2016-03-10T14:21:12Z</time>
      </trkpt>
      <trkpt lat="43.35108" lon="5.23396">
        <ele>226</ele>
        <time>2016-03-10T14:21:13Z</time>
      </trkpt>
      <trkpt lat="43.35109" lon="5.23395">
        <ele>226</ele>
        <time>2016-03-10T14:21:14Z</time>
      </trkpt>
      <trkpt lat="43.3511" lon="5.23393">
        <ele>226</ele>
        <time>2016-03-10T14:21:15Z</time>
      </trkpt>
      <trkpt lat="43.35112" lon="5.23391">
        <ele>226</ele>
        <time>2016-03-10T14:21:16Z</time>
      </trkpt>
      <trkpt lat="43.35113" lon="5.2339">
        <ele>226</ele>
        <time>2016-03-10T14:21:17Z</time>
      </trkpt>
      <trkpt lat="43.35114" lon="5.23388">
        <ele>226</ele>
        <time>2016-03-10T14:21:18Z</time>
      </trkpt>
      <trkpt lat="43.35115" lon="5.23386">
        <ele>226</ele>
        <time>2016-03-10T14:21:19Z</time>
      </trkpt>
      <trkpt lat="43.35116" lon="5.23385">
        <ele>226</ele>
        <time>2016-03-10T14:21:20Z</time>
      </trkpt>
      <trkpt lat="43.35117" lon="5.23383">
        <ele>226</ele>
        <time>2016-03-10T14:21:21Z</time>
      </trkpt>
      <trkpt lat="43.35117" lon="5.23381">
        <ele>226</ele>
        <time>2016-03-10T14:21:22Z</time>
      </trkpt>
      <trkpt lat="43.35118" lon="5.23379">
        <ele>226</ele>
        <time>2016-03-10T14:21:23Z</time>
      </trkpt>
      <trkpt lat="43.35119" lon="5.23378">
        <ele>226</ele>
        <time>2016-03-10T14:21:24Z</time>
      </trkpt>
      <trkpt lat="43.3512" lon="5.23376">
        <ele>226</ele>
        <time>2016-03-10T14:21:25Z</time>
      </trkpt>
      <trkpt lat="43.35121" lon="5.23374">
        <ele>226</ele>
        <time>2016-03-10T14:21:26Z</time>
      </trkpt>
      <trkpt lat="43.35122" lon="5.23372">
        <ele>226</ele>
        <time>2016-03-10T14:21:27Z</time>
      </trkpt>
      <trkpt lat="43.35123" lon="5.2337">
        <ele>226</ele>
        <time>2016-03-10T14:21:28Z</time>
      </trkpt>
      <trkpt lat="43.35124" lon="5.23369">
        <ele>226</ele>
        <time>2016-03-10T14:21:29Z</time>
      </trkpt>
      <trkpt lat="43.35125" lon="5.23367">
        <ele>226</ele>
        <time>2016-03-10T14:21:30Z</time>
      </trkpt>
      <trkpt lat="43.35126" lon="5.23365">
        <ele>226</ele>
        <time>2016-03-10T14:21:31Z</time>
      </trkpt>
      <trkpt lat="43.35127" lon="5.23363">
        <ele>226</ele>
        <time>2016-03-10T14:21:32Z</time>
      </trkpt>
      <trkpt lat="43.35128" lon="5.23362">
        <ele>226</ele>
        <time>2016-03-10T14:21:33Z</time>
      </trkpt>
      <trkpt lat="43.35129" lon="5.2336">
        <ele>226</ele>
        <time>2016-03-10T14:21:34Z</time>
      </trkpt>
      <trkpt lat="43.3513" lon="5.23358">
        <ele>226</ele>
        <time>2016-03-10T14:21:35Z</time>
      </trkpt>
      <trkpt lat="43.3513" lon="5.23356">
        <ele>226</ele>
        <time>2016-03-10T14:21:36Z</time>
      </trkpt>
      <trkpt lat="43.35131" lon="5.23354">
        <ele>226</ele>
        <time>2016-03-10T14:21:37Z</time>
      </trkpt>
      <trkpt lat="43.35132" lon="5.23353">
        <ele>226</ele>
        <time>2016-03-10T14:21:38Z</time>
      </trkpt>
      <trkpt lat="43.35133" lon="5.23351">
        <ele>226</ele>
        <time>2016-03-10T14:21:39Z</time>
      </trkpt>
      <trkpt lat="43.35134" lon="5.23349">
        <ele>226</ele>
        <time>2016-03-10T14:21:40Z</time>
      </trkpt>
      <trkpt lat="43.35135" lon="5.23348">
        <ele>226</ele>
        <time>2016-03-10T14:21:41Z</time>
      </trkpt>
      <trkpt lat="43.35136" lon="5.23346">
        <ele>226</ele>
        <time>2016-03-10T14:21:42Z</time>
      </trkpt>
      <trkpt lat="43.35137" lon="5.23344">
        <ele>226</ele>
        <time>2016-03-10T14:21:43Z</time>
      </trkpt>
      <trkpt lat="43.35138" lon="5.23342">
        <ele>226</ele>
        <time>2016-03-10T14:21:44Z</time>
      </trkpt>
      <trkpt lat="43.35139" lon="5.2334">
        <ele>226</ele>
        <time>2016-03-10T14:21:45Z</time>
      </trkpt>
      <trkpt lat="43.3514" lon="5.23339">
        <ele>226</ele>
        <time>2016-03-10T14:21:46Z</time>
      </trkpt>
      <trkpt lat="43.35141" lon="5.23337">
        <ele>226</ele>
        <time>2016-03-10T14:21:47Z</time>
      </trkpt>
      <trkpt lat="43.35142" lon="5.23335">
        <ele>226</ele>
        <time>2016-03-10T14:21:48Z</time>
      </trkpt>
      <trkpt lat="43.35143" lon="5.23334">
        <ele>226</ele>
        <time>2016-03-10T14:21:49Z</time>
      </trkpt>
      <trkpt lat="43.35144" lon="5.23332">
        <ele>226</ele>
        <time>2016-03-10T14:21:50Z</time>
      </trkpt>
      <trkpt lat="43.35145" lon="5.2333">
        <ele>226</ele>
        <time>2016-03-10T14:21:51Z</time>
      </trkpt>
      <trkpt lat="43.35146" lon="5.23328">
        <ele>226</ele>
        <time>2016-03-10T14:21:52Z</time>
      </trkpt>
      <trkpt lat="43.35146" lon="5.23326">
        <ele>226</ele>
        <time>2016-03-10T14:21:53Z</time>
      </trkpt>
      <trkpt lat="43.35147" lon="5.23324">
        <ele>226</ele>
        <time>2016-03-10T14:21:54Z</time>
      </trkpt>
      <trkpt lat="43.35148" lon="5.23323">
        <ele>226</ele>
        <time>2016-03-10T14:21:55Z</time>
      </trkpt>
      <trkpt lat="43.35149" lon="5.23321">
        <ele>226</ele>
        <time>2016-03-10T14:21:56Z</time>
      </trkpt>
      <trkpt lat="43.3515" lon="5.23319">
        <ele>226</ele>
        <time>2016-03-10T14:21:57Z</time>
      </trkpt>
      <trkpt lat="43.35151" lon="5.23317">
        <ele>226</ele>
        <time>2016-03-10T14:21:58Z</time>
      </trkpt>
      <trkpt lat="43.35152" lon="5.23315">
        <ele>226</ele>
        <time>2016-03-10T14:21:59Z</time>
      </trkpt>
      <trkpt lat="43.35153" lon="5.23314">
        <ele>226</ele>
        <time>2016-03-10T14:22:00Z</time>
      </trkpt>
      <trkpt lat="43.35154" lon="5.23312">
        <ele>226</ele>
        <time>2016-03-10T14:22:01Z</time>
      </trkpt>
      <trkpt lat="43.35155" lon="5.2331">
        <ele>226</ele>
        <time>2016-03-10T14:22:02Z</time>
      </trkpt>
      <trkpt lat="43.35156" lon="5.23308">
        <ele>226</ele>
        <time>2016-03-10T14:22:03Z</time>
      </trkpt>
      <trkpt lat="43.35157" lon="5.23306">
        <ele>226</ele>
        <time>2016-03-10T14:22:04Z</time>
      </trkpt>
      <trkpt lat="43.35157" lon="5.23304">
        <ele>226</ele>
        <time>2016-03-10T14:22:05Z</time>
      </trkpt>
      <trkpt lat="43.35159" lon="5.23303">
        <ele>226</ele>
        <time>2016-03-10T14:22:06Z</time>
      </trkpt>
      <trkpt lat="43.35159" lon="5.23301">
        <ele>226</ele>
        <time>2016-03-10T14:22:07Z</time>
      </trkpt>
      <trkpt lat="43.3516" lon="5.23299">
        <ele>226</ele>
        <time>2016-03-10T14:22:08Z</time>
      </trkpt>
      <trkpt lat="43.35161" lon="5.23297">
        <ele>226</ele>
        <time>2016-03-10T14:22:09Z</time>
      </trkpt>
      <trkpt lat="43.35162" lon="5.23295">
        <ele>226</ele>
        <time>2016-03-10T14:22:10Z</time>
      </trkpt>
      <trkpt lat="43.35163" lon="5.23294">
        <ele>226</ele>
        <time>2016-03-10T14:22:11Z</time>
      </trkpt>
      <trkpt lat="43.35164" lon="5.23292">
        <ele>226</ele>
        <time>2016-03-10T14:22:12Z</time>
      </trkpt>
      <trkpt lat="43.35165" lon="5.2329">
        <ele>226</ele>
        <time>2016-03-10T14:22:13Z</time>
      </trkpt>
      <trkpt lat="43.35166" lon="5.23288">
        <ele>226</ele>
        <time>2016-03-10T14:22:14Z</time>
      </trkpt>
      <trkpt lat="43.35167" lon="5.23286">
        <ele>226</ele>
        <time>2016-03-10T14:22:15Z</time>
      </trkpt>
      <trkpt lat="43.35167" lon="5.23285">
        <ele>226</ele>
        <time>2016-03-10T14:22:16Z</time>
      </trkpt>
      <trkpt lat="43.35168" lon="5.23283">
        <ele>226</ele>
        <time>2016-03-10T14:22:17Z</time>
      </trkpt>
      <trkpt lat="43.3517" lon="5.23281">
        <ele>226</ele>
        <time>2016-03-10T14:22:18Z</time>
      </trkpt>
      <trkpt lat="43.3517" lon="5.23279">
        <ele>226</ele>
        <time>2016-03-10T14:22:19Z</time>
      </trkpt>
      <trkpt lat="43.35171" lon="5.23278">
        <ele>226</ele>
        <time>2016-03-10T14:22:20Z</time>
      </trkpt>
      <trkpt lat="43.35172" lon="5.23276">
        <ele>226</ele>
        <time>2016-03-10T14:22:21Z</time>
      </trkpt>
      <trkpt lat="43.35173" lon="5.23274">
        <ele>226</ele>
        <time>2016-03-10T14:22:22Z</time>
      </trkpt>
      <trkpt lat="43.35174" lon="5.23273">
        <ele>226</ele>
        <time>2016-03-10T14:22:23Z</time>
      </trkpt>
      <trkpt lat="43.35175" lon="5.23271">
        <ele>226</ele>
        <time>2016-03-10T14:22:24Z</time>
      </trkpt>
      <trkpt lat="43.35176" lon="5.23269">
        <ele>226</ele>
        <time>2016-03-10T14:22:25Z</time>
      </trkpt>
      <trkpt lat="43.35177" lon="5.23268">
        <ele>226</ele>
        <time>2016-03-10T14:22:26Z</time>
      </trkpt>
      <trkpt lat="43.35178" lon="5.23266">
        <ele>226</ele>
        <time>2016-03-10T14:22:27Z</time>
      </trkpt>
      <trkpt lat="43.3518" lon="5.23264">
        <ele>226</ele>
        <time>2016-03-10T14:22:28Z</time>
      </trkpt>
      <trkpt lat="43.35181" lon="5.23262">
        <ele>226</ele>
        <time>2016-03-10T14:22:29Z</time>
      </trkpt>
      <trkpt lat="43.35181" lon="5.23261">
        <ele>226</ele>
        <time>2016-03-10T14:22:30Z</time>
      </trkpt>
      <trkpt lat="43.35183" lon="5.23259">
        <ele>226</ele>
        <time>2016-03-10T14:22:31Z</time>
      </trkpt>
      <trkpt lat="43.35184" lon="5.23257">
        <ele>226</ele>
        <time>2016-03-10T14:22:32Z</time>
      </trkpt>
      <trkpt lat="43.35185" lon="5.23256">
        <ele>226</ele>
        <time>2016-03-10T14:22:33Z</time>
      </trkpt>
      <trkpt lat="43.35186" lon="5.23254">
        <ele>226</ele>
        <time>2016-03-10T14:22:34Z</time>
      </trkpt>
      <trkpt lat="43.35187" lon="5.23253">
        <ele>226</ele>
        <time>2016-03-10T14:22:35Z</time>
      </trkpt>
      <trkpt lat="43.35188" lon="5.23251">
        <ele>226</ele>
        <time>2016-03-10T14:22:36Z</time>
      </trkpt>
      <trkpt lat="43.35189" lon="5.23249">
        <ele>226</ele>
        <time>2016-03-10T14:22:37Z</time>
      </trkpt>
      <trkpt lat="43.3519" lon="5.23248">
        <ele>226</ele>
        <time>2016-03-10T14:22:38Z</time>
      </trkpt>
      <trkpt lat="43.35191" lon="5.23246">
        <ele>226</ele>
        <time>2016-03-10T14:22:39Z</time>
      </trkpt>
      <trkpt lat="43.35192" lon="5.23245">
        <ele>226</ele>
        <time>2016-03-10T14:22:40Z</time>
      </trkpt>
      <trkpt lat="43.35193" lon="5.23243">
        <ele>226</ele>
        <time>2016-03-10T14:22:41Z</time>
      </trkpt>
      <trkpt lat="43.35194" lon="5.23242">
        <ele>226</ele>
        <time>2016-03-10T14:22:42Z</time>
      </trkpt>
      <trkpt lat="43.35195" lon="5.2324">
        <ele>226</ele>
        <time>2016-03-10T14:22:43Z</time>
      </trkpt>
      <trkpt lat="43.35196" lon="5.23238">
        <ele>226</ele>
        <time>2016-03-10T14:22:44Z</time>
      </trkpt>
      <trkpt lat="43.35197" lon="5.23237">
        <ele>226</ele>
        <time>2016-03-10T14:22:45Z</time>
      </trkpt>
      <trkpt lat="43.35198" lon="5.23235">
        <ele>226</ele>
        <time>2016-03-10T14:22:46Z</time>
      </trkpt>
      <trkpt lat="43.35199" lon="5.23234">
        <ele>226</ele>
        <time>2016-03-10T14:22:47Z</time>
      </trkpt>
      <trkpt lat="43.352" lon="5.23232">
        <ele>226</ele>
        <time>2016-03-10T14:22:48Z</time>
      </trkpt>
      <trkpt lat="43.35202" lon="5.23231">
        <ele>226</ele>
        <time>2016-03-10T14:22:49Z</time>
      </trkpt>
      <trkpt lat="43.35202" lon="5.23229">
        <ele>226</ele>
        <time>2016-03-10T14:22:50Z</time>
      </trkpt>
      <trkpt lat="43.35203" lon="5.23227">
        <ele>226</ele>
        <time>2016-03-10T14:22:51Z</time>
      </trkpt>
      <trkpt lat="43.35203" lon="5.23225">
        <ele>226</ele>
        <time>2016-03-10T14:22:52Z</time>
      </trkpt>
      <trkpt lat="43.35203" lon="5.23223">
        <ele>226</ele>
        <time>2016-03-10T14:22:53Z</time>
      </trkpt>
      <trkpt lat="43.35203" lon="5.23221">
        <ele>226</ele>
        <time>2016-03-10T14:22:54Z</time>
      </trkpt>
      <trkpt lat="43.35203" lon="5.23219">
        <ele>226</ele>
        <time>2016-03-10T14:22:55Z</time>
      </trkpt>
      <trkpt lat="43.35203" lon="5.23217">
        <ele>226</ele>
        <time>2016-03-10T14:22:56Z</time>
      </trkpt>
      <trkpt lat="43.35203" lon="5.23215">
        <ele>226</ele>
        <time>2016-03-10T14:22:57Z</time>
      </trkpt>
      <trkpt lat="43.35203" lon="5.23213">
        <ele>226</ele>
        <time>2016-03-10T14:22:58Z</time>
      </trkpt>
      <trkpt lat="43.35202" lon="5.23212">
        <ele>226</ele>
        <time>2016-03-10T14:22:59Z</time>
      </trkpt>
      <trkpt lat="43.35201" lon="5.2321">
        <ele>226</ele>
        <time>2016-03-10T14:23:01Z</time>
      </trkpt>
      <trkpt lat="43.35199" lon="5.23209">
        <ele>226</ele>
        <time>2016-03-10T14:23:04Z</time>
      </trkpt>
      <trkpt lat="43.35198" lon="5.23209">
        <ele>226</ele>
        <time>2016-03-10T14:23:07Z</time>
      </trkpt>
      <trkpt lat="43.35197" lon="5.23209">
        <ele>226</ele>
        <time>2016-03-10T14:23:09Z</time>
      </trkpt>
      <trkpt lat="43.35194" lon="5.23208">
        <ele>226</ele>
        <time>2016-03-10T14:23:11Z</time>
      </trkpt>
      <trkpt lat="43.35193" lon="5.23208">
        <ele>226</ele>
        <time>2016-03-10T14:23:12Z</time>
      </trkpt>
      <trkpt lat="43.35191" lon="5.23208">
        <ele>226</ele>
        <time>2016-03-10T14:23:13Z</time>
      </trkpt>
      <trkpt lat="43.3519" lon="5.23208">
        <ele>226</ele>
        <time>2016-03-10T14:23:14Z</time>
      </trkpt>
      <trkpt lat="43.35189" lon="5.23208">
        <ele>226</ele>
        <time>2016-03-10T14:23:15Z</time>
      </trkpt>
      <trkpt lat="43.35187" lon="5.23208">
        <ele>226</ele>
        <time>2016-03-10T14:23:16Z</time>
      </trkpt>
      <trkpt lat="43.35186" lon="5.23208">
        <ele>226</ele>
        <time>2016-03-10T14:23:17Z</time>
      </trkpt>
      <trkpt lat="43.35184" lon="5.23207">
        <ele>226</ele>
        <time>2016-03-10T14:23:18Z</time>
      </trkpt>
      <trkpt lat="43.35183" lon="5.23207">
        <ele>226</ele>
        <time>2016-03-10T14:23:19Z</time>
      </trkpt>
      <trkpt lat="43.35181" lon="5.23206">
        <ele>226</ele>
        <time>2016-03-10T14:23:20Z</time>
      </trkpt>
      <trkpt lat="43.35179" lon="5.23206">
        <ele>226</ele>
        <time>2016-03-10T14:23:21Z</time>
      </trkpt>
      <trkpt lat="43.35178" lon="5.23206">
        <ele>226</ele>
        <time>2016-03-10T14:23:22Z</time>
      </trkpt>
      <trkpt lat="43.35176" lon="5.23206">
        <ele>226</ele>
        <time>2016-03-10T14:23:23Z</time>
      </trkpt>
      <trkpt lat="43.35174" lon="5.23206">
        <ele>226</ele>
        <time>2016-03-10T14:23:24Z</time>
      </trkpt>
      <trkpt lat="43.35173" lon="5.23206">
        <ele>226</ele>
        <time>2016-03-10T14:23:25Z</time>
      </trkpt>
      <trkpt lat="43.35171" lon="5.23206">
        <ele>226</ele>
        <time>2016-03-10T14:23:26Z</time>
      </trkpt>
      <trkpt lat="43.3517" lon="5.23206">
        <ele>226</ele>
        <time>2016-03-10T14:23:27Z</time>
      </trkpt>
      <trkpt lat="43.35168" lon="5.23205">
        <ele>226</ele>
        <time>2016-03-10T14:23:28Z</time>
      </trkpt>
      <trkpt lat="43.35166" lon="5.23205">
        <ele>226</ele>
        <time>2016-03-10T14:23:29Z</time>
      </trkpt>
      <trkpt lat="43.35165" lon="5.23205">
        <ele>226</ele>
        <time>2016-03-10T14:23:30Z</time>
      </trkpt>
      <trkpt lat="43.35163" lon="5.23205">
        <ele>226</ele>
        <time>2016-03-10T14:23:31Z</time>
      </trkpt>
      <trkpt lat="43.35161" lon="5.23205">
        <ele>226</ele>
        <time>2016-03-10T14:23:32Z</time>
      </trkpt>
      <trkpt lat="43.3516" lon="5.23204">
        <ele>226</ele>
        <time>2016-03-10T14:23:33Z</time>
      </trkpt>
      <trkpt lat="43.35158" lon="5.23204">
        <ele>226</ele>
        <time>2016-03-10T14:23:34Z</time>
      </trkpt>
      <trkpt lat="43.35157" lon="5.23204">
        <ele>226</ele>
        <time>2016-03-10T14:23:35Z</time>
      </trkpt>
      <trkpt lat="43.35155" lon="5.23204">
        <ele>226</ele>
        <time>2016-03-10T14:23:36Z</time>
      </trkpt>
      <trkpt lat="43.35153" lon="5.23204">
        <ele>226</ele>
        <time>2016-03-10T14:23:37Z</time>
      </trkpt>
      <trkpt lat="43.35152" lon="5.23204">
        <ele>226</ele>
        <time>2016-03-10T14:23:38Z</time>
      </trkpt>
      <trkpt lat="43.3515" lon="5.23204">
        <ele>226</ele>
        <time>2016-03-10T14:23:39Z</time>
      </trkpt>
      <trkpt lat="43.35149" lon="5.23204">
        <ele>226</ele>
        <time>2016-03-10T14:23:40Z</time>
      </trkpt>
      <trkpt lat="43.35147" lon="5.23203">
        <ele>226</ele>
        <time>2016-03-10T14:23:41Z</time>
      </trkpt>
      <trkpt lat="43.35145" lon="5.23203">
        <ele>226</ele>
        <time>2016-03-10T14:23:42Z</time>
      </trkpt>
      <trkpt lat="43.35144" lon="5.23203">
        <ele>226</ele>
        <time>2016-03-10T14:23:43Z</time>
      </trkpt>
      <trkpt lat="43.35142" lon="5.23203">
        <ele>226</ele>
        <time>2016-03-10T14:23:44Z</time>
      </trkpt>
      <trkpt lat="43.3514" lon="5.23203">
        <ele>226</ele>
        <time>2016-03-10T14:23:45Z</time>
      </trkpt>
      <trkpt lat="43.35139" lon="5.23203">
        <ele>226</ele>
        <time>2016-03-10T14:23:46Z</time>
      </trkpt>
      <trkpt lat="43.35137" lon="5.23203">
        <ele>226</ele>
        <time>2016-03-10T14:23:47Z</time>
      </trkpt>
      <trkpt lat="43.35136" lon="5.23203">
        <ele>226</ele>
        <time>2016-03-10T14:23:48Z</time>
      </trkpt>
      <trkpt lat="43.35134" lon="5.23203">
        <ele>226</ele>
        <time>2016-03-10T14:23:49Z</time>
      </trkpt>
      <trkpt lat="43.35132" lon="5.23203">
        <ele>226</ele>
        <time>2016-03-10T14:23:50Z</time>
      </trkpt>
      <trkpt lat="43.35131" lon="5.23203">
        <ele>226</ele>
        <time>2016-03-10T14:23:51Z</time>
      </trkpt>
      <trkpt lat="43.35129" lon="5.23203">
        <ele>226</ele>
        <time>2016-03-10T14:23:52Z</time>
      </trkpt>
      <trkpt lat="43.35127" lon="5.23203">
        <ele>226</ele>
        <time>2016-03-10T14:23:53Z</time>
      </trkpt>
      <trkpt lat="43.35126" lon="5.23203">
        <ele>226</ele>
        <time>2016-03-10T14:23:54Z</time>
      </trkpt>
      <trkpt lat="43.35124" lon="5.23203">
        <ele>226</ele>
        <time>2016-03-10T14:23:55Z</time>
      </trkpt>
      <trkpt lat="43.35123" lon="5.23203">
        <ele>226</ele>
        <time>2016-03-10T14:23:56Z</time>
      </trkpt>
      <trkpt lat="43.35121" lon="5.23203">
        <ele>226</ele>
        <time>2016-03-10T14:23:57Z</time>
      </trkpt>
      <trkpt lat="43.35119" lon="5.23203">
        <ele>226</ele>
        <time>2016-03-10T14:23:58Z</time>
      </trkpt>
      <trkpt lat="43.35118" lon="5.23203">
        <ele>226</ele>
        <time>2016-03-10T14:23:59Z</time>
      </trkpt>
      <trkpt lat="43.35116" lon="5.23203">
        <ele>226</ele>
        <time>2016-03-10T14:24:00Z</time>
      </trkpt>
      <trkpt lat="43.35115" lon="5.23204">
        <ele>226</ele>
        <time>2016-03-10T14:24:01Z</time>
      </trkpt>
      <trkpt lat="43.35113" lon="5.23204">
        <ele>226</ele>
        <time>2016-03-10T14:24:02Z</time>
      </trkpt>
      <trkpt lat="43.35111" lon="5.23204">
        <ele>226</ele>
        <time>2016-03-10T14:24:03Z</time>
      </trkpt>
      <trkpt lat="43.3511" lon="5.23204">
        <ele>226</ele>
        <time>2016-03-10T14:24:04Z</time>
      </trkpt>
      <trkpt lat="43.35108" lon="5.23204">
        <ele>226</ele>
        <time>2016-03-10T14:24:05Z</time>
      </trkpt>
      <trkpt lat="43.35107" lon="5.23204">
        <ele>226</ele>
        <time>2016-03-10T14:24:06Z</time>
      </trkpt>
      <trkpt lat="43.35105" lon="5.23204">
        <ele>226</ele>
        <time>2016-03-10T14:24:07Z</time>
      </trkpt>
      <trkpt lat="43.35104" lon="5.23204">
        <ele>226</ele>
        <time>2016-03-10T14:24:08Z</time>
      </trkpt>
      <trkpt lat="43.35102" lon="5.23204">
        <ele>226</ele>
        <time>2016-03-10T14:24:09Z</time>
      </trkpt>
      <trkpt lat="43.351" lon="5.23204">
        <ele>226</ele>
        <time>2016-03-10T14:24:10Z</time>
      </trkpt>
      <trkpt lat="43.35099" lon="5.23204">
        <ele>226</ele>
        <time>2016-03-10T14:24:11Z</time>
      </trkpt>
      <trkpt lat="43.35097" lon="5.23204">
        <ele>225</ele>
        <time>2016-03-10T14:24:12Z</time>
      </trkpt>
      <trkpt lat="43.35096" lon="5.23205">
        <ele>225</ele>
        <time>2016-03-10T14:24:13Z</time>
      </trkpt>
      <trkpt lat="43.35094" lon="5.23205">
        <ele>225</ele>
        <time>2016-03-10T14:24:14Z</time>
      </trkpt>
      <trkpt lat="43.35093" lon="5.23205">
        <ele>225</ele>
        <time>2016-03-10T14:24:15Z</time>
      </trkpt>
      <trkpt lat="43.35091" lon="5.23205">
        <ele>225</ele>
        <time>2016-03-10T14:24:16Z</time>
      </trkpt>
      <trkpt lat="43.35089" lon="5.23205">
        <ele>225</ele>
        <time>2016-03-10T14:24:17Z</time>
      </trkpt>
      <trkpt lat="43.35088" lon="5.23205">
        <ele>225</ele>
        <time>2016-03-10T14:24:18Z</time>
      </trkpt>
      <trkpt lat="43.35086" lon="5.23204">
        <ele>225</ele>
        <time>2016-03-10T14:24:19Z</time>
      </trkpt>
      <trkpt lat="43.35085" lon="5.23204">
        <ele>225</ele>
        <time>2016-03-10T14:24:20Z</time>
      </trkpt>
      <trkpt lat="43.35083" lon="5.23204">
        <ele>225</ele>
        <time>2016-03-10T14:24:21Z</time>
      </trkpt>
      <trkpt lat="43.35081" lon="5.23204">
        <ele>225</ele>
        <time>2016-03-10T14:24:22Z</time>
      </trkpt>
      <trkpt lat="43.3508" lon="5.23204">
        <ele>225</ele>
        <time>2016-03-10T14:24:23Z</time>
      </trkpt>
      <trkpt lat="43.35078" lon="5.23204">
        <ele>225</ele>
        <time>2016-03-10T14:24:24Z</time>
      </trkpt>
      <trkpt lat="43.35077" lon="5.23204">
        <ele>225</ele>
        <time>2016-03-10T14:24:25Z</time>
      </trkpt>
      <trkpt lat="43.35075" lon="5.23204">
        <ele>225</ele>
        <time>2016-03-10T14:24:26Z</time>
      </trkpt>
      <trkpt lat="43.35073" lon="5.23204">
        <ele>225</ele>
        <time>2016-03-10T14:24:27Z</time>
      </trkpt>
      <trkpt lat="43.35072" lon="5.23203">
        <ele>225</ele>
        <time>2016-03-10T14:24:28Z</time>
      </trkpt>
      <trkpt lat="43.3507" lon="5.23203">
        <ele>225</ele>
        <time>2016-03-10T14:24:29Z</time>
      </trkpt>
      <trkpt lat="43.35069" lon="5.23202">
        <ele>225</ele>
        <time>2016-03-10T14:24:30Z</time>
      </trkpt>
      <trkpt lat="43.35067" lon="5.23202">
        <ele>225</ele>
        <time>2016-03-10T14:24:31Z</time>
      </trkpt>
      <trkpt lat="43.35065" lon="5.23202">
        <ele>225</ele>
        <time>2016-03-10T14:24:32Z</time>
      </trkpt>
      <trkpt lat="43.35064" lon="5.23202">
        <ele>225</ele>
        <time>2016-03-10T14:24:33Z</time>
      </trkpt>
      <trkpt lat="43.35062" lon="5.23202">
        <ele>225</ele>
        <time>2016-03-10T14:24:34Z</time>
      </trkpt>
      <trkpt lat="43.35061" lon="5.23202">
        <ele>225</ele>
        <time>2016-03-10T14:24:35Z</time>
      </trkpt>
      <trkpt lat="43.35059" lon="5.23201">
        <ele>225</ele>
        <time>2016-03-10T14:24:36Z</time>
      </trkpt>
      <trkpt lat="43.35058" lon="5.23201">
        <ele>225</ele>
        <time>2016-03-10T14:24:37Z</time>
      </trkpt>
      <trkpt lat="43.35056" lon="5.23201">
        <ele>225</ele>
        <time>2016-03-10T14:24:38Z</time>
      </trkpt>
      <trkpt lat="43.35054" lon="5.23201">
        <ele>225</ele>
        <time>2016-03-10T14:24:39Z</time>
      </trkpt>
      <trkpt lat="43.35053" lon="5.23201">
        <ele>225</ele>
        <time>2016-03-10T14:24:40Z</time>
      </trkpt>
      <trkpt lat="43.35051" lon="5.23201">
        <ele>225</ele>
        <time>2016-03-10T14:24:41Z</time>
      </trkpt>
      <trkpt lat="43.3505" lon="5.232">
        <ele>225</ele>
        <time>2016-03-10T14:24:42Z</time>
      </trkpt>
      <trkpt lat="43.35048" lon="5.232">
        <ele>225</ele>
        <time>2016-03-10T14:24:43Z</time>
      </trkpt>
      <trkpt lat="43.35047" lon="5.232">
        <ele>225</ele>
        <time>2016-03-10T14:24:44Z</time>
      </trkpt>
      <trkpt lat="43.35045" lon="5.232">
        <ele>225</ele>
        <time>2016-03-10T14:24:45Z</time>
      </trkpt>
      <trkpt lat="43.35043" lon="5.232">
        <ele>225</ele>
        <time>2016-03-10T14:24:46Z</time>
      </trkpt>
      <trkpt lat="43.35042" lon="5.232">
        <ele>225</ele>
        <time>2016-03-10T14:24:47Z</time>
      </trkpt>
      <trkpt lat="43.3504" lon="5.232">
        <ele>225</ele>
        <time>2016-03-10T14:24:48Z</time>
      </trkpt>
      <trkpt lat="43.35039" lon="5.232">
        <ele>225</ele>
        <time>2016-03-10T14:24:49Z</time>
      </trkpt>
      <trkpt lat="43.35037" lon="5.232">
        <ele>225</ele>
        <time>2016-03-10T14:24:50Z</time>
      </trkpt>
      <trkpt lat="43.35036" lon="5.232">
        <ele>225</ele>
        <time>2016-03-10T14:24:51Z</time>
      </trkpt>
      <trkpt lat="43.35034" lon="5.232">
        <ele>225</ele>
        <time>2016-03-10T14:24:52Z</time>
      </trkpt>
      <trkpt lat="43.35033" lon="5.232">
        <ele>225</ele>
        <time>2016-03-10T14:24:53Z</time>
      </trkpt>
      <trkpt lat="43.35031" lon="5.232">
        <ele>225</ele>
        <time>2016-03-10T14:24:54Z</time>
      </trkpt>
      <trkpt lat="43.3503" lon="5.232">
        <ele>225</ele>
        <time>2016-03-10T14:24:55Z</time>
      </trkpt>
      <trkpt lat="43.35028" lon="5.232">
        <ele>225</ele>
        <time>2016-03-10T14:24:56Z</time>
      </trkpt>
      <trkpt lat="43.35026" lon="5.23199">
        <ele>225</ele>
        <time>2016-03-10T14:24:57Z</time>
      </trkpt>
      <trkpt lat="43.35025" lon="5.23199">
        <ele>225</ele>
        <time>2016-03-10T14:24:58Z</time>
      </trkpt>
      <trkpt lat="43.35023" lon="5.23199">
        <ele>225</ele>
        <time>2016-03-10T14:24:59Z</time>
      </trkpt>
      <trkpt lat="43.35022" lon="5.232">
        <ele>225</ele>
        <time>2016-03-10T14:25:00Z</time>
      </trkpt>
      <trkpt lat="43.3502" lon="5.232">
        <ele>225</ele>
        <time>2016-03-10T14:25:01Z</time>
      </trkpt>
      <trkpt lat="43.35018" lon="5.232">
        <ele>225</ele>
        <time>2016-03-10T14:25:02Z</time>
      </trkpt>
      <trkpt lat="43.35017" lon="5.23199">
        <ele>225</ele>
        <time>2016-03-10T14:25:03Z</time>
      </trkpt>
      <trkpt lat="43.35015" lon="5.23199">
        <ele>225</ele>
        <time>2016-03-10T14:25:04Z</time>
      </trkpt>
      <trkpt lat="43.35013" lon="5.23199">
        <ele>225</ele>
        <time>2016-03-10T14:25:05Z</time>
      </trkpt>
      <trkpt lat="43.35012" lon="5.23199">
        <ele>225</ele>
        <time>2016-03-10T14:25:06Z</time>
      </trkpt>
      <trkpt lat="43.3501" lon="5.23199">
        <ele>225</ele>
        <time>2016-03-10T14:25:07Z</time>
      </trkpt>
      <trkpt lat="43.35009" lon="5.23199">
        <ele>225</ele>
        <time>2016-03-10T14:25:08Z</time>
      </trkpt>
      <trkpt lat="43.35007" lon="5.23199">
        <ele>225</ele>
        <time>2016-03-10T14:25:09Z</time>
      </trkpt>
      <trkpt lat="43.35006" lon="5.23199">
        <ele>225</ele>
        <time>2016-03-10T14:25:10Z</time>
      </trkpt>
      <trkpt lat="43.35004" lon="5.23199">
        <ele>225</ele>
        <time>2016-03-10T14:25:11Z</time>
      </trkpt>
      <trkpt lat="43.35002" lon="5.23199">
        <ele>225</ele>
        <time>2016-03-10T14:25:12Z</time>
      </trkpt>
      <trkpt lat="43.35001" lon="5.23199">
        <ele>225</ele>
        <time>2016-03-10T14:25:13Z</time>
      </trkpt>
      <trkpt lat="43.34999" lon="5.23199">
        <ele>225</ele>
        <time>2016-03-10T14:25:14Z</time>
      </trkpt>
      <trkpt lat="43.34998" lon="5.23199">
        <ele>225</ele>
        <time>2016-03-10T14:25:15Z</time>
      </trkpt>
      <trkpt lat="43.34996" lon="5.23199">
        <ele>225</ele>
        <time>2016-03-10T14:25:16Z</time>
      </trkpt>
      <trkpt lat="43.34995" lon="5.23199">
        <ele>225</ele>
        <time>2016-03-10T14:25:17Z</time>
      </trkpt>
      <trkpt lat="43.34993" lon="5.23199">
        <ele>225</ele>
        <time>2016-03-10T14:25:18Z</time>
      </trkpt>
      <trkpt lat="43.34991" lon="5.23199">
        <ele>225</ele>
        <time>2016-03-10T14:25:19Z</time>
      </trkpt>
      <trkpt lat="43.3499" lon="5.23199">
        <ele>225</ele>
        <time>2016-03-10T14:25:20Z</time>
      </trkpt>
      <trkpt lat="43.34988" lon="5.23199">
        <ele>225</ele>
        <time>2016-03-10T14:25:21Z</time>
      </trkpt>
      <trkpt lat="43.34987" lon="5.23199">
        <ele>225</ele>
        <time>2016-03-10T14:25:22Z</time>
      </trkpt>
      <trkpt lat="43.34985" lon="5.23198">
        <ele>225</ele>
        <time>2016-03-10T14:25:23Z</time>
      </trkpt>
      <trkpt lat="43.34984" lon="5.23198">
        <ele>225</ele>
        <time>2016-03-10T14:25:24Z</time>
      </trkpt>
      <trkpt lat="43.34982" lon="5.23198">
        <ele>225</ele>
        <time>2016-03-10T14:25:25Z</time>
      </trkpt>
      <trkpt lat="43.34981" lon="5.23198">
        <ele>225</ele>
        <time>2016-03-10T14:25:26Z</time>
      </trkpt>
      <trkpt lat="43.34979" lon="5.23199">
        <ele>225</ele>
        <time>2016-03-10T14:25:27Z</time>
      </trkpt>
      <trkpt lat="43.34978" lon="5.23199">
        <ele>225</ele>
        <time>2016-03-10T14:25:28Z</time>
      </trkpt>
      <trkpt lat="43.34976" lon="5.23199">
        <ele>225</ele>
        <time>2016-03-10T14:25:29Z</time>
      </trkpt>
      <trkpt lat="43.34975" lon="5.23199">
        <ele>225</ele>
        <time>2016-03-10T14:25:30Z</time>
      </trkpt>
      <trkpt lat="43.34973" lon="5.23199">
        <ele>225</ele>
        <time>2016-03-10T14:25:31Z</time>
      </trkpt>
      <trkpt lat="43.34972" lon="5.23198">
        <ele>225</ele>
        <time>2016-03-10T14:25:32Z</time>
      </trkpt>
      <trkpt lat="43.3497" lon="5.23198">
        <ele>225</ele>
        <time>2016-03-10T14:25:33Z</time>
      </trkpt>
      <trkpt lat="43.34968" lon="5.23198">
        <ele>225</ele>
        <time>2016-03-10T14:25:34Z</time>
      </trkpt>
      <trkpt lat="43.34967" lon="5.23198">
        <ele>225</ele>
        <time>2016-03-10T14:25:35Z</time>
      </trkpt>
      <trkpt lat="43.34965" lon="5.23198">
        <ele>225</ele>
        <time>2016-03-10T14:25:36Z</time>
      </trkpt>
      <trkpt lat="43.34964" lon="5.23198">
        <ele>225</ele>
        <time>2016-03-10T14:25:37Z</time>
      </trkpt>
      <trkpt lat="43.34962" lon="5.23198">
        <ele>225</ele>
        <time>2016-03-10T14:25:38Z</time>
      </trkpt>
      <trkpt lat="43.34961" lon="5.23198">
        <ele>225</ele>
        <time>2016-03-10T14:25:39Z</time>
      </trkpt>
      <trkpt lat="43.34959" lon="5.23198">
        <ele>225</ele>
        <time>2016-03-10T14:25:40Z</time>
      </trkpt>
      <trkpt lat="43.34958" lon="5.23198">
        <ele>225</ele>
        <time>2016-03-10T14:25:41Z</time>
      </trkpt>
      <trkpt lat="43.34956" lon="5.23197">
        <ele>225</ele>
        <time>2016-03-10T14:25:42Z</time>
      </trkpt>
      <trkpt lat="43.34955" lon="5.23196">
        <ele>225</ele>
        <time>2016-03-10T14:25:43Z</time>
      </trkpt>
      <trkpt lat="43.34953" lon="5.23196">
        <ele>225</ele>
        <time>2016-03-10T14:25:44Z</time>
      </trkpt>
      <trkpt lat="43.34952" lon="5.23195">
        <ele>225</ele>
        <time>2016-03-10T14:25:45Z</time>
      </trkpt>
      <trkpt lat="43.34951" lon="5.23193">
        <ele>225</ele>
        <time>2016-03-10T14:25:46Z</time>
      </trkpt>
      <trkpt lat="43.34949" lon="5.23192">
        <ele>225</ele>
        <time>2016-03-10T14:25:47Z</time>
      </trkpt>
      <trkpt lat="43.34948" lon="5.23191">
        <ele>225</ele>
        <time>2016-03-10T14:25:48Z</time>
      </trkpt>
      <trkpt lat="43.34947" lon="5.23189">
        <ele>225</ele>
        <time>2016-03-10T14:25:49Z</time>
      </trkpt>
      <trkpt lat="43.34946" lon="5.23187">
        <ele>225</ele>
        <time>2016-03-10T14:25:50Z</time>
      </trkpt>
      <trkpt lat="43.34946" lon="5.23185">
        <ele>225</ele>
        <time>2016-03-10T14:25:51Z</time>
      </trkpt>
      <trkpt lat="43.34945" lon="5.23183">
        <ele>225</ele>
        <time>2016-03-10T14:25:52Z</time>
      </trkpt>
      <trkpt lat="43.34945" lon="5.23181">
        <ele>225</ele>
        <time>2016-03-10T14:25:53Z</time>
      </trkpt>
      <trkpt lat="43.34944" lon="5.23179">
        <ele>225</ele>
        <time>2016-03-10T14:25:54Z</time>
      </trkpt>
      <trkpt lat="43.34944" lon="5.23177">
        <ele>225</ele>
        <time>2016-03-10T14:25:55Z</time>
      </trkpt>
      <trkpt lat="43.34944" lon="5.23175">
        <ele>225</ele>
        <time>2016-03-10T14:25:56Z</time>
      </trkpt>
      <trkpt lat="43.34944" lon="5.23173">
        <ele>225</ele>
        <time>2016-03-10T14:25:57Z</time>
      </trkpt>
      <trkpt lat="43.34944" lon="5.23171">
        <ele>225</ele>
        <time>2016-03-10T14:25:58Z</time>
      </trkpt>
      <trkpt lat="43.34943" lon="5.23169">
        <ele>225</ele>
        <time>2016-03-10T14:25:59Z</time>
      </trkpt>
      <trkpt lat="43.34943" lon="5.23167">
        <ele>225</ele>
        <time>2016-03-10T14:26:00Z</time>
      </trkpt>
      <trkpt lat="43.34943" lon="5.23165">
        <ele>225</ele>
        <time>2016-03-10T14:26:01Z</time>
      </trkpt>
      <trkpt lat="43.34943" lon="5.23163">
        <ele>225</ele>
        <time>2016-03-10T14:26:02Z</time>
      </trkpt>
      <trkpt lat="43.34943" lon="5.23161">
        <ele>225</ele>
        <time>2016-03-10T14:26:03Z</time>
      </trkpt>
      <trkpt lat="43.34943" lon="5.23159">
        <ele>225</ele>
        <time>2016-03-10T14:26:04Z</time>
      </trkpt>
      <trkpt lat="43.34943" lon="5.23157">
        <ele>225</ele>
        <time>2016-03-10T14:26:05Z</time>
      </trkpt>
      <trkpt lat="43.34943" lon="5.23155">
        <ele>225</ele>
        <time>2016-03-10T14:26:06Z</time>
      </trkpt>
      <trkpt lat="43.34943" lon="5.23153">
        <ele>225</ele>
        <time>2016-03-10T14:26:07Z</time>
      </trkpt>
      <trkpt lat="43.34943" lon="5.23151">
        <ele>225</ele>
        <time>2016-03-10T14:26:08Z</time>
      </trkpt>
      <trkpt lat="43.34943" lon="5.23149">
        <ele>225</ele>
        <time>2016-03-10T14:26:09Z</time>
      </trkpt>
      <trkpt lat="43.34943" lon="5.23147">
        <ele>225</ele>
        <time>2016-03-10T14:26:10Z</time>
      </trkpt>
      <trkpt lat="43.34943" lon="5.23145">
        <ele>225</ele>
        <time>2016-03-10T14:26:11Z</time>
      </trkpt>
      <trkpt lat="43.34943" lon="5.23143">
        <ele>225</ele>
        <time>2016-03-10T14:26:12Z</time>
      </trkpt>
      <trkpt lat="43.34943" lon="5.23141">
        <ele>225</ele>
        <time>2016-03-10T14:26:13Z</time>
      </trkpt>
      <trkpt lat="43.34943" lon="5.23139">
        <ele>225</ele>
        <time>2016-03-10T14:26:14Z</time>
      </trkpt>
      <trkpt lat="43.34944" lon="5.23137">
        <ele>225</ele>
        <time>2016-03-10T14:26:15Z</time>
      </trkpt>
      <trkpt lat="43.34944" lon="5.23135">
        <ele>225</ele>
        <time>2016-03-10T14:26:16Z</time>
      </trkpt>
      <trkpt lat="43.34944" lon="5.23133">
        <ele>225</ele>
        <time>2016-03-10T14:26:17Z</time>
      </trkpt>
      <trkpt lat="43.34944" lon="5.2313">
        <ele>225</ele>
        <time>2016-03-10T14:26:18Z</time>
      </trkpt>
      <trkpt lat="43.34944" lon="5.23128">
        <ele>225</ele>
        <time>2016-03-10T14:26:19Z</time>
      </trkpt>
      <trkpt lat="43.34944" lon="5.23126">
        <ele>225</ele>
        <time>2016-03-10T14:26:20Z</time>
      </trkpt>
      <trkpt lat="43.34945" lon="5.23124">
        <ele>225</ele>
        <time>2016-03-10T14:26:21Z</time>
      </trkpt>
      <trkpt lat="43.34945" lon="5.23122">
        <ele>225</ele>
        <time>2016-03-10T14:26:22Z</time>
      </trkpt>
      <trkpt lat="43.34945" lon="5.23119">
        <ele>225</ele>
        <time>2016-03-10T14:26:23Z</time>
      </trkpt>
      <trkpt lat="43.34945" lon="5.23117">
        <ele>225</ele>
        <time>2016-03-10T14:26:24Z</time>
      </trkpt>
      <trkpt lat="43.34945" lon="5.23115">
        <ele>225</ele>
        <time>2016-03-10T14:26:25Z</time>
      </trkpt>
      <trkpt lat="43.34945" lon="5.23113">
        <ele>225</ele>
        <time>2016-03-10T14:26:26Z</time>
      </trkpt>
      <trkpt lat="43.34945" lon="5.2311">
        <ele>225</ele>
        <time>2016-03-10T14:26:27Z</time>
      </trkpt>
      <trkpt lat="43.34945" lon="5.23108">
        <ele>225</ele>
        <time>2016-03-10T14:26:28Z</time>
      </trkpt>
      <trkpt lat="43.34945" lon="5.23106">
        <ele>225</ele>
        <time>2016-03-10T14:26:29Z</time>
      </trkpt>
      <trkpt lat="43.34945" lon="5.23104">
        <ele>225</ele>
        <time>2016-03-10T14:26:30Z</time>
      </trkpt>
      <trkpt lat="43.34945" lon="5.23101">
        <ele>225</ele>
        <time>2016-03-10T14:26:31Z</time>
      </trkpt>
      <trkpt lat="43.34945" lon="5.23099">
        <ele>225</ele>
        <time>2016-03-10T14:26:32Z</time>
      </trkpt>
      <trkpt lat="43.34945" lon="5.23097">
        <ele>225</ele>
        <time>2016-03-10T14:26:33Z</time>
      </trkpt>
      <trkpt lat="43.34946" lon="5.23095">
        <ele>225</ele>
        <time>2016-03-10T14:26:34Z</time>
      </trkpt>
      <trkpt lat="43.34946" lon="5.23092">
        <ele>225</ele>
        <time>2016-03-10T14:26:35Z</time>
      </trkpt>
      <trkpt lat="43.34946" lon="5.2309">
        <ele>225</ele>
        <time>2016-03-10T14:26:36Z</time>
      </trkpt>
      <trkpt lat="43.34946" lon="5.23088">
        <ele>225</ele>
        <time>2016-03-10T14:26:37Z</time>
      </trkpt>
      <trkpt lat="43.34946" lon="5.23086">
        <ele>225</ele>
        <time>2016-03-10T14:26:38Z</time>
      </trkpt>
      <trkpt lat="43.34946" lon="5.23084">
        <ele>225</ele>
        <time>2016-03-10T14:26:39Z</time>
      </trkpt>
      <trkpt lat="43.34946" lon="5.23081">
        <ele>225</ele>
        <time>2016-03-10T14:26:40Z</time>
      </trkpt>
      <trkpt lat="43.34946" lon="5.23079">
        <ele>225</ele>
        <time>2016-03-10T14:26:41Z</time>
      </trkpt>
      <trkpt lat="43.34946" lon="5.23077">
        <ele>225</ele>
        <time>2016-03-10T14:26:42Z</time>
      </trkpt>
      <trkpt lat="43.34946" lon="5.23075">
        <ele>225</ele>
        <time>2016-03-10T14:26:43Z</time>
      </trkpt>
      <trkpt lat="43.34946" lon="5.23073">
        <ele>225</ele>
        <time>2016-03-10T14:26:44Z</time>
      </trkpt>
      <trkpt lat="43.34946" lon="5.23071">
        <ele>225</ele>
        <time>2016-03-10T14:26:45Z</time>
      </trkpt>
      <trkpt lat="43.34946" lon="5.23069">
        <ele>225</ele>
        <time>2016-03-10T14:26:46Z</time>
      </trkpt>
      <trkpt lat="43.34946" lon="5.23067">
        <ele>225</ele>
        <time>2016-03-10T14:26:47Z</time>
      </trkpt>
      <trkpt lat="43.34946" lon="5.23064">
        <ele>225</ele>
        <time>2016-03-10T14:26:48Z</time>
      </trkpt>
      <trkpt lat="43.34946" lon="5.23062">
        <ele>225</ele>
        <time>2016-03-10T14:26:49Z</time>
      </trkpt>
      <trkpt lat="43.34946" lon="5.2306">
        <ele>225</ele>
        <time>2016-03-10T14:26:50Z</time>
      </trkpt>
      <trkpt lat="43.34946" lon="5.23058">
        <ele>225</ele>
        <time>2016-03-10T14:26:51Z</time>
      </trkpt>
      <trkpt lat="43.34946" lon="5.23056">
        <ele>225</ele>
        <time>2016-03-10T14:26:52Z</time>
      </trkpt>
      <trkpt lat="43.34946" lon="5.23054">
        <ele>225</ele>
        <time>2016-03-10T14:26:53Z</time>
      </trkpt>
      <trkpt lat="43.34946" lon="5.23052">
        <ele>225</ele>
        <time>2016-03-10T14:26:54Z</time>
      </trkpt>
      <trkpt lat="43.34946" lon="5.23049">
        <ele>225</ele>
        <time>2016-03-10T14:26:55Z</time>
      </trkpt>
      <trkpt lat="43.34946" lon="5.23047">
        <ele>225</ele>
        <time>2016-03-10T14:26:56Z</time>
      </trkpt>
      <trkpt lat="43.34946" lon="5.23045">
        <ele>225</ele>
        <time>2016-03-10T14:26:57Z</time>
      </trkpt>
      <trkpt lat="43.34946" lon="5.23043">
        <ele>225</ele>
        <time>2016-03-10T14:26:58Z</time>
      </trkpt>
      <trkpt lat="43.34946" lon="5.23041">
        <ele>225</ele>
        <time>2016-03-10T14:26:59Z</time>
      </trkpt>
      <trkpt lat="43.34946" lon="5.23039">
        <ele>225</ele>
        <time>2016-03-10T14:27:00Z</time>
      </trkpt>
      <trkpt lat="43.34946" lon="5.23036">
        <ele>225</ele>
        <time>2016-03-10T14:27:01Z</time>
      </trkpt>
      <trkpt lat="43.34945" lon="5.23034">
        <ele>225</ele>
        <time>2016-03-10T14:27:02Z</time>
      </trkpt>
      <trkpt lat="43.34945" lon="5.23032">
        <ele>225</ele>
        <time>2016-03-10T14:27:03Z</time>
      </trkpt>
      <trkpt lat="43.34945" lon="5.2303">
        <ele>225</ele>
        <time>2016-03-10T14:27:04Z</time>
      </trkpt>
      <trkpt lat="43.34945" lon="5.23028">
        <ele>225</ele>
        <time>2016-03-10T14:27:05Z</time>
      </trkpt>
      <trkpt lat="43.34945" lon="5.23026">
        <ele>225</ele>
        <time>2016-03-10T14:27:06Z</time>
      </trkpt>
      <trkpt lat="43.34946" lon="5.23024">
        <ele>225</ele>
        <time>2016-03-10T14:27:07Z</time>
      </trkpt>
      <trkpt lat="43.34946" lon="5.23022">
        <ele>225</ele>
        <time>2016-03-10T14:27:08Z</time>
      </trkpt>
      <trkpt lat="43.34946" lon="5.23019">
        <ele>225</ele>
        <time>2016-03-10T14:27:09Z</time>
      </trkpt>
      <trkpt lat="43.34946" lon="5.23017">
        <ele>225</ele>
        <time>2016-03-10T14:27:10Z</time>
      </trkpt>
      <trkpt lat="43.34946" lon="5.23015">
        <ele>225</ele>
        <time>2016-03-10T14:27:11Z</time>
      </trkpt>
      <trkpt lat="43.34946" lon="5.23013">
        <ele>225</ele>
        <time>2016-03-10T14:27:12Z</time>
      </trkpt>
      <trkpt lat="43.34946" lon="5.23011">
        <ele>225</ele>
        <time>2016-03-10T14:27:13Z</time>
      </trkpt>
      <trkpt lat="43.34946" lon="5.23009">
        <ele>225</ele>
        <time>2016-03-10T14:27:14Z</time>
      </trkpt>
      <trkpt lat="43.34946" lon="5.23007">
        <ele>225</ele>
        <time>2016-03-10T14:27:15Z</time>
      </trkpt>
      <trkpt lat="43.34946" lon="5.23005">
        <ele>225</ele>
        <time>2016-03-10T14:27:16Z</time>
      </trkpt>
      <trkpt lat="43.34946" lon="5.23002">
        <ele>225</ele>
        <time>2016-03-10T14:27:17Z</time>
      </trkpt>
      <trkpt lat="43.34946" lon="5.23">
        <ele>225</ele>
        <time>2016-03-10T14:27:18Z</time>
      </trkpt>
      <trkpt lat="43.34946" lon="5.22998">
        <ele>225</ele>
        <time>2016-03-10T14:27:19Z</time>
      </trkpt>
      <trkpt lat="43.34946" lon="5.22996">
        <ele>225</ele>
        <time>2016-03-10T14:27:20Z</time>
      </trkpt>
      <trkpt lat="43.34946" lon="5.22994">
        <ele>225</ele>
        <time>2016-03-10T14:27:21Z</time>
      </trkpt>
      <trkpt lat="43.34946" lon="5.22992">
        <ele>225</ele>
        <time>2016-03-10T14:27:22Z</time>
      </trkpt>
      <trkpt lat="43.34946" lon="5.2299">
        <ele>225</ele>
        <time>2016-03-10T14:27:23Z</time>
      </trkpt>
      <trkpt lat="43.34946" lon="5.22988">
        <ele>225</ele>
        <time>2016-03-10T14:27:24Z</time>
      </trkpt>
      <trkpt lat="43.34946" lon="5.22986">
        <ele>225</ele>
        <time>2016-03-10T14:27:25Z</time>
      </trkpt>
      <trkpt lat="43.34946" lon="5.22984">
        <ele>225</ele>
        <time>2016-03-10T14:27:26Z</time>
      </trkpt>
      <trkpt lat="43.34946" lon="5.22982">
        <ele>225</ele>
        <time>2016-03-10T14:27:27Z</time>
      </trkpt>
      <trkpt lat="43.34946" lon="5.22979">
        <ele>225</ele>
        <time>2016-03-10T14:27:28Z</time>
      </trkpt>
      <trkpt lat="43.34946" lon="5.22977">
        <ele>225</ele>
        <time>2016-03-10T14:27:29Z</time>
      </trkpt>
      <trkpt lat="43.34946" lon="5.22975">
        <ele>225</ele>
        <time>2016-03-10T14:27:30Z</time>
      </trkpt>
      <trkpt lat="43.34946" lon="5.22973">
        <ele>225</ele>
        <time>2016-03-10T14:27:31Z</time>
      </trkpt>
      <trkpt lat="43.34946" lon="5.22971">
        <ele>225</ele>
        <time>2016-03-10T14:27:32Z</time>
      </trkpt>
      <trkpt lat="43.34946" lon="5.22969">
        <ele>225</ele>
        <time>2016-03-10T14:27:33Z</time>
      </trkpt>
      <trkpt lat="43.34946" lon="5.22967">
        <ele>225</ele>
        <time>2016-03-10T14:27:34Z</time>
      </trkpt>
      <trkpt lat="43.34946" lon="5.22965">
        <ele>225</ele>
        <time>2016-03-10T14:27:35Z</time>
      </trkpt>
      <trkpt lat="43.34946" lon="5.22963">
        <ele>225</ele>
        <time>2016-03-10T14:27:36Z</time>
      </trkpt>
      <trkpt lat="43.34946" lon="5.22961">
        <ele>225</ele>
        <time>2016-03-10T14:27:37Z</time>
      </trkpt>
      <trkpt lat="43.34946" lon="5.22959">
        <ele>225</ele>
        <time>2016-03-10T14:27:38Z</time>
      </trkpt>
      <trkpt lat="43.34946" lon="5.22956">
        <ele>225</ele>
        <time>2016-03-10T14:27:39Z</time>
      </trkpt>
      <trkpt lat="43.34947" lon="5.22954">
        <ele>225</ele>
        <time>2016-03-10T14:27:40Z</time>
      </trkpt>
      <trkpt lat="43.34947" lon="5.22952">
        <ele>225</ele>
        <time>2016-03-10T14:27:41Z</time>
      </trkpt>
      <trkpt lat="43.34947" lon="5.2295">
        <ele>225</ele>
        <time>2016-03-10T14:27:42Z</time>
      </trkpt>
      <trkpt lat="43.34947" lon="5.22948">
        <ele>225</ele>
        <time>2016-03-10T14:27:43Z</time>
      </trkpt>
      <trkpt lat="43.34947" lon="5.22945">
        <ele>225</ele>
        <time>2016-03-10T14:27:44Z</time>
      </trkpt>
      <trkpt lat="43.34947" lon="5.22943">
        <ele>225</ele>
        <time>2016-03-10T14:27:45Z</time>
      </trkpt>
      <trkpt lat="43.34947" lon="5.22941">
        <ele>225</ele>
        <time>2016-03-10T14:27:46Z</time>
      </trkpt>
      <trkpt lat="43.34947" lon="5.22938">
        <ele>225</ele>
        <time>2016-03-10T14:27:47Z</time>
      </trkpt>
      <trkpt lat="43.34947" lon="5.22936">
        <ele>225</ele>
        <time>2016-03-10T14:27:48Z</time>
      </trkpt>
      <trkpt lat="43.34947" lon="5.22934">
        <ele>225</ele>
        <time>2016-03-10T14:27:49Z</time>
      </trkpt>
      <trkpt lat="43.34947" lon="5.22931">
        <ele>225</ele>
        <time>2016-03-10T14:27:50Z</time>
      </trkpt>
      <trkpt lat="43.34947" lon="5.22929">
        <ele>225</ele>
        <time>2016-03-10T14:27:51Z</time>
      </trkpt>
      <trkpt lat="43.34947" lon="5.22927">
        <ele>225</ele>
        <time>2016-03-10T14:27:52Z</time>
      </trkpt>
      <trkpt lat="43.34947" lon="5.22925">
        <ele>225</ele>
        <time>2016-03-10T14:27:53Z</time>
      </trkpt>
      <trkpt lat="43.34947" lon="5.22922">
        <ele>225</ele>
        <time>2016-03-10T14:27:54Z</time>
      </trkpt>
      <trkpt lat="43.34947" lon="5.2292">
        <ele>225</ele>
        <time>2016-03-10T14:27:55Z</time>
      </trkpt>
      <trkpt lat="43.34947" lon="5.22918">
        <ele>225</ele>
        <time>2016-03-10T14:27:56Z</time>
      </trkpt>
      <trkpt lat="43.34947" lon="5.22916">
        <ele>225</ele>
        <time>2016-03-10T14:27:57Z</time>
      </trkpt>
      <trkpt lat="43.34946" lon="5.22913">
        <ele>225</ele>
        <time>2016-03-10T14:27:58Z</time>
      </trkpt>
      <trkpt lat="43.34946" lon="5.22911">
        <ele>225</ele>
        <time>2016-03-10T14:27:59Z</time>
      </trkpt>
      <trkpt lat="43.34946" lon="5.22909">
        <ele>225</ele>
        <time>2016-03-10T14:28:00Z</time>
      </trkpt>
      <trkpt lat="43.34946" lon="5.22907">
        <ele>225</ele>
        <time>2016-03-10T14:28:01Z</time>
      </trkpt>
      <trkpt lat="43.34945" lon="5.22905">
        <ele>225</ele>
        <time>2016-03-10T14:28:02Z</time>
      </trkpt>
      <trkpt lat="43.34945" lon="5.22903">
        <ele>225</ele>
        <time>2016-03-10T14:28:03Z</time>
      </trkpt>
      <trkpt lat="43.34944" lon="5.22901">
        <ele>225</ele>
        <time>2016-03-10T14:28:04Z</time>
      </trkpt>
      <trkpt lat="43.34943" lon="5.22899">
        <ele>225</ele>
        <time>2016-03-10T14:28:05Z</time>
      </trkpt>
      <trkpt lat="43.34942" lon="5.22897">
        <ele>225</ele>
        <time>2016-03-10T14:28:06Z</time>
      </trkpt>
      <trkpt lat="43.34941" lon="5.22895">
        <ele>225</ele>
        <time>2016-03-10T14:28:07Z</time>
      </trkpt>
      <trkpt lat="43.3494" lon="5.22893">
        <ele>225</ele>
        <time>2016-03-10T14:28:08Z</time>
      </trkpt>
      <trkpt lat="43.34938" lon="5.22891">
        <ele>225</ele>
        <time>2016-03-10T14:28:09Z</time>
      </trkpt>
      <trkpt lat="43.34937" lon="5.22889">
        <ele>225</ele>
        <time>2016-03-10T14:28:10Z</time>
      </trkpt>
      <trkpt lat="43.34936" lon="5.22887">
        <ele>225</ele>
        <time>2016-03-10T14:28:11Z</time>
      </trkpt>
      <trkpt lat="43.34935" lon="5.22886">
        <ele>225</ele>
        <time>2016-03-10T14:28:12Z</time>
      </trkpt>
      <trkpt lat="43.34934" lon="5.22884">
        <ele>225</ele>
        <time>2016-03-10T14:28:13Z</time>
      </trkpt>
      <trkpt lat="43.34932" lon="5.22882">
        <ele>225</ele>
        <time>2016-03-10T14:28:14Z</time>
      </trkpt>
      <trkpt lat="43.34931" lon="5.22881">
        <ele>225</ele>
        <time>2016-03-10T14:28:15Z</time>
      </trkpt>
      <trkpt lat="43.3493" lon="5.22879">
        <ele>225</ele>
        <time>2016-03-10T14:28:16Z</time>
      </trkpt>
      <trkpt lat="43.34929" lon="5.22878">
        <ele>225</ele>
        <time>2016-03-10T14:28:17Z</time>
      </trkpt>
      <trkpt lat="43.34927" lon="5.22876">
        <ele>225</ele>
        <time>2016-03-10T14:28:18Z</time>
      </trkpt>
      <trkpt lat="43.34926" lon="5.22875">
        <ele>225</ele>
        <time>2016-03-10T14:28:19Z</time>
      </trkpt>
      <trkpt lat="43.34924" lon="5.22874">
        <ele>225</ele>
        <time>2016-03-10T14:28:20Z</time>
      </trkpt>
      <trkpt lat="43.34923" lon="5.22872">
        <ele>225</ele>
        <time>2016-03-10T14:28:21Z</time>
      </trkpt>
      <trkpt lat="43.34922" lon="5.22871">
        <ele>225</ele>
        <time>2016-03-10T14:28:22Z</time>
      </trkpt>
      <trkpt lat="43.3492" lon="5.22869">
        <ele>225</ele>
        <time>2016-03-10T14:28:23Z</time>
      </trkpt>
      <trkpt lat="43.34919" lon="5.22868">
        <ele>225</ele>
        <time>2016-03-10T14:28:24Z</time>
      </trkpt>
      <trkpt lat="43.34918" lon="5.22866">
        <ele>225</ele>
        <time>2016-03-10T14:28:25Z</time>
      </trkpt>
      <trkpt lat="43.34917" lon="5.22865">
        <ele>225</ele>
        <time>2016-03-10T14:28:26Z</time>
      </trkpt>
      <trkpt lat="43.34915" lon="5.22864">
        <ele>225</ele>
        <time>2016-03-10T14:28:27Z</time>
      </trkpt>
      <trkpt lat="43.34914" lon="5.22862">
        <ele>225</ele>
        <time>2016-03-10T14:28:28Z</time>
      </trkpt>
      <trkpt lat="43.34912" lon="5.22861">
        <ele>225</ele>
        <time>2016-03-10T14:28:29Z</time>
      </trkpt>
      <trkpt lat="43.34911" lon="5.2286">
        <ele>225</ele>
        <time>2016-03-10T14:28:30Z</time>
      </trkpt>
      <trkpt lat="43.34909" lon="5.22859">
        <ele>225</ele>
        <time>2016-03-10T14:28:31Z</time>
      </trkpt>
      <trkpt lat="43.34908" lon="5.22858">
        <ele>225</ele>
        <time>2016-03-10T14:28:32Z</time>
      </trkpt>
      <trkpt lat="43.34906" lon="5.22857">
        <ele>225</ele>
        <time>2016-03-10T14:28:33Z</time>
      </trkpt>
      <trkpt lat="43.34905" lon="5.22856">
        <ele>225</ele>
        <time>2016-03-10T14:28:34Z</time>
      </trkpt>
      <trkpt lat="43.34903" lon="5.22855">
        <ele>225</ele>
        <time>2016-03-10T14:28:35Z</time>
      </trkpt>
      <trkpt lat="43.34901" lon="5.22854">
        <ele>225</ele>
        <time>2016-03-10T14:28:36Z</time>
      </trkpt>
      <trkpt lat="43.349" lon="5.22853">
        <ele>225</ele>
        <time>2016-03-10T14:28:37Z</time>
      </trkpt>
      <trkpt lat="43.34898" lon="5.22852">
        <ele>225</ele>
        <time>2016-03-10T14:28:38Z</time>
      </trkpt>
      <trkpt lat="43.34897" lon="5.22851">
        <ele>225</ele>
        <time>2016-03-10T14:28:39Z</time>
      </trkpt>
      <trkpt lat="43.34895" lon="5.2285">
        <ele>225</ele>
        <time>2016-03-10T14:28:40Z</time>
      </trkpt>
      <trkpt lat="43.34894" lon="5.22849">
        <ele>225</ele>
        <time>2016-03-10T14:28:41Z</time>
      </trkpt>
      <trkpt lat="43.34892" lon="5.22849">
        <ele>225</ele>
        <time>2016-03-10T14:28:42Z</time>
      </trkpt>
      <trkpt lat="43.34891" lon="5.22848">
        <ele>225</ele>
        <time>2016-03-10T14:28:43Z</time>
      </trkpt>
      <trkpt lat="43.34889" lon="5.22847">
        <ele>225</ele>
        <time>2016-03-10T14:28:44Z</time>
      </trkpt>
      <trkpt lat="43.34887" lon="5.22846">
        <ele>225</ele>
        <time>2016-03-10T14:28:45Z</time>
      </trkpt>
      <trkpt lat="43.34886" lon="5.22846">
        <ele>225</ele>
        <time>2016-03-10T14:28:46Z</time>
      </trkpt>
      <trkpt lat="43.34884" lon="5.22845">
        <ele>225</ele>
        <time>2016-03-10T14:28:47Z</time>
      </trkpt>
      <trkpt lat="43.34883" lon="5.22844">
        <ele>225</ele>
        <time>2016-03-10T14:28:48Z</time>
      </trkpt>
      <trkpt lat="43.34881" lon="5.22844">
        <ele>225</ele>
        <time>2016-03-10T14:28:49Z</time>
      </trkpt>
      <trkpt lat="43.3488" lon="5.22843">
        <ele>225</ele>
        <time>2016-03-10T14:28:50Z</time>
      </trkpt>
      <trkpt lat="43.34878" lon="5.22842">
        <ele>225</ele>
        <time>2016-03-10T14:28:51Z</time>
      </trkpt>
      <trkpt lat="43.34877" lon="5.22842">
        <ele>225</ele>
        <time>2016-03-10T14:28:52Z</time>
      </trkpt>
      <trkpt lat="43.34875" lon="5.22842">
        <ele>225</ele>
        <time>2016-03-10T14:28:53Z</time>
      </trkpt>
      <trkpt lat="43.34874" lon="5.22841">
        <ele>225</ele>
        <time>2016-03-10T14:28:54Z</time>
      </trkpt>
      <trkpt lat="43.34872" lon="5.22841">
        <ele>225</ele>
        <time>2016-03-10T14:28:55Z</time>
      </trkpt>
      <trkpt lat="43.3487" lon="5.22841">
        <ele>225</ele>
        <time>2016-03-10T14:28:56Z</time>
      </trkpt>
      <trkpt lat="43.34869" lon="5.2284">
        <ele>225</ele>
        <time>2016-03-10T14:28:57Z</time>
      </trkpt>
      <trkpt lat="43.34867" lon="5.2284">
        <ele>225</ele>
        <time>2016-03-10T14:28:58Z</time>
      </trkpt>
      <trkpt lat="43.34865" lon="5.2284">
        <ele>225</ele>
        <time>2016-03-10T14:28:59Z</time>
      </trkpt>
      <trkpt lat="43.34864" lon="5.22839">
        <ele>225</ele>
        <time>2016-03-10T14:29:00Z</time>
      </trkpt>
      <trkpt lat="43.34862" lon="5.22839">
        <ele>225</ele>
        <time>2016-03-10T14:29:01Z</time>
      </trkpt>
      <trkpt lat="43.3486" lon="5.22839">
        <ele>225</ele>
        <time>2016-03-10T14:29:02Z</time>
      </trkpt>
      <trkpt lat="43.34858" lon="5.22839">
        <ele>225</ele>
        <time>2016-03-10T14:29:03Z</time>
      </trkpt>
      <trkpt lat="43.34857" lon="5.22839">
        <ele>225</ele>
        <time>2016-03-10T14:29:04Z</time>
      </trkpt>
      <trkpt lat="43.34855" lon="5.22839">
        <ele>225</ele>
        <time>2016-03-10T14:29:05Z</time>
      </trkpt>
      <trkpt lat="43.34853" lon="5.22839">
        <ele>225</ele>
        <time>2016-03-10T14:29:06Z</time>
      </trkpt>
      <trkpt lat="43.34852" lon="5.22839">
        <ele>225</ele>
        <time>2016-03-10T14:29:07Z</time>
      </trkpt>
      <trkpt lat="43.3485" lon="5.22839">
        <ele>225</ele>
        <time>2016-03-10T14:29:08Z</time>
      </trkpt>
      <trkpt lat="43.34849" lon="5.2284">
        <ele>225</ele>
        <time>2016-03-10T14:29:09Z</time>
      </trkpt>
      <trkpt lat="43.34847" lon="5.2284">
        <ele>225</ele>
        <time>2016-03-10T14:29:10Z</time>
      </trkpt>
      <trkpt lat="43.34845" lon="5.2284">
        <ele>225</ele>
        <time>2016-03-10T14:29:11Z</time>
      </trkpt>
      <trkpt lat="43.34844" lon="5.22841">
        <ele>225</ele>
        <time>2016-03-10T14:29:12Z</time>
      </trkpt>
      <trkpt lat="43.34842" lon="5.22841">
        <ele>225</ele>
        <time>2016-03-10T14:29:13Z</time>
      </trkpt>
      <trkpt lat="43.34841" lon="5.22841">
        <ele>225</ele>
        <time>2016-03-10T14:29:14Z</time>
      </trkpt>
      <trkpt lat="43.34839" lon="5.22842">
        <ele>225</ele>
        <time>2016-03-10T14:29:15Z</time>
      </trkpt>
      <trkpt lat="43.34837" lon="5.22842">
        <ele>225</ele>
        <time>2016-03-10T14:29:16Z</time>
      </trkpt>
      <trkpt lat="43.34836" lon="5.22842">
        <ele>225</ele>
        <time>2016-03-10T14:29:17Z</time>
      </trkpt>
      <trkpt lat="43.34834" lon="5.22843">
        <ele>225</ele>
        <time>2016-03-10T14:29:18Z</time>
      </trkpt>
      <trkpt lat="43.34833" lon="5.22843">
        <ele>225</ele>
        <time>2016-03-10T14:29:19Z</time>
      </trkpt>
      <trkpt lat="43.34831" lon="5.22844">
        <ele>225</ele>
        <time>2016-03-10T14:29:20Z</time>
      </trkpt>
      <trkpt lat="43.3483" lon="5.22844">
        <ele>225</ele>
        <time>2016-03-10T14:29:21Z</time>
      </trkpt>
      <trkpt lat="43.34828" lon="5.22845">
        <ele>225</ele>
        <time>2016-03-10T14:29:22Z</time>
      </trkpt>
      <trkpt lat="43.34827" lon="5.22845">
        <ele>225</ele>
        <time>2016-03-10T14:29:23Z</time>
      </trkpt>
      <trkpt lat="43.34825" lon="5.22846">
        <ele>225</ele>
        <time>2016-03-10T14:29:24Z</time>
      </trkpt>
      <trkpt lat="43.34824" lon="5.22847">
        <ele>225</ele>
        <time>2016-03-10T14:29:25Z</time>
      </trkpt>
      <trkpt lat="43.34822" lon="5.22847">
        <ele>225</ele>
        <time>2016-03-10T14:29:26Z</time>
      </trkpt>
      <trkpt lat="43.34821" lon="5.22848">
        <ele>225</ele>
        <time>2016-03-10T14:29:27Z</time>
      </trkpt>
      <trkpt lat="43.34819" lon="5.22848">
        <ele>225</ele>
        <time>2016-03-10T14:29:28Z</time>
      </trkpt>
      <trkpt lat="43.34818" lon="5.22849">
        <ele>225</ele>
        <time>2016-03-10T14:29:29Z</time>
      </trkpt>
      <trkpt lat="43.34816" lon="5.2285">
        <ele>225</ele>
        <time>2016-03-10T14:29:30Z</time>
      </trkpt>
      <trkpt lat="43.34815" lon="5.2285">
        <ele>225</ele>
        <time>2016-03-10T14:29:31Z</time>
      </trkpt>
      <trkpt lat="43.34814" lon="5.2285">
        <ele>225</ele>
        <time>2016-03-10T14:29:32Z</time>
      </trkpt>
      <trkpt lat="43.34812" lon="5.22851">
        <ele>225</ele>
        <time>2016-03-10T14:29:33Z</time>
      </trkpt>
      <trkpt lat="43.3481" lon="5.22851">
        <ele>225</ele>
        <time>2016-03-10T14:29:34Z</time>
      </trkpt>
      <trkpt lat="43.34809" lon="5.22851">
        <ele>225</ele>
        <time>2016-03-10T14:29:35Z</time>
      </trkpt>
      <trkpt lat="43.34808" lon="5.22851">
        <ele>225</ele>
        <time>2016-03-10T14:29:36Z</time>
      </trkpt>
      <trkpt lat="43.34806" lon="5.22852">
        <ele>225</ele>
        <time>2016-03-10T14:29:37Z</time>
      </trkpt>
      <trkpt lat="43.34805" lon="5.22854">
        <ele>225</ele>
        <time>2016-03-10T14:29:38Z</time>
      </trkpt>
      <trkpt lat="43.34804" lon="5.22855">
        <ele>225</ele>
        <time>2016-03-10T14:29:39Z</time>
      </trkpt>
      <trkpt lat="43.34802" lon="5.22855">
        <ele>225</ele>
        <time>2016-03-10T14:29:40Z</time>
      </trkpt>
      <trkpt lat="43.34801" lon="5.22855">
        <ele>225</ele>
        <time>2016-03-10T14:29:41Z</time>
      </trkpt>
      <trkpt lat="43.34799" lon="5.22855">
        <ele>225</ele>
        <time>2016-03-10T14:29:42Z</time>
      </trkpt>
      <trkpt lat="43.34798" lon="5.22855">
        <ele>225</ele>
        <time>2016-03-10T14:29:43Z</time>
      </trkpt>
      <trkpt lat="43.34797" lon="5.22854">
        <ele>225</ele>
        <time>2016-03-10T14:29:44Z</time>
      </trkpt>
      <trkpt lat="43.34795" lon="5.22853">
        <ele>225</ele>
        <time>2016-03-10T14:29:45Z</time>
      </trkpt>
      <trkpt lat="43.34794" lon="5.22852">
        <ele>225</ele>
        <time>2016-03-10T14:29:46Z</time>
      </trkpt>
      <trkpt lat="43.34793" lon="5.2285">
        <ele>225</ele>
        <time>2016-03-10T14:29:47Z</time>
      </trkpt>
      <trkpt lat="43.34792" lon="5.22849">
        <ele>225</ele>
        <time>2016-03-10T14:29:48Z</time>
      </trkpt>
      <trkpt lat="43.34792" lon="5.22847">
        <ele>225</ele>
        <time>2016-03-10T14:29:49Z</time>
      </trkpt>
      <trkpt lat="43.34792" lon="5.22845">
        <ele>225</ele>
        <time>2016-03-10T14:29:50Z</time>
      </trkpt>
      <trkpt lat="43.34792" lon="5.22843">
        <ele>225</ele>
        <time>2016-03-10T14:29:51Z</time>
      </trkpt>
      <trkpt lat="43.34793" lon="5.22842">
        <ele>225</ele>
        <time>2016-03-10T14:29:52Z</time>
      </trkpt>
      <trkpt lat="43.34793" lon="5.22839">
        <ele>225</ele>
        <time>2016-03-10T14:29:54Z</time>
      </trkpt>
      <trkpt lat="43.34793" lon="5.22836">
        <ele>225</ele>
        <time>2016-03-10T14:29:56Z</time>
      </trkpt>
      <trkpt lat="43.34793" lon="5.22835">
        <ele>225</ele>
        <time>2016-03-10T14:29:57Z</time>
      </trkpt>
      <trkpt lat="43.34794" lon="5.22833">
        <ele>225</ele>
        <time>2016-03-10T14:29:58Z</time>
      </trkpt>
      <trkpt lat="43.34794" lon="5.22831">
        <ele>225</ele>
        <time>2016-03-10T14:29:59Z</time>
      </trkpt>
      <trkpt lat="43.34795" lon="5.22829">
        <ele>225</ele>
        <time>2016-03-10T14:30:00Z</time>
      </trkpt>
      <trkpt lat="43.34795" lon="5.22827">
        <ele>225</ele>
        <time>2016-03-10T14:30:01Z</time>
      </trkpt>
      <trkpt lat="43.34796" lon="5.22826">
        <ele>225</ele>
        <time>2016-03-10T14:30:02Z</time>
      </trkpt>
      <trkpt lat="43.34796" lon="5.22824">
        <ele>225</ele>
        <time>2016-03-10T14:30:03Z</time>
      </trkpt>
      <trkpt lat="43.34797" lon="5.22822">
        <ele>225</ele>
        <time>2016-03-10T14:30:04Z</time>
      </trkpt>
      <trkpt lat="43.34797" lon="5.2282">
        <ele>225</ele>
        <time>2016-03-10T14:30:05Z</time>
      </trkpt>
      <trkpt lat="43.34798" lon="5.22818">
        <ele>225</ele>
        <time>2016-03-10T14:30:06Z</time>
      </trkpt>
      <trkpt lat="43.34798" lon="5.22816">
        <ele>225</ele>
        <time>2016-03-10T14:30:07Z</time>
      </trkpt>
      <trkpt lat="43.34799" lon="5.22814">
        <ele>225</ele>
        <time>2016-03-10T14:30:08Z</time>
      </trkpt>
      <trkpt lat="43.348" lon="5.22812">
        <ele>225</ele>
        <time>2016-03-10T14:30:09Z</time>
      </trkpt>
      <trkpt lat="43.348" lon="5.22811">
        <ele>225</ele>
        <time>2016-03-10T14:30:10Z</time>
      </trkpt>
      <trkpt lat="43.34801" lon="5.22809">
        <ele>225</ele>
        <time>2016-03-10T14:30:11Z</time>
      </trkpt>
      <trkpt lat="43.34802" lon="5.22807">
        <ele>225</ele>
        <time>2016-03-10T14:30:12Z</time>
      </trkpt>
      <trkpt lat="43.34802" lon="5.22805">
        <ele>225</ele>
        <time>2016-03-10T14:30:13Z</time>
      </trkpt>
      <trkpt lat="43.34803" lon="5.22803">
        <ele>225</ele>
        <time>2016-03-10T14:30:14Z</time>
      </trkpt>
      <trkpt lat="43.34803" lon="5.22801">
        <ele>225</ele>
        <time>2016-03-10T14:30:15Z</time>
      </trkpt>
      <trkpt lat="43.34804" lon="5.22799">
        <ele>225</ele>
        <time>2016-03-10T14:30:16Z</time>
      </trkpt>
      <trkpt lat="43.34805" lon="5.22797">
        <ele>225</ele>
        <time>2016-03-10T14:30:17Z</time>
      </trkpt>
      <trkpt lat="43.34805" lon="5.22796">
        <ele>225</ele>
        <time>2016-03-10T14:30:18Z</time>
      </trkpt>
      <trkpt lat="43.34806" lon="5.22794">
        <ele>225</ele>
        <time>2016-03-10T14:30:19Z</time>
      </trkpt>
      <trkpt lat="43.34806" lon="5.22792">
        <ele>225</ele>
        <time>2016-03-10T14:30:20Z</time>
      </trkpt>
      <trkpt lat="43.34807" lon="5.2279">
        <ele>225</ele>
        <time>2016-03-10T14:30:21Z</time>
      </trkpt>
      <trkpt lat="43.34808" lon="5.22788">
        <ele>225</ele>
        <time>2016-03-10T14:30:22Z</time>
      </trkpt>
      <trkpt lat="43.34808" lon="5.22786">
        <ele>225</ele>
        <time>2016-03-10T14:30:23Z</time>
      </trkpt>
      <trkpt lat="43.34809" lon="5.22784">
        <ele>225</ele>
        <time>2016-03-10T14:30:24Z</time>
      </trkpt>
      <trkpt lat="43.3481" lon="5.22782">
        <ele>225</ele>
        <time>2016-03-10T14:30:25Z</time>
      </trkpt>
      <trkpt lat="43.3481" lon="5.22781">
        <ele>225</ele>
        <time>2016-03-10T14:30:26Z</time>
      </trkpt>
      <trkpt lat="43.34811" lon="5.22779">
        <ele>225</ele>
        <time>2016-03-10T14:30:27Z</time>
      </trkpt>
      <trkpt lat="43.34812" lon="5.22777">
        <ele>225</ele>
        <time>2016-03-10T14:30:28Z</time>
      </trkpt>
      <trkpt lat="43.34812" lon="5.22775">
        <ele>225</ele>
        <time>2016-03-10T14:30:29Z</time>
      </trkpt>
      <trkpt lat="43.34813" lon="5.22773">
        <ele>225</ele>
        <time>2016-03-10T14:30:30Z</time>
      </trkpt>
      <trkpt lat="43.34814" lon="5.22771">
        <ele>225</ele>
        <time>2016-03-10T14:30:31Z</time>
      </trkpt>
      <trkpt lat="43.34814" lon="5.22769">
        <ele>225</ele>
        <time>2016-03-10T14:30:32Z</time>
      </trkpt>
      <trkpt lat="43.34815" lon="5.22767">
        <ele>225</ele>
        <time>2016-03-10T14:30:33Z</time>
      </trkpt>
      <trkpt lat="43.34816" lon="5.22765">
        <ele>225</ele>
        <time>2016-03-10T14:30:34Z</time>
      </trkpt>
      <trkpt lat="43.34816" lon="5.22763">
        <ele>225</ele>
        <time>2016-03-10T14:30:35Z</time>
      </trkpt>
      <trkpt lat="43.34817" lon="5.22761">
        <ele>225</ele>
        <time>2016-03-10T14:30:36Z</time>
      </trkpt>
      <trkpt lat="43.34818" lon="5.22759">
        <ele>225</ele>
        <time>2016-03-10T14:30:37Z</time>
      </trkpt>
      <trkpt lat="43.34818" lon="5.22757">
        <ele>225</ele>
        <time>2016-03-10T14:30:38Z</time>
      </trkpt>
      <trkpt lat="43.34819" lon="5.22755">
        <ele>225</ele>
        <time>2016-03-10T14:30:39Z</time>
      </trkpt>
      <trkpt lat="43.34819" lon="5.22754">
        <ele>225</ele>
        <time>2016-03-10T14:30:40Z</time>
      </trkpt>
      <trkpt lat="43.3482" lon="5.22752">
        <ele>225</ele>
        <time>2016-03-10T14:30:41Z</time>
      </trkpt>
      <trkpt lat="43.34821" lon="5.2275">
        <ele>225</ele>
        <time>2016-03-10T14:30:42Z</time>
      </trkpt>
      <trkpt lat="43.34821" lon="5.22748">
        <ele>225</ele>
        <time>2016-03-10T14:30:43Z</time>
      </trkpt>
      <trkpt lat="43.34822" lon="5.22746">
        <ele>225</ele>
        <time>2016-03-10T14:30:44Z</time>
      </trkpt>
      <trkpt lat="43.34822" lon="5.22744">
        <ele>225</ele>
        <time>2016-03-10T14:30:45Z</time>
      </trkpt>
      <trkpt lat="43.34823" lon="5.22742">
        <ele>225</ele>
        <time>2016-03-10T14:30:46Z</time>
      </trkpt>
      <trkpt lat="43.34824" lon="5.2274">
        <ele>225</ele>
        <time>2016-03-10T14:30:47Z</time>
      </trkpt>
      <trkpt lat="43.34824" lon="5.22738">
        <ele>225</ele>
        <time>2016-03-10T14:30:48Z</time>
      </trkpt>
      <trkpt lat="43.34825" lon="5.22737">
        <ele>225</ele>
        <time>2016-03-10T14:30:49Z</time>
      </trkpt>
      <trkpt lat="43.34826" lon="5.22735">
        <ele>225</ele>
        <time>2016-03-10T14:30:50Z</time>
      </trkpt>
      <trkpt lat="43.34826" lon="5.22733">
        <ele>225</ele>
        <time>2016-03-10T14:30:51Z</time>
      </trkpt>
      <trkpt lat="43.34827" lon="5.22731">
        <ele>225</ele>
        <time>2016-03-10T14:30:52Z</time>
      </trkpt>
      <trkpt lat="43.34827" lon="5.22729">
        <ele>225</ele>
        <time>2016-03-10T14:30:53Z</time>
      </trkpt>
      <trkpt lat="43.34828" lon="5.22727">
        <ele>225</ele>
        <time>2016-03-10T14:30:54Z</time>
      </trkpt>
      <trkpt lat="43.34829" lon="5.22726">
        <ele>225</ele>
        <time>2016-03-10T14:30:55Z</time>
      </trkpt>
      <trkpt lat="43.34829" lon="5.22724">
        <ele>225</ele>
        <time>2016-03-10T14:30:56Z</time>
      </trkpt>
      <trkpt lat="43.3483" lon="5.22722">
        <ele>225</ele>
        <time>2016-03-10T14:30:57Z</time>
      </trkpt>
      <trkpt lat="43.3483" lon="5.2272">
        <ele>225</ele>
        <time>2016-03-10T14:30:58Z</time>
      </trkpt>
      <trkpt lat="43.34831" lon="5.22718">
        <ele>226</ele>
        <time>2016-03-10T14:30:59Z</time>
      </trkpt>
      <trkpt lat="43.34832" lon="5.22716">
        <ele>226</ele>
        <time>2016-03-10T14:31:00Z</time>
      </trkpt>
      <trkpt lat="43.34832" lon="5.22714">
        <ele>226</ele>
        <time>2016-03-10T14:31:01Z</time>
      </trkpt>
      <trkpt lat="43.34833" lon="5.22712">
        <ele>226</ele>
        <time>2016-03-10T14:31:02Z</time>
      </trkpt>
      <trkpt lat="43.34834" lon="5.2271">
        <ele>226</ele>
        <time>2016-03-10T14:31:03Z</time>
      </trkpt>
      <trkpt lat="43.34834" lon="5.22708">
        <ele>226</ele>
        <time>2016-03-10T14:31:04Z</time>
      </trkpt>
      <trkpt lat="43.34835" lon="5.22707">
        <ele>226</ele>
        <time>2016-03-10T14:31:05Z</time>
      </trkpt>
      <trkpt lat="43.34836" lon="5.22705">
        <ele>226</ele>
        <time>2016-03-10T14:31:06Z</time>
      </trkpt>
      <trkpt lat="43.34836" lon="5.22703">
        <ele>226</ele>
        <time>2016-03-10T14:31:07Z</time>
      </trkpt>
      <trkpt lat="43.34837" lon="5.22701">
        <ele>226</ele>
        <time>2016-03-10T14:31:08Z</time>
      </trkpt>
      <trkpt lat="43.34837" lon="5.22699">
        <ele>226</ele>
        <time>2016-03-10T14:31:09Z</time>
      </trkpt>
      <trkpt lat="43.34838" lon="5.22697">
        <ele>226</ele>
        <time>2016-03-10T14:31:10Z</time>
      </trkpt>
      <trkpt lat="43.34839" lon="5.22695">
        <ele>226</ele>
        <time>2016-03-10T14:31:11Z</time>
      </trkpt>
      <trkpt lat="43.34839" lon="5.22693">
        <ele>226</ele>
        <time>2016-03-10T14:31:12Z</time>
      </trkpt>
      <trkpt lat="43.3484" lon="5.22691">
        <ele>226</ele>
        <time>2016-03-10T14:31:13Z</time>
      </trkpt>
      <trkpt lat="43.34841" lon="5.22689">
        <ele>226</ele>
        <time>2016-03-10T14:31:14Z</time>
      </trkpt>
      <trkpt lat="43.34842" lon="5.22687">
        <ele>226</ele>
        <time>2016-03-10T14:31:15Z</time>
      </trkpt>
      <trkpt lat="43.34842" lon="5.22685">
        <ele>226</ele>
        <time>2016-03-10T14:31:16Z</time>
      </trkpt>
      <trkpt lat="43.34843" lon="5.22683">
        <ele>226</ele>
        <time>2016-03-10T14:31:17Z</time>
      </trkpt>
      <trkpt lat="43.34843" lon="5.22681">
        <ele>226</ele>
        <time>2016-03-10T14:31:18Z</time>
      </trkpt>
      <trkpt lat="43.34844" lon="5.22679">
        <ele>226</ele>
        <time>2016-03-10T14:31:19Z</time>
      </trkpt>
      <trkpt lat="43.34845" lon="5.22677">
        <ele>226</ele>
        <time>2016-03-10T14:31:20Z</time>
      </trkpt>
      <trkpt lat="43.34846" lon="5.22675">
        <ele>226</ele>
        <time>2016-03-10T14:31:21Z</time>
      </trkpt>
      <trkpt lat="43.34846" lon="5.22673">
        <ele>226</ele>
        <time>2016-03-10T14:31:22Z</time>
      </trkpt>
      <trkpt lat="43.34847" lon="5.22671">
        <ele>226</ele>
        <time>2016-03-10T14:31:23Z</time>
      </trkpt>
      <trkpt lat="43.34848" lon="5.22669">
        <ele>227</ele>
        <time>2016-03-10T14:31:24Z</time>
      </trkpt>
      <trkpt lat="43.34848" lon="5.22667">
        <ele>227</ele>
        <time>2016-03-10T14:31:25Z</time>
      </trkpt>
      <trkpt lat="43.34849" lon="5.22665">
        <ele>227</ele>
        <time>2016-03-10T14:31:26Z</time>
      </trkpt>
      <trkpt lat="43.3485" lon="5.22663">
        <ele>227</ele>
        <time>2016-03-10T14:31:27Z</time>
      </trkpt>
      <trkpt lat="43.3485" lon="5.22661">
        <ele>227</ele>
        <time>2016-03-10T14:31:28Z</time>
      </trkpt>
      <trkpt lat="43.34851" lon="5.22659">
        <ele>227</ele>
        <time>2016-03-10T14:31:29Z</time>
      </trkpt>
      <trkpt lat="43.34852" lon="5.22658">
        <ele>227</ele>
        <time>2016-03-10T14:31:30Z</time>
      </trkpt>
      <trkpt lat="43.34853" lon="5.22656">
        <ele>227</ele>
        <time>2016-03-10T14:31:31Z</time>
      </trkpt>
      <trkpt lat="43.34853" lon="5.22654">
        <ele>227</ele>
        <time>2016-03-10T14:31:32Z</time>
      </trkpt>
      <trkpt lat="43.34854" lon="5.22652">
        <ele>227</ele>
        <time>2016-03-10T14:31:33Z</time>
      </trkpt>
      <trkpt lat="43.34854" lon="5.2265">
        <ele>227</ele>
        <time>2016-03-10T14:31:34Z</time>
      </trkpt>
      <trkpt lat="43.34855" lon="5.22648">
        <ele>227</ele>
        <time>2016-03-10T14:31:35Z</time>
      </trkpt>
      <trkpt lat="43.34856" lon="5.22646">
        <ele>227</ele>
        <time>2016-03-10T14:31:36Z</time>
      </trkpt>
      <trkpt lat="43.34856" lon="5.22644">
        <ele>227</ele>
        <time>2016-03-10T14:31:37Z</time>
      </trkpt>
      <trkpt lat="43.34857" lon="5.22643">
        <ele>227</ele>
        <time>2016-03-10T14:31:38Z</time>
      </trkpt>
      <trkpt lat="43.34858" lon="5.22641">
        <ele>227</ele>
        <time>2016-03-10T14:31:39Z</time>
      </trkpt>
      <trkpt lat="43.34858" lon="5.22639">
        <ele>227</ele>
        <time>2016-03-10T14:31:40Z</time>
      </trkpt>
      <trkpt lat="43.34859" lon="5.22637">
        <ele>227</ele>
        <time>2016-03-10T14:31:41Z</time>
      </trkpt>
      <trkpt lat="43.3486" lon="5.22635">
        <ele>227</ele>
        <time>2016-03-10T14:31:42Z</time>
      </trkpt>
      <trkpt lat="43.34861" lon="5.22633">
        <ele>227</ele>
        <time>2016-03-10T14:31:43Z</time>
      </trkpt>
      <trkpt lat="43.34861" lon="5.22631">
        <ele>227</ele>
        <time>2016-03-10T14:31:44Z</time>
      </trkpt>
      <trkpt lat="43.34862" lon="5.22629">
        <ele>227</ele>
        <time>2016-03-10T14:31:45Z</time>
      </trkpt>
      <trkpt lat="43.34863" lon="5.22627">
        <ele>227</ele>
        <time>2016-03-10T14:31:46Z</time>
      </trkpt>
      <trkpt lat="43.34863" lon="5.22625">
        <ele>227</ele>
        <time>2016-03-10T14:31:47Z</time>
      </trkpt>
      <trkpt lat="43.34864" lon="5.22624">
        <ele>227</ele>
        <time>2016-03-10T14:31:48Z</time>
      </trkpt>
      <trkpt lat="43.34864" lon="5.22622">
        <ele>227</ele>
        <time>2016-03-10T14:31:49Z</time>
      </trkpt>
      <trkpt lat="43.34865" lon="5.2262">
        <ele>227</ele>
        <time>2016-03-10T14:31:50Z</time>
      </trkpt>
      <trkpt lat="43.34866" lon="5.22618">
        <ele>227</ele>
        <time>2016-03-10T14:31:51Z</time>
      </trkpt>
      <trkpt lat="43.34866" lon="5.22616">
        <ele>227</ele>
        <time>2016-03-10T14:31:52Z</time>
      </trkpt>
      <trkpt lat="43.34867" lon="5.22614">
        <ele>227</ele>
        <time>2016-03-10T14:31:53Z</time>
      </trkpt>
      <trkpt lat="43.34868" lon="5.22612">
        <ele>227</ele>
        <time>2016-03-10T14:31:54Z</time>
      </trkpt>
      <trkpt lat="43.34869" lon="5.22611">
        <ele>227</ele>
        <time>2016-03-10T14:31:55Z</time>
      </trkpt>
      <trkpt lat="43.34869" lon="5.22609">
        <ele>227</ele>
        <time>2016-03-10T14:31:56Z</time>
      </trkpt>
      <trkpt lat="43.3487" lon="5.22607">
        <ele>227</ele>
        <time>2016-03-10T14:31:57Z</time>
      </trkpt>
      <trkpt lat="43.34871" lon="5.22605">
        <ele>227</ele>
        <time>2016-03-10T14:31:58Z</time>
      </trkpt>
      <trkpt lat="43.34872" lon="5.22604">
        <ele>227</ele>
        <time>2016-03-10T14:31:59Z</time>
      </trkpt>
      <trkpt lat="43.34872" lon="5.22602">
        <ele>227</ele>
        <time>2016-03-10T14:32:00Z</time>
      </trkpt>
      <trkpt lat="43.34873" lon="5.226">
        <ele>227</ele>
        <time>2016-03-10T14:32:01Z</time>
      </trkpt>
      <trkpt lat="43.34874" lon="5.22598">
        <ele>227</ele>
        <time>2016-03-10T14:32:02Z</time>
      </trkpt>
      <trkpt lat="43.34875" lon="5.22596">
        <ele>227</ele>
        <time>2016-03-10T14:32:03Z</time>
      </trkpt>
      <trkpt lat="43.34875" lon="5.22594">
        <ele>227</ele>
        <time>2016-03-10T14:32:04Z</time>
      </trkpt>
      <trkpt lat="43.34876" lon="5.22592">
        <ele>227</ele>
        <time>2016-03-10T14:32:05Z</time>
      </trkpt>
      <trkpt lat="43.34877" lon="5.2259">
        <ele>227</ele>
        <time>2016-03-10T14:32:06Z</time>
      </trkpt>
      <trkpt lat="43.34878" lon="5.22588">
        <ele>227</ele>
        <time>2016-03-10T14:32:07Z</time>
      </trkpt>
      <trkpt lat="43.34879" lon="5.22586">
        <ele>227</ele>
        <time>2016-03-10T14:32:08Z</time>
      </trkpt>
      <trkpt lat="43.3488" lon="5.22584">
        <ele>227</ele>
        <time>2016-03-10T14:32:09Z</time>
      </trkpt>
      <trkpt lat="43.3488" lon="5.22582">
        <ele>227</ele>
        <time>2016-03-10T14:32:10Z</time>
      </trkpt>
      <trkpt lat="43.34881" lon="5.2258">
        <ele>227</ele>
        <time>2016-03-10T14:32:11Z</time>
      </trkpt>
      <trkpt lat="43.34882" lon="5.22578">
        <ele>227</ele>
        <time>2016-03-10T14:32:12Z</time>
      </trkpt>
      <trkpt lat="43.34882" lon="5.22576">
        <ele>227</ele>
        <time>2016-03-10T14:32:13Z</time>
      </trkpt>
      <trkpt lat="43.34883" lon="5.22574">
        <ele>227</ele>
        <time>2016-03-10T14:32:14Z</time>
      </trkpt>
      <trkpt lat="43.34883" lon="5.22572">
        <ele>227</ele>
        <time>2016-03-10T14:32:15Z</time>
      </trkpt>
      <trkpt lat="43.34884" lon="5.2257">
        <ele>227</ele>
        <time>2016-03-10T14:32:16Z</time>
      </trkpt>
      <trkpt lat="43.34885" lon="5.22569">
        <ele>227</ele>
        <time>2016-03-10T14:32:17Z</time>
      </trkpt>
      <trkpt lat="43.34886" lon="5.22567">
        <ele>227</ele>
        <time>2016-03-10T14:32:18Z</time>
      </trkpt>
      <trkpt lat="43.34887" lon="5.22565">
        <ele>227</ele>
        <time>2016-03-10T14:32:19Z</time>
      </trkpt>
      <trkpt lat="43.34887" lon="5.22563">
        <ele>227</ele>
        <time>2016-03-10T14:32:20Z</time>
      </trkpt>
      <trkpt lat="43.34888" lon="5.22561">
        <ele>227</ele>
        <time>2016-03-10T14:32:21Z</time>
      </trkpt>
      <trkpt lat="43.34888" lon="5.22559">
        <ele>227</ele>
        <time>2016-03-10T14:32:22Z</time>
      </trkpt>
      <trkpt lat="43.34889" lon="5.22557">
        <ele>227</ele>
        <time>2016-03-10T14:32:23Z</time>
      </trkpt>
      <trkpt lat="43.3489" lon="5.22555">
        <ele>227</ele>
        <time>2016-03-10T14:32:24Z</time>
      </trkpt>
      <trkpt lat="43.3489" lon="5.22553">
        <ele>227</ele>
        <time>2016-03-10T14:32:25Z</time>
      </trkpt>
      <trkpt lat="43.34891" lon="5.22551">
        <ele>227</ele>
        <time>2016-03-10T14:32:26Z</time>
      </trkpt>
      <trkpt lat="43.34892" lon="5.22549">
        <ele>227</ele>
        <time>2016-03-10T14:32:27Z</time>
      </trkpt>
      <trkpt lat="43.34893" lon="5.22547">
        <ele>227</ele>
        <time>2016-03-10T14:32:28Z</time>
      </trkpt>
      <trkpt lat="43.34893" lon="5.22546">
        <ele>227</ele>
        <time>2016-03-10T14:32:29Z</time>
      </trkpt>
      <trkpt lat="43.34894" lon="5.22544">
        <ele>227</ele>
        <time>2016-03-10T14:32:30Z</time>
      </trkpt>
      <trkpt lat="43.34895" lon="5.22542">
        <ele>227</ele>
        <time>2016-03-10T14:32:31Z</time>
      </trkpt>
      <trkpt lat="43.34895" lon="5.2254">
        <ele>227</ele>
        <time>2016-03-10T14:32:32Z</time>
      </trkpt>
      <trkpt lat="43.34896" lon="5.22538">
        <ele>227</ele>
        <time>2016-03-10T14:32:33Z</time>
      </trkpt>
      <trkpt lat="43.34897" lon="5.22536">
        <ele>227</ele>
        <time>2016-03-10T14:32:34Z</time>
      </trkpt>
      <trkpt lat="43.34898" lon="5.22535">
        <ele>227</ele>
        <time>2016-03-10T14:32:35Z</time>
      </trkpt>
      <trkpt lat="43.34898" lon="5.22533">
        <ele>227</ele>
        <time>2016-03-10T14:32:36Z</time>
      </trkpt>
      <trkpt lat="43.34899" lon="5.22531">
        <ele>227</ele>
        <time>2016-03-10T14:32:37Z</time>
      </trkpt>
      <trkpt lat="43.349" lon="5.22529">
        <ele>227</ele>
        <time>2016-03-10T14:32:38Z</time>
      </trkpt>
      <trkpt lat="43.349" lon="5.22527">
        <ele>227</ele>
        <time>2016-03-10T14:32:39Z</time>
      </trkpt>
      <trkpt lat="43.34901" lon="5.22525">
        <ele>227</ele>
        <time>2016-03-10T14:32:40Z</time>
      </trkpt>
      <trkpt lat="43.34902" lon="5.22523">
        <ele>227</ele>
        <time>2016-03-10T14:32:41Z</time>
      </trkpt>
      <trkpt lat="43.34903" lon="5.22521">
        <ele>227</ele>
        <time>2016-03-10T14:32:42Z</time>
      </trkpt>
      <trkpt lat="43.34903" lon="5.22519">
        <ele>227</ele>
        <time>2016-03-10T14:32:43Z</time>
      </trkpt>
      <trkpt lat="43.34904" lon="5.22517">
        <ele>227</ele>
        <time>2016-03-10T14:32:44Z</time>
      </trkpt>
      <trkpt lat="43.34905" lon="5.22516">
        <ele>227</ele>
        <time>2016-03-10T14:32:45Z</time>
      </trkpt>
      <trkpt lat="43.34906" lon="5.22514">
        <ele>227</ele>
        <time>2016-03-10T14:32:46Z</time>
      </trkpt>
      <trkpt lat="43.34906" lon="5.22512">
        <ele>227</ele>
        <time>2016-03-10T14:32:47Z</time>
      </trkpt>
      <trkpt lat="43.34907" lon="5.2251">
        <ele>227</ele>
        <time>2016-03-10T14:32:48Z</time>
      </trkpt>
      <trkpt lat="43.34908" lon="5.22508">
        <ele>227</ele>
        <time>2016-03-10T14:32:49Z</time>
      </trkpt>
      <trkpt lat="43.34908" lon="5.22506">
        <ele>227</ele>
        <time>2016-03-10T14:32:50Z</time>
      </trkpt>
      <trkpt lat="43.34909" lon="5.22504">
        <ele>227</ele>
        <time>2016-03-10T14:32:51Z</time>
      </trkpt>
      <trkpt lat="43.3491" lon="5.22502">
        <ele>227</ele>
        <time>2016-03-10T14:32:52Z</time>
      </trkpt>
      <trkpt lat="43.34911" lon="5.225">
        <ele>227</ele>
        <time>2016-03-10T14:32:53Z</time>
      </trkpt>
      <trkpt lat="43.34911" lon="5.22498">
        <ele>227</ele>
        <time>2016-03-10T14:32:54Z</time>
      </trkpt>
      <trkpt lat="43.34912" lon="5.22497">
        <ele>227</ele>
        <time>2016-03-10T14:32:55Z</time>
      </trkpt>
      <trkpt lat="43.34913" lon="5.22495">
        <ele>227</ele>
        <time>2016-03-10T14:32:56Z</time>
      </trkpt>
      <trkpt lat="43.34914" lon="5.22493">
        <ele>227</ele>
        <time>2016-03-10T14:32:57Z</time>
      </trkpt>
      <trkpt lat="43.34915" lon="5.22491">
        <ele>227</ele>
        <time>2016-03-10T14:32:58Z</time>
      </trkpt>
      <trkpt lat="43.34916" lon="5.22489">
        <ele>227</ele>
        <time>2016-03-10T14:32:59Z</time>
      </trkpt>
      <trkpt lat="43.34916" lon="5.22487">
        <ele>227</ele>
        <time>2016-03-10T14:33:00Z</time>
      </trkpt>
      <trkpt lat="43.34917" lon="5.22485">
        <ele>228</ele>
        <time>2016-03-10T14:33:01Z</time>
      </trkpt>
      <trkpt lat="43.34918" lon="5.22483">
        <ele>228</ele>
        <time>2016-03-10T14:33:02Z</time>
      </trkpt>
      <trkpt lat="43.34919" lon="5.22481">
        <ele>228</ele>
        <time>2016-03-10T14:33:03Z</time>
      </trkpt>
      <trkpt lat="43.34919" lon="5.22479">
        <ele>228</ele>
        <time>2016-03-10T14:33:04Z</time>
      </trkpt>
      <trkpt lat="43.3492" lon="5.22477">
        <ele>228</ele>
        <time>2016-03-10T14:33:05Z</time>
      </trkpt>
      <trkpt lat="43.34921" lon="5.22475">
        <ele>228</ele>
        <time>2016-03-10T14:33:06Z</time>
      </trkpt>
      <trkpt lat="43.34922" lon="5.22473">
        <ele>228</ele>
        <time>2016-03-10T14:33:07Z</time>
      </trkpt>
      <trkpt lat="43.34922" lon="5.22472">
        <ele>228</ele>
        <time>2016-03-10T14:33:08Z</time>
      </trkpt>
      <trkpt lat="43.34923" lon="5.2247">
        <ele>228</ele>
        <time>2016-03-10T14:33:09Z</time>
      </trkpt>
      <trkpt lat="43.34924" lon="5.22468">
        <ele>228</ele>
        <time>2016-03-10T14:33:10Z</time>
      </trkpt>
      <trkpt lat="43.34924" lon="5.22467">
        <ele>228</ele>
        <time>2016-03-10T14:33:11Z</time>
      </trkpt>
      <trkpt lat="43.34925" lon="5.22465">
        <ele>228</ele>
        <time>2016-03-10T14:33:12Z</time>
      </trkpt>
      <trkpt lat="43.34926" lon="5.22463">
        <ele>228</ele>
        <time>2016-03-10T14:33:13Z</time>
      </trkpt>
      <trkpt lat="43.34927" lon="5.2246">
        <ele>228</ele>
        <time>2016-03-10T14:33:14Z</time>
      </trkpt>
      <trkpt lat="43.34927" lon="5.22458">
        <ele>228</ele>
        <time>2016-03-10T14:33:15Z</time>
      </trkpt>
      <trkpt lat="43.34928" lon="5.22457">
        <ele>228</ele>
        <time>2016-03-10T14:33:16Z</time>
      </trkpt>
      <trkpt lat="43.34929" lon="5.22455">
        <ele>228</ele>
        <time>2016-03-10T14:33:17Z</time>
      </trkpt>
      <trkpt lat="43.3493" lon="5.22452">
        <ele>228</ele>
        <time>2016-03-10T14:33:18Z</time>
      </trkpt>
      <trkpt lat="43.3493" lon="5.2245">
        <ele>228</ele>
        <time>2016-03-10T14:33:19Z</time>
      </trkpt>
      <trkpt lat="43.34931" lon="5.22448">
        <ele>228</ele>
        <time>2016-03-10T14:33:20Z</time>
      </trkpt>
      <trkpt lat="43.34932" lon="5.22447">
        <ele>228</ele>
        <time>2016-03-10T14:33:21Z</time>
      </trkpt>
      <trkpt lat="43.34933" lon="5.22445">
        <ele>228</ele>
        <time>2016-03-10T14:33:22Z</time>
      </trkpt>
      <trkpt lat="43.34933" lon="5.22443">
        <ele>228</ele>
        <time>2016-03-10T14:33:23Z</time>
      </trkpt>
      <trkpt lat="43.34934" lon="5.22441">
        <ele>228</ele>
        <time>2016-03-10T14:33:24Z</time>
      </trkpt>
      <trkpt lat="43.34935" lon="5.22439">
        <ele>228</ele>
        <time>2016-03-10T14:33:25Z</time>
      </trkpt>
      <trkpt lat="43.34935" lon="5.22437">
        <ele>228</ele>
        <time>2016-03-10T14:33:26Z</time>
      </trkpt>
      <trkpt lat="43.34936" lon="5.22435">
        <ele>228</ele>
        <time>2016-03-10T14:33:27Z</time>
      </trkpt>
      <trkpt lat="43.34937" lon="5.22434">
        <ele>228</ele>
        <time>2016-03-10T14:33:28Z</time>
      </trkpt>
      <trkpt lat="43.34938" lon="5.22432">
        <ele>228</ele>
        <time>2016-03-10T14:33:29Z</time>
      </trkpt>
      <trkpt lat="43.34938" lon="5.2243">
        <ele>228</ele>
        <time>2016-03-10T14:33:30Z</time>
      </trkpt>
      <trkpt lat="43.34939" lon="5.22428">
        <ele>228</ele>
        <time>2016-03-10T14:33:31Z</time>
      </trkpt>
      <trkpt lat="43.3494" lon="5.22426">
        <ele>228</ele>
        <time>2016-03-10T14:33:32Z</time>
      </trkpt>
      <trkpt lat="43.3494" lon="5.22424">
        <ele>228</ele>
        <time>2016-03-10T14:33:33Z</time>
      </trkpt>
      <trkpt lat="43.34941" lon="5.22422">
        <ele>228</ele>
        <time>2016-03-10T14:33:34Z</time>
      </trkpt>
      <trkpt lat="43.34942" lon="5.2242">
        <ele>228</ele>
        <time>2016-03-10T14:33:35Z</time>
      </trkpt>
      <trkpt lat="43.34943" lon="5.22418">
        <ele>228</ele>
        <time>2016-03-10T14:33:36Z</time>
      </trkpt>
      <trkpt lat="43.34943" lon="5.22416">
        <ele>228</ele>
        <time>2016-03-10T14:33:37Z</time>
      </trkpt>
      <trkpt lat="43.34944" lon="5.22414">
        <ele>228</ele>
        <time>2016-03-10T14:33:38Z</time>
      </trkpt>
      <trkpt lat="43.34945" lon="5.22412">
        <ele>228</ele>
        <time>2016-03-10T14:33:39Z</time>
      </trkpt>
      <trkpt lat="43.34945" lon="5.2241">
        <ele>228</ele>
        <time>2016-03-10T14:33:40Z</time>
      </trkpt>
      <trkpt lat="43.34946" lon="5.22408">
        <ele>228</ele>
        <time>2016-03-10T14:33:41Z</time>
      </trkpt>
      <trkpt lat="43.34946" lon="5.22406">
        <ele>228</ele>
        <time>2016-03-10T14:33:42Z</time>
      </trkpt>
      <trkpt lat="43.34947" lon="5.22404">
        <ele>228</ele>
        <time>2016-03-10T14:33:43Z</time>
      </trkpt>
      <trkpt lat="43.34948" lon="5.22402">
        <ele>228</ele>
        <time>2016-03-10T14:33:44Z</time>
      </trkpt>
      <trkpt lat="43.34949" lon="5.22401">
        <ele>228</ele>
        <time>2016-03-10T14:33:45Z</time>
      </trkpt>
      <trkpt lat="43.34949" lon="5.22399">
        <ele>228</ele>
        <time>2016-03-10T14:33:46Z</time>
      </trkpt>
      <trkpt lat="43.3495" lon="5.22397">
        <ele>229</ele>
        <time>2016-03-10T14:33:47Z</time>
      </trkpt>
      <trkpt lat="43.34951" lon="5.22395">
        <ele>229</ele>
        <time>2016-03-10T14:33:48Z</time>
      </trkpt>
      <trkpt lat="43.34951" lon="5.22393">
        <ele>229</ele>
        <time>2016-03-10T14:33:49Z</time>
      </trkpt>
      <trkpt lat="43.34952" lon="5.22391">
        <ele>229</ele>
        <time>2016-03-10T14:33:50Z</time>
      </trkpt>
      <trkpt lat="43.34953" lon="5.2239">
        <ele>229</ele>
        <time>2016-03-10T14:33:51Z</time>
      </trkpt>
      <trkpt lat="43.34954" lon="5.22388">
        <ele>229</ele>
        <time>2016-03-10T14:33:52Z</time>
      </trkpt>
      <trkpt lat="43.34954" lon="5.22386">
        <ele>229</ele>
        <time>2016-03-10T14:33:53Z</time>
      </trkpt>
      <trkpt lat="43.34955" lon="5.22384">
        <ele>229</ele>
        <time>2016-03-10T14:33:54Z</time>
      </trkpt>
      <trkpt lat="43.34956" lon="5.22382">
        <ele>229</ele>
        <time>2016-03-10T14:33:55Z</time>
      </trkpt>
      <trkpt lat="43.34956" lon="5.2238">
        <ele>229</ele>
        <time>2016-03-10T14:33:56Z</time>
      </trkpt>
      <trkpt lat="43.34957" lon="5.22378">
        <ele>229</ele>
        <time>2016-03-10T14:33:57Z</time>
      </trkpt>
      <trkpt lat="43.34958" lon="5.22376">
        <ele>230</ele>
        <time>2016-03-10T14:33:58Z</time>
      </trkpt>
      <trkpt lat="43.34959" lon="5.22374">
        <ele>230</ele>
        <time>2016-03-10T14:33:59Z</time>
      </trkpt>
      <trkpt lat="43.34959" lon="5.22372">
        <ele>230</ele>
        <time>2016-03-10T14:34:00Z</time>
      </trkpt>
      <trkpt lat="43.3496" lon="5.2237">
        <ele>230</ele>
        <time>2016-03-10T14:34:01Z</time>
      </trkpt>
      <trkpt lat="43.34961" lon="5.22368">
        <ele>230</ele>
        <time>2016-03-10T14:34:02Z</time>
      </trkpt>
      <trkpt lat="43.34961" lon="5.22367">
        <ele>230</ele>
        <time>2016-03-10T14:34:03Z</time>
      </trkpt>
      <trkpt lat="43.34962" lon="5.22365">
        <ele>230</ele>
        <time>2016-03-10T14:34:04Z</time>
      </trkpt>
      <trkpt lat="43.34963" lon="5.22363">
        <ele>230</ele>
        <time>2016-03-10T14:34:05Z</time>
      </trkpt>
      <trkpt lat="43.34964" lon="5.22361">
        <ele>230</ele>
        <time>2016-03-10T14:34:06Z</time>
      </trkpt>
      <trkpt lat="43.34965" lon="5.22359">
        <ele>230</ele>
        <time>2016-03-10T14:34:07Z</time>
      </trkpt>
      <trkpt lat="43.34966" lon="5.22357">
        <ele>230</ele>
        <time>2016-03-10T14:34:08Z</time>
      </trkpt>
      <trkpt lat="43.34966" lon="5.22355">
        <ele>230</ele>
        <time>2016-03-10T14:34:09Z</time>
      </trkpt>
      <trkpt lat="43.34967" lon="5.22353">
        <ele>230</ele>
        <time>2016-03-10T14:34:10Z</time>
      </trkpt>
      <trkpt lat="43.34968" lon="5.22351">
        <ele>230</ele>
        <time>2016-03-10T14:34:11Z</time>
      </trkpt>
      <trkpt lat="43.34969" lon="5.22348">
        <ele>230</ele>
        <time>2016-03-10T14:34:12Z</time>
      </trkpt>
      <trkpt lat="43.34969" lon="5.22347">
        <ele>230</ele>
        <time>2016-03-10T14:34:13Z</time>
      </trkpt>
      <trkpt lat="43.3497" lon="5.22345">
        <ele>230</ele>
        <time>2016-03-10T14:34:14Z</time>
      </trkpt>
      <trkpt lat="43.34971" lon="5.22343">
        <ele>230</ele>
        <time>2016-03-10T14:34:15Z</time>
      </trkpt>
      <trkpt lat="43.34972" lon="5.22341">
        <ele>230</ele>
        <time>2016-03-10T14:34:16Z</time>
      </trkpt>
      <trkpt lat="43.34973" lon="5.22339">
        <ele>230</ele>
        <time>2016-03-10T14:34:17Z</time>
      </trkpt>
      <trkpt lat="43.34974" lon="5.22337">
        <ele>230</ele>
        <time>2016-03-10T14:34:18Z</time>
      </trkpt>
      <trkpt lat="43.34975" lon="5.22335">
        <ele>230</ele>
        <time>2016-03-10T14:34:19Z</time>
      </trkpt>
      <trkpt lat="43.34975" lon="5.22333">
        <ele>230</ele>
        <time>2016-03-10T14:34:20Z</time>
      </trkpt>
      <trkpt lat="43.34976" lon="5.22331">
        <ele>230</ele>
        <time>2016-03-10T14:34:21Z</time>
      </trkpt>
      <trkpt lat="43.34977" lon="5.22329">
        <ele>230</ele>
        <time>2016-03-10T14:34:22Z</time>
      </trkpt>
      <trkpt lat="43.34978" lon="5.22327">
        <ele>230</ele>
        <time>2016-03-10T14:34:23Z</time>
      </trkpt>
      <trkpt lat="43.34979" lon="5.22325">
        <ele>230</ele>
        <time>2016-03-10T14:34:24Z</time>
      </trkpt>
      <trkpt lat="43.3498" lon="5.22323">
        <ele>230</ele>
        <time>2016-03-10T14:34:25Z</time>
      </trkpt>
      <trkpt lat="43.34981" lon="5.2232">
        <ele>230</ele>
        <time>2016-03-10T14:34:26Z</time>
      </trkpt>
      <trkpt lat="43.34982" lon="5.22319">
        <ele>230</ele>
        <time>2016-03-10T14:34:27Z</time>
      </trkpt>
      <trkpt lat="43.34982" lon="5.22317">
        <ele>230</ele>
        <time>2016-03-10T14:34:28Z</time>
      </trkpt>
      <trkpt lat="43.34983" lon="5.22315">
        <ele>230</ele>
        <time>2016-03-10T14:34:29Z</time>
      </trkpt>
      <trkpt lat="43.34984" lon="5.22313">
        <ele>230</ele>
        <time>2016-03-10T14:34:30Z</time>
      </trkpt>
      <trkpt lat="43.34985" lon="5.22311">
        <ele>230</ele>
        <time>2016-03-10T14:34:31Z</time>
      </trkpt>
      <trkpt lat="43.34985" lon="5.22309">
        <ele>230</ele>
        <time>2016-03-10T14:34:32Z</time>
      </trkpt>
      <trkpt lat="43.34986" lon="5.22307">
        <ele>230</ele>
        <time>2016-03-10T14:34:33Z</time>
      </trkpt>
      <trkpt lat="43.34987" lon="5.22305">
        <ele>230</ele>
        <time>2016-03-10T14:34:34Z</time>
      </trkpt>
      <trkpt lat="43.34988" lon="5.22303">
        <ele>230</ele>
        <time>2016-03-10T14:34:35Z</time>
      </trkpt>
      <trkpt lat="43.34989" lon="5.223">
        <ele>230</ele>
        <time>2016-03-10T14:34:36Z</time>
      </trkpt>
      <trkpt lat="43.3499" lon="5.22298">
        <ele>230</ele>
        <time>2016-03-10T14:34:37Z</time>
      </trkpt>
      <trkpt lat="43.34991" lon="5.22296">
        <ele>230</ele>
        <time>2016-03-10T14:34:38Z</time>
      </trkpt>
      <trkpt lat="43.34992" lon="5.22294">
        <ele>230</ele>
        <time>2016-03-10T14:34:39Z</time>
      </trkpt>
      <trkpt lat="43.34993" lon="5.22292">
        <ele>230</ele>
        <time>2016-03-10T14:34:40Z</time>
      </trkpt>
      <trkpt lat="43.34994" lon="5.22291">
        <ele>230</ele>
        <time>2016-03-10T14:34:41Z</time>
      </trkpt>
      <trkpt lat="43.34995" lon="5.22289">
        <ele>230</ele>
        <time>2016-03-10T14:34:42Z</time>
      </trkpt>
      <trkpt lat="43.34995" lon="5.22287">
        <ele>230</ele>
        <time>2016-03-10T14:34:43Z</time>
      </trkpt>
      <trkpt lat="43.34996" lon="5.22285">
        <ele>230</ele>
        <time>2016-03-10T14:34:44Z</time>
      </trkpt>
      <trkpt lat="43.34997" lon="5.22283">
        <ele>230</ele>
        <time>2016-03-10T14:34:45Z</time>
      </trkpt>
      <trkpt lat="43.34998" lon="5.22281">
        <ele>231</ele>
        <time>2016-03-10T14:34:46Z</time>
      </trkpt>
      <trkpt lat="43.34999" lon="5.22278">
        <ele>231</ele>
        <time>2016-03-10T14:34:47Z</time>
      </trkpt>
      <trkpt lat="43.35" lon="5.22276">
        <ele>231</ele>
        <time>2016-03-10T14:34:48Z</time>
      </trkpt>
      <trkpt lat="43.35001" lon="5.22274">
        <ele>231</ele>
        <time>2016-03-10T14:34:49Z</time>
      </trkpt>
      <trkpt lat="43.35002" lon="5.22272">
        <ele>231</ele>
        <time>2016-03-10T14:34:50Z</time>
      </trkpt>
      <trkpt lat="43.35003" lon="5.2227">
        <ele>231</ele>
        <time>2016-03-10T14:34:51Z</time>
      </trkpt>
      <trkpt lat="43.35004" lon="5.22269">
        <ele>231</ele>
        <time>2016-03-10T14:34:52Z</time>
      </trkpt>
      <trkpt lat="43.35004" lon="5.22267">
        <ele>231</ele>
        <time>2016-03-10T14:34:53Z</time>
      </trkpt>
      <trkpt lat="43.35005" lon="5.22265">
        <ele>231</ele>
        <time>2016-03-10T14:34:54Z</time>
      </trkpt>
      <trkpt lat="43.35006" lon="5.22263">
        <ele>231</ele>
        <time>2016-03-10T14:34:55Z</time>
      </trkpt>
      <trkpt lat="43.35007" lon="5.22261">
        <ele>231</ele>
        <time>2016-03-10T14:34:56Z</time>
      </trkpt>
      <trkpt lat="43.35008" lon="5.22259">
        <ele>231</ele>
        <time>2016-03-10T14:34:57Z</time>
      </trkpt>
      <trkpt lat="43.35009" lon="5.22257">
        <ele>231</ele>
        <time>2016-03-10T14:34:58Z</time>
      </trkpt>
      <trkpt lat="43.35009" lon="5.22255">
        <ele>231</ele>
        <time>2016-03-10T14:34:59Z</time>
      </trkpt>
      <trkpt lat="43.3501" lon="5.22253">
        <ele>231</ele>
        <time>2016-03-10T14:35:00Z</time>
      </trkpt>
      <trkpt lat="43.35011" lon="5.22251">
        <ele>231</ele>
        <time>2016-03-10T14:35:01Z</time>
      </trkpt>
      <trkpt lat="43.35012" lon="5.22249">
        <ele>231</ele>
        <time>2016-03-10T14:35:02Z</time>
      </trkpt>
      <trkpt lat="43.35012" lon="5.22248">
        <ele>231</ele>
        <time>2016-03-10T14:35:03Z</time>
      </trkpt>
      <trkpt lat="43.35013" lon="5.22246">
        <ele>231</ele>
        <time>2016-03-10T14:35:04Z</time>
      </trkpt>
      <trkpt lat="43.35014" lon="5.22244">
        <ele>231</ele>
        <time>2016-03-10T14:35:05Z</time>
      </trkpt>
      <trkpt lat="43.35015" lon="5.22242">
        <ele>231</ele>
        <time>2016-03-10T14:35:06Z</time>
      </trkpt>
      <trkpt lat="43.35016" lon="5.2224">
        <ele>231</ele>
        <time>2016-03-10T14:35:07Z</time>
      </trkpt>
      <trkpt lat="43.35017" lon="5.22238">
        <ele>231</ele>
        <time>2016-03-10T14:35:08Z</time>
      </trkpt>
      <trkpt lat="43.35017" lon="5.22235">
        <ele>231</ele>
        <time>2016-03-10T14:35:09Z</time>
      </trkpt>
      <trkpt lat="43.35018" lon="5.22233">
        <ele>231</ele>
        <time>2016-03-10T14:35:10Z</time>
      </trkpt>
      <trkpt lat="43.35019" lon="5.22231">
        <ele>231</ele>
        <time>2016-03-10T14:35:11Z</time>
      </trkpt>
      <trkpt lat="43.3502" lon="5.22229">
        <ele>231</ele>
        <time>2016-03-10T14:35:12Z</time>
      </trkpt>
      <trkpt lat="43.35021" lon="5.22227">
        <ele>231</ele>
        <time>2016-03-10T14:35:13Z</time>
      </trkpt>
      <trkpt lat="43.35022" lon="5.22226">
        <ele>231</ele>
        <time>2016-03-10T14:35:14Z</time>
      </trkpt>
      <trkpt lat="43.35022" lon="5.22224">
        <ele>231</ele>
        <time>2016-03-10T14:35:15Z</time>
      </trkpt>
      <trkpt lat="43.35023" lon="5.22222">
        <ele>231</ele>
        <time>2016-03-10T14:35:16Z</time>
      </trkpt>
      <trkpt lat="43.35024" lon="5.2222">
        <ele>231</ele>
        <time>2016-03-10T14:35:17Z</time>
      </trkpt>
      <trkpt lat="43.35025" lon="5.22218">
        <ele>231</ele>
        <time>2016-03-10T14:35:18Z</time>
      </trkpt>
      <trkpt lat="43.35026" lon="5.22216">
        <ele>231</ele>
        <time>2016-03-10T14:35:19Z</time>
      </trkpt>
      <trkpt lat="43.35027" lon="5.22214">
        <ele>231</ele>
        <time>2016-03-10T14:35:20Z</time>
      </trkpt>
      <trkpt lat="43.35027" lon="5.22212">
        <ele>231</ele>
        <time>2016-03-10T14:35:21Z</time>
      </trkpt>
      <trkpt lat="43.35028" lon="5.2221">
        <ele>231</ele>
        <time>2016-03-10T14:35:22Z</time>
      </trkpt>
      <trkpt lat="43.35029" lon="5.22208">
        <ele>231</ele>
        <time>2016-03-10T14:35:23Z</time>
      </trkpt>
      <trkpt lat="43.3503" lon="5.22206">
        <ele>231</ele>
        <time>2016-03-10T14:35:24Z</time>
      </trkpt>
      <trkpt lat="43.35031" lon="5.22204">
        <ele>231</ele>
        <time>2016-03-10T14:35:25Z</time>
      </trkpt>
      <trkpt lat="43.35032" lon="5.22202">
        <ele>231</ele>
        <time>2016-03-10T14:35:26Z</time>
      </trkpt>
      <trkpt lat="43.35032" lon="5.222">
        <ele>231</ele>
        <time>2016-03-10T14:35:27Z</time>
      </trkpt>
      <trkpt lat="43.35033" lon="5.22199">
        <ele>231</ele>
        <time>2016-03-10T14:35:28Z</time>
      </trkpt>
      <trkpt lat="43.35034" lon="5.22197">
        <ele>231</ele>
        <time>2016-03-10T14:35:29Z</time>
      </trkpt>
      <trkpt lat="43.35035" lon="5.22195">
        <ele>231</ele>
        <time>2016-03-10T14:35:30Z</time>
      </trkpt>
      <trkpt lat="43.35036" lon="5.22193">
        <ele>231</ele>
        <time>2016-03-10T14:35:31Z</time>
      </trkpt>
      <trkpt lat="43.35037" lon="5.22191">
        <ele>231</ele>
        <time>2016-03-10T14:35:32Z</time>
      </trkpt>
      <trkpt lat="43.35038" lon="5.22189">
        <ele>231</ele>
        <time>2016-03-10T14:35:33Z</time>
      </trkpt>
      <trkpt lat="43.35038" lon="5.22187">
        <ele>231</ele>
        <time>2016-03-10T14:35:34Z</time>
      </trkpt>
      <trkpt lat="43.35039" lon="5.22185">
        <ele>231</ele>
        <time>2016-03-10T14:35:35Z</time>
      </trkpt>
      <trkpt lat="43.3504" lon="5.22183">
        <ele>232</ele>
        <time>2016-03-10T14:35:36Z</time>
      </trkpt>
      <trkpt lat="43.35041" lon="5.22181">
        <ele>232</ele>
        <time>2016-03-10T14:35:37Z</time>
      </trkpt>
      <trkpt lat="43.35042" lon="5.22179">
        <ele>232</ele>
        <time>2016-03-10T14:35:38Z</time>
      </trkpt>
      <trkpt lat="43.35042" lon="5.22177">
        <ele>232</ele>
        <time>2016-03-10T14:35:39Z</time>
      </trkpt>
      <trkpt lat="43.35043" lon="5.22175">
        <ele>232</ele>
        <time>2016-03-10T14:35:40Z</time>
      </trkpt>
      <trkpt lat="43.35044" lon="5.22173">
        <ele>232</ele>
        <time>2016-03-10T14:35:41Z</time>
      </trkpt>
      <trkpt lat="43.35045" lon="5.22171">
        <ele>232</ele>
        <time>2016-03-10T14:35:42Z</time>
      </trkpt>
      <trkpt lat="43.35046" lon="5.22169">
        <ele>232</ele>
        <time>2016-03-10T14:35:43Z</time>
      </trkpt>
      <trkpt lat="43.35047" lon="5.22166">
        <ele>232</ele>
        <time>2016-03-10T14:35:44Z</time>
      </trkpt>
      <trkpt lat="43.35048" lon="5.22164">
        <ele>232</ele>
        <time>2016-03-10T14:35:45Z</time>
      </trkpt>
      <trkpt lat="43.35049" lon="5.22162">
        <ele>232</ele>
        <time>2016-03-10T14:35:46Z</time>
      </trkpt>
      <trkpt lat="43.3505" lon="5.2216">
        <ele>232</ele>
        <time>2016-03-10T14:35:47Z</time>
      </trkpt>
      <trkpt lat="43.35051" lon="5.22158">
        <ele>232</ele>
        <time>2016-03-10T14:35:48Z</time>
      </trkpt>
      <trkpt lat="43.35052" lon="5.22156">
        <ele>232</ele>
        <time>2016-03-10T14:35:49Z</time>
      </trkpt>
      <trkpt lat="43.35052" lon="5.22154">
        <ele>232</ele>
        <time>2016-03-10T14:35:50Z</time>
      </trkpt>
      <trkpt lat="43.35053" lon="5.22153">
        <ele>232</ele>
        <time>2016-03-10T14:35:51Z</time>
      </trkpt>
      <trkpt lat="43.35054" lon="5.22151">
        <ele>232</ele>
        <time>2016-03-10T14:35:52Z</time>
      </trkpt>
      <trkpt lat="43.35055" lon="5.22149">
        <ele>232</ele>
        <time>2016-03-10T14:35:53Z</time>
      </trkpt>
      <trkpt lat="43.35056" lon="5.22147">
        <ele>232</ele>
        <time>2016-03-10T14:35:54Z</time>
      </trkpt>
      <trkpt lat="43.35057" lon="5.22145">
        <ele>232</ele>
        <time>2016-03-10T14:35:55Z</time>
      </trkpt>
      <trkpt lat="43.35057" lon="5.22143">
        <ele>232</ele>
        <time>2016-03-10T14:35:56Z</time>
      </trkpt>
      <trkpt lat="43.35058" lon="5.22141">
        <ele>232</ele>
        <time>2016-03-10T14:35:57Z</time>
      </trkpt>
      <trkpt lat="43.35059" lon="5.22139">
        <ele>232</ele>
        <time>2016-03-10T14:35:58Z</time>
      </trkpt>
      <trkpt lat="43.3506" lon="5.22137">
        <ele>232</ele>
        <time>2016-03-10T14:35:59Z</time>
      </trkpt>
      <trkpt lat="43.35061" lon="5.22136">
        <ele>232</ele>
        <time>2016-03-10T14:36:00Z</time>
      </trkpt>
      <trkpt lat="43.35061" lon="5.22134">
        <ele>232</ele>
        <time>2016-03-10T14:36:01Z</time>
      </trkpt>
      <trkpt lat="43.35062" lon="5.22132">
        <ele>232</ele>
        <time>2016-03-10T14:36:02Z</time>
      </trkpt>
      <trkpt lat="43.35063" lon="5.22131">
        <ele>232</ele>
        <time>2016-03-10T14:36:03Z</time>
      </trkpt>
      <trkpt lat="43.35064" lon="5.22129">
        <ele>232</ele>
        <time>2016-03-10T14:36:04Z</time>
      </trkpt>
      <trkpt lat="43.35065" lon="5.22127">
        <ele>232</ele>
        <time>2016-03-10T14:36:05Z</time>
      </trkpt>
      <trkpt lat="43.35066" lon="5.22125">
        <ele>232</ele>
        <time>2016-03-10T14:36:06Z</time>
      </trkpt>
      <trkpt lat="43.35066" lon="5.22123">
        <ele>232</ele>
        <time>2016-03-10T14:36:07Z</time>
      </trkpt>
      <trkpt lat="43.35067" lon="5.22122">
        <ele>233</ele>
        <time>2016-03-10T14:36:08Z</time>
      </trkpt>
      <trkpt lat="43.35068" lon="5.2212">
        <ele>233</ele>
        <time>2016-03-10T14:36:09Z</time>
      </trkpt>
      <trkpt lat="43.35069" lon="5.22119">
        <ele>233</ele>
        <time>2016-03-10T14:36:10Z</time>
      </trkpt>
      <trkpt lat="43.3507" lon="5.22117">
        <ele>233</ele>
        <time>2016-03-10T14:36:11Z</time>
      </trkpt>
      <trkpt lat="43.35071" lon="5.22114">
        <ele>233</ele>
        <time>2016-03-10T14:36:13Z</time>
      </trkpt>
      <trkpt lat="43.35072" lon="5.22113">
        <ele>233</ele>
        <time>2016-03-10T14:36:14Z</time>
      </trkpt>
      <trkpt lat="43.35072" lon="5.22111">
        <ele>233</ele>
        <time>2016-03-10T14:36:15Z</time>
      </trkpt>
      <trkpt lat="43.35072" lon="5.22113">
        <ele>233</ele>
        <time>2016-03-10T14:36:25Z</time>
      </trkpt>
      <trkpt lat="43.35072" lon="5.22115">
        <ele>233</ele>
        <time>2016-03-10T14:36:26Z</time>
      </trkpt>
      <trkpt lat="43.35071" lon="5.22117">
        <ele>233</ele>
        <time>2016-03-10T14:36:27Z</time>
      </trkpt>
      <trkpt lat="43.3507" lon="5.22119">
        <ele>233</ele>
        <time>2016-03-10T14:36:28Z</time>
      </trkpt>
      <trkpt lat="43.3507" lon="5.2212">
        <ele>233</ele>
        <time>2016-03-10T14:36:29Z</time>
      </trkpt>
      <trkpt lat="43.35068" lon="5.22123">
        <ele>233</ele>
        <time>2016-03-10T14:36:31Z</time>
      </trkpt>
      <trkpt lat="43.35068" lon="5.22124">
        <ele>233</ele>
        <time>2016-03-10T14:36:32Z</time>
      </trkpt>
      <trkpt lat="43.35067" lon="5.22126">
        <ele>233</ele>
        <time>2016-03-10T14:36:34Z</time>
      </trkpt>
      <trkpt lat="43.35066" lon="5.22129">
        <ele>233</ele>
        <time>2016-03-10T14:36:36Z</time>
      </trkpt>
      <trkpt lat="43.35065" lon="5.22131">
        <ele>233</ele>
        <time>2016-03-10T14:36:38Z</time>
      </trkpt>
      <trkpt lat="43.35064" lon="5.22134">
        <ele>233</ele>
        <time>2016-03-10T14:36:40Z</time>
      </trkpt>
      <trkpt lat="43.35064" lon="5.22136">
        <ele>233</ele>
        <time>2016-03-10T14:36:41Z</time>
      </trkpt>
      <trkpt lat="43.35064" lon="5.22138">
        <ele>233</ele>
        <time>2016-03-10T14:36:42Z</time>
      </trkpt>
      <trkpt lat="43.35063" lon="5.22139">
        <ele>233</ele>
        <time>2016-03-10T14:36:43Z</time>
      </trkpt>
      <trkpt lat="43.35063" lon="5.22141">
        <ele>233</ele>
        <time>2016-03-10T14:36:44Z</time>
      </trkpt>
      <trkpt lat="43.35063" lon="5.22143">
        <ele>233</ele>
        <time>2016-03-10T14:36:45Z</time>
      </trkpt>
      <trkpt lat="43.35062" lon="5.22145">
        <ele>233</ele>
        <time>2016-03-10T14:36:46Z</time>
      </trkpt>
      <trkpt lat="43.35062" lon="5.22146">
        <ele>233</ele>
        <time>2016-03-10T14:36:47Z</time>
      </trkpt>
      <trkpt lat="43.35062" lon="5.22148">
        <ele>233</ele>
        <time>2016-03-10T14:36:48Z</time>
      </trkpt>
      <trkpt lat="43.35062" lon="5.22149">
        <ele>233</ele>
        <time>2016-03-10T14:36:49Z</time>
      </trkpt>
      <trkpt lat="43.35062" lon="5.22151">
        <ele>233</ele>
        <time>2016-03-10T14:36:50Z</time>
      </trkpt>
      <trkpt lat="43.35062" lon="5.22153">
        <ele>233</ele>
        <time>2016-03-10T14:36:51Z</time>
      </trkpt>
      <trkpt lat="43.35062" lon="5.22154">
        <ele>233</ele>
        <time>2016-03-10T14:36:52Z</time>
      </trkpt>
      <trkpt lat="43.35062" lon="5.22156">
        <ele>233</ele>
        <time>2016-03-10T14:36:53Z</time>
      </trkpt>
      <trkpt lat="43.35062" lon="5.22157">
        <ele>233</ele>
        <time>2016-03-10T14:36:54Z</time>
      </trkpt>
      <trkpt lat="43.35063" lon="5.22158">
        <ele>233</ele>
        <time>2016-03-10T14:36:55Z</time>
      </trkpt>
      <trkpt lat="43.35063" lon="5.2216">
        <ele>233</ele>
        <time>2016-03-10T14:36:56Z</time>
      </trkpt>
      <trkpt lat="43.35063" lon="5.22161">
        <ele>233</ele>
        <time>2016-03-10T14:36:57Z</time>
      </trkpt>
      <trkpt lat="43.35064" lon="5.22164">
        <ele>233</ele>
        <time>2016-03-10T14:36:59Z</time>
      </trkpt>
      <trkpt lat="43.35063" lon="5.22164">
        <ele>233</ele>
        <time>2016-03-10T14:37:15Z</time>
      </trkpt>
      <trkpt lat="43.35064" lon="5.22166">
        <ele>233</ele>
        <time>2016-03-10T14:37:53Z</time>
      </trkpt>
      <trkpt lat="43.35065" lon="5.22168">
        <ele>233</ele>
        <time>2016-03-10T14:37:55Z</time>
      </trkpt>
      <trkpt lat="43.35067" lon="5.2217">
        <ele>233</ele>
        <time>2016-03-10T14:37:57Z</time>
      </trkpt>
      <trkpt lat="43.35069" lon="5.22171">
        <ele>233</ele>
        <time>2016-03-10T14:37:58Z</time>
      </trkpt>
      <trkpt lat="43.3507" lon="5.22171">
        <ele>233</ele>
        <time>2016-03-10T14:37:59Z</time>
      </trkpt>
      <trkpt lat="43.35071" lon="5.22172">
        <ele>233</ele>
        <time>2016-03-10T14:38:00Z</time>
      </trkpt>
      <trkpt lat="43.35072" lon="5.22173">
        <ele>233</ele>
        <time>2016-03-10T14:38:01Z</time>
      </trkpt>
      <trkpt lat="43.35073" lon="5.22174">
        <ele>233</ele>
        <time>2016-03-10T14:38:02Z</time>
      </trkpt>
      <trkpt lat="43.35075" lon="5.22175">
        <ele>233</ele>
        <time>2016-03-10T14:38:03Z</time>
      </trkpt>
      <trkpt lat="43.35076" lon="5.22175">
        <ele>233</ele>
        <time>2016-03-10T14:38:04Z</time>
      </trkpt>
      <trkpt lat="43.35078" lon="5.22176">
        <ele>233</ele>
        <time>2016-03-10T14:38:05Z</time>
      </trkpt>
      <trkpt lat="43.35079" lon="5.22177">
        <ele>233</ele>
        <time>2016-03-10T14:38:06Z</time>
      </trkpt>
      <trkpt lat="43.3508" lon="5.22178">
        <ele>233</ele>
        <time>2016-03-10T14:38:07Z</time>
      </trkpt>
      <trkpt lat="43.35082" lon="5.22178">
        <ele>233</ele>
        <time>2016-03-10T14:38:08Z</time>
      </trkpt>
      <trkpt lat="43.35083" lon="5.22179">
        <ele>233</ele>
        <time>2016-03-10T14:38:09Z</time>
      </trkpt>
      <trkpt lat="43.35084" lon="5.22179">
        <ele>233</ele>
        <time>2016-03-10T14:38:10Z</time>
      </trkpt>
      <trkpt lat="43.35086" lon="5.2218">
        <ele>233</ele>
        <time>2016-03-10T14:38:11Z</time>
      </trkpt>
      <trkpt lat="43.35087" lon="5.22181">
        <ele>233</ele>
        <time>2016-03-10T14:38:12Z</time>
      </trkpt>
      <trkpt lat="43.35088" lon="5.22181">
        <ele>233</ele>
        <time>2016-03-10T14:38:13Z</time>
      </trkpt>
      <trkpt lat="43.3509" lon="5.22182">
        <ele>233</ele>
        <time>2016-03-10T14:38:14Z</time>
      </trkpt>
      <trkpt lat="43.35091" lon="5.22183">
        <ele>233</ele>
        <time>2016-03-10T14:38:15Z</time>
      </trkpt>
      <trkpt lat="43.35092" lon="5.22184">
        <ele>233</ele>
        <time>2016-03-10T14:38:16Z</time>
      </trkpt>
      <trkpt lat="43.35093" lon="5.22185">
        <ele>233</ele>
        <time>2016-03-10T14:38:17Z</time>
      </trkpt>
      <trkpt lat="43.35095" lon="5.22186">
        <ele>233</ele>
        <time>2016-03-10T14:38:18Z</time>
      </trkpt>
      <trkpt lat="43.35096" lon="5.22187">
        <ele>233</ele>
        <time>2016-03-10T14:38:19Z</time>
      </trkpt>
      <trkpt lat="43.35098" lon="5.2219">
        <ele>233</ele>
        <time>2016-03-10T14:38:21Z</time>
      </trkpt>
      <trkpt lat="43.351" lon="5.22192">
        <ele>233</ele>
        <time>2016-03-10T14:38:23Z</time>
      </trkpt>
      <trkpt lat="43.35101" lon="5.22194">
        <ele>233</ele>
        <time>2016-03-10T14:38:25Z</time>
      </trkpt>
      <trkpt lat="43.35103" lon="5.22197">
        <ele>233</ele>
        <time>2016-03-10T14:38:27Z</time>
      </trkpt>
      <trkpt lat="43.35103" lon="5.22198">
        <ele>233</ele>
        <time>2016-03-10T14:38:28Z</time>
      </trkpt>
      <trkpt lat="43.35104" lon="5.222">
        <ele>233</ele>
        <time>2016-03-10T14:38:29Z</time>
      </trkpt>
      <trkpt lat="43.35104" lon="5.22201">
        <ele>233</ele>
        <time>2016-03-10T14:38:30Z</time>
      </trkpt>
      <trkpt lat="43.35105" lon="5.22203">
        <ele>233</ele>
        <time>2016-03-10T14:38:31Z</time>
      </trkpt>
      <trkpt lat="43.35106" lon="5.22205">
        <ele>233</ele>
        <time>2016-03-10T14:38:32Z</time>
      </trkpt>
      <trkpt lat="43.35106" lon="5.22207">
        <ele>233</ele>
        <time>2016-03-10T14:38:34Z</time>
      </trkpt>
      <trkpt lat="43.35106" lon="5.22209">
        <ele>233</ele>
        <time>2016-03-10T14:38:35Z</time>
      </trkpt>
      <trkpt lat="43.35107" lon="5.22212">
        <ele>233</ele>
        <time>2016-03-10T14:38:37Z</time>
      </trkpt>
      <trkpt lat="43.35107" lon="5.22213">
        <ele>233</ele>
        <time>2016-03-10T14:38:38Z</time>
      </trkpt>
      <trkpt lat="43.35107" lon="5.22215">
        <ele>233</ele>
        <time>2016-03-10T14:38:39Z</time>
      </trkpt>
      <trkpt lat="43.35107" lon="5.22217">
        <ele>233</ele>
        <time>2016-03-10T14:38:40Z</time>
      </trkpt>
      <trkpt lat="43.35107" lon="5.22218">
        <ele>233</ele>
        <time>2016-03-10T14:38:41Z</time>
      </trkpt>
      <trkpt lat="43.35108" lon="5.2222">
        <ele>233</ele>
        <time>2016-03-10T14:38:42Z</time>
      </trkpt>
      <trkpt lat="43.35108" lon="5.22221">
        <ele>233</ele>
        <time>2016-03-10T14:38:43Z</time>
      </trkpt>
      <trkpt lat="43.35109" lon="5.22223">
        <ele>233</ele>
        <time>2016-03-10T14:38:44Z</time>
      </trkpt>
      <trkpt lat="43.35109" lon="5.22224">
        <ele>233</ele>
        <time>2016-03-10T14:38:45Z</time>
      </trkpt>
      <trkpt lat="43.35109" lon="5.22226">
        <ele>233</ele>
        <time>2016-03-10T14:38:46Z</time>
      </trkpt>
      <trkpt lat="43.35109" lon="5.22228">
        <ele>233</ele>
        <time>2016-03-10T14:38:47Z</time>
      </trkpt>
      <trkpt lat="43.35109" lon="5.22229">
        <ele>233</ele>
        <time>2016-03-10T14:38:48Z</time>
      </trkpt>
      <trkpt lat="43.3511" lon="5.22231">
        <ele>233</ele>
        <time>2016-03-10T14:38:49Z</time>
      </trkpt>
      <trkpt lat="43.3511" lon="5.22233">
        <ele>233</ele>
        <time>2016-03-10T14:38:50Z</time>
      </trkpt>
      <trkpt lat="43.3511" lon="5.22234">
        <ele>233</ele>
        <time>2016-03-10T14:38:51Z</time>
      </trkpt>
      <trkpt lat="43.35111" lon="5.22236">
        <ele>233</ele>
        <time>2016-03-10T14:38:52Z</time>
      </trkpt>
      <trkpt lat="43.35111" lon="5.22238">
        <ele>233</ele>
        <time>2016-03-10T14:38:53Z</time>
      </trkpt>
      <trkpt lat="43.35112" lon="5.2224">
        <ele>233</ele>
        <time>2016-03-10T14:38:54Z</time>
      </trkpt>
      <trkpt lat="43.35112" lon="5.22241">
        <ele>233</ele>
        <time>2016-03-10T14:38:55Z</time>
      </trkpt>
      <trkpt lat="43.35112" lon="5.22243">
        <ele>233</ele>
        <time>2016-03-10T14:38:56Z</time>
      </trkpt>
      <trkpt lat="43.35113" lon="5.22245">
        <ele>233</ele>
        <time>2016-03-10T14:38:57Z</time>
      </trkpt>
      <trkpt lat="43.35113" lon="5.22247">
        <ele>233</ele>
        <time>2016-03-10T14:38:58Z</time>
      </trkpt>
      <trkpt lat="43.35113" lon="5.22249">
        <ele>233</ele>
        <time>2016-03-10T14:38:59Z</time>
      </trkpt>
      <trkpt lat="43.35113" lon="5.2225">
        <ele>233</ele>
        <time>2016-03-10T14:39:00Z</time>
      </trkpt>
      <trkpt lat="43.35113" lon="5.22252">
        <ele>233</ele>
        <time>2016-03-10T14:39:01Z</time>
      </trkpt>
      <trkpt lat="43.35114" lon="5.22254">
        <ele>233</ele>
        <time>2016-03-10T14:39:02Z</time>
      </trkpt>
      <trkpt lat="43.35114" lon="5.22256">
        <ele>233</ele>
        <time>2016-03-10T14:39:03Z</time>
      </trkpt>
      <trkpt lat="43.35114" lon="5.22258">
        <ele>233</ele>
        <time>2016-03-10T14:39:04Z</time>
      </trkpt>
      <trkpt lat="43.35114" lon="5.2226">
        <ele>233</ele>
        <time>2016-03-10T14:39:05Z</time>
      </trkpt>
      <trkpt lat="43.35114" lon="5.22261">
        <ele>233</ele>
        <time>2016-03-10T14:39:06Z</time>
      </trkpt>
      <trkpt lat="43.35114" lon="5.22263">
        <ele>233</ele>
        <time>2016-03-10T14:39:07Z</time>
      </trkpt>
      <trkpt lat="43.35114" lon="5.22265">
        <ele>233</ele>
        <time>2016-03-10T14:39:08Z</time>
      </trkpt>
      <trkpt lat="43.35114" lon="5.22266">
        <ele>233</ele>
        <time>2016-03-10T14:39:09Z</time>
      </trkpt>
      <trkpt lat="43.35114" lon="5.22268">
        <ele>233</ele>
        <time>2016-03-10T14:39:10Z</time>
      </trkpt>
      <trkpt lat="43.35115" lon="5.2227">
        <ele>233</ele>
        <time>2016-03-10T14:39:11Z</time>
      </trkpt>
      <trkpt lat="43.35115" lon="5.22272">
        <ele>233</ele>
        <time>2016-03-10T14:39:12Z</time>
      </trkpt>
      <trkpt lat="43.35115" lon="5.22273">
        <ele>233</ele>
        <time>2016-03-10T14:39:13Z</time>
      </trkpt>
      <trkpt lat="43.35116" lon="5.22275">
        <ele>233</ele>
        <time>2016-03-10T14:39:14Z</time>
      </trkpt>
      <trkpt lat="43.35117" lon="5.22277">
        <ele>233</ele>
        <time>2016-03-10T14:39:15Z</time>
      </trkpt>
      <trkpt lat="43.35117" lon="5.22278">
        <ele>233</ele>
        <time>2016-03-10T14:39:16Z</time>
      </trkpt>
      <trkpt lat="43.35118" lon="5.2228">
        <ele>233</ele>
        <time>2016-03-10T14:39:17Z</time>
      </trkpt>
      <trkpt lat="43.35119" lon="5.22281">
        <ele>233</ele>
        <time>2016-03-10T14:39:18Z</time>
      </trkpt>
      <trkpt lat="43.3512" lon="5.22284">
        <ele>233</ele>
        <time>2016-03-10T14:39:20Z</time>
      </trkpt>
      <trkpt lat="43.35122" lon="5.22285">
        <ele>233</ele>
        <time>2016-03-10T14:39:21Z</time>
      </trkpt>
      <trkpt lat="43.35123" lon="5.22287">
        <ele>233</ele>
        <time>2016-03-10T14:39:23Z</time>
      </trkpt>
      <trkpt lat="43.35125" lon="5.22289">
        <ele>233</ele>
        <time>2016-03-10T14:39:24Z</time>
      </trkpt>
      <trkpt lat="43.35126" lon="5.2229">
        <ele>233</ele>
        <time>2016-03-10T14:39:25Z</time>
      </trkpt>
      <trkpt lat="43.35127" lon="5.2229">
        <ele>233</ele>
        <time>2016-03-10T14:39:26Z</time>
      </trkpt>
      <trkpt lat="43.35128" lon="5.22291">
        <ele>233</ele>
        <time>2016-03-10T14:39:27Z</time>
      </trkpt>
      <trkpt lat="43.35129" lon="5.22292">
        <ele>233</ele>
        <time>2016-03-10T14:39:28Z</time>
      </trkpt>
      <trkpt lat="43.3513" lon="5.22293">
        <ele>233</ele>
        <time>2016-03-10T14:39:29Z</time>
      </trkpt>
      <trkpt lat="43.35132" lon="5.22294">
        <ele>233</ele>
        <time>2016-03-10T14:39:30Z</time>
      </trkpt>
      <trkpt lat="43.35134" lon="5.22297">
        <ele>233</ele>
        <time>2016-03-10T14:39:32Z</time>
      </trkpt>
      <trkpt lat="43.35136" lon="5.22299">
        <ele>233</ele>
        <time>2016-03-10T14:39:34Z</time>
      </trkpt>
      <trkpt lat="43.35137" lon="5.223">
        <ele>233</ele>
        <time>2016-03-10T14:39:35Z</time>
      </trkpt>
      <trkpt lat="43.35138" lon="5.22302">
        <ele>233</ele>
        <time>2016-03-10T14:39:36Z</time>
      </trkpt>
      <trkpt lat="43.35139" lon="5.22305">
        <ele>233</ele>
        <time>2016-03-10T14:39:38Z</time>
      </trkpt>
      <trkpt lat="43.3514" lon="5.22306">
        <ele>233</ele>
        <time>2016-03-10T14:39:39Z</time>
      </trkpt>
      <trkpt lat="43.35142" lon="5.22309">
        <ele>233</ele>
        <time>2016-03-10T14:39:41Z</time>
      </trkpt>
      <trkpt lat="43.35144" lon="5.2231">
        <ele>233</ele>
        <time>2016-03-10T14:39:42Z</time>
      </trkpt>
      <trkpt lat="43.35145" lon="5.22313">
        <ele>233</ele>
        <time>2016-03-10T14:39:44Z</time>
      </trkpt>
      <trkpt lat="43.35146" lon="5.22314">
        <ele>233</ele>
        <time>2016-03-10T14:39:45Z</time>
      </trkpt>
      <trkpt lat="43.35148" lon="5.22317">
        <ele>233</ele>
        <time>2016-03-10T14:39:47Z</time>
      </trkpt>
      <trkpt lat="43.35149" lon="5.22319">
        <ele>233</ele>
        <time>2016-03-10T14:39:48Z</time>
      </trkpt>
      <trkpt lat="43.35151" lon="5.22322">
        <ele>233</ele>
        <time>2016-03-10T14:39:50Z</time>
      </trkpt>
      <trkpt lat="43.35151" lon="5.22323">
        <ele>233</ele>
        <time>2016-03-10T14:39:51Z</time>
      </trkpt>
      <trkpt lat="43.35152" lon="5.22325">
        <ele>233</ele>
        <time>2016-03-10T14:39:52Z</time>
      </trkpt>
      <trkpt lat="43.35153" lon="5.22326">
        <ele>233</ele>
        <time>2016-03-10T14:39:53Z</time>
      </trkpt>
      <trkpt lat="43.35154" lon="5.22327">
        <ele>233</ele>
        <time>2016-03-10T14:39:55Z</time>
      </trkpt>
      <trkpt lat="43.35155" lon="5.22326">
        <ele>233</ele>
        <time>2016-03-10T14:39:57Z</time>
      </trkpt>
      <trkpt lat="43.35157" lon="5.22324">
        <ele>233</ele>
        <time>2016-03-10T14:39:59Z</time>
      </trkpt>
      <trkpt lat="43.35159" lon="5.22321">
        <ele>233</ele>
        <time>2016-03-10T14:40:01Z</time>
      </trkpt>
      <trkpt lat="43.35161" lon="5.22319">
        <ele>233</ele>
        <time>2016-03-10T14:40:03Z</time>
      </trkpt>
      <trkpt lat="43.35162" lon="5.22317">
        <ele>233</ele>
        <time>2016-03-10T14:40:05Z</time>
      </trkpt>
      <trkpt lat="43.35164" lon="5.22314">
        <ele>233</ele>
        <time>2016-03-10T14:40:07Z</time>
      </trkpt>
      <trkpt lat="43.35164" lon="5.22312">
        <ele>233</ele>
        <time>2016-03-10T14:40:08Z</time>
      </trkpt>
      <trkpt lat="43.35165" lon="5.2231">
        <ele>233</ele>
        <time>2016-03-10T14:40:09Z</time>
      </trkpt>
      <trkpt lat="43.35165" lon="5.22309">
        <ele>233</ele>
        <time>2016-03-10T14:40:10Z</time>
      </trkpt>
      <trkpt lat="43.35165" lon="5.22307">
        <ele>233</ele>
        <time>2016-03-10T14:40:11Z</time>
      </trkpt>
      <trkpt lat="43.35166" lon="5.22305">
        <ele>233</ele>
        <time>2016-03-10T14:40:12Z</time>
      </trkpt>
      <trkpt lat="43.35166" lon="5.22304">
        <ele>233</ele>
        <time>2016-03-10T14:40:13Z</time>
      </trkpt>
      <trkpt lat="43.35166" lon="5.22302">
        <ele>233</ele>
        <time>2016-03-10T14:40:14Z</time>
      </trkpt>
      <trkpt lat="43.35166" lon="5.223">
        <ele>233</ele>
        <time>2016-03-10T14:40:15Z</time>
      </trkpt>
      <trkpt lat="43.35166" lon="5.22298">
        <ele>233</ele>
        <time>2016-03-10T14:40:16Z</time>
      </trkpt>
      <trkpt lat="43.35166" lon="5.22296">
        <ele>233</ele>
        <time>2016-03-10T14:40:17Z</time>
      </trkpt>
      <trkpt lat="43.35165" lon="5.22295">
        <ele>233</ele>
        <time>2016-03-10T14:40:18Z</time>
      </trkpt>
      <trkpt lat="43.35166" lon="5.22293">
        <ele>233</ele>
        <time>2016-03-10T14:40:19Z</time>
      </trkpt>
      <trkpt lat="43.35167" lon="5.22291">
        <ele>233</ele>
        <time>2016-03-10T14:40:21Z</time>
      </trkpt>
      <trkpt lat="43.35168" lon="5.2229">
        <ele>233</ele>
        <time>2016-03-10T14:40:23Z</time>
      </trkpt>
      <trkpt lat="43.3517" lon="5.22289">
        <ele>233</ele>
        <time>2016-03-10T14:40:25Z</time>
      </trkpt>
      <trkpt lat="43.35171" lon="5.22289">
        <ele>233</ele>
        <time>2016-03-10T14:40:28Z</time>
      </trkpt>
      <trkpt lat="43.35173" lon="5.2229">
        <ele>233</ele>
        <time>2016-03-10T14:40:30Z</time>
      </trkpt>
      <trkpt lat="43.35175" lon="5.22292">
        <ele>233</ele>
        <time>2016-03-10T14:40:32Z</time>
      </trkpt>
      <trkpt lat="43.35176" lon="5.22294">
        <ele>233</ele>
        <time>2016-03-10T14:40:34Z</time>
      </trkpt>
      <trkpt lat="43.35178" lon="5.22295">
        <ele>233</ele>
        <time>2016-03-10T14:40:35Z</time>
      </trkpt>
      <trkpt lat="43.35179" lon="5.22296">
        <ele>233</ele>
        <time>2016-03-10T14:40:36Z</time>
      </trkpt>
      <trkpt lat="43.35181" lon="5.22298">
        <ele>233</ele>
        <time>2016-03-10T14:40:38Z</time>
      </trkpt>
      <trkpt lat="43.35182" lon="5.22299">
        <ele>233</ele>
        <time>2016-03-10T14:40:39Z</time>
      </trkpt>
      <trkpt lat="43.35183" lon="5.22301">
        <ele>233</ele>
        <time>2016-03-10T14:40:40Z</time>
      </trkpt>
      <trkpt lat="43.35184" lon="5.22302">
        <ele>233</ele>
        <time>2016-03-10T14:40:41Z</time>
      </trkpt>
      <trkpt lat="43.35186" lon="5.22304">
        <ele>233</ele>
        <time>2016-03-10T14:40:42Z</time>
      </trkpt>
      <trkpt lat="43.35187" lon="5.22307">
        <ele>233</ele>
        <time>2016-03-10T14:40:44Z</time>
      </trkpt>
      <trkpt lat="43.35188" lon="5.22308">
        <ele>233</ele>
        <time>2016-03-10T14:40:45Z</time>
      </trkpt>
      <trkpt lat="43.35189" lon="5.2231">
        <ele>233</ele>
        <time>2016-03-10T14:40:46Z</time>
      </trkpt>
      <trkpt lat="43.35189" lon="5.22312">
        <ele>233</ele>
        <time>2016-03-10T14:40:47Z</time>
      </trkpt>
      <trkpt lat="43.3519" lon="5.22314">
        <ele>233</ele>
        <time>2016-03-10T14:40:48Z</time>
      </trkpt>
      <trkpt lat="43.35191" lon="5.22316">
        <ele>233</ele>
        <time>2016-03-10T14:40:49Z</time>
      </trkpt>
      <trkpt lat="43.35192" lon="5.22317">
        <ele>233</ele>
        <time>2016-03-10T14:40:50Z</time>
      </trkpt>
      <trkpt lat="43.35193" lon="5.22319">
        <ele>233</ele>
        <time>2016-03-10T14:40:51Z</time>
      </trkpt>
      <trkpt lat="43.35194" lon="5.2232">
        <ele>233</ele>
        <time>2016-03-10T14:40:52Z</time>
      </trkpt>
      <trkpt lat="43.35195" lon="5.22322">
        <ele>233</ele>
        <time>2016-03-10T14:40:53Z</time>
      </trkpt>
      <trkpt lat="43.35197" lon="5.22323">
        <ele>233</ele>
        <time>2016-03-10T14:40:54Z</time>
      </trkpt>
      <trkpt lat="43.35198" lon="5.22324">
        <ele>233</ele>
        <time>2016-03-10T14:40:55Z</time>
      </trkpt>
      <trkpt lat="43.35199" lon="5.22325">
        <ele>233</ele>
        <time>2016-03-10T14:40:57Z</time>
      </trkpt>
      <trkpt lat="43.352" lon="5.22326">
        <ele>233</ele>
        <time>2016-03-10T14:40:57Z</time>
      </trkpt>
      <trkpt lat="43.35201" lon="5.22327">
        <ele>233</ele>
        <time>2016-03-10T14:40:58Z</time>
      </trkpt>
      <trkpt lat="43.35202" lon="5.22328">
        <ele>233</ele>
        <time>2016-03-10T14:40:59Z</time>
      </trkpt>
      <trkpt lat="43.35204" lon="5.22329">
        <ele>233</ele>
        <time>2016-03-10T14:41:00Z</time>
      </trkpt>
      <trkpt lat="43.35205" lon="5.2233">
        <ele>233</ele>
        <time>2016-03-10T14:41:01Z</time>
      </trkpt>
      <trkpt lat="43.35207" lon="5.22332">
        <ele>233</ele>
        <time>2016-03-10T14:41:03Z</time>
      </trkpt>
      <trkpt lat="43.35209" lon="5.22333">
        <ele>233</ele>
        <time>2016-03-10T14:41:04Z</time>
      </trkpt>
      <trkpt lat="43.3521" lon="5.22335">
        <ele>233</ele>
        <time>2016-03-10T14:41:05Z</time>
      </trkpt>
      <trkpt lat="43.35211" lon="5.22336">
        <ele>233</ele>
        <time>2016-03-10T14:41:06Z</time>
      </trkpt>
      <trkpt lat="43.35212" lon="5.22337">
        <ele>233</ele>
        <time>2016-03-10T14:41:07Z</time>
      </trkpt>
      <trkpt lat="43.35214" lon="5.22338">
        <ele>233</ele>
        <time>2016-03-10T14:41:08Z</time>
      </trkpt>
      <trkpt lat="43.35215" lon="5.22339">
        <ele>233</ele>
        <time>2016-03-10T14:41:09Z</time>
      </trkpt>
      <trkpt lat="43.35217" lon="5.22342">
        <ele>233</ele>
        <time>2016-03-10T14:41:11Z</time>
      </trkpt>
      <trkpt lat="43.35218" lon="5.22343">
        <ele>233</ele>
        <time>2016-03-10T14:41:12Z</time>
      </trkpt>
      <trkpt lat="43.3522" lon="5.22343">
        <ele>233</ele>
        <time>2016-03-10T14:41:13Z</time>
      </trkpt>
      <trkpt lat="43.35221" lon="5.22344">
        <ele>233</ele>
        <time>2016-03-10T14:41:14Z</time>
      </trkpt>
      <trkpt lat="43.35222" lon="5.22345">
        <ele>233</ele>
        <time>2016-03-10T14:41:15Z</time>
      </trkpt>
      <trkpt lat="43.35223" lon="5.22347">
        <ele>233</ele>
        <time>2016-03-10T14:41:16Z</time>
      </trkpt>
      <trkpt lat="43.35225" lon="5.22348">
        <ele>233</ele>
        <time>2016-03-10T14:41:17Z</time>
      </trkpt>
      <trkpt lat="43.35226" lon="5.22349">
        <ele>233</ele>
        <time>2016-03-10T14:41:18Z</time>
      </trkpt>
      <trkpt lat="43.35227" lon="5.2235">
        <ele>233</ele>
        <time>2016-03-10T14:41:19Z</time>
      </trkpt>
      <trkpt lat="43.35228" lon="5.2235">
        <ele>233</ele>
        <time>2016-03-10T14:41:20Z</time>
      </trkpt>
      <trkpt lat="43.3523" lon="5.22351">
        <ele>233</ele>
        <time>2016-03-10T14:41:21Z</time>
      </trkpt>
      <trkpt lat="43.35231" lon="5.22351">
        <ele>233</ele>
        <time>2016-03-10T14:41:22Z</time>
      </trkpt>
      <trkpt lat="43.35233" lon="5.22352">
        <ele>233</ele>
        <time>2016-03-10T14:41:23Z</time>
      </trkpt>
      <trkpt lat="43.35234" lon="5.22353">
        <ele>233</ele>
        <time>2016-03-10T14:41:24Z</time>
      </trkpt>
      <trkpt lat="43.35235" lon="5.22353">
        <ele>233</ele>
        <time>2016-03-10T14:41:25Z</time>
      </trkpt>
      <trkpt lat="43.35236" lon="5.22355">
        <ele>233</ele>
        <time>2016-03-10T14:41:26Z</time>
      </trkpt>
      <trkpt lat="43.35237" lon="5.22356">
        <ele>233</ele>
        <time>2016-03-10T14:41:27Z</time>
      </trkpt>
      <trkpt lat="43.35239" lon="5.22359">
        <ele>233</ele>
        <time>2016-03-10T14:41:29Z</time>
      </trkpt>
      <trkpt lat="43.35241" lon="5.2236">
        <ele>233</ele>
        <time>2016-03-10T14:41:30Z</time>
      </trkpt>
      <trkpt lat="43.35242" lon="5.22362">
        <ele>233</ele>
        <time>2016-03-10T14:41:31Z</time>
      </trkpt>
      <trkpt lat="43.35244" lon="5.22364">
        <ele>233</ele>
        <time>2016-03-10T14:41:33Z</time>
      </trkpt>
      <trkpt lat="43.35245" lon="5.22366">
        <ele>233</ele>
        <time>2016-03-10T14:41:34Z</time>
      </trkpt>
      <trkpt lat="43.35246" lon="5.22367">
        <ele>233</ele>
        <time>2016-03-10T14:41:35Z</time>
      </trkpt>
      <trkpt lat="43.35247" lon="5.22368">
        <ele>233</ele>
        <time>2016-03-10T14:41:36Z</time>
      </trkpt>
      <trkpt lat="43.35249" lon="5.22369">
        <ele>233</ele>
        <time>2016-03-10T14:41:37Z</time>
      </trkpt>
      <trkpt lat="43.3525" lon="5.2237">
        <ele>233</ele>
        <time>2016-03-10T14:41:38Z</time>
      </trkpt>
      <trkpt lat="43.35251" lon="5.22371">
        <ele>233</ele>
        <time>2016-03-10T14:41:39Z</time>
      </trkpt>
      <trkpt lat="43.35253" lon="5.22372">
        <ele>233</ele>
        <time>2016-03-10T14:41:40Z</time>
      </trkpt>
      <trkpt lat="43.35254" lon="5.22373">
        <ele>233</ele>
        <time>2016-03-10T14:41:41Z</time>
      </trkpt>
      <trkpt lat="43.35255" lon="5.22374">
        <ele>233</ele>
        <time>2016-03-10T14:41:42Z</time>
      </trkpt>
      <trkpt lat="43.35257" lon="5.22375">
        <ele>233</ele>
        <time>2016-03-10T14:41:43Z</time>
      </trkpt>
      <trkpt lat="43.35258" lon="5.22376">
        <ele>233</ele>
        <time>2016-03-10T14:41:44Z</time>
      </trkpt>
      <trkpt lat="43.35259" lon="5.22376">
        <ele>233</ele>
        <time>2016-03-10T14:41:45Z</time>
      </trkpt>
      <trkpt lat="43.35261" lon="5.22377">
        <ele>233</ele>
        <time>2016-03-10T14:41:46Z</time>
      </trkpt>
      <trkpt lat="43.35263" lon="5.22378">
        <ele>233</ele>
        <time>2016-03-10T14:41:47Z</time>
      </trkpt>
      <trkpt lat="43.35264" lon="5.22378">
        <ele>233</ele>
        <time>2016-03-10T14:41:48Z</time>
      </trkpt>
      <trkpt lat="43.35265" lon="5.22379">
        <ele>233</ele>
        <time>2016-03-10T14:41:49Z</time>
      </trkpt>
      <trkpt lat="43.35267" lon="5.2238">
        <ele>233</ele>
        <time>2016-03-10T14:41:50Z</time>
      </trkpt>
      <trkpt lat="43.35268" lon="5.22381">
        <ele>233</ele>
        <time>2016-03-10T14:41:51Z</time>
      </trkpt>
      <trkpt lat="43.3527" lon="5.22382">
        <ele>233</ele>
        <time>2016-03-10T14:41:52Z</time>
      </trkpt>
      <trkpt lat="43.35271" lon="5.22383">
        <ele>233</ele>
        <time>2016-03-10T14:41:53Z</time>
      </trkpt>
      <trkpt lat="43.35272" lon="5.22384">
        <ele>233</ele>
        <time>2016-03-10T14:41:54Z</time>
      </trkpt>
      <trkpt lat="43.35273" lon="5.22385">
        <ele>233</ele>
        <time>2016-03-10T14:41:55Z</time>
      </trkpt>
      <trkpt lat="43.35275" lon="5.22386">
        <ele>233</ele>
        <time>2016-03-10T14:41:56Z</time>
      </trkpt>
      <trkpt lat="43.35276" lon="5.22387">
        <ele>233</ele>
        <time>2016-03-10T14:41:57Z</time>
      </trkpt>
      <trkpt lat="43.35277" lon="5.22388">
        <ele>233</ele>
        <time>2016-03-10T14:41:58Z</time>
      </trkpt>
      <trkpt lat="43.35278" lon="5.22389">
        <ele>233</ele>
        <time>2016-03-10T14:41:59Z</time>
      </trkpt>
      <trkpt lat="43.3528" lon="5.2239">
        <ele>233</ele>
        <time>2016-03-10T14:42:00Z</time>
      </trkpt>
      <trkpt lat="43.35281" lon="5.22391">
        <ele>233</ele>
        <time>2016-03-10T14:42:01Z</time>
      </trkpt>
      <trkpt lat="43.35283" lon="5.22392">
        <ele>233</ele>
        <time>2016-03-10T14:42:02Z</time>
      </trkpt>
      <trkpt lat="43.35284" lon="5.22393">
        <ele>233</ele>
        <time>2016-03-10T14:42:03Z</time>
      </trkpt>
      <trkpt lat="43.35286" lon="5.22394">
        <ele>233</ele>
        <time>2016-03-10T14:42:04Z</time>
      </trkpt>
      <trkpt lat="43.35287" lon="5.22395">
        <ele>233</ele>
        <time>2016-03-10T14:42:05Z</time>
      </trkpt>
      <trkpt lat="43.35288" lon="5.22396">
        <ele>232</ele>
        <time>2016-03-10T14:42:06Z</time>
      </trkpt>
      <trkpt lat="43.35289" lon="5.22397">
        <ele>232</ele>
        <time>2016-03-10T14:42:07Z</time>
      </trkpt>
      <trkpt lat="43.35291" lon="5.22398">
        <ele>232</ele>
        <time>2016-03-10T14:42:08Z</time>
      </trkpt>
      <trkpt lat="43.35292" lon="5.224">
        <ele>232</ele>
        <time>2016-03-10T14:42:09Z</time>
      </trkpt>
      <trkpt lat="43.35293" lon="5.22401">
        <ele>232</ele>
        <time>2016-03-10T14:42:10Z</time>
      </trkpt>
      <trkpt lat="43.35294" lon="5.22402">
        <ele>232</ele>
        <time>2016-03-10T14:42:11Z</time>
      </trkpt>
      <trkpt lat="43.35295" lon="5.22403">
        <ele>232</ele>
        <time>2016-03-10T14:42:12Z</time>
      </trkpt>
      <trkpt lat="43.35297" lon="5.22407">
        <ele>232</ele>
        <time>2016-03-10T14:42:14Z</time>
      </trkpt>
      <trkpt lat="43.35298" lon="5.22408">
        <ele>232</ele>
        <time>2016-03-10T14:42:15Z</time>
      </trkpt>
      <trkpt lat="43.35299" lon="5.2241">
        <ele>232</ele>
        <time>2016-03-10T14:42:16Z</time>
      </trkpt>
      <trkpt lat="43.353" lon="5.22412">
        <ele>231</ele>
        <time>2016-03-10T14:42:17Z</time>
      </trkpt>
      <trkpt lat="43.35301" lon="5.22414">
        <ele>231</ele>
        <time>2016-03-10T14:42:18Z</time>
      </trkpt>
      <trkpt lat="43.35302" lon="5.22415">
        <ele>231</ele>
        <time>2016-03-10T14:42:19Z</time>
      </trkpt>
      <trkpt lat="43.35302" lon="5.22417">
        <ele>231</ele>
        <time>2016-03-10T14:42:20Z</time>
      </trkpt>
      <trkpt lat="43.35303" lon="5.22418">
        <ele>231</ele>
        <time>2016-03-10T14:42:21Z</time>
      </trkpt>
      <trkpt lat="43.35305" lon="5.2242">
        <ele>231</ele>
        <time>2016-03-10T14:42:22Z</time>
      </trkpt>
      <trkpt lat="43.35306" lon="5.22421">
        <ele>231</ele>
        <time>2016-03-10T14:42:23Z</time>
      </trkpt>
      <trkpt lat="43.35307" lon="5.22422">
        <ele>231</ele>
        <time>2016-03-10T14:42:24Z</time>
      </trkpt>
      <trkpt lat="43.35308" lon="5.22423">
        <ele>230</ele>
        <time>2016-03-10T14:42:25Z</time>
      </trkpt>
      <trkpt lat="43.3531" lon="5.22424">
        <ele>230</ele>
        <time>2016-03-10T14:42:26Z</time>
      </trkpt>
      <trkpt lat="43.35311" lon="5.22426">
        <ele>230</ele>
        <time>2016-03-10T14:42:27Z</time>
      </trkpt>
      <trkpt lat="43.35313" lon="5.22427">
        <ele>230</ele>
        <time>2016-03-10T14:42:28Z</time>
      </trkpt>
      <trkpt lat="43.35314" lon="5.22428">
        <ele>230</ele>
        <time>2016-03-10T14:42:29Z</time>
      </trkpt>
      <trkpt lat="43.35316" lon="5.22429">
        <ele>230</ele>
        <time>2016-03-10T14:42:30Z</time>
      </trkpt>
      <trkpt lat="43.35317" lon="5.2243">
        <ele>230</ele>
        <time>2016-03-10T14:42:31Z</time>
      </trkpt>
      <trkpt lat="43.35318" lon="5.22431">
        <ele>230</ele>
        <time>2016-03-10T14:42:32Z</time>
      </trkpt>
      <trkpt lat="43.3532" lon="5.22432">
        <ele>230</ele>
        <time>2016-03-10T14:42:33Z</time>
      </trkpt>
      <trkpt lat="43.35321" lon="5.22433">
        <ele>230</ele>
        <time>2016-03-10T14:42:34Z</time>
      </trkpt>
      <trkpt lat="43.35323" lon="5.22434">
        <ele>230</ele>
        <time>2016-03-10T14:42:35Z</time>
      </trkpt>
      <trkpt lat="43.35324" lon="5.22435">
        <ele>230</ele>
        <time>2016-03-10T14:42:36Z</time>
      </trkpt>
      <trkpt lat="43.35326" lon="5.22436">
        <ele>230</ele>
        <time>2016-03-10T14:42:37Z</time>
      </trkpt>
      <trkpt lat="43.35327" lon="5.22437">
        <ele>230</ele>
        <time>2016-03-10T14:42:38Z</time>
      </trkpt>
      <trkpt lat="43.35329" lon="5.22438">
        <ele>230</ele>
        <time>2016-03-10T14:42:39Z</time>
      </trkpt>
      <trkpt lat="43.3533" lon="5.22439">
        <ele>230</ele>
        <time>2016-03-10T14:42:40Z</time>
      </trkpt>
      <trkpt lat="43.35331" lon="5.2244">
        <ele>230</ele>
        <time>2016-03-10T14:42:41Z</time>
      </trkpt>
      <trkpt lat="43.35333" lon="5.22441">
        <ele>230</ele>
        <time>2016-03-10T14:42:42Z</time>
      </trkpt>
      <trkpt lat="43.35334" lon="5.22442">
        <ele>230</ele>
        <time>2016-03-10T14:42:43Z</time>
      </trkpt>
      <trkpt lat="43.35336" lon="5.22443">
        <ele>230</ele>
        <time>2016-03-10T14:42:44Z</time>
      </trkpt>
      <trkpt lat="43.35337" lon="5.22444">
        <ele>230</ele>
        <time>2016-03-10T14:42:45Z</time>
      </trkpt>
      <trkpt lat="43.35338" lon="5.22445">
        <ele>230</ele>
        <time>2016-03-10T14:42:46Z</time>
      </trkpt>
      <trkpt lat="43.3534" lon="5.22446">
        <ele>230</ele>
        <time>2016-03-10T14:42:47Z</time>
      </trkpt>
      <trkpt lat="43.35341" lon="5.22447">
        <ele>230</ele>
        <time>2016-03-10T14:42:48Z</time>
      </trkpt>
      <trkpt lat="43.35343" lon="5.2245">
        <ele>230</ele>
        <time>2016-03-10T14:42:50Z</time>
      </trkpt>
      <trkpt lat="43.35344" lon="5.22452">
        <ele>230</ele>
        <time>2016-03-10T14:42:51Z</time>
      </trkpt>
      <trkpt lat="43.35345" lon="5.22454">
        <ele>230</ele>
        <time>2016-03-10T14:42:52Z</time>
      </trkpt>
      <trkpt lat="43.35346" lon="5.22456">
        <ele>230</ele>
        <time>2016-03-10T14:42:53Z</time>
      </trkpt>
      <trkpt lat="43.35347" lon="5.22458">
        <ele>229</ele>
        <time>2016-03-10T14:42:54Z</time>
      </trkpt>
      <trkpt lat="43.35348" lon="5.22459">
        <ele>229</ele>
        <time>2016-03-10T14:42:55Z</time>
      </trkpt>
      <trkpt lat="43.35349" lon="5.22461">
        <ele>229</ele>
        <time>2016-03-10T14:42:56Z</time>
      </trkpt>
      <trkpt lat="43.35349" lon="5.22463">
        <ele>229</ele>
        <time>2016-03-10T14:42:57Z</time>
      </trkpt>
      <trkpt lat="43.3535" lon="5.22465">
        <ele>229</ele>
        <time>2016-03-10T14:42:58Z</time>
      </trkpt>
      <trkpt lat="43.35351" lon="5.22466">
        <ele>229</ele>
        <time>2016-03-10T14:42:59Z</time>
      </trkpt>
      <trkpt lat="43.35352" lon="5.22468">
        <ele>229</ele>
        <time>2016-03-10T14:43:00Z</time>
      </trkpt>
      <trkpt lat="43.35353" lon="5.2247">
        <ele>229</ele>
        <time>2016-03-10T14:43:01Z</time>
      </trkpt>
      <trkpt lat="43.35354" lon="5.22471">
        <ele>229</ele>
        <time>2016-03-10T14:43:02Z</time>
      </trkpt>
      <trkpt lat="43.35355" lon="5.22473">
        <ele>229</ele>
        <time>2016-03-10T14:43:03Z</time>
      </trkpt>
      <trkpt lat="43.35356" lon="5.22474">
        <ele>229</ele>
        <time>2016-03-10T14:43:04Z</time>
      </trkpt>
      <trkpt lat="43.35357" lon="5.22476">
        <ele>229</ele>
        <time>2016-03-10T14:43:05Z</time>
      </trkpt>
      <trkpt lat="43.35358" lon="5.22477">
        <ele>229</ele>
        <time>2016-03-10T14:43:06Z</time>
      </trkpt>
      <trkpt lat="43.3536" lon="5.2248">
        <ele>229</ele>
        <time>2016-03-10T14:43:08Z</time>
      </trkpt>
      <trkpt lat="43.35362" lon="5.22482">
        <ele>229</ele>
        <time>2016-03-10T14:43:10Z</time>
      </trkpt>
      <trkpt lat="43.35363" lon="5.22484">
        <ele>229</ele>
        <time>2016-03-10T14:43:11Z</time>
      </trkpt>
      <trkpt lat="43.35364" lon="5.22485">
        <ele>229</ele>
        <time>2016-03-10T14:43:12Z</time>
      </trkpt>
      <trkpt lat="43.35366" lon="5.22486">
        <ele>229</ele>
        <time>2016-03-10T14:43:13Z</time>
      </trkpt>
      <trkpt lat="43.35368" lon="5.22489">
        <ele>229</ele>
        <time>2016-03-10T14:43:15Z</time>
      </trkpt>
      <trkpt lat="43.35369" lon="5.22491">
        <ele>229</ele>
        <time>2016-03-10T14:43:16Z</time>
      </trkpt>
      <trkpt lat="43.35371" lon="5.22493">
        <ele>229</ele>
        <time>2016-03-10T14:43:18Z</time>
      </trkpt>
      <trkpt lat="43.35372" lon="5.22495">
        <ele>229</ele>
        <time>2016-03-10T14:43:19Z</time>
      </trkpt>
      <trkpt lat="43.35373" lon="5.22496">
        <ele>229</ele>
        <time>2016-03-10T14:43:20Z</time>
      </trkpt>
      <trkpt lat="43.35374" lon="5.22497">
        <ele>229</ele>
        <time>2016-03-10T14:43:21Z</time>
      </trkpt>
      <trkpt lat="43.35375" lon="5.22498">
        <ele>229</ele>
        <time>2016-03-10T14:43:22Z</time>
      </trkpt>
      <trkpt lat="43.35377" lon="5.225">
        <ele>229</ele>
        <time>2016-03-10T14:43:23Z</time>
      </trkpt>
      <trkpt lat="43.35378" lon="5.22501">
        <ele>229</ele>
        <time>2016-03-10T14:43:24Z</time>
      </trkpt>
      <trkpt lat="43.35379" lon="5.22502">
        <ele>229</ele>
        <time>2016-03-10T14:43:25Z</time>
      </trkpt>
      <trkpt lat="43.3538" lon="5.22503">
        <ele>229</ele>
        <time>2016-03-10T14:43:26Z</time>
      </trkpt>
      <trkpt lat="43.35381" lon="5.22505">
        <ele>229</ele>
        <time>2016-03-10T14:43:27Z</time>
      </trkpt>
      <trkpt lat="43.35383" lon="5.22506">
        <ele>229</ele>
        <time>2016-03-10T14:43:28Z</time>
      </trkpt>
      <trkpt lat="43.35384" lon="5.22507">
        <ele>229</ele>
        <time>2016-03-10T14:43:29Z</time>
      </trkpt>
      <trkpt lat="43.35385" lon="5.22508">
        <ele>229</ele>
        <time>2016-03-10T14:43:30Z</time>
      </trkpt>
      <trkpt lat="43.35387" lon="5.22509">
        <ele>229</ele>
        <time>2016-03-10T14:43:31Z</time>
      </trkpt>
      <trkpt lat="43.35388" lon="5.2251">
        <ele>229</ele>
        <time>2016-03-10T14:43:32Z</time>
      </trkpt>
      <trkpt lat="43.35389" lon="5.22511">
        <ele>229</ele>
        <time>2016-03-10T14:43:33Z</time>
      </trkpt>
      <trkpt lat="43.3539" lon="5.22513">
        <ele>229</ele>
        <time>2016-03-10T14:43:34Z</time>
      </trkpt>
      <trkpt lat="43.35392" lon="5.22514">
        <ele>229</ele>
        <time>2016-03-10T14:43:35Z</time>
      </trkpt>
      <trkpt lat="43.35393" lon="5.22515">
        <ele>229</ele>
        <time>2016-03-10T14:43:36Z</time>
      </trkpt>
      <trkpt lat="43.35394" lon="5.22516">
        <ele>229</ele>
        <time>2016-03-10T14:43:37Z</time>
      </trkpt>
      <trkpt lat="43.35395" lon="5.22517">
        <ele>229</ele>
        <time>2016-03-10T14:43:38Z</time>
      </trkpt>
      <trkpt lat="43.35397" lon="5.22519">
        <ele>229</ele>
        <time>2016-03-10T14:43:39Z</time>
      </trkpt>
      <trkpt lat="43.35398" lon="5.2252">
        <ele>229</ele>
        <time>2016-03-10T14:43:40Z</time>
      </trkpt>
      <trkpt lat="43.35399" lon="5.22521">
        <ele>229</ele>
        <time>2016-03-10T14:43:41Z</time>
      </trkpt>
      <trkpt lat="43.354" lon="5.22522">
        <ele>229</ele>
        <time>2016-03-10T14:43:42Z</time>
      </trkpt>
      <trkpt lat="43.35402" lon="5.22524">
        <ele>229</ele>
        <time>2016-03-10T14:43:43Z</time>
      </trkpt>
      <trkpt lat="43.35403" lon="5.22525">
        <ele>229</ele>
        <time>2016-03-10T14:43:44Z</time>
      </trkpt>
      <trkpt lat="43.35404" lon="5.22527">
        <ele>229</ele>
        <time>2016-03-10T14:43:45Z</time>
      </trkpt>
      <trkpt lat="43.35405" lon="5.22528">
        <ele>229</ele>
        <time>2016-03-10T14:43:46Z</time>
      </trkpt>
      <trkpt lat="43.35406" lon="5.22529">
        <ele>229</ele>
        <time>2016-03-10T14:43:47Z</time>
      </trkpt>
      <trkpt lat="43.35407" lon="5.22531">
        <ele>229</ele>
        <time>2016-03-10T14:43:48Z</time>
      </trkpt>
      <trkpt lat="43.35409" lon="5.22532">
        <ele>229</ele>
        <time>2016-03-10T14:43:49Z</time>
      </trkpt>
      <trkpt lat="43.3541" lon="5.22533">
        <ele>229</ele>
        <time>2016-03-10T14:43:50Z</time>
      </trkpt>
      <trkpt lat="43.35411" lon="5.22535">
        <ele>229</ele>
        <time>2016-03-10T14:43:51Z</time>
      </trkpt>
      <trkpt lat="43.35413" lon="5.22537">
        <ele>229</ele>
        <time>2016-03-10T14:43:53Z</time>
      </trkpt>
      <trkpt lat="43.35415" lon="5.22539">
        <ele>229</ele>
        <time>2016-03-10T14:43:54Z</time>
      </trkpt>
      <trkpt lat="43.35416" lon="5.2254">
        <ele>229</ele>
        <time>2016-03-10T14:43:55Z</time>
      </trkpt>
      <trkpt lat="43.35418" lon="5.22543">
        <ele>229</ele>
        <time>2016-03-10T14:43:57Z</time>
      </trkpt>
      <trkpt lat="43.35419" lon="5.22544">
        <ele>229</ele>
        <time>2016-03-10T14:43:58Z</time>
      </trkpt>
      <trkpt lat="43.3542" lon="5.22545">
        <ele>229</ele>
        <time>2016-03-10T14:43:59Z</time>
      </trkpt>
      <trkpt lat="43.35421" lon="5.22547">
        <ele>229</ele>
        <time>2016-03-10T14:44:00Z</time>
      </trkpt>
      <trkpt lat="43.35423" lon="5.22548">
        <ele>229</ele>
        <time>2016-03-10T14:44:01Z</time>
      </trkpt>
      <trkpt lat="43.35424" lon="5.2255">
        <ele>229</ele>
        <time>2016-03-10T14:44:02Z</time>
      </trkpt>
      <trkpt lat="43.35425" lon="5.22551">
        <ele>229</ele>
        <time>2016-03-10T14:44:03Z</time>
      </trkpt>
      <trkpt lat="43.35426" lon="5.22552">
        <ele>229</ele>
        <time>2016-03-10T14:44:04Z</time>
      </trkpt>
      <trkpt lat="43.35427" lon="5.22554">
        <ele>229</ele>
        <time>2016-03-10T14:44:05Z</time>
      </trkpt>
      <trkpt lat="43.35428" lon="5.22555">
        <ele>229</ele>
        <time>2016-03-10T14:44:06Z</time>
      </trkpt>
      <trkpt lat="43.35429" lon="5.22557">
        <ele>229</ele>
        <time>2016-03-10T14:44:07Z</time>
      </trkpt>
      <trkpt lat="43.3543" lon="5.22559">
        <ele>229</ele>
        <time>2016-03-10T14:44:08Z</time>
      </trkpt>
      <trkpt lat="43.35431" lon="5.2256">
        <ele>229</ele>
        <time>2016-03-10T14:44:09Z</time>
      </trkpt>
      <trkpt lat="43.35432" lon="5.22562">
        <ele>229</ele>
        <time>2016-03-10T14:44:10Z</time>
      </trkpt>
      <trkpt lat="43.35433" lon="5.22564">
        <ele>229</ele>
        <time>2016-03-10T14:44:11Z</time>
      </trkpt>
      <trkpt lat="43.35434" lon="5.22566">
        <ele>229</ele>
        <time>2016-03-10T14:44:12Z</time>
      </trkpt>
      <trkpt lat="43.35435" lon="5.22567">
        <ele>229</ele>
        <time>2016-03-10T14:44:13Z</time>
      </trkpt>
      <trkpt lat="43.35436" lon="5.22569">
        <ele>229</ele>
        <time>2016-03-10T14:44:14Z</time>
      </trkpt>
      <trkpt lat="43.35437" lon="5.22571">
        <ele>229</ele>
        <time>2016-03-10T14:44:15Z</time>
      </trkpt>
      <trkpt lat="43.35437" lon="5.22573">
        <ele>229</ele>
        <time>2016-03-10T14:44:16Z</time>
      </trkpt>
      <trkpt lat="43.35438" lon="5.22575">
        <ele>229</ele>
        <time>2016-03-10T14:44:17Z</time>
      </trkpt>
      <trkpt lat="43.35439" lon="5.22576">
        <ele>229</ele>
        <time>2016-03-10T14:44:18Z</time>
      </trkpt>
      <trkpt lat="43.3544" lon="5.22578">
        <ele>229</ele>
        <time>2016-03-10T14:44:19Z</time>
      </trkpt>
      <trkpt lat="43.35441" lon="5.22579">
        <ele>229</ele>
        <time>2016-03-10T14:44:20Z</time>
      </trkpt>
      <trkpt lat="43.35442" lon="5.2258">
        <ele>229</ele>
        <time>2016-03-10T14:44:21Z</time>
      </trkpt>
      <trkpt lat="43.35444" lon="5.22581">
        <ele>229</ele>
        <time>2016-03-10T14:44:22Z</time>
      </trkpt>
      <trkpt lat="43.35445" lon="5.22582">
        <ele>229</ele>
        <time>2016-03-10T14:44:23Z</time>
      </trkpt>
      <trkpt lat="43.35447" lon="5.22583">
        <ele>229</ele>
        <time>2016-03-10T14:44:24Z</time>
      </trkpt>
      <trkpt lat="43.35449" lon="5.22584">
        <ele>229</ele>
        <time>2016-03-10T14:44:25Z</time>
      </trkpt>
      <trkpt lat="43.3545" lon="5.22584">
        <ele>229</ele>
        <time>2016-03-10T14:44:26Z</time>
      </trkpt>
      <trkpt lat="43.35452" lon="5.22584">
        <ele>229</ele>
        <time>2016-03-10T14:44:27Z</time>
      </trkpt>
      <trkpt lat="43.35454" lon="5.22585">
        <ele>229</ele>
        <time>2016-03-10T14:44:28Z</time>
      </trkpt>
      <trkpt lat="43.35455" lon="5.22585">
        <ele>229</ele>
        <time>2016-03-10T14:44:29Z</time>
      </trkpt>
      <trkpt lat="43.35457" lon="5.22585">
        <ele>229</ele>
        <time>2016-03-10T14:44:30Z</time>
      </trkpt>
      <trkpt lat="43.35458" lon="5.22585">
        <ele>229</ele>
        <time>2016-03-10T14:44:31Z</time>
      </trkpt>
      <trkpt lat="43.3546" lon="5.22585">
        <ele>229</ele>
        <time>2016-03-10T14:44:32Z</time>
      </trkpt>
      <trkpt lat="43.35462" lon="5.22585">
        <ele>229</ele>
        <time>2016-03-10T14:44:33Z</time>
      </trkpt>
      <trkpt lat="43.35463" lon="5.22585">
        <ele>229</ele>
        <time>2016-03-10T14:44:34Z</time>
      </trkpt>
      <trkpt lat="43.35465" lon="5.22586">
        <ele>229</ele>
        <time>2016-03-10T14:44:35Z</time>
      </trkpt>
      <trkpt lat="43.35467" lon="5.22586">
        <ele>229</ele>
        <time>2016-03-10T14:44:36Z</time>
      </trkpt>
      <trkpt lat="43.35468" lon="5.22586">
        <ele>229</ele>
        <time>2016-03-10T14:44:37Z</time>
      </trkpt>
      <trkpt lat="43.3547" lon="5.22586">
        <ele>229</ele>
        <time>2016-03-10T14:44:38Z</time>
      </trkpt>
      <trkpt lat="43.35471" lon="5.22586">
        <ele>229</ele>
        <time>2016-03-10T14:44:39Z</time>
      </trkpt>
      <trkpt lat="43.35473" lon="5.22586">
        <ele>229</ele>
        <time>2016-03-10T14:44:40Z</time>
      </trkpt>
      <trkpt lat="43.35475" lon="5.22586">
        <ele>229</ele>
        <time>2016-03-10T14:44:41Z</time>
      </trkpt>
      <trkpt lat="43.35476" lon="5.22586">
        <ele>229</ele>
        <time>2016-03-10T14:44:42Z</time>
      </trkpt>
      <trkpt lat="43.35478" lon="5.22585">
        <ele>229</ele>
        <time>2016-03-10T14:44:43Z</time>
      </trkpt>
      <trkpt lat="43.35479" lon="5.22585">
        <ele>229</ele>
        <time>2016-03-10T14:44:44Z</time>
      </trkpt>
      <trkpt lat="43.35481" lon="5.22585">
        <ele>229</ele>
        <time>2016-03-10T14:44:45Z</time>
      </trkpt>
      <trkpt lat="43.35482" lon="5.22585">
        <ele>229</ele>
        <time>2016-03-10T14:44:46Z</time>
      </trkpt>
      <trkpt lat="43.35484" lon="5.22585">
        <ele>229</ele>
        <time>2016-03-10T14:44:47Z</time>
      </trkpt>
      <trkpt lat="43.35485" lon="5.22585">
        <ele>229</ele>
        <time>2016-03-10T14:44:48Z</time>
      </trkpt>
      <trkpt lat="43.35487" lon="5.22585">
        <ele>229</ele>
        <time>2016-03-10T14:44:49Z</time>
      </trkpt>
      <trkpt lat="43.35488" lon="5.22584">
        <ele>229</ele>
        <time>2016-03-10T14:44:50Z</time>
      </trkpt>
      <trkpt lat="43.3549" lon="5.22584">
        <ele>229</ele>
        <time>2016-03-10T14:44:51Z</time>
      </trkpt>
      <trkpt lat="43.35492" lon="5.22583">
        <ele>229</ele>
        <time>2016-03-10T14:44:52Z</time>
      </trkpt>
      <trkpt lat="43.35493" lon="5.22583">
        <ele>229</ele>
        <time>2016-03-10T14:44:53Z</time>
      </trkpt>
      <trkpt lat="43.35495" lon="5.22582">
        <ele>229</ele>
        <time>2016-03-10T14:44:54Z</time>
      </trkpt>
      <trkpt lat="43.35496" lon="5.22581">
        <ele>229</ele>
        <time>2016-03-10T14:44:55Z</time>
      </trkpt>
      <trkpt lat="43.35498" lon="5.22581">
        <ele>229</ele>
        <time>2016-03-10T14:44:56Z</time>
      </trkpt>
      <trkpt lat="43.35499" lon="5.2258">
        <ele>229</ele>
        <time>2016-03-10T14:44:57Z</time>
      </trkpt>
      <trkpt lat="43.35501" lon="5.22579">
        <ele>229</ele>
        <time>2016-03-10T14:44:58Z</time>
      </trkpt>
      <trkpt lat="43.35502" lon="5.22579">
        <ele>229</ele>
        <time>2016-03-10T14:44:59Z</time>
      </trkpt>
      <trkpt lat="43.35503" lon="5.22578">
        <ele>229</ele>
        <time>2016-03-10T14:45:00Z</time>
      </trkpt>
      <trkpt lat="43.35505" lon="5.22577">
        <ele>229</ele>
        <time>2016-03-10T14:45:01Z</time>
      </trkpt>
      <trkpt lat="43.35506" lon="5.22576">
        <ele>229</ele>
        <time>2016-03-10T14:45:02Z</time>
      </trkpt>
      <trkpt lat="43.35508" lon="5.22575">
        <ele>229</ele>
        <time>2016-03-10T14:45:03Z</time>
      </trkpt>
      <trkpt lat="43.35509" lon="5.22574">
        <ele>229</ele>
        <time>2016-03-10T14:45:04Z</time>
      </trkpt>
      <trkpt lat="43.35511" lon="5.22574">
        <ele>229</ele>
        <time>2016-03-10T14:45:05Z</time>
      </trkpt>
      <trkpt lat="43.35513" lon="5.22573">
        <ele>229</ele>
        <time>2016-03-10T14:45:06Z</time>
      </trkpt>
      <trkpt lat="43.35514" lon="5.22573">
        <ele>229</ele>
        <time>2016-03-10T14:45:07Z</time>
      </trkpt>
      <trkpt lat="43.35516" lon="5.22572">
        <ele>229</ele>
        <time>2016-03-10T14:45:08Z</time>
      </trkpt>
      <trkpt lat="43.35518" lon="5.22572">
        <ele>229</ele>
        <time>2016-03-10T14:45:09Z</time>
      </trkpt>
      <trkpt lat="43.35519" lon="5.22571">
        <ele>229</ele>
        <time>2016-03-10T14:45:10Z</time>
      </trkpt>
      <trkpt lat="43.35521" lon="5.22571">
        <ele>229</ele>
        <time>2016-03-10T14:45:11Z</time>
      </trkpt>
      <trkpt lat="43.35522" lon="5.22571">
        <ele>229</ele>
        <time>2016-03-10T14:45:12Z</time>
      </trkpt>
      <trkpt lat="43.35524" lon="5.22571">
        <ele>229</ele>
        <time>2016-03-10T14:45:13Z</time>
      </trkpt>
      <trkpt lat="43.35526" lon="5.2257">
        <ele>229</ele>
        <time>2016-03-10T14:45:14Z</time>
      </trkpt>
      <trkpt lat="43.35527" lon="5.2257">
        <ele>229</ele>
        <time>2016-03-10T14:45:15Z</time>
      </trkpt>
      <trkpt lat="43.35529" lon="5.2257">
        <ele>229</ele>
        <time>2016-03-10T14:45:16Z</time>
      </trkpt>
      <trkpt lat="43.3553" lon="5.22569">
        <ele>229</ele>
        <time>2016-03-10T14:45:17Z</time>
      </trkpt>
      <trkpt lat="43.35532" lon="5.22569">
        <ele>229</ele>
        <time>2016-03-10T14:45:18Z</time>
      </trkpt>
      <trkpt lat="43.35534" lon="5.22569">
        <ele>229</ele>
        <time>2016-03-10T14:45:19Z</time>
      </trkpt>
      <trkpt lat="43.35535" lon="5.22568">
        <ele>229</ele>
        <time>2016-03-10T14:45:20Z</time>
      </trkpt>
      <trkpt lat="43.35537" lon="5.22568">
        <ele>229</ele>
        <time>2016-03-10T14:45:21Z</time>
      </trkpt>
      <trkpt lat="43.35538" lon="5.22568">
        <ele>229</ele>
        <time>2016-03-10T14:45:22Z</time>
      </trkpt>
      <trkpt lat="43.3554" lon="5.22567">
        <ele>229</ele>
        <time>2016-03-10T14:45:23Z</time>
      </trkpt>
      <trkpt lat="43.35541" lon="5.22566">
        <ele>229</ele>
        <time>2016-03-10T14:45:24Z</time>
      </trkpt>
      <trkpt lat="43.35543" lon="5.22566">
        <ele>229</ele>
        <time>2016-03-10T14:45:25Z</time>
      </trkpt>
      <trkpt lat="43.35544" lon="5.22565">
        <ele>229</ele>
        <time>2016-03-10T14:45:26Z</time>
      </trkpt>
      <trkpt lat="43.35546" lon="5.22565">
        <ele>229</ele>
        <time>2016-03-10T14:45:27Z</time>
      </trkpt>
      <trkpt lat="43.35547" lon="5.22564">
        <ele>229</ele>
        <time>2016-03-10T14:45:28Z</time>
      </trkpt>
      <trkpt lat="43.35549" lon="5.22564">
        <ele>229</ele>
        <time>2016-03-10T14:45:29Z</time>
      </trkpt>
      <trkpt lat="43.3555" lon="5.22564">
        <ele>229</ele>
        <time>2016-03-10T14:45:30Z</time>
      </trkpt>
      <trkpt lat="43.35552" lon="5.22564">
        <ele>229</ele>
        <time>2016-03-10T14:45:31Z</time>
      </trkpt>
      <trkpt lat="43.35553" lon="5.22564">
        <ele>229</ele>
        <time>2016-03-10T14:45:32Z</time>
      </trkpt>
      <trkpt lat="43.35555" lon="5.22563">
        <ele>229</ele>
        <time>2016-03-10T14:45:33Z</time>
      </trkpt>
      <trkpt lat="43.35556" lon="5.22563">
        <ele>229</ele>
        <time>2016-03-10T14:45:34Z</time>
      </trkpt>
      <trkpt lat="43.35558" lon="5.22563">
        <ele>229</ele>
        <time>2016-03-10T14:45:35Z</time>
      </trkpt>
      <trkpt lat="43.3556" lon="5.22563">
        <ele>229</ele>
        <time>2016-03-10T14:45:36Z</time>
      </trkpt>
      <trkpt lat="43.35561" lon="5.22562">
        <ele>229</ele>
        <time>2016-03-10T14:45:37Z</time>
      </trkpt>
      <trkpt lat="43.35563" lon="5.22562">
        <ele>229</ele>
        <time>2016-03-10T14:45:38Z</time>
      </trkpt>
      <trkpt lat="43.35564" lon="5.22562">
        <ele>229</ele>
        <time>2016-03-10T14:45:39Z</time>
      </trkpt>
      <trkpt lat="43.35565" lon="5.22561">
        <ele>229</ele>
        <time>2016-03-10T14:45:40Z</time>
      </trkpt>
      <trkpt lat="43.35567" lon="5.22561">
        <ele>229</ele>
        <time>2016-03-10T14:45:41Z</time>
      </trkpt>
      <trkpt lat="43.35568" lon="5.22561">
        <ele>229</ele>
        <time>2016-03-10T14:45:42Z</time>
      </trkpt>
      <trkpt lat="43.35569" lon="5.22561">
        <ele>229</ele>
        <time>2016-03-10T14:45:43Z</time>
      </trkpt>
      <trkpt lat="43.35571" lon="5.22561">
        <ele>229</ele>
        <time>2016-03-10T14:45:44Z</time>
      </trkpt>
      <trkpt lat="43.35572" lon="5.22561">
        <ele>229</ele>
        <time>2016-03-10T14:45:45Z</time>
      </trkpt>
      <trkpt lat="43.35574" lon="5.2256">
        <ele>229</ele>
        <time>2016-03-10T14:45:46Z</time>
      </trkpt>
      <trkpt lat="43.35575" lon="5.2256">
        <ele>229</ele>
        <time>2016-03-10T14:45:47Z</time>
      </trkpt>
      <trkpt lat="43.35576" lon="5.2256">
        <ele>229</ele>
        <time>2016-03-10T14:45:48Z</time>
      </trkpt>
      <trkpt lat="43.35578" lon="5.2256">
        <ele>229</ele>
        <time>2016-03-10T14:45:49Z</time>
      </trkpt>
      <trkpt lat="43.35579" lon="5.2256">
        <ele>229</ele>
        <time>2016-03-10T14:45:50Z</time>
      </trkpt>
      <trkpt lat="43.3558" lon="5.2256">
        <ele>229</ele>
        <time>2016-03-10T14:45:51Z</time>
      </trkpt>
      <trkpt lat="43.35582" lon="5.22559">
        <ele>229</ele>
        <time>2016-03-10T14:45:52Z</time>
      </trkpt>
      <trkpt lat="43.35583" lon="5.22559">
        <ele>229</ele>
        <time>2016-03-10T14:45:53Z</time>
      </trkpt>
      <trkpt lat="43.35584" lon="5.22559">
        <ele>229</ele>
        <time>2016-03-10T14:45:54Z</time>
      </trkpt>
      <trkpt lat="43.35586" lon="5.22559">
        <ele>229</ele>
        <time>2016-03-10T14:45:55Z</time>
      </trkpt>
      <trkpt lat="43.35587" lon="5.22559">
        <ele>228</ele>
        <time>2016-03-10T14:45:56Z</time>
      </trkpt>
      <trkpt lat="43.35588" lon="5.22558">
        <ele>228</ele>
        <time>2016-03-10T14:45:57Z</time>
      </trkpt>
      <trkpt lat="43.3559" lon="5.22558">
        <ele>228</ele>
        <time>2016-03-10T14:45:58Z</time>
      </trkpt>
      <trkpt lat="43.35591" lon="5.22558">
        <ele>228</ele>
        <time>2016-03-10T14:45:59Z</time>
      </trkpt>
      <trkpt lat="43.35592" lon="5.22557">
        <ele>228</ele>
        <time>2016-03-10T14:46:00Z</time>
      </trkpt>
      <trkpt lat="43.35594" lon="5.22557">
        <ele>228</ele>
        <time>2016-03-10T14:46:01Z</time>
      </trkpt>
      <trkpt lat="43.35595" lon="5.22557">
        <ele>228</ele>
        <time>2016-03-10T14:46:02Z</time>
      </trkpt>
      <trkpt lat="43.35597" lon="5.22557">
        <ele>228</ele>
        <time>2016-03-10T14:46:03Z</time>
      </trkpt>
      <trkpt lat="43.35598" lon="5.22557">
        <ele>227</ele>
        <time>2016-03-10T14:46:04Z</time>
      </trkpt>
      <trkpt lat="43.356" lon="5.22557">
        <ele>227</ele>
        <time>2016-03-10T14:46:05Z</time>
      </trkpt>
      <trkpt lat="43.35601" lon="5.22557">
        <ele>227</ele>
        <time>2016-03-10T14:46:06Z</time>
      </trkpt>
      <trkpt lat="43.35603" lon="5.22557">
        <ele>227</ele>
        <time>2016-03-10T14:46:07Z</time>
      </trkpt>
      <trkpt lat="43.35604" lon="5.22556">
        <ele>227</ele>
        <time>2016-03-10T14:46:08Z</time>
      </trkpt>
      <trkpt lat="43.35605" lon="5.22556">
        <ele>227</ele>
        <time>2016-03-10T14:46:09Z</time>
      </trkpt>
      <trkpt lat="43.35607" lon="5.22556">
        <ele>227</ele>
        <time>2016-03-10T14:46:10Z</time>
      </trkpt>
      <trkpt lat="43.35608" lon="5.22556">
        <ele>227</ele>
        <time>2016-03-10T14:46:11Z</time>
      </trkpt>
      <trkpt lat="43.3561" lon="5.22555">
        <ele>227</ele>
        <time>2016-03-10T14:46:12Z</time>
      </trkpt>
      <trkpt lat="43.35611" lon="5.22555">
        <ele>227</ele>
        <time>2016-03-10T14:46:13Z</time>
      </trkpt>
      <trkpt lat="43.35612" lon="5.22555">
        <ele>226</ele>
        <time>2016-03-10T14:46:14Z</time>
      </trkpt>
      <trkpt lat="43.35614" lon="5.22554">
        <ele>226</ele>
        <time>2016-03-10T14:46:15Z</time>
      </trkpt>
      <trkpt lat="43.35615" lon="5.22554">
        <ele>226</ele>
        <time>2016-03-10T14:46:16Z</time>
      </trkpt>
      <trkpt lat="43.35617" lon="5.22553">
        <ele>226</ele>
        <time>2016-03-10T14:46:17Z</time>
      </trkpt>
      <trkpt lat="43.35618" lon="5.22553">
        <ele>226</ele>
        <time>2016-03-10T14:46:18Z</time>
      </trkpt>
      <trkpt lat="43.3562" lon="5.22553">
        <ele>226</ele>
        <time>2016-03-10T14:46:19Z</time>
      </trkpt>
      <trkpt lat="43.35621" lon="5.22552">
        <ele>226</ele>
        <time>2016-03-10T14:46:20Z</time>
      </trkpt>
      <trkpt lat="43.35623" lon="5.22552">
        <ele>226</ele>
        <time>2016-03-10T14:46:21Z</time>
      </trkpt>
      <trkpt lat="43.35624" lon="5.22552">
        <ele>226</ele>
        <time>2016-03-10T14:46:22Z</time>
      </trkpt>
      <trkpt lat="43.35625" lon="5.22551">
        <ele>226</ele>
        <time>2016-03-10T14:46:23Z</time>
      </trkpt>
      <trkpt lat="43.35627" lon="5.22551">
        <ele>226</ele>
        <time>2016-03-10T14:46:24Z</time>
      </trkpt>
      <trkpt lat="43.35628" lon="5.22551">
        <ele>226</ele>
        <time>2016-03-10T14:46:25Z</time>
      </trkpt>
      <trkpt lat="43.3563" lon="5.2255">
        <ele>226</ele>
        <time>2016-03-10T14:46:26Z</time>
      </trkpt>
      <trkpt lat="43.35631" lon="5.22551">
        <ele>226</ele>
        <time>2016-03-10T14:46:27Z</time>
      </trkpt>
      <trkpt lat="43.35632" lon="5.22551">
        <ele>225</ele>
        <time>2016-03-10T14:46:28Z</time>
      </trkpt>
      <trkpt lat="43.35634" lon="5.22551">
        <ele>225</ele>
        <time>2016-03-10T14:46:29Z</time>
      </trkpt>
      <trkpt lat="43.35635" lon="5.22552">
        <ele>225</ele>
        <time>2016-03-10T14:46:30Z</time>
      </trkpt>
      <trkpt lat="43.35636" lon="5.22552">
        <ele>225</ele>
        <time>2016-03-10T14:46:31Z</time>
      </trkpt>
      <trkpt lat="43.35638" lon="5.22555">
        <ele>225</ele>
        <time>2016-03-10T14:46:33Z</time>
      </trkpt>
      <trkpt lat="43.35638" lon="5.22556">
        <ele>225</ele>
        <time>2016-03-10T14:46:34Z</time>
      </trkpt>
      <trkpt lat="43.35639" lon="5.22558">
        <ele>224</ele>
        <time>2016-03-10T14:46:35Z</time>
      </trkpt>
      <trkpt lat="43.35638" lon="5.2256">
        <ele>224</ele>
        <time>2016-03-10T14:46:36Z</time>
      </trkpt>
      <trkpt lat="43.35638" lon="5.22562">
        <ele>224</ele>
        <time>2016-03-10T14:46:37Z</time>
      </trkpt>
      <trkpt lat="43.35638" lon="5.22564">
        <ele>224</ele>
        <time>2016-03-10T14:46:38Z</time>
      </trkpt>
      <trkpt lat="43.35637" lon="5.22565">
        <ele>223</ele>
        <time>2016-03-10T14:46:39Z</time>
      </trkpt>
      <trkpt lat="43.35635" lon="5.22567">
        <ele>223</ele>
        <time>2016-03-10T14:46:40Z</time>
      </trkpt>
      <trkpt lat="43.35633" lon="5.2257">
        <ele>223</ele>
        <time>2016-03-10T14:46:42Z</time>
      </trkpt>
      <trkpt lat="43.35632" lon="5.22571">
        <ele>223</ele>
        <time>2016-03-10T14:46:43Z</time>
      </trkpt>
      <trkpt lat="43.35632" lon="5.22573">
        <ele>223</ele>
        <time>2016-03-10T14:46:44Z</time>
      </trkpt>
      <trkpt lat="43.35631" lon="5.22574">
        <ele>223</ele>
        <time>2016-03-10T14:46:45Z</time>
      </trkpt>
      <trkpt lat="43.3563" lon="5.22576">
        <ele>223</ele>
        <time>2016-03-10T14:46:46Z</time>
      </trkpt>
      <trkpt lat="43.3563" lon="5.22577">
        <ele>222</ele>
        <time>2016-03-10T14:46:47Z</time>
      </trkpt>
      <trkpt lat="43.35629" lon="5.22579">
        <ele>222</ele>
        <time>2016-03-10T14:46:48Z</time>
      </trkpt>
      <trkpt lat="43.35629" lon="5.22581">
        <ele>222</ele>
        <time>2016-03-10T14:46:49Z</time>
      </trkpt>
      <trkpt lat="43.35628" lon="5.22582">
        <ele>222</ele>
        <time>2016-03-10T14:46:50Z</time>
      </trkpt>
      <trkpt lat="43.35627" lon="5.22584">
        <ele>222</ele>
        <time>2016-03-10T14:46:51Z</time>
      </trkpt>
      <trkpt lat="43.35625" lon="5.22586">
        <ele>222</ele>
        <time>2016-03-10T14:46:53Z</time>
      </trkpt>
      <trkpt lat="43.35624" lon="5.22587">
        <ele>222</ele>
        <time>2016-03-10T14:46:54Z</time>
      </trkpt>
      <trkpt lat="43.35622" lon="5.22588">
        <ele>222</ele>
        <time>2016-03-10T14:46:55Z</time>
      </trkpt>
      <trkpt lat="43.35621" lon="5.22589">
        <ele>222</ele>
        <time>2016-03-10T14:46:56Z</time>
      </trkpt>
      <trkpt lat="43.3562" lon="5.2259">
        <ele>222</ele>
        <time>2016-03-10T14:46:57Z</time>
      </trkpt>
      <trkpt lat="43.35618" lon="5.22591">
        <ele>222</ele>
        <time>2016-03-10T14:46:58Z</time>
      </trkpt>
      <trkpt lat="43.35617" lon="5.22592">
        <ele>222</ele>
        <time>2016-03-10T14:46:59Z</time>
      </trkpt>
      <trkpt lat="43.35616" lon="5.22593">
        <ele>222</ele>
        <time>2016-03-10T14:47:00Z</time>
      </trkpt>
      <trkpt lat="43.35614" lon="5.22593">
        <ele>222</ele>
        <time>2016-03-10T14:47:01Z</time>
      </trkpt>
      <trkpt lat="43.35612" lon="5.22594">
        <ele>222</ele>
        <time>2016-03-10T14:47:02Z</time>
      </trkpt>
      <trkpt lat="43.35611" lon="5.22594">
        <ele>222</ele>
        <time>2016-03-10T14:47:03Z</time>
      </trkpt>
      <trkpt lat="43.35609" lon="5.22594">
        <ele>222</ele>
        <time>2016-03-10T14:47:04Z</time>
      </trkpt>
      <trkpt lat="43.35608" lon="5.22595">
        <ele>222</ele>
        <time>2016-03-10T14:47:05Z</time>
      </trkpt>
      <trkpt lat="43.35607" lon="5.22596">
        <ele>222</ele>
        <time>2016-03-10T14:47:06Z</time>
      </trkpt>
      <trkpt lat="43.35605" lon="5.22596">
        <ele>222</ele>
        <time>2016-03-10T14:47:07Z</time>
      </trkpt>
      <trkpt lat="43.35604" lon="5.22597">
        <ele>222</ele>
        <time>2016-03-10T14:47:08Z</time>
      </trkpt>
      <trkpt lat="43.35603" lon="5.22597">
        <ele>222</ele>
        <time>2016-03-10T14:47:09Z</time>
      </trkpt>
      <trkpt lat="43.35601" lon="5.22598">
        <ele>222</ele>
        <time>2016-03-10T14:47:10Z</time>
      </trkpt>
      <trkpt lat="43.356" lon="5.22598">
        <ele>222</ele>
        <time>2016-03-10T14:47:11Z</time>
      </trkpt>
      <trkpt lat="43.35598" lon="5.22599">
        <ele>222</ele>
        <time>2016-03-10T14:47:12Z</time>
      </trkpt>
      <trkpt lat="43.35597" lon="5.226">
        <ele>222</ele>
        <time>2016-03-10T14:47:13Z</time>
      </trkpt>
      <trkpt lat="43.35595" lon="5.22601">
        <ele>222</ele>
        <time>2016-03-10T14:47:14Z</time>
      </trkpt>
      <trkpt lat="43.35594" lon="5.22603">
        <ele>222</ele>
        <time>2016-03-10T14:47:15Z</time>
      </trkpt>
      <trkpt lat="43.35593" lon="5.22604">
        <ele>221</ele>
        <time>2016-03-10T14:47:16Z</time>
      </trkpt>
      <trkpt lat="43.35592" lon="5.22605">
        <ele>221</ele>
        <time>2016-03-10T14:47:17Z</time>
      </trkpt>
      <trkpt lat="43.35591" lon="5.22607">
        <ele>221</ele>
        <time>2016-03-10T14:47:18Z</time>
      </trkpt>
      <trkpt lat="43.3559" lon="5.22608">
        <ele>221</ele>
        <time>2016-03-10T14:47:19Z</time>
      </trkpt>
      <trkpt lat="43.35589" lon="5.2261">
        <ele>221</ele>
        <time>2016-03-10T14:47:20Z</time>
      </trkpt>
      <trkpt lat="43.35588" lon="5.22612">
        <ele>221</ele>
        <time>2016-03-10T14:47:21Z</time>
      </trkpt>
      <trkpt lat="43.35587" lon="5.22614">
        <ele>221</ele>
        <time>2016-03-10T14:47:22Z</time>
      </trkpt>
      <trkpt lat="43.35587" lon="5.22616">
        <ele>221</ele>
        <time>2016-03-10T14:47:23Z</time>
      </trkpt>
      <trkpt lat="43.35586" lon="5.22618">
        <ele>221</ele>
        <time>2016-03-10T14:47:24Z</time>
      </trkpt>
      <trkpt lat="43.35585" lon="5.2262">
        <ele>220</ele>
        <time>2016-03-10T14:47:25Z</time>
      </trkpt>
      <trkpt lat="43.35584" lon="5.22621">
        <ele>220</ele>
        <time>2016-03-10T14:47:26Z</time>
      </trkpt>
      <trkpt lat="43.35583" lon="5.22623">
        <ele>220</ele>
        <time>2016-03-10T14:47:27Z</time>
      </trkpt>
      <trkpt lat="43.35582" lon="5.22625">
        <ele>220</ele>
        <time>2016-03-10T14:47:28Z</time>
      </trkpt>
      <trkpt lat="43.35582" lon="5.22627">
        <ele>220</ele>
        <time>2016-03-10T14:47:29Z</time>
      </trkpt>
      <trkpt lat="43.3558" lon="5.22629">
        <ele>220</ele>
        <time>2016-03-10T14:47:30Z</time>
      </trkpt>
      <trkpt lat="43.3558" lon="5.2263">
        <ele>220</ele>
        <time>2016-03-10T14:47:31Z</time>
      </trkpt>
      <trkpt lat="43.35579" lon="5.22632">
        <ele>220</ele>
        <time>2016-03-10T14:47:32Z</time>
      </trkpt>
      <trkpt lat="43.35577" lon="5.22634">
        <ele>220</ele>
        <time>2016-03-10T14:47:33Z</time>
      </trkpt>
      <trkpt lat="43.35576" lon="5.22635">
        <ele>220</ele>
        <time>2016-03-10T14:47:34Z</time>
      </trkpt>
      <trkpt lat="43.35575" lon="5.22637">
        <ele>220</ele>
        <time>2016-03-10T14:47:35Z</time>
      </trkpt>
      <trkpt lat="43.35574" lon="5.22638">
        <ele>220</ele>
        <time>2016-03-10T14:47:36Z</time>
      </trkpt>
      <trkpt lat="43.35573" lon="5.22639">
        <ele>219</ele>
        <time>2016-03-10T14:47:37Z</time>
      </trkpt>
      <trkpt lat="43.35572" lon="5.22641">
        <ele>219</ele>
        <time>2016-03-10T14:47:38Z</time>
      </trkpt>
      <trkpt lat="43.35571" lon="5.22642">
        <ele>219</ele>
        <time>2016-03-10T14:47:39Z</time>
      </trkpt>
      <trkpt lat="43.3557" lon="5.22644">
        <ele>219</ele>
        <time>2016-03-10T14:47:40Z</time>
      </trkpt>
      <trkpt lat="43.35569" lon="5.22645">
        <ele>219</ele>
        <time>2016-03-10T14:47:41Z</time>
      </trkpt>
      <trkpt lat="43.35568" lon="5.22647">
        <ele>219</ele>
        <time>2016-03-10T14:47:42Z</time>
      </trkpt>
      <trkpt lat="43.35568" lon="5.22648">
        <ele>219</ele>
        <time>2016-03-10T14:47:43Z</time>
      </trkpt>
      <trkpt lat="43.35567" lon="5.2265">
        <ele>219</ele>
        <time>2016-03-10T14:47:44Z</time>
      </trkpt>
      <trkpt lat="43.35566" lon="5.22652">
        <ele>219</ele>
        <time>2016-03-10T14:47:45Z</time>
      </trkpt>
      <trkpt lat="43.35566" lon="5.22654">
        <ele>219</ele>
        <time>2016-03-10T14:47:46Z</time>
      </trkpt>
      <trkpt lat="43.35565" lon="5.22656">
        <ele>219</ele>
        <time>2016-03-10T14:47:47Z</time>
      </trkpt>
      <trkpt lat="43.35565" lon="5.22658">
        <ele>219</ele>
        <time>2016-03-10T14:47:48Z</time>
      </trkpt>
      <trkpt lat="43.35564" lon="5.2266">
        <ele>219</ele>
        <time>2016-03-10T14:47:49Z</time>
      </trkpt>
      <trkpt lat="43.35564" lon="5.22662">
        <ele>219</ele>
        <time>2016-03-10T14:47:50Z</time>
      </trkpt>
      <trkpt lat="43.35563" lon="5.22664">
        <ele>219</ele>
        <time>2016-03-10T14:47:51Z</time>
      </trkpt>
      <trkpt lat="43.35563" lon="5.22667">
        <ele>219</ele>
        <time>2016-03-10T14:47:52Z</time>
      </trkpt>
      <trkpt lat="43.35562" lon="5.22669">
        <ele>218</ele>
        <time>2016-03-10T14:47:53Z</time>
      </trkpt>
      <trkpt lat="43.35562" lon="5.22671">
        <ele>218</ele>
        <time>2016-03-10T14:47:54Z</time>
      </trkpt>
      <trkpt lat="43.35561" lon="5.22673">
        <ele>218</ele>
        <time>2016-03-10T14:47:55Z</time>
      </trkpt>
      <trkpt lat="43.35561" lon="5.22675">
        <ele>218</ele>
        <time>2016-03-10T14:47:56Z</time>
      </trkpt>
      <trkpt lat="43.3556" lon="5.22677">
        <ele>218</ele>
        <time>2016-03-10T14:47:57Z</time>
      </trkpt>
      <trkpt lat="43.3556" lon="5.22679">
        <ele>218</ele>
        <time>2016-03-10T14:47:58Z</time>
      </trkpt>
      <trkpt lat="43.35559" lon="5.22681">
        <ele>218</ele>
        <time>2016-03-10T14:47:59Z</time>
      </trkpt>
      <trkpt lat="43.35558" lon="5.22683">
        <ele>218</ele>
        <time>2016-03-10T14:48:00Z</time>
      </trkpt>
      <trkpt lat="43.35558" lon="5.22685">
        <ele>218</ele>
        <time>2016-03-10T14:48:01Z</time>
      </trkpt>
      <trkpt lat="43.35557" lon="5.22686">
        <ele>218</ele>
        <time>2016-03-10T14:48:02Z</time>
      </trkpt>
      <trkpt lat="43.35556" lon="5.22688">
        <ele>218</ele>
        <time>2016-03-10T14:48:03Z</time>
      </trkpt>
      <trkpt lat="43.35555" lon="5.2269">
        <ele>218</ele>
        <time>2016-03-10T14:48:04Z</time>
      </trkpt>
      <trkpt lat="43.35555" lon="5.22692">
        <ele>218</ele>
        <time>2016-03-10T14:48:05Z</time>
      </trkpt>
      <trkpt lat="43.35553" lon="5.22693">
        <ele>218</ele>
        <time>2016-03-10T14:48:06Z</time>
      </trkpt>
      <trkpt lat="43.35553" lon="5.22695">
        <ele>218</ele>
        <time>2016-03-10T14:48:07Z</time>
      </trkpt>
      <trkpt lat="43.35552" lon="5.22697">
        <ele>218</ele>
        <time>2016-03-10T14:48:08Z</time>
      </trkpt>
      <trkpt lat="43.35551" lon="5.22698">
        <ele>218</ele>
        <time>2016-03-10T14:48:09Z</time>
      </trkpt>
      <trkpt lat="43.3555" lon="5.227">
        <ele>218</ele>
        <time>2016-03-10T14:48:10Z</time>
      </trkpt>
      <trkpt lat="43.35549" lon="5.22701">
        <ele>218</ele>
        <time>2016-03-10T14:48:11Z</time>
      </trkpt>
      <trkpt lat="43.35548" lon="5.22703">
        <ele>218</ele>
        <time>2016-03-10T14:48:12Z</time>
      </trkpt>
      <trkpt lat="43.35548" lon="5.22704">
        <ele>218</ele>
        <time>2016-03-10T14:48:13Z</time>
      </trkpt>
      <trkpt lat="43.35547" lon="5.22706">
        <ele>218</ele>
        <time>2016-03-10T14:48:14Z</time>
      </trkpt>
      <trkpt lat="43.35546" lon="5.22708">
        <ele>218</ele>
        <time>2016-03-10T14:48:15Z</time>
      </trkpt>
      <trkpt lat="43.35546" lon="5.2271">
        <ele>218</ele>
        <time>2016-03-10T14:48:16Z</time>
      </trkpt>
      <trkpt lat="43.35545" lon="5.22712">
        <ele>218</ele>
        <time>2016-03-10T14:48:17Z</time>
      </trkpt>
      <trkpt lat="43.35545" lon="5.22714">
        <ele>218</ele>
        <time>2016-03-10T14:48:18Z</time>
      </trkpt>
      <trkpt lat="43.35545" lon="5.22716">
        <ele>218</ele>
        <time>2016-03-10T14:48:19Z</time>
      </trkpt>
      <trkpt lat="43.35545" lon="5.22717">
        <ele>218</ele>
        <time>2016-03-10T14:48:20Z</time>
      </trkpt>
      <trkpt lat="43.35545" lon="5.22719">
        <ele>218</ele>
        <time>2016-03-10T14:48:21Z</time>
      </trkpt>
      <trkpt lat="43.35545" lon="5.22721">
        <ele>218</ele>
        <time>2016-03-10T14:48:22Z</time>
      </trkpt>
      <trkpt lat="43.35545" lon="5.22723">
        <ele>218</ele>
        <time>2016-03-10T14:48:23Z</time>
      </trkpt>
      <trkpt lat="43.35545" lon="5.22725">
        <ele>218</ele>
        <time>2016-03-10T14:48:24Z</time>
      </trkpt>
      <trkpt lat="43.35546" lon="5.22727">
        <ele>217</ele>
        <time>2016-03-10T14:48:25Z</time>
      </trkpt>
      <trkpt lat="43.35546" lon="5.22729">
        <ele>217</ele>
        <time>2016-03-10T14:48:26Z</time>
      </trkpt>
      <trkpt lat="43.35546" lon="5.22731">
        <ele>217</ele>
        <time>2016-03-10T14:48:27Z</time>
      </trkpt>
      <trkpt lat="43.35547" lon="5.22732">
        <ele>217</ele>
        <time>2016-03-10T14:48:28Z</time>
      </trkpt>
      <trkpt lat="43.35547" lon="5.22734">
        <ele>217</ele>
        <time>2016-03-10T14:48:29Z</time>
      </trkpt>
      <trkpt lat="43.35548" lon="5.22736">
        <ele>217</ele>
        <time>2016-03-10T14:48:30Z</time>
      </trkpt>
      <trkpt lat="43.35548" lon="5.22738">
        <ele>217</ele>
        <time>2016-03-10T14:48:31Z</time>
      </trkpt>
      <trkpt lat="43.35548" lon="5.2274">
        <ele>217</ele>
        <time>2016-03-10T14:48:32Z</time>
      </trkpt>
      <trkpt lat="43.35548" lon="5.22742">
        <ele>217</ele>
        <time>2016-03-10T14:48:33Z</time>
      </trkpt>
      <trkpt lat="43.35548" lon="5.22744">
        <ele>216</ele>
        <time>2016-03-10T14:48:34Z</time>
      </trkpt>
      <trkpt lat="43.35548" lon="5.22745">
        <ele>216</ele>
        <time>2016-03-10T14:48:35Z</time>
      </trkpt>
      <trkpt lat="43.35551" lon="5.22747">
        <ele>216</ele>
        <time>2016-03-10T14:48:37Z</time>
      </trkpt>
      <trkpt lat="43.35552" lon="5.22748">
        <ele>216</ele>
        <time>2016-03-10T14:48:38Z</time>
      </trkpt>
      <trkpt lat="43.35554" lon="5.22748">
        <ele>216</ele>
        <time>2016-03-10T14:48:39Z</time>
      </trkpt>
      <trkpt lat="43.35556" lon="5.22749">
        <ele>216</ele>
        <time>2016-03-10T14:48:40Z</time>
      </trkpt>
      <trkpt lat="43.35557" lon="5.22749">
        <ele>215</ele>
        <time>2016-03-10T14:48:41Z</time>
      </trkpt>
      <trkpt lat="43.35559" lon="5.2275">
        <ele>215</ele>
        <time>2016-03-10T14:48:42Z</time>
      </trkpt>
      <trkpt lat="43.3556" lon="5.2275">
        <ele>215</ele>
        <time>2016-03-10T14:48:43Z</time>
      </trkpt>
      <trkpt lat="43.35562" lon="5.2275">
        <ele>215</ele>
        <time>2016-03-10T14:48:44Z</time>
      </trkpt>
      <trkpt lat="43.35564" lon="5.22751">
        <ele>215</ele>
        <time>2016-03-10T14:48:45Z</time>
      </trkpt>
      <trkpt lat="43.35565" lon="5.22751">
        <ele>215</ele>
        <time>2016-03-10T14:48:46Z</time>
      </trkpt>
      <trkpt lat="43.35567" lon="5.22752">
        <ele>215</ele>
        <time>2016-03-10T14:48:47Z</time>
      </trkpt>
      <trkpt lat="43.35569" lon="5.22752">
        <ele>215</ele>
        <time>2016-03-10T14:48:48Z</time>
      </trkpt>
      <trkpt lat="43.3557" lon="5.22753">
        <ele>215</ele>
        <time>2016-03-10T14:48:49Z</time>
      </trkpt>
      <trkpt lat="43.35572" lon="5.22753">
        <ele>215</ele>
        <time>2016-03-10T14:48:50Z</time>
      </trkpt>
      <trkpt lat="43.35573" lon="5.22753">
        <ele>215</ele>
        <time>2016-03-10T14:48:51Z</time>
      </trkpt>
      <trkpt lat="43.35575" lon="5.22754">
        <ele>215</ele>
        <time>2016-03-10T14:48:52Z</time>
      </trkpt>
      <trkpt lat="43.35577" lon="5.22754">
        <ele>215</ele>
        <time>2016-03-10T14:48:53Z</time>
      </trkpt>
      <trkpt lat="43.35578" lon="5.22755">
        <ele>215</ele>
        <time>2016-03-10T14:48:54Z</time>
      </trkpt>
      <trkpt lat="43.3558" lon="5.22756">
        <ele>214</ele>
        <time>2016-03-10T14:48:55Z</time>
      </trkpt>
      <trkpt lat="43.35581" lon="5.22757">
        <ele>214</ele>
        <time>2016-03-10T14:48:56Z</time>
      </trkpt>
      <trkpt lat="43.35583" lon="5.22758">
        <ele>214</ele>
        <time>2016-03-10T14:48:57Z</time>
      </trkpt>
      <trkpt lat="43.35584" lon="5.22758">
        <ele>214</ele>
        <time>2016-03-10T14:48:58Z</time>
      </trkpt>
      <trkpt lat="43.35586" lon="5.22759">
        <ele>214</ele>
        <time>2016-03-10T14:48:59Z</time>
      </trkpt>
      <trkpt lat="43.35587" lon="5.2276">
        <ele>214</ele>
        <time>2016-03-10T14:49:00Z</time>
      </trkpt>
      <trkpt lat="43.35589" lon="5.22761">
        <ele>214</ele>
        <time>2016-03-10T14:49:01Z</time>
      </trkpt>
      <trkpt lat="43.3559" lon="5.22762">
        <ele>214</ele>
        <time>2016-03-10T14:49:02Z</time>
      </trkpt>
      <trkpt lat="43.35592" lon="5.22762">
        <ele>214</ele>
        <time>2016-03-10T14:49:03Z</time>
      </trkpt>
      <trkpt lat="43.35593" lon="5.22763">
        <ele>214</ele>
        <time>2016-03-10T14:49:04Z</time>
      </trkpt>
      <trkpt lat="43.35595" lon="5.22764">
        <ele>214</ele>
        <time>2016-03-10T14:49:05Z</time>
      </trkpt>
      <trkpt lat="43.35596" lon="5.22765">
        <ele>214</ele>
        <time>2016-03-10T14:49:06Z</time>
      </trkpt>
      <trkpt lat="43.35598" lon="5.22766">
        <ele>214</ele>
        <time>2016-03-10T14:49:07Z</time>
      </trkpt>
      <trkpt lat="43.356" lon="5.22767">
        <ele>214</ele>
        <time>2016-03-10T14:49:08Z</time>
      </trkpt>
      <trkpt lat="43.35601" lon="5.22768">
        <ele>214</ele>
        <time>2016-03-10T14:49:09Z</time>
      </trkpt>
      <trkpt lat="43.35603" lon="5.22769">
        <ele>214</ele>
        <time>2016-03-10T14:49:10Z</time>
      </trkpt>
      <trkpt lat="43.35604" lon="5.2277">
        <ele>214</ele>
        <time>2016-03-10T14:49:11Z</time>
      </trkpt>
      <trkpt lat="43.35605" lon="5.22771">
        <ele>214</ele>
        <time>2016-03-10T14:49:12Z</time>
      </trkpt>
      <trkpt lat="43.35607" lon="5.22772">
        <ele>214</ele>
        <time>2016-03-10T14:49:13Z</time>
      </trkpt>
      <trkpt lat="43.35608" lon="5.22773">
        <ele>214</ele>
        <time>2016-03-10T14:49:14Z</time>
      </trkpt>
      <trkpt lat="43.35609" lon="5.22774">
        <ele>214</ele>
        <time>2016-03-10T14:49:15Z</time>
      </trkpt>
      <trkpt lat="43.35611" lon="5.22775">
        <ele>214</ele>
        <time>2016-03-10T14:49:16Z</time>
      </trkpt>
      <trkpt lat="43.35612" lon="5.22777">
        <ele>214</ele>
        <time>2016-03-10T14:49:17Z</time>
      </trkpt>
      <trkpt lat="43.35614" lon="5.22778">
        <ele>214</ele>
        <time>2016-03-10T14:49:18Z</time>
      </trkpt>
      <trkpt lat="43.35615" lon="5.22779">
        <ele>214</ele>
        <time>2016-03-10T14:49:19Z</time>
      </trkpt>
      <trkpt lat="43.35617" lon="5.2278">
        <ele>214</ele>
        <time>2016-03-10T14:49:20Z</time>
      </trkpt>
      <trkpt lat="43.35618" lon="5.22781">
        <ele>214</ele>
        <time>2016-03-10T14:49:21Z</time>
      </trkpt>
      <trkpt lat="43.35619" lon="5.22782">
        <ele>214</ele>
        <time>2016-03-10T14:49:22Z</time>
      </trkpt>
      <trkpt lat="43.3562" lon="5.22784">
        <ele>214</ele>
        <time>2016-03-10T14:49:23Z</time>
      </trkpt>
      <trkpt lat="43.35622" lon="5.22785">
        <ele>214</ele>
        <time>2016-03-10T14:49:24Z</time>
      </trkpt>
      <trkpt lat="43.35623" lon="5.22786">
        <ele>214</ele>
        <time>2016-03-10T14:49:25Z</time>
      </trkpt>
      <trkpt lat="43.35624" lon="5.22788">
        <ele>214</ele>
        <time>2016-03-10T14:49:26Z</time>
      </trkpt>
      <trkpt lat="43.35626" lon="5.22789">
        <ele>214</ele>
        <time>2016-03-10T14:49:27Z</time>
      </trkpt>
      <trkpt lat="43.35627" lon="5.2279">
        <ele>214</ele>
        <time>2016-03-10T14:49:28Z</time>
      </trkpt>
      <trkpt lat="43.35628" lon="5.22791">
        <ele>214</ele>
        <time>2016-03-10T14:49:29Z</time>
      </trkpt>
      <trkpt lat="43.3563" lon="5.22792">
        <ele>214</ele>
        <time>2016-03-10T14:49:30Z</time>
      </trkpt>
      <trkpt lat="43.35631" lon="5.22793">
        <ele>214</ele>
        <time>2016-03-10T14:49:31Z</time>
      </trkpt>
      <trkpt lat="43.35632" lon="5.22794">
        <ele>214</ele>
        <time>2016-03-10T14:49:32Z</time>
      </trkpt>
      <trkpt lat="43.35634" lon="5.22795">
        <ele>214</ele>
        <time>2016-03-10T14:49:33Z</time>
      </trkpt>
      <trkpt lat="43.35635" lon="5.22797">
        <ele>214</ele>
        <time>2016-03-10T14:49:34Z</time>
      </trkpt>
      <trkpt lat="43.35636" lon="5.22798">
        <ele>214</ele>
        <time>2016-03-10T14:49:35Z</time>
      </trkpt>
      <trkpt lat="43.35638" lon="5.22799">
        <ele>214</ele>
        <time>2016-03-10T14:49:36Z</time>
      </trkpt>
      <trkpt lat="43.35639" lon="5.228">
        <ele>214</ele>
        <time>2016-03-10T14:49:37Z</time>
      </trkpt>
      <trkpt lat="43.3564" lon="5.22801">
        <ele>214</ele>
        <time>2016-03-10T14:49:38Z</time>
      </trkpt>
      <trkpt lat="43.35642" lon="5.22802">
        <ele>214</ele>
        <time>2016-03-10T14:49:39Z</time>
      </trkpt>
      <trkpt lat="43.35643" lon="5.22803">
        <ele>214</ele>
        <time>2016-03-10T14:49:40Z</time>
      </trkpt>
      <trkpt lat="43.35645" lon="5.22804">
        <ele>214</ele>
        <time>2016-03-10T14:49:41Z</time>
      </trkpt>
      <trkpt lat="43.35646" lon="5.22806">
        <ele>214</ele>
        <time>2016-03-10T14:49:42Z</time>
      </trkpt>
      <trkpt lat="43.35648" lon="5.22807">
        <ele>214</ele>
        <time>2016-03-10T14:49:43Z</time>
      </trkpt>
      <trkpt lat="43.35649" lon="5.22808">
        <ele>214</ele>
        <time>2016-03-10T14:49:44Z</time>
      </trkpt>
      <trkpt lat="43.35651" lon="5.22809">
        <ele>214</ele>
        <time>2016-03-10T14:49:45Z</time>
      </trkpt>
      <trkpt lat="43.35652" lon="5.2281">
        <ele>214</ele>
        <time>2016-03-10T14:49:46Z</time>
      </trkpt>
      <trkpt lat="43.35653" lon="5.22811">
        <ele>214</ele>
        <time>2016-03-10T14:49:47Z</time>
      </trkpt>
      <trkpt lat="43.35655" lon="5.22812">
        <ele>214</ele>
        <time>2016-03-10T14:49:48Z</time>
      </trkpt>
      <trkpt lat="43.35656" lon="5.22813">
        <ele>214</ele>
        <time>2016-03-10T14:49:49Z</time>
      </trkpt>
      <trkpt lat="43.35658" lon="5.22814">
        <ele>214</ele>
        <time>2016-03-10T14:49:50Z</time>
      </trkpt>
      <trkpt lat="43.35659" lon="5.22815">
        <ele>214</ele>
        <time>2016-03-10T14:49:51Z</time>
      </trkpt>
      <trkpt lat="43.3566" lon="5.22817">
        <ele>214</ele>
        <time>2016-03-10T14:49:52Z</time>
      </trkpt>
      <trkpt lat="43.35661" lon="5.22818">
        <ele>214</ele>
        <time>2016-03-10T14:49:53Z</time>
      </trkpt>
      <trkpt lat="43.35663" lon="5.22819">
        <ele>214</ele>
        <time>2016-03-10T14:49:54Z</time>
      </trkpt>
      <trkpt lat="43.35664" lon="5.22821">
        <ele>214</ele>
        <time>2016-03-10T14:49:55Z</time>
      </trkpt>
      <trkpt lat="43.35665" lon="5.22823">
        <ele>214</ele>
        <time>2016-03-10T14:49:56Z</time>
      </trkpt>
      <trkpt lat="43.35666" lon="5.22824">
        <ele>214</ele>
        <time>2016-03-10T14:49:57Z</time>
      </trkpt>
      <trkpt lat="43.35667" lon="5.22826">
        <ele>214</ele>
        <time>2016-03-10T14:49:58Z</time>
      </trkpt>
      <trkpt lat="43.35667" lon="5.22828">
        <ele>214</ele>
        <time>2016-03-10T14:49:59Z</time>
      </trkpt>
      <trkpt lat="43.35668" lon="5.2283">
        <ele>214</ele>
        <time>2016-03-10T14:50:00Z</time>
      </trkpt>
      <trkpt lat="43.35669" lon="5.22832">
        <ele>214</ele>
        <time>2016-03-10T14:50:01Z</time>
      </trkpt>
      <trkpt lat="43.35669" lon="5.22834">
        <ele>214</ele>
        <time>2016-03-10T14:50:02Z</time>
      </trkpt>
      <trkpt lat="43.3567" lon="5.22836">
        <ele>214</ele>
        <time>2016-03-10T14:50:03Z</time>
      </trkpt>
      <trkpt lat="43.3567" lon="5.22838">
        <ele>214</ele>
        <time>2016-03-10T14:50:04Z</time>
      </trkpt>
      <trkpt lat="43.3567" lon="5.2284">
        <ele>214</ele>
        <time>2016-03-10T14:50:05Z</time>
      </trkpt>
      <trkpt lat="43.35671" lon="5.22843">
        <ele>214</ele>
        <time>2016-03-10T14:50:06Z</time>
      </trkpt>
      <trkpt lat="43.35671" lon="5.22845">
        <ele>214</ele>
        <time>2016-03-10T14:50:07Z</time>
      </trkpt>
      <trkpt lat="43.35672" lon="5.22847">
        <ele>214</ele>
        <time>2016-03-10T14:50:08Z</time>
      </trkpt>
      <trkpt lat="43.35672" lon="5.22849">
        <ele>214</ele>
        <time>2016-03-10T14:50:09Z</time>
      </trkpt>
      <trkpt lat="43.35673" lon="5.22851">
        <ele>214</ele>
        <time>2016-03-10T14:50:10Z</time>
      </trkpt>
      <trkpt lat="43.35673" lon="5.22853">
        <ele>214</ele>
        <time>2016-03-10T14:50:11Z</time>
      </trkpt>
      <trkpt lat="43.35674" lon="5.22855">
        <ele>214</ele>
        <time>2016-03-10T14:50:12Z</time>
      </trkpt>
      <trkpt lat="43.35674" lon="5.22856">
        <ele>214</ele>
        <time>2016-03-10T14:50:13Z</time>
      </trkpt>
      <trkpt lat="43.35675" lon="5.22858">
        <ele>214</ele>
        <time>2016-03-10T14:50:14Z</time>
      </trkpt>
      <trkpt lat="43.35675" lon="5.2286">
        <ele>214</ele>
        <time>2016-03-10T14:50:15Z</time>
      </trkpt>
      <trkpt lat="43.35675" lon="5.22862">
        <ele>214</ele>
        <time>2016-03-10T14:50:16Z</time>
      </trkpt>
      <trkpt lat="43.35675" lon="5.22864">
        <ele>214</ele>
        <time>2016-03-10T14:50:17Z</time>
      </trkpt>
      <trkpt lat="43.35675" lon="5.22866">
        <ele>214</ele>
        <time>2016-03-10T14:50:18Z</time>
      </trkpt>
      <trkpt lat="43.35676" lon="5.22868">
        <ele>214</ele>
        <time>2016-03-10T14:50:19Z</time>
      </trkpt>
      <trkpt lat="43.35676" lon="5.2287">
        <ele>214</ele>
        <time>2016-03-10T14:50:20Z</time>
      </trkpt>
      <trkpt lat="43.35676" lon="5.22872">
        <ele>214</ele>
        <time>2016-03-10T14:50:21Z</time>
      </trkpt>
      <trkpt lat="43.35677" lon="5.22874">
        <ele>214</ele>
        <time>2016-03-10T14:50:22Z</time>
      </trkpt>
      <trkpt lat="43.35677" lon="5.22876">
        <ele>214</ele>
        <time>2016-03-10T14:50:23Z</time>
      </trkpt>
      <trkpt lat="43.35677" lon="5.22878">
        <ele>214</ele>
        <time>2016-03-10T14:50:24Z</time>
      </trkpt>
      <trkpt lat="43.35677" lon="5.2288">
        <ele>214</ele>
        <time>2016-03-10T14:50:25Z</time>
      </trkpt>
      <trkpt lat="43.35677" lon="5.22883">
        <ele>214</ele>
        <time>2016-03-10T14:50:26Z</time>
      </trkpt>
      <trkpt lat="43.35678" lon="5.22885">
        <ele>214</ele>
        <time>2016-03-10T14:50:27Z</time>
      </trkpt>
      <trkpt lat="43.35678" lon="5.22886">
        <ele>214</ele>
        <time>2016-03-10T14:50:28Z</time>
      </trkpt>
      <trkpt lat="43.35679" lon="5.22888">
        <ele>214</ele>
        <time>2016-03-10T14:50:29Z</time>
      </trkpt>
      <trkpt lat="43.35679" lon="5.2289">
        <ele>214</ele>
        <time>2016-03-10T14:50:30Z</time>
      </trkpt>
      <trkpt lat="43.35679" lon="5.22892">
        <ele>214</ele>
        <time>2016-03-10T14:50:31Z</time>
      </trkpt>
      <trkpt lat="43.35679" lon="5.22894">
        <ele>214</ele>
        <time>2016-03-10T14:50:32Z</time>
      </trkpt>
      <trkpt lat="43.3568" lon="5.22896">
        <ele>214</ele>
        <time>2016-03-10T14:50:33Z</time>
      </trkpt>
      <trkpt lat="43.3568" lon="5.22898">
        <ele>214</ele>
        <time>2016-03-10T14:50:34Z</time>
      </trkpt>
      <trkpt lat="43.3568" lon="5.229">
        <ele>214</ele>
        <time>2016-03-10T14:50:35Z</time>
      </trkpt>
      <trkpt lat="43.35681" lon="5.22902">
        <ele>214</ele>
        <time>2016-03-10T14:50:36Z</time>
      </trkpt>
      <trkpt lat="43.35681" lon="5.22904">
        <ele>214</ele>
        <time>2016-03-10T14:50:37Z</time>
      </trkpt>
      <trkpt lat="43.35682" lon="5.22906">
        <ele>214</ele>
        <time>2016-03-10T14:50:38Z</time>
      </trkpt>
      <trkpt lat="43.35682" lon="5.22907">
        <ele>214</ele>
        <time>2016-03-10T14:50:39Z</time>
      </trkpt>
      <trkpt lat="43.35682" lon="5.22909">
        <ele>214</ele>
        <time>2016-03-10T14:50:40Z</time>
      </trkpt>
      <trkpt lat="43.35683" lon="5.22911">
        <ele>214</ele>
        <time>2016-03-10T14:50:41Z</time>
      </trkpt>
      <trkpt lat="43.35683" lon="5.22913">
        <ele>214</ele>
        <time>2016-03-10T14:50:42Z</time>
      </trkpt>
      <trkpt lat="43.35683" lon="5.22915">
        <ele>214</ele>
        <time>2016-03-10T14:50:43Z</time>
      </trkpt>
      <trkpt lat="43.35684" lon="5.22917">
        <ele>214</ele>
        <time>2016-03-10T14:50:44Z</time>
      </trkpt>
      <trkpt lat="43.35684" lon="5.22918">
        <ele>214</ele>
        <time>2016-03-10T14:50:45Z</time>
      </trkpt>
      <trkpt lat="43.35685" lon="5.2292">
        <ele>214</ele>
        <time>2016-03-10T14:50:46Z</time>
      </trkpt>
      <trkpt lat="43.35685" lon="5.22922">
        <ele>214</ele>
        <time>2016-03-10T14:50:47Z</time>
      </trkpt>
      <trkpt lat="43.35685" lon="5.22923">
        <ele>214</ele>
        <time>2016-03-10T14:50:48Z</time>
      </trkpt>
      <trkpt lat="43.35686" lon="5.22925">
        <ele>214</ele>
        <time>2016-03-10T14:50:49Z</time>
      </trkpt>
      <trkpt lat="43.35686" lon="5.22927">
        <ele>214</ele>
        <time>2016-03-10T14:50:50Z</time>
      </trkpt>
      <trkpt lat="43.35686" lon="5.22928">
        <ele>214</ele>
        <time>2016-03-10T14:50:51Z</time>
      </trkpt>
      <trkpt lat="43.35687" lon="5.2293">
        <ele>214</ele>
        <time>2016-03-10T14:50:52Z</time>
      </trkpt>
      <trkpt lat="43.35687" lon="5.22932">
        <ele>215</ele>
        <time>2016-03-10T14:50:53Z</time>
      </trkpt>
      <trkpt lat="43.35688" lon="5.22934">
        <ele>215</ele>
        <time>2016-03-10T14:50:54Z</time>
      </trkpt>
      <trkpt lat="43.35688" lon="5.22936">
        <ele>215</ele>
        <time>2016-03-10T14:50:55Z</time>
      </trkpt>
      <trkpt lat="43.35688" lon="5.22937">
        <ele>215</ele>
        <time>2016-03-10T14:50:56Z</time>
      </trkpt>
      <trkpt lat="43.35689" lon="5.22939">
        <ele>215</ele>
        <time>2016-03-10T14:50:57Z</time>
      </trkpt>
      <trkpt lat="43.35689" lon="5.22941">
        <ele>215</ele>
        <time>2016-03-10T14:50:58Z</time>
      </trkpt>
      <trkpt lat="43.35689" lon="5.22942">
        <ele>215</ele>
        <time>2016-03-10T14:50:59Z</time>
      </trkpt>
      <trkpt lat="43.35689" lon="5.22944">
        <ele>215</ele>
        <time>2016-03-10T14:51:00Z</time>
      </trkpt>
      <trkpt lat="43.3569" lon="5.22946">
        <ele>215</ele>
        <time>2016-03-10T14:51:01Z</time>
      </trkpt>
      <trkpt lat="43.3569" lon="5.22948">
        <ele>215</ele>
        <time>2016-03-10T14:51:02Z</time>
      </trkpt>
      <trkpt lat="43.3569" lon="5.2295">
        <ele>215</ele>
        <time>2016-03-10T14:51:03Z</time>
      </trkpt>
      <trkpt lat="43.3569" lon="5.22952">
        <ele>215</ele>
        <time>2016-03-10T14:51:04Z</time>
      </trkpt>
      <trkpt lat="43.3569" lon="5.22954">
        <ele>215</ele>
        <time>2016-03-10T14:51:05Z</time>
      </trkpt>
      <trkpt lat="43.35691" lon="5.22956">
        <ele>215</ele>
        <time>2016-03-10T14:51:06Z</time>
      </trkpt>
      <trkpt lat="43.35692" lon="5.22958">
        <ele>215</ele>
        <time>2016-03-10T14:51:08Z</time>
      </trkpt>
      <trkpt lat="43.35693" lon="5.2296">
        <ele>215</ele>
        <time>2016-03-10T14:51:09Z</time>
      </trkpt>
      <trkpt lat="43.35693" lon="5.22961">
        <ele>215</ele>
        <time>2016-03-10T14:51:10Z</time>
      </trkpt>
      <trkpt lat="43.35694" lon="5.22963">
        <ele>215</ele>
        <time>2016-03-10T14:51:11Z</time>
      </trkpt>
      <trkpt lat="43.35696" lon="5.22965">
        <ele>215</ele>
        <time>2016-03-10T14:51:13Z</time>
      </trkpt>
      <trkpt lat="43.35697" lon="5.22967">
        <ele>215</ele>
        <time>2016-03-10T14:51:14Z</time>
      </trkpt>
      <trkpt lat="43.35699" lon="5.22969">
        <ele>215</ele>
        <time>2016-03-10T14:51:16Z</time>
      </trkpt>
      <trkpt lat="43.35701" lon="5.2297">
        <ele>215</ele>
        <time>2016-03-10T14:51:17Z</time>
      </trkpt>
      <trkpt lat="43.35703" lon="5.22972">
        <ele>215</ele>
        <time>2016-03-10T14:51:19Z</time>
      </trkpt>
      <trkpt lat="43.35704" lon="5.22974">
        <ele>215</ele>
        <time>2016-03-10T14:51:21Z</time>
      </trkpt>
      <trkpt lat="43.35706" lon="5.22975">
        <ele>215</ele>
        <time>2016-03-10T14:51:22Z</time>
      </trkpt>
      <trkpt lat="43.35707" lon="5.22976">
        <ele>215</ele>
        <time>2016-03-10T14:51:23Z</time>
      </trkpt>
      <trkpt lat="43.35708" lon="5.22977">
        <ele>215</ele>
        <time>2016-03-10T14:51:24Z</time>
      </trkpt>
      <trkpt lat="43.35709" lon="5.22978">
        <ele>215</ele>
        <time>2016-03-10T14:51:25Z</time>
      </trkpt>
      <trkpt lat="43.3571" lon="5.22979">
        <ele>215</ele>
        <time>2016-03-10T14:51:26Z</time>
      </trkpt>
      <trkpt lat="43.35712" lon="5.2298">
        <ele>215</ele>
        <time>2016-03-10T14:51:27Z</time>
      </trkpt>
      <trkpt lat="43.35713" lon="5.22981">
        <ele>215</ele>
        <time>2016-03-10T14:51:28Z</time>
      </trkpt>
      <trkpt lat="43.35714" lon="5.22982">
        <ele>215</ele>
        <time>2016-03-10T14:51:29Z</time>
      </trkpt>
      <trkpt lat="43.35716" lon="5.22984">
        <ele>215</ele>
        <time>2016-03-10T14:51:31Z</time>
      </trkpt>
      <trkpt lat="43.35717" lon="5.22985">
        <ele>215</ele>
        <time>2016-03-10T14:51:32Z</time>
      </trkpt>
      <trkpt lat="43.35719" lon="5.22986">
        <ele>215</ele>
        <time>2016-03-10T14:51:34Z</time>
      </trkpt>
      <trkpt lat="43.3572" lon="5.22987">
        <ele>215</ele>
        <time>2016-03-10T14:51:35Z</time>
      </trkpt>
      <trkpt lat="43.35723" lon="5.22989">
        <ele>215</ele>
        <time>2016-03-10T14:51:37Z</time>
      </trkpt>
      <trkpt lat="43.35724" lon="5.22991">
        <ele>215</ele>
        <time>2016-03-10T14:51:39Z</time>
      </trkpt>
      <trkpt lat="43.35725" lon="5.22993">
        <ele>215</ele>
        <time>2016-03-10T14:51:41Z</time>
      </trkpt>
      <trkpt lat="43.35727" lon="5.22996">
        <ele>215</ele>
        <time>2016-03-10T14:51:43Z</time>
      </trkpt>
      <trkpt lat="43.35729" lon="5.22998">
        <ele>215</ele>
        <time>2016-03-10T14:51:45Z</time>
      </trkpt>
      <trkpt lat="43.35731" lon="5.23">
        <ele>215</ele>
        <time>2016-03-10T14:51:47Z</time>
      </trkpt>
      <trkpt lat="43.35732" lon="5.23002">
        <ele>215</ele>
        <time>2016-03-10T14:51:49Z</time>
      </trkpt>
      <trkpt lat="43.35734" lon="5.23003">
        <ele>215</ele>
        <time>2016-03-10T14:51:51Z</time>
      </trkpt>
      <trkpt lat="43.35736" lon="5.23005">
        <ele>215</ele>
        <time>2016-03-10T14:51:53Z</time>
      </trkpt>
      <trkpt lat="43.35738" lon="5.23007">
        <ele>215</ele>
        <time>2016-03-10T14:51:55Z</time>
      </trkpt>
      <trkpt lat="43.35739" lon="5.23009">
        <ele>215</ele>
        <time>2016-03-10T14:51:57Z</time>
      </trkpt>
      <trkpt lat="43.3574" lon="5.23011">
        <ele>215</ele>
        <time>2016-03-10T14:51:59Z</time>
      </trkpt>
      <trkpt lat="43.35741" lon="5.23013">
        <ele>215</ele>
        <time>2016-03-10T14:52:01Z</time>
      </trkpt>
      <trkpt lat="43.35742" lon="5.23015">
        <ele>215</ele>
        <time>2016-03-10T14:52:02Z</time>
      </trkpt>
    </trkseg>
  </trk>
</gpx>